<?xml version='1.0' encoding='UTF-8'?><gpx version="1.1" creator="JPX - https://github.com/jenetics/jpx" xmlns="http://www.topografix.com/GPX/1/1"><trk><trkseg><trkpt lat="44.8344696" lon="1.0919236"><ele>65.0</ele><time>2026-04-06T15:31:39.736Z</time></trkpt><trkpt lat="44.834411" lon="1.0919621"><ele>65.0</ele><time>2026-04-06T15:31:43.764Z</time></trkpt><trkpt lat="44.8343763" lon="1.0920365"><ele>65.0</ele><time>2026-04-06T15:31:49.763Z</time></trkpt><trkpt lat="44.8342958" lon="1.0920613"><ele>65.0</ele><time>2026-04-06T15:31:57.755Z</time></trkpt><trkpt lat="44.8341966" lon="1.0920459"><ele>65.0</ele><time>2026-04-06T15:32:00.762Z</time></trkpt><trkpt lat="44.8341076" lon="1.0920995"><ele>65.0</ele><time>2026-04-06T15:32:02.765Z</time></trkpt><trkpt lat="44.8340245" lon="1.0921674"><ele>64.83333333333334</ele><time>2026-04-06T15:32:04.756Z</time></trkpt><trkpt lat="44.8339419" lon="1.092256"><ele>64.66666666666667</ele><time>2026-04-06T15:32:06.755Z</time></trkpt><trkpt lat="44.8338632" lon="1.092332"><ele>64.5</ele><time>2026-04-06T15:32:08.764Z</time></trkpt><trkpt lat="44.8338021" lon="1.0923973"><ele>64.33333333333333</ele><time>2026-04-06T15:32:10.763Z</time></trkpt><trkpt lat="44.8337556" lon="1.0924627"><ele>64.16666666666666</ele><time>2026-04-06T15:32:12.763Z</time></trkpt><trkpt lat="44.8337043" lon="1.092537"><ele>64.0</ele><time>2026-04-06T15:32:15.761Z</time></trkpt><trkpt lat="44.8336239" lon="1.0925811"><ele>64.0</ele><time>2026-04-06T15:32:18.764Z</time></trkpt><trkpt lat="44.8335571" lon="1.0925568"><ele>63.99999999999999</ele><time>2026-04-06T15:32:20.764Z</time></trkpt><trkpt lat="44.8335146" lon="1.0924718"><ele>64.0</ele><time>2026-04-06T15:32:22.763Z</time></trkpt><trkpt lat="44.8334943" lon="1.0923801"><ele>64.0</ele><time>2026-04-06T15:32:24.761Z</time></trkpt><trkpt lat="44.8334892" lon="1.0922913"><ele>63.99999999999999</ele><time>2026-04-06T15:32:26.759Z</time></trkpt><trkpt lat="44.8335218" lon="1.0921907"><ele>64.0</ele><time>2026-04-06T15:32:31.761Z</time></trkpt><trkpt lat="44.8335803" lon="1.0921303"><ele>64.0</ele><time>2026-04-06T15:32:35.767Z</time></trkpt><trkpt lat="44.8336629" lon="1.0920646"><ele>64.0</ele><time>2026-04-06T15:32:38.787Z</time></trkpt><trkpt lat="44.8337187" lon="1.0920178"><ele>63.99999999999999</ele><time>2026-04-06T15:32:40.757Z</time></trkpt><trkpt lat="44.8337748" lon="1.0919706"><ele>64.0</ele><time>2026-04-06T15:32:42.762Z</time></trkpt><trkpt lat="44.8338322" lon="1.091922"><ele>64.0</ele><time>2026-04-06T15:32:44.76Z</time></trkpt><trkpt lat="44.8338886" lon="1.091877"><ele>63.99999999999999</ele><time>2026-04-06T15:32:46.759Z</time></trkpt><trkpt lat="44.8339294" lon="1.0918082"><ele>64.0</ele><time>2026-04-06T15:32:51.781Z</time></trkpt><trkpt lat="44.8339063" lon="1.0917037"><ele>64.0</ele><time>2026-04-06T15:32:55.766Z</time></trkpt><trkpt lat="44.8339353" lon="1.0915944"><ele>63.400000000000006</ele><time>2026-04-06T15:32:57.768Z</time></trkpt><trkpt lat="44.8339539" lon="1.0914599"><ele>62.800000000000004</ele><time>2026-04-06T15:32:59.77Z</time></trkpt><trkpt lat="44.8339633" lon="1.0913106"><ele>62.199999999999996</ele><time>2026-04-06T15:33:01.758Z</time></trkpt><trkpt lat="44.8339641" lon="1.0911656"><ele>61.599999999999994</ele><time>2026-04-06T15:33:03.763Z</time></trkpt><trkpt lat="44.8339603" lon="1.0910269"><ele>61.0</ele><time>2026-04-06T15:33:05.777Z</time></trkpt><trkpt lat="44.8339389" lon="1.0908714"><ele>60.99999999999999</ele><time>2026-04-06T15:33:07.763Z</time></trkpt><trkpt lat="44.8339216" lon="1.0907849"><ele>61.0</ele><time>2026-04-06T15:33:08.757Z</time></trkpt><trkpt lat="44.8339005" lon="1.0906938"><ele>61.0</ele><time>2026-04-06T15:33:09.766Z</time></trkpt><trkpt lat="44.833882" lon="1.0906004"><ele>61.0</ele><time>2026-04-06T15:33:10.758Z</time></trkpt><trkpt lat="44.8338662" lon="1.0905076"><ele>60.99999999999999</ele><time>2026-04-06T15:33:11.766Z</time></trkpt><trkpt lat="44.833849" lon="1.0904209"><ele>61.0</ele><time>2026-04-06T15:33:12.758Z</time></trkpt><trkpt lat="44.833808" lon="1.0902653"><ele>60.8</ele><time>2026-04-06T15:33:14.769Z</time></trkpt><trkpt lat="44.8337672" lon="1.0901262"><ele>60.599999999999994</ele><time>2026-04-06T15:33:16.755Z</time></trkpt><trkpt lat="44.833736" lon="1.0900136"><ele>60.4</ele><time>2026-04-06T15:33:18.76Z</time></trkpt><trkpt lat="44.8337389" lon="1.089885"><ele>60.2</ele><time>2026-04-06T15:33:21.757Z</time></trkpt><trkpt lat="44.8337629" lon="1.0897566"><ele>60.0</ele><time>2026-04-06T15:33:23.78Z</time></trkpt><trkpt lat="44.8338346" lon="1.0896282"><ele>60.0</ele><time>2026-04-06T15:33:25.783Z</time></trkpt><trkpt lat="44.83394" lon="1.0895338"><ele>60.0</ele><time>2026-04-06T15:33:27.76Z</time></trkpt><trkpt lat="44.8339991" lon="1.0894876"><ele>60.0</ele><time>2026-04-06T15:33:28.754Z</time></trkpt><trkpt lat="44.834056" lon="1.0894466"><ele>60.0</ele><time>2026-04-06T15:33:29.759Z</time></trkpt><trkpt lat="44.8341396" lon="1.0893863"><ele>60.0</ele><time>2026-04-06T15:33:31.759Z</time></trkpt><trkpt lat="44.8342273" lon="1.0893359"><ele>60.0</ele><time>2026-04-06T15:33:36.765Z</time></trkpt><trkpt lat="44.8342958" lon="1.0892916"><ele>60.166666666666664</ele><time>2026-04-06T15:33:38.761Z</time></trkpt><trkpt lat="44.8343671" lon="1.0892561"><ele>60.33333333333333</ele><time>2026-04-06T15:33:41.769Z</time></trkpt><trkpt lat="44.8344529" lon="1.0892411"><ele>60.5</ele><time>2026-04-06T15:33:44.764Z</time></trkpt><trkpt lat="44.8345401" lon="1.0892032"><ele>60.666666666666664</ele><time>2026-04-06T15:33:46.761Z</time></trkpt><trkpt lat="44.8346182" lon="1.0891495"><ele>60.83333333333333</ele><time>2026-04-06T15:33:48.777Z</time></trkpt><trkpt lat="44.8346813" lon="1.0890977"><ele>61.0</ele><time>2026-04-06T15:33:50.763Z</time></trkpt><trkpt lat="44.8347342" lon="1.0890358"><ele>60.99999999999999</ele><time>2026-04-06T15:33:53.764Z</time></trkpt><trkpt lat="44.8347643" lon="1.0889544"><ele>61.0</ele><time>2026-04-06T15:33:56.785Z</time></trkpt><trkpt lat="44.8347673" lon="1.088828"><ele>61.0</ele><time>2026-04-06T15:33:58.764Z</time></trkpt><trkpt lat="44.8347621" lon="1.0886798"><ele>61.0</ele><time>2026-04-06T15:34:00.763Z</time></trkpt><trkpt lat="44.8347296" lon="1.0885755"><ele>60.99999999999999</ele><time>2026-04-06T15:34:02.759Z</time></trkpt><trkpt lat="44.8346835" lon="1.088478"><ele>61.0</ele><time>2026-04-06T15:34:04.756Z</time></trkpt><trkpt lat="44.834654" lon="1.088396"><ele>60.99999999999999</ele><time>2026-04-06T15:34:06.756Z</time></trkpt><trkpt lat="44.834673" lon="1.0883033"><ele>61.0</ele><time>2026-04-06T15:34:10.76Z</time></trkpt><trkpt lat="44.834664" lon="1.0883917"><ele>60.99999999999999</ele><time>2026-04-06T15:34:34.763Z</time></trkpt><trkpt lat="44.8346967" lon="1.0884847"><ele>60.99999999999999</ele><time>2026-04-06T15:34:37.766Z</time></trkpt><trkpt lat="44.8347363" lon="1.0885711"><ele>61.0</ele><time>2026-04-06T15:34:39.756Z</time></trkpt><trkpt lat="44.8347663" lon="1.088667"><ele>60.99999999999999</ele><time>2026-04-06T15:34:41.76Z</time></trkpt><trkpt lat="44.8347817" lon="1.0887578"><ele>60.99999999999999</ele><time>2026-04-06T15:34:43.768Z</time></trkpt><trkpt lat="44.8347882" lon="1.0888618"><ele>60.99999999999999</ele><time>2026-04-06T15:34:46.766Z</time></trkpt><trkpt lat="44.8347822" lon="1.0889881"><ele>61.0</ele><time>2026-04-06T15:34:49.761Z</time></trkpt><trkpt lat="44.8347597" lon="1.0890835"><ele>61.0</ele><time>2026-04-06T15:34:52.757Z</time></trkpt><trkpt lat="44.8346944" lon="1.0891558"><ele>61.0</ele><time>2026-04-06T15:34:55.76Z</time></trkpt><trkpt lat="44.8346372" lon="1.089203"><ele>60.99999999999999</ele><time>2026-04-06T15:34:57.783Z</time></trkpt><trkpt lat="44.8345628" lon="1.089248"><ele>61.0</ele><time>2026-04-06T15:35:00.759Z</time></trkpt><trkpt lat="44.83449" lon="1.089278"><ele>60.99999999999999</ele><time>2026-04-06T15:35:02.79Z</time></trkpt><trkpt lat="44.8344146" lon="1.0892923"><ele>61.0</ele><time>2026-04-06T15:35:04.761Z</time></trkpt><trkpt lat="44.8343284" lon="1.0893282"><ele>61.0</ele><time>2026-04-06T15:35:07.757Z</time></trkpt><trkpt lat="44.8342692" lon="1.0893665"><ele>61.0</ele><time>2026-04-06T15:35:09.76Z</time></trkpt><trkpt lat="44.8342045" lon="1.0894046"><ele>60.99999999999999</ele><time>2026-04-06T15:35:12.76Z</time></trkpt><trkpt lat="44.8341211" lon="1.0894749"><ele>61.0</ele><time>2026-04-06T15:35:14.764Z</time></trkpt><trkpt lat="44.8340146" lon="1.0895608"><ele>60.83333333333333</ele><time>2026-04-06T15:35:16.759Z</time></trkpt><trkpt lat="44.8339366" lon="1.0896293"><ele>60.666666666666664</ele><time>2026-04-06T15:35:18.758Z</time></trkpt><trkpt lat="44.8338638" lon="1.0897184"><ele>60.5</ele><time>2026-04-06T15:35:24.755Z</time></trkpt><trkpt lat="44.8338264" lon="1.0897914"><ele>60.33333333333333</ele><time>2026-04-06T15:35:26.762Z</time></trkpt><trkpt lat="44.8337947" lon="1.0898973"><ele>60.166666666666664</ele><time>2026-04-06T15:35:29.762Z</time></trkpt><trkpt lat="44.8337801" lon="1.0899868"><ele>60.0</ele><time>2026-04-06T15:35:31.757Z</time></trkpt><trkpt lat="44.8337831" lon="1.0900968"><ele>60.666666666666664</ele><time>2026-04-06T15:35:33.759Z</time></trkpt><trkpt lat="44.8338149" lon="1.0902114"><ele>61.33333333333333</ele><time>2026-04-06T15:35:35.766Z</time></trkpt><trkpt lat="44.8338545" lon="1.0903448"><ele>62.0</ele><time>2026-04-06T15:35:37.765Z</time></trkpt><trkpt lat="44.8338805" lon="1.0904688"><ele>62.666666666666664</ele><time>2026-04-06T15:35:39.764Z</time></trkpt><trkpt lat="44.8338991" lon="1.0905636"><ele>63.33333333333333</ele><time>2026-04-06T15:35:46.761Z</time></trkpt><trkpt lat="44.8339133" lon="1.0906593"><ele>64.0</ele><time>2026-04-06T15:35:51.763Z</time></trkpt><trkpt lat="44.8339293" lon="1.0907544"><ele>63.49999999999999</ele><time>2026-04-06T15:35:54.759Z</time></trkpt><trkpt lat="44.8339578" lon="1.0908651"><ele>63.0</ele><time>2026-04-06T15:35:57.761Z</time></trkpt><trkpt lat="44.8339891" lon="1.0909803"><ele>62.5</ele><time>2026-04-06T15:36:00.767Z</time></trkpt><trkpt lat="44.8340277" lon="1.0910962"><ele>62.0</ele><time>2026-04-06T15:36:03.761Z</time></trkpt><trkpt lat="44.8340689" lon="1.0911756"><ele>61.49999999999999</ele><time>2026-04-06T15:36:05.766Z</time></trkpt><trkpt lat="44.8341217" lon="1.0912469"><ele>61.0</ele><time>2026-04-06T15:36:07.766Z</time></trkpt><trkpt lat="44.8341842" lon="1.091311"><ele>60.99999999999999</ele><time>2026-04-06T15:36:09.758Z</time></trkpt><trkpt lat="44.8342471" lon="1.091365"><ele>61.0</ele><time>2026-04-06T15:36:11.759Z</time></trkpt><trkpt lat="44.8343138" lon="1.0914326"><ele>61.0</ele><time>2026-04-06T15:36:14.767Z</time></trkpt><trkpt lat="44.8343858" lon="1.09145"><ele>61.0</ele><time>2026-04-06T15:36:18.768Z</time></trkpt><trkpt lat="44.8344454" lon="1.0914099"><ele>60.99999999999999</ele><time>2026-04-06T15:36:20.764Z</time></trkpt><trkpt lat="44.834529" lon="1.0913342"><ele>61.0</ele><time>2026-04-06T15:36:22.761Z</time></trkpt><trkpt lat="44.8346324" lon="1.0912342"><ele>61.428571428571416</ele><time>2026-04-06T15:36:24.756Z</time></trkpt><trkpt lat="44.8346895" lon="1.0911768"><ele>61.857142857142854</ele><time>2026-04-06T15:36:25.779Z</time></trkpt><trkpt lat="44.8347476" lon="1.0911156"><ele>62.28571428571428</ele><time>2026-04-06T15:36:26.757Z</time></trkpt><trkpt lat="44.8348073" lon="1.0910515"><ele>62.71428571428571</ele><time>2026-04-06T15:36:27.783Z</time></trkpt><trkpt lat="44.8348671" lon="1.0909854"><ele>63.14285714285714</ele><time>2026-04-06T15:36:28.763Z</time></trkpt><trkpt lat="44.8349274" lon="1.0909255"><ele>63.57142857142857</ele><time>2026-04-06T15:36:29.76Z</time></trkpt><trkpt lat="44.8349932" lon="1.0908643"><ele>64.0</ele><time>2026-04-06T15:36:30.784Z</time></trkpt><trkpt lat="44.8350642" lon="1.0908019"><ele>63.99999999999999</ele><time>2026-04-06T15:36:31.76Z</time></trkpt><trkpt lat="44.8351343" lon="1.090743"><ele>64.0</ele><time>2026-04-06T15:36:32.784Z</time></trkpt><trkpt lat="44.8352025" lon="1.0906851"><ele>64.0</ele><time>2026-04-06T15:36:33.764Z</time></trkpt><trkpt lat="44.8352739" lon="1.0906286"><ele>64.0</ele><time>2026-04-06T15:36:34.761Z</time></trkpt><trkpt lat="44.8353457" lon="1.0905724"><ele>63.99999999999999</ele><time>2026-04-06T15:36:35.765Z</time></trkpt><trkpt lat="44.8354179" lon="1.0905195"><ele>64.0</ele><time>2026-04-06T15:36:36.763Z</time></trkpt><trkpt lat="44.8354932" lon="1.0904714"><ele>63.99999999999999</ele><time>2026-04-06T15:36:37.76Z</time></trkpt><trkpt lat="44.835569" lon="1.0904209"><ele>64.0</ele><time>2026-04-06T15:36:38.793Z</time></trkpt><trkpt lat="44.8356445" lon="1.0903656"><ele>64.0</ele><time>2026-04-06T15:36:39.76Z</time></trkpt><trkpt lat="44.8357187" lon="1.0903078"><ele>64.0</ele><time>2026-04-06T15:36:40.755Z</time></trkpt><trkpt lat="44.8357951" lon="1.0902489"><ele>63.99999999999999</ele><time>2026-04-06T15:36:41.763Z</time></trkpt><trkpt lat="44.8358716" lon="1.0901909"><ele>64.0</ele><time>2026-04-06T15:36:42.761Z</time></trkpt><trkpt lat="44.83595" lon="1.0901354"><ele>63.99999999999999</ele><time>2026-04-06T15:36:43.767Z</time></trkpt><trkpt lat="44.8360283" lon="1.0900796"><ele>64.0</ele><time>2026-04-06T15:36:44.77Z</time></trkpt><trkpt lat="44.8361066" lon="1.0900258"><ele>64.0</ele><time>2026-04-06T15:36:45.758Z</time></trkpt><trkpt lat="44.8361839" lon="1.0899778"><ele>64.0</ele><time>2026-04-06T15:36:46.762Z</time></trkpt><trkpt lat="44.8362645" lon="1.0899375"><ele>63.99999999999999</ele><time>2026-04-06T15:36:47.762Z</time></trkpt><trkpt lat="44.8363479" lon="1.089903"><ele>64.0</ele><time>2026-04-06T15:36:48.764Z</time></trkpt><trkpt lat="44.8364345" lon="1.0898786"><ele>64.0</ele><time>2026-04-06T15:36:49.756Z</time></trkpt><trkpt lat="44.8365243" lon="1.0898653"><ele>64.0</ele><time>2026-04-06T15:36:50.759Z</time></trkpt><trkpt lat="44.8366149" lon="1.0898571"><ele>64.0</ele><time>2026-04-06T15:36:51.763Z</time></trkpt><trkpt lat="44.8367058" lon="1.0898532"><ele>64.0</ele><time>2026-04-06T15:36:52.758Z</time></trkpt><trkpt lat="44.8367977" lon="1.0898487"><ele>64.0</ele><time>2026-04-06T15:36:53.781Z</time></trkpt><trkpt lat="44.8368887" lon="1.0898423"><ele>63.800000000000004</ele><time>2026-04-06T15:36:54.76Z</time></trkpt><trkpt lat="44.8369798" lon="1.0898317"><ele>63.60000000000001</ele><time>2026-04-06T15:36:55.762Z</time></trkpt><trkpt lat="44.8370708" lon="1.08982"><ele>63.4</ele><time>2026-04-06T15:36:56.76Z</time></trkpt><trkpt lat="44.8371619" lon="1.0898086"><ele>63.2</ele><time>2026-04-06T15:36:57.759Z</time></trkpt><trkpt lat="44.8372535" lon="1.0897983"><ele>63.0</ele><time>2026-04-06T15:36:58.76Z</time></trkpt><trkpt lat="44.8373432" lon="1.0897856"><ele>63.0</ele><time>2026-04-06T15:36:59.792Z</time></trkpt><trkpt lat="44.8374337" lon="1.089775"><ele>63.0</ele><time>2026-04-06T15:37:00.759Z</time></trkpt><trkpt lat="44.8375246" lon="1.0897655"><ele>63.0</ele><time>2026-04-06T15:37:01.758Z</time></trkpt><trkpt lat="44.8376145" lon="1.0897594"><ele>63.0</ele><time>2026-04-06T15:37:02.756Z</time></trkpt><trkpt lat="44.8377005" lon="1.0897603"><ele>63.0</ele><time>2026-04-06T15:37:03.762Z</time></trkpt><trkpt lat="44.8377828" lon="1.0897591"><ele>63.0</ele><time>2026-04-06T15:37:04.766Z</time></trkpt><trkpt lat="44.8378684" lon="1.0897419"><ele>63.4</ele><time>2026-04-06T15:37:05.757Z</time></trkpt><trkpt lat="44.8379484" lon="1.0896923"><ele>63.8</ele><time>2026-04-06T15:37:06.761Z</time></trkpt><trkpt lat="44.8380264" lon="1.089624"><ele>64.2</ele><time>2026-04-06T15:37:07.761Z</time></trkpt><trkpt lat="44.8381036" lon="1.0895438"><ele>64.6</ele><time>2026-04-06T15:37:08.757Z</time></trkpt><trkpt lat="44.8381798" lon="1.0894587"><ele>65.0</ele><time>2026-04-06T15:37:09.757Z</time></trkpt><trkpt lat="44.838253" lon="1.0893783"><ele>65.0</ele><time>2026-04-06T15:37:10.762Z</time></trkpt><trkpt lat="44.838327" lon="1.0892983"><ele>65.0</ele><time>2026-04-06T15:37:11.779Z</time></trkpt><trkpt lat="44.8384005" lon="1.089215"><ele>65.0</ele><time>2026-04-06T15:37:12.762Z</time></trkpt><trkpt lat="44.8384679" lon="1.0891248"><ele>65.0</ele><time>2026-04-06T15:37:13.761Z</time></trkpt><trkpt lat="44.8385307" lon="1.0890283"><ele>65.0</ele><time>2026-04-06T15:37:14.761Z</time></trkpt><trkpt lat="44.8385878" lon="1.0889259"><ele>64.6</ele><time>2026-04-06T15:37:15.761Z</time></trkpt><trkpt lat="44.8386417" lon="1.088821"><ele>64.2</ele><time>2026-04-06T15:37:16.757Z</time></trkpt><trkpt lat="44.8386918" lon="1.0887186"><ele>63.8</ele><time>2026-04-06T15:37:17.764Z</time></trkpt><trkpt lat="44.838739" lon="1.0886232"><ele>63.4</ele><time>2026-04-06T15:37:18.758Z</time></trkpt><trkpt lat="44.8387836" lon="1.0885411"><ele>63.0</ele><time>2026-04-06T15:37:19.761Z</time></trkpt><trkpt lat="44.838866" lon="1.0884191"><ele>63.0</ele><time>2026-04-06T15:37:21.763Z</time></trkpt><trkpt lat="44.8389668" lon="1.0883481"><ele>63.0</ele><time>2026-04-06T15:37:23.761Z</time></trkpt><trkpt lat="44.8390455" lon="1.0883218"><ele>63.0</ele><time>2026-04-06T15:37:25.762Z</time></trkpt><trkpt lat="44.8391222" lon="1.0882763"><ele>63.0</ele><time>2026-04-06T15:37:27.763Z</time></trkpt><trkpt lat="44.839203" lon="1.0881212"><ele>63.0</ele><time>2026-04-06T15:37:29.761Z</time></trkpt><trkpt lat="44.8392519" lon="1.0880251"><ele>63.0</ele><time>2026-04-06T15:37:30.763Z</time></trkpt><trkpt lat="44.839309" lon="1.0879266"><ele>63.0</ele><time>2026-04-06T15:37:31.757Z</time></trkpt><trkpt lat="44.839377" lon="1.0878312"><ele>63.0</ele><time>2026-04-06T15:37:32.755Z</time></trkpt><trkpt lat="44.8394524" lon="1.0877354"><ele>63.0</ele><time>2026-04-06T15:37:33.762Z</time></trkpt><trkpt lat="44.839536" lon="1.0876421"><ele>63.0</ele><time>2026-04-06T15:37:34.762Z</time></trkpt><trkpt lat="44.8396243" lon="1.0875496"><ele>63.0</ele><time>2026-04-06T15:37:35.763Z</time></trkpt><trkpt lat="44.8397177" lon="1.0874592"><ele>63.0</ele><time>2026-04-06T15:37:36.756Z</time></trkpt><trkpt lat="44.8398118" lon="1.0873714"><ele>63.0</ele><time>2026-04-06T15:37:37.758Z</time></trkpt><trkpt lat="44.8399072" lon="1.087289"><ele>63.0</ele><time>2026-04-06T15:37:38.762Z</time></trkpt><trkpt lat="44.8400012" lon="1.0872131"><ele>63.0</ele><time>2026-04-06T15:37:39.773Z</time></trkpt><trkpt lat="44.8400946" lon="1.0871365"><ele>63.4</ele><time>2026-04-06T15:37:40.759Z</time></trkpt><trkpt lat="44.8401851" lon="1.0870551"><ele>63.8</ele><time>2026-04-06T15:37:41.782Z</time></trkpt><trkpt lat="44.840276" lon="1.0869739"><ele>64.2</ele><time>2026-04-06T15:37:42.764Z</time></trkpt><trkpt lat="44.8403645" lon="1.0868804"><ele>64.6</ele><time>2026-04-06T15:37:43.762Z</time></trkpt><trkpt lat="44.840452" lon="1.0867846"><ele>65.0</ele><time>2026-04-06T15:37:44.756Z</time></trkpt><trkpt lat="44.8405375" lon="1.0866861"><ele>64.2</ele><time>2026-04-06T15:37:45.759Z</time></trkpt><trkpt lat="44.8406214" lon="1.0865845"><ele>63.4</ele><time>2026-04-06T15:37:46.777Z</time></trkpt><trkpt lat="44.8407051" lon="1.0864824"><ele>62.599999999999994</ele><time>2026-04-06T15:37:47.762Z</time></trkpt><trkpt lat="44.8407888" lon="1.0863795"><ele>61.8</ele><time>2026-04-06T15:37:48.755Z</time></trkpt><trkpt lat="44.8408721" lon="1.0862783"><ele>61.0</ele><time>2026-04-06T15:37:49.761Z</time></trkpt><trkpt lat="44.8409569" lon="1.086179"><ele>62.0</ele><time>2026-04-06T15:37:50.768Z</time></trkpt><trkpt lat="44.8410437" lon="1.0860792"><ele>63.0</ele><time>2026-04-06T15:37:51.761Z</time></trkpt><trkpt lat="44.8411308" lon="1.0859788"><ele>64.0</ele><time>2026-04-06T15:37:52.762Z</time></trkpt><trkpt lat="44.8412208" lon="1.0858736"><ele>65.0</ele><time>2026-04-06T15:37:53.756Z</time></trkpt><trkpt lat="44.8413105" lon="1.0857631"><ele>64.25</ele><time>2026-04-06T15:37:54.759Z</time></trkpt><trkpt lat="44.8414021" lon="1.0856479"><ele>63.5</ele><time>2026-04-06T15:37:55.757Z</time></trkpt><trkpt lat="44.841494" lon="1.0855294"><ele>62.75</ele><time>2026-04-06T15:37:56.763Z</time></trkpt><trkpt lat="44.8415879" lon="1.0854059"><ele>62.0</ele><time>2026-04-06T15:37:57.765Z</time></trkpt><trkpt lat="44.841679" lon="1.0852767"><ele>62.0</ele><time>2026-04-06T15:37:58.763Z</time></trkpt><trkpt lat="44.8417693" lon="1.0851406"><ele>62.0</ele><time>2026-04-06T15:37:59.767Z</time></trkpt><trkpt lat="44.8418565" lon="1.0849993"><ele>62.0</ele><time>2026-04-06T15:38:00.761Z</time></trkpt><trkpt lat="44.8419406" lon="1.0848498"><ele>62.0</ele><time>2026-04-06T15:38:01.767Z</time></trkpt><trkpt lat="44.8420216" lon="1.0846966"><ele>62.0</ele><time>2026-04-06T15:38:02.77Z</time></trkpt><trkpt lat="44.8421034" lon="1.0845413"><ele>62.0</ele><time>2026-04-06T15:38:03.768Z</time></trkpt><trkpt lat="44.8421856" lon="1.0843863"><ele>62.0</ele><time>2026-04-06T15:38:04.761Z</time></trkpt><trkpt lat="44.8422672" lon="1.0842332"><ele>62.0</ele><time>2026-04-06T15:38:05.759Z</time></trkpt><trkpt lat="44.8423449" lon="1.0840864"><ele>62.0</ele><time>2026-04-06T15:38:06.764Z</time></trkpt><trkpt lat="44.8424214" lon="1.0839457"><ele>62.0</ele><time>2026-04-06T15:38:07.761Z</time></trkpt><trkpt lat="44.8424974" lon="1.0838087"><ele>62.0</ele><time>2026-04-06T15:38:08.77Z</time></trkpt><trkpt lat="44.8425759" lon="1.0836791"><ele>62.0</ele><time>2026-04-06T15:38:09.761Z</time></trkpt><trkpt lat="44.8426659" lon="1.0835668"><ele>62.0</ele><time>2026-04-06T15:38:10.764Z</time></trkpt><trkpt lat="44.842768" lon="1.0834751"><ele>62.0</ele><time>2026-04-06T15:38:11.762Z</time></trkpt><trkpt lat="44.8428795" lon="1.083404"><ele>62.0</ele><time>2026-04-06T15:38:12.767Z</time></trkpt><trkpt lat="44.8429961" lon="1.0833532"><ele>62.0</ele><time>2026-04-06T15:38:13.773Z</time></trkpt><trkpt lat="44.8431176" lon="1.0833227"><ele>62.0</ele><time>2026-04-06T15:38:14.763Z</time></trkpt><trkpt lat="44.8432413" lon="1.0833028"><ele>62.0</ele><time>2026-04-06T15:38:15.78Z</time></trkpt><trkpt lat="44.8433652" lon="1.0832862"><ele>62.0</ele><time>2026-04-06T15:38:16.757Z</time></trkpt><trkpt lat="44.8434888" lon="1.083268"><ele>62.0</ele><time>2026-04-06T15:38:17.761Z</time></trkpt><trkpt lat="44.8436118" lon="1.0832431"><ele>61.75</ele><time>2026-04-06T15:38:18.764Z</time></trkpt><trkpt lat="44.8437341" lon="1.0832148"><ele>61.5</ele><time>2026-04-06T15:38:19.762Z</time></trkpt><trkpt lat="44.8438541" lon="1.083174"><ele>61.25</ele><time>2026-04-06T15:38:20.786Z</time></trkpt><trkpt lat="44.8439663" lon="1.0831115"><ele>61.0</ele><time>2026-04-06T15:38:21.763Z</time></trkpt><trkpt lat="44.8440694" lon="1.08303"><ele>61.0</ele><time>2026-04-06T15:38:22.76Z</time></trkpt><trkpt lat="44.8441626" lon="1.0829319"><ele>60.99999999999999</ele><time>2026-04-06T15:38:23.756Z</time></trkpt><trkpt lat="44.8442519" lon="1.0828294"><ele>60.99999999999999</ele><time>2026-04-06T15:38:24.76Z</time></trkpt><trkpt lat="44.8443367" lon="1.0827286"><ele>61.0</ele><time>2026-04-06T15:38:25.762Z</time></trkpt><trkpt lat="44.8444185" lon="1.0826329"><ele>61.0</ele><time>2026-04-06T15:38:26.763Z</time></trkpt><trkpt lat="44.8444972" lon="1.0825396"><ele>61.166666666666664</ele><time>2026-04-06T15:38:27.756Z</time></trkpt><trkpt lat="44.8445716" lon="1.0824528"><ele>61.33333333333333</ele><time>2026-04-06T15:38:28.763Z</time></trkpt><trkpt lat="44.8446405" lon="1.0823748"><ele>61.5</ele><time>2026-04-06T15:38:29.76Z</time></trkpt><trkpt lat="44.8447072" lon="1.0823092"><ele>61.66666666666667</ele><time>2026-04-06T15:38:30.76Z</time></trkpt><trkpt lat="44.84477" lon="1.0822613"><ele>61.833333333333336</ele><time>2026-04-06T15:38:31.77Z</time></trkpt><trkpt lat="44.844853" lon="1.0821873"><ele>62.0</ele><time>2026-04-06T15:38:33.796Z</time></trkpt><trkpt lat="44.8448747" lon="1.0820891"><ele>62.2</ele><time>2026-04-06T15:38:39.765Z</time></trkpt><trkpt lat="44.8448855" lon="1.0819745"><ele>62.400000000000006</ele><time>2026-04-06T15:38:42.788Z</time></trkpt><trkpt lat="44.8449475" lon="1.0818788"><ele>62.599999999999994</ele><time>2026-04-06T15:38:44.761Z</time></trkpt><trkpt lat="44.8450695" lon="1.0818027"><ele>62.8</ele><time>2026-04-06T15:38:46.768Z</time></trkpt><trkpt lat="44.8451495" lon="1.0817709"><ele>63.0</ele><time>2026-04-06T15:38:47.767Z</time></trkpt><trkpt lat="44.8452383" lon="1.0817294"><ele>63.0</ele><time>2026-04-06T15:38:48.761Z</time></trkpt><trkpt lat="44.8453325" lon="1.0816743"><ele>63.0</ele><time>2026-04-06T15:38:49.763Z</time></trkpt><trkpt lat="44.8454292" lon="1.0816164"><ele>63.0</ele><time>2026-04-06T15:38:50.762Z</time></trkpt><trkpt lat="44.8455223" lon="1.0815297"><ele>63.0</ele><time>2026-04-06T15:38:51.754Z</time></trkpt><trkpt lat="44.8456136" lon="1.081434"><ele>63.0</ele><time>2026-04-06T15:38:52.756Z</time></trkpt><trkpt lat="44.8457045" lon="1.0813357"><ele>63.0</ele><time>2026-04-06T15:38:53.759Z</time></trkpt><trkpt lat="44.8457948" lon="1.0812361"><ele>63.0</ele><time>2026-04-06T15:38:54.759Z</time></trkpt><trkpt lat="44.8458804" lon="1.0811416"><ele>63.0</ele><time>2026-04-06T15:38:55.759Z</time></trkpt><trkpt lat="44.8459583" lon="1.081055"><ele>63.0</ele><time>2026-04-06T15:38:56.761Z</time></trkpt><trkpt lat="44.8460278" lon="1.0809752"><ele>63.0</ele><time>2026-04-06T15:38:57.782Z</time></trkpt><trkpt lat="44.8460894" lon="1.0809038"><ele>62.8</ele><time>2026-04-06T15:38:58.756Z</time></trkpt><trkpt lat="44.8460988" lon="1.0807505"><ele>62.599999999999994</ele><time>2026-04-06T15:39:00.769Z</time></trkpt><trkpt lat="44.8460239" lon="1.0805957"><ele>62.400000000000006</ele><time>2026-04-06T15:39:02.786Z</time></trkpt><trkpt lat="44.8459733" lon="1.0805071"><ele>62.2</ele><time>2026-04-06T15:39:03.759Z</time></trkpt><trkpt lat="44.8459175" lon="1.0804083"><ele>62.0</ele><time>2026-04-06T15:39:04.758Z</time></trkpt><trkpt lat="44.8458565" lon="1.0803"><ele>61.75</ele><time>2026-04-06T15:39:05.757Z</time></trkpt><trkpt lat="44.8457933" lon="1.0801825"><ele>61.5</ele><time>2026-04-06T15:39:06.76Z</time></trkpt><trkpt lat="44.8457264" lon="1.0800576"><ele>61.25</ele><time>2026-04-06T15:39:07.766Z</time></trkpt><trkpt lat="44.8456554" lon="1.0799294"><ele>61.0</ele><time>2026-04-06T15:39:08.762Z</time></trkpt><trkpt lat="44.8455819" lon="1.0797962"><ele>61.0</ele><time>2026-04-06T15:39:09.757Z</time></trkpt><trkpt lat="44.8455056" lon="1.0796588"><ele>61.0</ele><time>2026-04-06T15:39:10.761Z</time></trkpt><trkpt lat="44.8454292" lon="1.0795194"><ele>61.0</ele><time>2026-04-06T15:39:11.761Z</time></trkpt><trkpt lat="44.8453527" lon="1.0793756"><ele>61.0</ele><time>2026-04-06T15:39:12.761Z</time></trkpt><trkpt lat="44.8452736" lon="1.0792326"><ele>61.0</ele><time>2026-04-06T15:39:13.762Z</time></trkpt><trkpt lat="44.8451927" lon="1.0790894"><ele>61.0</ele><time>2026-04-06T15:39:14.764Z</time></trkpt><trkpt lat="44.8451127" lon="1.0789421"><ele>61.0</ele><time>2026-04-06T15:39:15.786Z</time></trkpt><trkpt lat="44.8450346" lon="1.0787925"><ele>61.0</ele><time>2026-04-06T15:39:16.769Z</time></trkpt><trkpt lat="44.8449578" lon="1.0786407"><ele>61.25</ele><time>2026-04-06T15:39:17.757Z</time></trkpt><trkpt lat="44.8448797" lon="1.0784886"><ele>61.5</ele><time>2026-04-06T15:39:18.76Z</time></trkpt><trkpt lat="44.8448007" lon="1.0783399"><ele>61.75</ele><time>2026-04-06T15:39:19.758Z</time></trkpt><trkpt lat="44.844723" lon="1.0781951"><ele>62.0</ele><time>2026-04-06T15:39:20.755Z</time></trkpt><trkpt lat="44.8446475" lon="1.0780537"><ele>62.0</ele><time>2026-04-06T15:39:21.759Z</time></trkpt><trkpt lat="44.844575" lon="1.0779169"><ele>62.0</ele><time>2026-04-06T15:39:22.766Z</time></trkpt><trkpt lat="44.8445041" lon="1.0777837"><ele>62.0</ele><time>2026-04-06T15:39:23.759Z</time></trkpt><trkpt lat="44.8444334" lon="1.0776542"><ele>62.0</ele><time>2026-04-06T15:39:24.762Z</time></trkpt><trkpt lat="44.8443634" lon="1.0775255"><ele>61.6</ele><time>2026-04-06T15:39:25.757Z</time></trkpt><trkpt lat="44.8442936" lon="1.0773975"><ele>61.2</ele><time>2026-04-06T15:39:26.806Z</time></trkpt><trkpt lat="44.8442254" lon="1.0772719"><ele>60.8</ele><time>2026-04-06T15:39:27.755Z</time></trkpt><trkpt lat="44.8441577" lon="1.0771493"><ele>60.4</ele><time>2026-04-06T15:39:28.784Z</time></trkpt><trkpt lat="44.8440903" lon="1.0770307"><ele>60.0</ele><time>2026-04-06T15:39:29.759Z</time></trkpt><trkpt lat="44.8440233" lon="1.0769196"><ele>60.0</ele><time>2026-04-06T15:39:30.766Z</time></trkpt><trkpt lat="44.8439586" lon="1.0768154"><ele>60.0</ele><time>2026-04-06T15:39:31.756Z</time></trkpt><trkpt lat="44.8438955" lon="1.0767156"><ele>60.0</ele><time>2026-04-06T15:39:32.759Z</time></trkpt><trkpt lat="44.8438352" lon="1.0766203"><ele>60.0</ele><time>2026-04-06T15:39:33.76Z</time></trkpt><trkpt lat="44.8437804" lon="1.0765378"><ele>60.0</ele><time>2026-04-06T15:39:34.758Z</time></trkpt><trkpt lat="44.8437306" lon="1.0764622"><ele>60.0</ele><time>2026-04-06T15:39:35.758Z</time></trkpt><trkpt lat="44.8436857" lon="1.0763974"><ele>60.0</ele><time>2026-04-06T15:39:36.76Z</time></trkpt><trkpt lat="44.8436042" lon="1.0762793"><ele>60.0</ele><time>2026-04-06T15:39:38.758Z</time></trkpt><trkpt lat="44.8435348" lon="1.0761647"><ele>60.0</ele><time>2026-04-06T15:39:40.753Z</time></trkpt><trkpt lat="44.8434733" lon="1.0760464"><ele>60.0</ele><time>2026-04-06T15:39:42.757Z</time></trkpt><trkpt lat="44.8434197" lon="1.0758844"><ele>60.8</ele><time>2026-04-06T15:39:44.759Z</time></trkpt><trkpt lat="44.843359" lon="1.0757328"><ele>61.6</ele><time>2026-04-06T15:39:46.79Z</time></trkpt><trkpt lat="44.843281" lon="1.0756269"><ele>62.400000000000006</ele><time>2026-04-06T15:39:48.758Z</time></trkpt><trkpt lat="44.843193" lon="1.0755376"><ele>63.2</ele><time>2026-04-06T15:39:50.767Z</time></trkpt><trkpt lat="44.8431223" lon="1.0754371"><ele>64.0</ele><time>2026-04-06T15:39:52.763Z</time></trkpt><trkpt lat="44.8430796" lon="1.075336"><ele>63.99999999999999</ele><time>2026-04-06T15:39:54.764Z</time></trkpt><trkpt lat="44.843074" lon="1.0752291"><ele>64.0</ele><time>2026-04-06T15:39:56.761Z</time></trkpt><trkpt lat="44.8430802" lon="1.0751276"><ele>64.0</ele><time>2026-04-06T15:39:58.759Z</time></trkpt><trkpt lat="44.8430545" lon="1.0750046"><ele>64.0</ele><time>2026-04-06T15:40:04.758Z</time></trkpt><trkpt lat="44.842998" lon="1.0749048"><ele>63.99999999999999</ele><time>2026-04-06T15:40:06.76Z</time></trkpt><trkpt lat="44.8429211" lon="1.0747961"><ele>64.0</ele><time>2026-04-06T15:40:08.76Z</time></trkpt><trkpt lat="44.842863" lon="1.0747507"><ele>63.666666666666664</ele><time>2026-04-06T15:40:09.778Z</time></trkpt><trkpt lat="44.8428045" lon="1.0747081"><ele>63.33333333333333</ele><time>2026-04-06T15:40:10.759Z</time></trkpt><trkpt lat="44.8427393" lon="1.0746756"><ele>63.0</ele><time>2026-04-06T15:40:11.77Z</time></trkpt><trkpt lat="44.842674" lon="1.0746407"><ele>62.66666666666667</ele><time>2026-04-06T15:40:12.762Z</time></trkpt><trkpt lat="44.8426136" lon="1.0745978"><ele>62.333333333333336</ele><time>2026-04-06T15:40:13.758Z</time></trkpt><trkpt lat="44.842518" lon="1.0745114"><ele>62.0</ele><time>2026-04-06T15:40:15.76Z</time></trkpt><trkpt lat="44.8424392" lon="1.0744264"><ele>61.833333333333336</ele><time>2026-04-06T15:40:17.759Z</time></trkpt><trkpt lat="44.8423666" lon="1.0743469"><ele>61.66666666666667</ele><time>2026-04-06T15:40:19.757Z</time></trkpt><trkpt lat="44.8423017" lon="1.0742709"><ele>61.5</ele><time>2026-04-06T15:40:21.761Z</time></trkpt><trkpt lat="44.8422306" lon="1.0741941"><ele>61.33333333333333</ele><time>2026-04-06T15:40:24.756Z</time></trkpt><trkpt lat="44.8421618" lon="1.0741573"><ele>61.166666666666664</ele><time>2026-04-06T15:40:27.758Z</time></trkpt><trkpt lat="44.8420826" lon="1.074172"><ele>61.0</ele><time>2026-04-06T15:40:30.757Z</time></trkpt><trkpt lat="44.842006" lon="1.0741756"><ele>60.99999999999999</ele><time>2026-04-06T15:40:32.758Z</time></trkpt><trkpt lat="44.8419053" lon="1.0741283"><ele>61.0</ele><time>2026-04-06T15:40:34.757Z</time></trkpt><trkpt lat="44.8418469" lon="1.0740915"><ele>60.99999999999999</ele><time>2026-04-06T15:40:35.756Z</time></trkpt><trkpt lat="44.8417861" lon="1.0740528"><ele>60.99999999999999</ele><time>2026-04-06T15:40:36.759Z</time></trkpt><trkpt lat="44.8417253" lon="1.0740047"><ele>61.0</ele><time>2026-04-06T15:40:37.756Z</time></trkpt><trkpt lat="44.8416656" lon="1.0739596"><ele>60.99999999999999</ele><time>2026-04-06T15:40:38.756Z</time></trkpt><trkpt lat="44.8416052" lon="1.0739256"><ele>60.99999999999999</ele><time>2026-04-06T15:40:39.758Z</time></trkpt><trkpt lat="44.8415457" lon="1.0738949"><ele>60.85714285714285</ele><time>2026-04-06T15:40:40.758Z</time></trkpt><trkpt lat="44.8414867" lon="1.0738494"><ele>60.71428571428571</ele><time>2026-04-06T15:40:41.763Z</time></trkpt><trkpt lat="44.8414288" lon="1.073805"><ele>60.57142857142857</ele><time>2026-04-06T15:40:42.763Z</time></trkpt><trkpt lat="44.8413699" lon="1.0737549"><ele>60.42857142857142</ele><time>2026-04-06T15:40:43.76Z</time></trkpt><trkpt lat="44.8413097" lon="1.0736872"><ele>60.28571428571428</ele><time>2026-04-06T15:40:44.758Z</time></trkpt><trkpt lat="44.8412505" lon="1.0736223"><ele>60.142857142857146</ele><time>2026-04-06T15:40:45.756Z</time></trkpt><trkpt lat="44.8411857" lon="1.0735626"><ele>60.0</ele><time>2026-04-06T15:40:46.764Z</time></trkpt><trkpt lat="44.8411159" lon="1.0735004"><ele>60.0</ele><time>2026-04-06T15:40:47.759Z</time></trkpt><trkpt lat="44.841042" lon="1.0734335"><ele>60.0</ele><time>2026-04-06T15:40:48.778Z</time></trkpt><trkpt lat="44.8409662" lon="1.0733518"><ele>60.0</ele><time>2026-04-06T15:40:49.759Z</time></trkpt><trkpt lat="44.8408928" lon="1.073259"><ele>60.0</ele><time>2026-04-06T15:40:50.764Z</time></trkpt><trkpt lat="44.8408267" lon="1.0731661"><ele>60.0</ele><time>2026-04-06T15:40:51.759Z</time></trkpt><trkpt lat="44.8407566" lon="1.073067"><ele>60.2</ele><time>2026-04-06T15:40:52.772Z</time></trkpt><trkpt lat="44.8406953" lon="1.0729722"><ele>60.4</ele><time>2026-04-06T15:40:53.768Z</time></trkpt><trkpt lat="44.8406255" lon="1.0728763"><ele>60.599999999999994</ele><time>2026-04-06T15:40:54.761Z</time></trkpt><trkpt lat="44.8405566" lon="1.0727833"><ele>60.8</ele><time>2026-04-06T15:40:55.783Z</time></trkpt><trkpt lat="44.8404689" lon="1.0727039"><ele>61.0</ele><time>2026-04-06T15:40:56.754Z</time></trkpt><trkpt lat="44.8403763" lon="1.0726052"><ele>61.0</ele><time>2026-04-06T15:40:57.756Z</time></trkpt><trkpt lat="44.840281" lon="1.072508"><ele>61.0</ele><time>2026-04-06T15:40:58.753Z</time></trkpt><trkpt lat="44.840181" lon="1.0724107"><ele>61.0</ele><time>2026-04-06T15:40:59.76Z</time></trkpt><trkpt lat="44.8400926" lon="1.0723083"><ele>61.0</ele><time>2026-04-06T15:41:00.757Z</time></trkpt><trkpt lat="44.8400184" lon="1.0722134"><ele>60.8</ele><time>2026-04-06T15:41:01.758Z</time></trkpt><trkpt lat="44.8399499" lon="1.072133"><ele>60.599999999999994</ele><time>2026-04-06T15:41:02.779Z</time></trkpt><trkpt lat="44.8398765" lon="1.0720621"><ele>60.4</ele><time>2026-04-06T15:41:03.761Z</time></trkpt><trkpt lat="44.8397849" lon="1.0719879"><ele>60.2</ele><time>2026-04-06T15:41:04.759Z</time></trkpt><trkpt lat="44.8396892" lon="1.0719111"><ele>60.0</ele><time>2026-04-06T15:41:05.76Z</time></trkpt><trkpt lat="44.839578" lon="1.0718413"><ele>60.0</ele><time>2026-04-06T15:41:06.758Z</time></trkpt><trkpt lat="44.8394533" lon="1.0717489"><ele>60.0</ele><time>2026-04-06T15:41:07.756Z</time></trkpt><trkpt lat="44.839314" lon="1.0716425"><ele>60.0</ele><time>2026-04-06T15:41:08.761Z</time></trkpt><trkpt lat="44.8391696" lon="1.0715344"><ele>59.33333333333333</ele><time>2026-04-06T15:41:09.768Z</time></trkpt><trkpt lat="44.839035" lon="1.0714404"><ele>58.666666666666664</ele><time>2026-04-06T15:41:10.757Z</time></trkpt><trkpt lat="44.83891" lon="1.0713232"><ele>58.0</ele><time>2026-04-06T15:41:11.759Z</time></trkpt><trkpt lat="44.8387795" lon="1.0711793"><ele>58.0</ele><time>2026-04-06T15:41:12.758Z</time></trkpt><trkpt lat="44.8386447" lon="1.0710301"><ele>58.0</ele><time>2026-04-06T15:41:13.766Z</time></trkpt><trkpt lat="44.8385051" lon="1.070874"><ele>58.0</ele><time>2026-04-06T15:41:14.76Z</time></trkpt><trkpt lat="44.8383741" lon="1.0707239"><ele>58.75</ele><time>2026-04-06T15:41:15.757Z</time></trkpt><trkpt lat="44.8382501" lon="1.07058"><ele>59.5</ele><time>2026-04-06T15:41:16.757Z</time></trkpt><trkpt lat="44.838148" lon="1.0704867"><ele>60.25</ele><time>2026-04-06T15:41:17.768Z</time></trkpt><trkpt lat="44.8380592" lon="1.0704037"><ele>61.0</ele><time>2026-04-06T15:41:18.754Z</time></trkpt><trkpt lat="44.8379702" lon="1.070244"><ele>61.0</ele><time>2026-04-06T15:41:19.783Z</time></trkpt><trkpt lat="44.837889" lon="1.0700984"><ele>60.99999999999999</ele><time>2026-04-06T15:41:20.759Z</time></trkpt><trkpt lat="44.8378262" lon="1.0699822"><ele>60.99999999999999</ele><time>2026-04-06T15:41:21.76Z</time></trkpt><trkpt lat="44.8377771" lon="1.0699035"><ele>61.0</ele><time>2026-04-06T15:41:22.762Z</time></trkpt><trkpt lat="44.8377371" lon="1.0698186"><ele>61.0</ele><time>2026-04-06T15:41:23.754Z</time></trkpt><trkpt lat="44.8376988" lon="1.0697174"><ele>60.99999999999999</ele><time>2026-04-06T15:41:24.774Z</time></trkpt><trkpt lat="44.8376668" lon="1.0696146"><ele>61.0</ele><time>2026-04-06T15:41:25.777Z</time></trkpt><trkpt lat="44.8376403" lon="1.0695093"><ele>61.0</ele><time>2026-04-06T15:41:26.76Z</time></trkpt><trkpt lat="44.8376228" lon="1.0694119"><ele>61.0</ele><time>2026-04-06T15:41:27.776Z</time></trkpt><trkpt lat="44.837608" lon="1.0693164"><ele>60.99999999999999</ele><time>2026-04-06T15:41:28.756Z</time></trkpt><trkpt lat="44.8375922" lon="1.0692225"><ele>61.0</ele><time>2026-04-06T15:41:29.762Z</time></trkpt><trkpt lat="44.8375724" lon="1.0690659"><ele>61.0</ele><time>2026-04-06T15:41:31.757Z</time></trkpt><trkpt lat="44.8375911" lon="1.0689483"><ele>60.99999999999999</ele><time>2026-04-06T15:41:33.759Z</time></trkpt><trkpt lat="44.8376551" lon="1.0688769"><ele>60.99999999999999</ele><time>2026-04-06T15:41:35.763Z</time></trkpt><trkpt lat="44.8377711" lon="1.0688807"><ele>61.0</ele><time>2026-04-06T15:41:37.787Z</time></trkpt><trkpt lat="44.8378675" lon="1.0688752"><ele>61.0</ele><time>2026-04-06T15:41:39.754Z</time></trkpt><trkpt lat="44.8379573" lon="1.0688299"><ele>60.99999999999999</ele><time>2026-04-06T15:41:41.773Z</time></trkpt><trkpt lat="44.8379996" lon="1.0687604"><ele>61.0</ele><time>2026-04-06T15:41:42.761Z</time></trkpt><trkpt lat="44.8380346" lon="1.068686"><ele>61.0</ele><time>2026-04-06T15:41:43.757Z</time></trkpt><trkpt lat="44.8381082" lon="1.0685942"><ele>61.0</ele><time>2026-04-06T15:41:45.758Z</time></trkpt><trkpt lat="44.8381626" lon="1.0685187"><ele>60.99999999999999</ele><time>2026-04-06T15:41:48.76Z</time></trkpt><trkpt lat="44.8382549" lon="1.0684771"><ele>61.0</ele><time>2026-04-06T15:41:50.762Z</time></trkpt><trkpt lat="44.8383319" lon="1.0684606"><ele>61.0</ele><time>2026-04-06T15:41:51.758Z</time></trkpt><trkpt lat="44.8384271" lon="1.0684413"><ele>60.99999999999999</ele><time>2026-04-06T15:41:52.761Z</time></trkpt><trkpt lat="44.8385286" lon="1.0684178"><ele>60.99999999999999</ele><time>2026-04-06T15:41:53.761Z</time></trkpt><trkpt lat="44.8386389" lon="1.0683893"><ele>61.0</ele><time>2026-04-06T15:41:54.758Z</time></trkpt><trkpt lat="44.8387588" lon="1.0683631"><ele>61.0</ele><time>2026-04-06T15:41:55.76Z</time></trkpt><trkpt lat="44.838884" lon="1.068339"><ele>61.0</ele><time>2026-04-06T15:41:56.756Z</time></trkpt><trkpt lat="44.8390178" lon="1.0683145"><ele>61.0</ele><time>2026-04-06T15:41:57.773Z</time></trkpt><trkpt lat="44.8391523" lon="1.0682864"><ele>61.0</ele><time>2026-04-06T15:41:58.757Z</time></trkpt><trkpt lat="44.8392895" lon="1.0682579"><ele>61.0</ele><time>2026-04-06T15:41:59.763Z</time></trkpt><trkpt lat="44.8394285" lon="1.0682285"><ele>61.0</ele><time>2026-04-06T15:42:00.762Z</time></trkpt><trkpt lat="44.8395696" lon="1.0681994"><ele>61.0</ele><time>2026-04-06T15:42:01.762Z</time></trkpt><trkpt lat="44.839711" lon="1.0681708"><ele>61.0</ele><time>2026-04-06T15:42:02.76Z</time></trkpt><trkpt lat="44.8398544" lon="1.0681431"><ele>61.0</ele><time>2026-04-06T15:42:03.768Z</time></trkpt><trkpt lat="44.8399993" lon="1.0681133"><ele>61.666666666666664</ele><time>2026-04-06T15:42:04.758Z</time></trkpt><trkpt lat="44.8401451" lon="1.0680794"><ele>62.33333333333333</ele><time>2026-04-06T15:42:05.783Z</time></trkpt><trkpt lat="44.8402935" lon="1.0680462"><ele>63.0</ele><time>2026-04-06T15:42:06.757Z</time></trkpt><trkpt lat="44.8404444" lon="1.0680145"><ele>63.0</ele><time>2026-04-06T15:42:07.762Z</time></trkpt><trkpt lat="44.8405969" lon="1.0679829"><ele>63.0</ele><time>2026-04-06T15:42:08.764Z</time></trkpt><trkpt lat="44.8407512" lon="1.0679506"><ele>63.0</ele><time>2026-04-06T15:42:09.76Z</time></trkpt><trkpt lat="44.8409064" lon="1.0679176"><ele>62.0</ele><time>2026-04-06T15:42:10.757Z</time></trkpt><trkpt lat="44.8410621" lon="1.0678854"><ele>61.0</ele><time>2026-04-06T15:42:11.807Z</time></trkpt><trkpt lat="44.841217" lon="1.0678532"><ele>60.0</ele><time>2026-04-06T15:42:12.77Z</time></trkpt><trkpt lat="44.8413712" lon="1.0678209"><ele>60.0</ele><time>2026-04-06T15:42:13.762Z</time></trkpt><trkpt lat="44.8415179" lon="1.0677909"><ele>60.0</ele><time>2026-04-06T15:42:14.768Z</time></trkpt><trkpt lat="44.8416534" lon="1.0677638"><ele>60.0</ele><time>2026-04-06T15:42:15.758Z</time></trkpt><trkpt lat="44.8417778" lon="1.0677387"><ele>60.0</ele><time>2026-04-06T15:42:16.76Z</time></trkpt><trkpt lat="44.8418921" lon="1.0677166"><ele>60.0</ele><time>2026-04-06T15:42:17.767Z</time></trkpt><trkpt lat="44.841995" lon="1.0676966"><ele>60.0</ele><time>2026-04-06T15:42:18.785Z</time></trkpt><trkpt lat="44.842087" lon="1.0676772"><ele>60.0</ele><time>2026-04-06T15:42:19.758Z</time></trkpt><trkpt lat="44.8421691" lon="1.0676619"><ele>60.0</ele><time>2026-04-06T15:42:20.761Z</time></trkpt><trkpt lat="44.8422401" lon="1.0676486"><ele>60.0</ele><time>2026-04-06T15:42:21.774Z</time></trkpt><trkpt lat="44.8423537" lon="1.0676185"><ele>60.0</ele><time>2026-04-06T15:42:23.764Z</time></trkpt><trkpt lat="44.8423946" lon="1.0675071"><ele>60.0</ele><time>2026-04-06T15:42:25.758Z</time></trkpt><trkpt lat="44.8423993" lon="1.0673368"><ele>60.0</ele><time>2026-04-06T15:42:27.758Z</time></trkpt><trkpt lat="44.8424178" lon="1.0672409"><ele>60.0</ele><time>2026-04-06T15:42:28.761Z</time></trkpt><trkpt lat="44.8424348" lon="1.06714"><ele>60.0</ele><time>2026-04-06T15:42:29.77Z</time></trkpt><trkpt lat="44.8424477" lon="1.0670316"><ele>60.0</ele><time>2026-04-06T15:42:30.756Z</time></trkpt><trkpt lat="44.8424629" lon="1.0669119"><ele>60.0</ele><time>2026-04-06T15:42:31.763Z</time></trkpt><trkpt lat="44.8424821" lon="1.0667848"><ele>60.0</ele><time>2026-04-06T15:42:32.757Z</time></trkpt><trkpt lat="44.8425051" lon="1.0666574"><ele>60.0</ele><time>2026-04-06T15:42:33.757Z</time></trkpt><trkpt lat="44.8425265" lon="1.0665356"><ele>60.0</ele><time>2026-04-06T15:42:34.759Z</time></trkpt><trkpt lat="44.8425444" lon="1.0664161"><ele>60.0</ele><time>2026-04-06T15:42:35.765Z</time></trkpt><trkpt lat="44.842565" lon="1.0663011"><ele>60.0</ele><time>2026-04-06T15:42:36.762Z</time></trkpt><trkpt lat="44.8425909" lon="1.0661943"><ele>60.0</ele><time>2026-04-06T15:42:37.764Z</time></trkpt><trkpt lat="44.8426119" lon="1.0660924"><ele>60.0</ele><time>2026-04-06T15:42:38.766Z</time></trkpt><trkpt lat="44.8426199" lon="1.0659915"><ele>60.0</ele><time>2026-04-06T15:42:39.761Z</time></trkpt><trkpt lat="44.842637" lon="1.0658825"><ele>60.0</ele><time>2026-04-06T15:42:40.762Z</time></trkpt><trkpt lat="44.8426537" lon="1.0657681"><ele>60.0</ele><time>2026-04-06T15:42:41.761Z</time></trkpt><trkpt lat="44.8426664" lon="1.0656507"><ele>60.0</ele><time>2026-04-06T15:42:42.776Z</time></trkpt><trkpt lat="44.8426899" lon="1.0655419"><ele>60.166666666666664</ele><time>2026-04-06T15:42:43.756Z</time></trkpt><trkpt lat="44.8426979" lon="1.0654441"><ele>60.33333333333333</ele><time>2026-04-06T15:42:44.779Z</time></trkpt><trkpt lat="44.842719" lon="1.06528"><ele>60.5</ele><time>2026-04-06T15:42:46.762Z</time></trkpt><trkpt lat="44.8427271" lon="1.0651649"><ele>60.666666666666664</ele><time>2026-04-06T15:42:48.763Z</time></trkpt><trkpt lat="44.8427306" lon="1.0650743"><ele>60.83333333333333</ele><time>2026-04-06T15:42:50.761Z</time></trkpt><trkpt lat="44.8427368" lon="1.0649771"><ele>61.0</ele><time>2026-04-06T15:42:52.763Z</time></trkpt><trkpt lat="44.8427454" lon="1.0648548"><ele>60.99999999999999</ele><time>2026-04-06T15:42:54.76Z</time></trkpt><trkpt lat="44.8427502" lon="1.0647019"><ele>61.0</ele><time>2026-04-06T15:42:56.763Z</time></trkpt><trkpt lat="44.8427513" lon="1.0646091"><ele>61.0</ele><time>2026-04-06T15:42:57.763Z</time></trkpt><trkpt lat="44.8427548" lon="1.0645086"><ele>61.0</ele><time>2026-04-06T15:42:58.76Z</time></trkpt><trkpt lat="44.8427605" lon="1.0644014"><ele>60.99999999999999</ele><time>2026-04-06T15:42:59.768Z</time></trkpt><trkpt lat="44.8427695" lon="1.0643007"><ele>61.0</ele><time>2026-04-06T15:43:00.753Z</time></trkpt><trkpt lat="44.8427792" lon="1.0642107"><ele>61.0</ele><time>2026-04-06T15:43:01.762Z</time></trkpt><trkpt lat="44.8428131" lon="1.064053"><ele>60.99999999999999</ele><time>2026-04-06T15:43:03.77Z</time></trkpt><trkpt lat="44.8428503" lon="1.0639011"><ele>60.99999999999999</ele><time>2026-04-06T15:43:05.761Z</time></trkpt><trkpt lat="44.8428871" lon="1.0637636"><ele>61.0</ele><time>2026-04-06T15:43:07.763Z</time></trkpt><trkpt lat="44.8429181" lon="1.0636216"><ele>61.0</ele><time>2026-04-06T15:43:09.771Z</time></trkpt><trkpt lat="44.8429461" lon="1.0634501"><ele>60.99999999999999</ele><time>2026-04-06T15:43:11.763Z</time></trkpt><trkpt lat="44.8429572" lon="1.0633468"><ele>61.0</ele><time>2026-04-06T15:43:12.766Z</time></trkpt><trkpt lat="44.8429682" lon="1.0632392"><ele>61.0</ele><time>2026-04-06T15:43:13.763Z</time></trkpt><trkpt lat="44.8429728" lon="1.0631248"><ele>61.0</ele><time>2026-04-06T15:43:14.757Z</time></trkpt><trkpt lat="44.8429789" lon="1.0629809"><ele>60.99999999999999</ele><time>2026-04-06T15:43:15.764Z</time></trkpt><trkpt lat="44.8429736" lon="1.06282"><ele>61.0</ele><time>2026-04-06T15:43:16.761Z</time></trkpt><trkpt lat="44.842969" lon="1.0626743"><ele>61.166666666666664</ele><time>2026-04-06T15:43:17.767Z</time></trkpt><trkpt lat="44.8429714" lon="1.0625353"><ele>61.33333333333333</ele><time>2026-04-06T15:43:18.765Z</time></trkpt><trkpt lat="44.8429757" lon="1.0624052"><ele>61.5</ele><time>2026-04-06T15:43:19.765Z</time></trkpt><trkpt lat="44.8429821" lon="1.0622816"><ele>61.66666666666667</ele><time>2026-04-06T15:43:20.755Z</time></trkpt><trkpt lat="44.842986" lon="1.0621613"><ele>61.833333333333336</ele><time>2026-04-06T15:43:21.762Z</time></trkpt><trkpt lat="44.8429868" lon="1.0620459"><ele>62.0</ele><time>2026-04-06T15:43:22.756Z</time></trkpt><trkpt lat="44.8429903" lon="1.0619373"><ele>61.6</ele><time>2026-04-06T15:43:23.756Z</time></trkpt><trkpt lat="44.8430018" lon="1.0617897"><ele>61.2</ele><time>2026-04-06T15:43:25.756Z</time></trkpt><trkpt lat="44.8429303" lon="1.0617773"><ele>60.8</ele><time>2026-04-06T15:43:29.763Z</time></trkpt><trkpt lat="44.8428514" lon="1.0618605"><ele>60.4</ele><time>2026-04-06T15:43:31.758Z</time></trkpt><trkpt lat="44.8427751" lon="1.0619894"><ele>60.0</ele><time>2026-04-06T15:43:33.784Z</time></trkpt><trkpt lat="44.8427207" lon="1.0621272"><ele>60.0</ele><time>2026-04-06T15:43:35.758Z</time></trkpt><trkpt lat="44.8426571" lon="1.0622272"><ele>60.0</ele><time>2026-04-06T15:43:37.772Z</time></trkpt><trkpt lat="44.8425803" lon="1.0622472"><ele>60.0</ele><time>2026-04-06T15:43:39.766Z</time></trkpt><trkpt lat="44.8425198" lon="1.0622753"><ele>60.0</ele><time>2026-04-06T15:43:41.763Z</time></trkpt><trkpt lat="44.8424493" lon="1.0623153"><ele>60.0</ele><time>2026-04-06T15:43:43.76Z</time></trkpt><trkpt lat="44.8423752" lon="1.0623739"><ele>60.0</ele><time>2026-04-06T15:43:45.759Z</time></trkpt><trkpt lat="44.8423126" lon="1.0624228"><ele>60.166666666666664</ele><time>2026-04-06T15:43:47.758Z</time></trkpt><trkpt lat="44.8422477" lon="1.0624806"><ele>60.33333333333333</ele><time>2026-04-06T15:43:49.759Z</time></trkpt><trkpt lat="44.8421898" lon="1.062553"><ele>60.5</ele><time>2026-04-06T15:43:51.761Z</time></trkpt><trkpt lat="44.8421154" lon="1.0626329"><ele>60.666666666666664</ele><time>2026-04-06T15:43:53.759Z</time></trkpt><trkpt lat="44.8420546" lon="1.0626952"><ele>60.83333333333333</ele><time>2026-04-06T15:43:54.764Z</time></trkpt><trkpt lat="44.8419505" lon="1.0627864"><ele>61.0</ele><time>2026-04-06T15:43:56.763Z</time></trkpt><trkpt lat="44.8418305" lon="1.0628109"><ele>61.0</ele><time>2026-04-06T15:43:58.762Z</time></trkpt><trkpt lat="44.8417265" lon="1.0628602"><ele>60.99999999999999</ele><time>2026-04-06T15:44:00.78Z</time></trkpt><trkpt lat="44.8416606" lon="1.0629551"><ele>60.99999999999999</ele><time>2026-04-06T15:44:02.76Z</time></trkpt><trkpt lat="44.8415522" lon="1.0629856"><ele>61.0</ele><time>2026-04-06T15:44:04.762Z</time></trkpt><trkpt lat="44.8414575" lon="1.0630054"><ele>61.0</ele><time>2026-04-06T15:44:06.756Z</time></trkpt><trkpt lat="44.8413575" lon="1.0630828"><ele>60.99999999999999</ele><time>2026-04-06T15:44:08.762Z</time></trkpt><trkpt lat="44.8413059" lon="1.0631414"><ele>61.0</ele><time>2026-04-06T15:44:09.757Z</time></trkpt><trkpt lat="44.8412532" lon="1.0631987"><ele>60.99999999999999</ele><time>2026-04-06T15:44:10.76Z</time></trkpt><trkpt lat="44.8412052" lon="1.0632597"><ele>60.99999999999999</ele><time>2026-04-06T15:44:11.766Z</time></trkpt><trkpt lat="44.8411491" lon="1.0633174"><ele>61.0</ele><time>2026-04-06T15:44:12.763Z</time></trkpt><trkpt lat="44.8410895" lon="1.0633819"><ele>60.99999999999999</ele><time>2026-04-06T15:44:13.759Z</time></trkpt><trkpt lat="44.841027" lon="1.0634475"><ele>60.99999999999999</ele><time>2026-04-06T15:44:14.757Z</time></trkpt><trkpt lat="44.8409669" lon="1.0635454"><ele>61.0</ele><time>2026-04-06T15:44:15.762Z</time></trkpt><trkpt lat="44.8408823" lon="1.0636479"><ele>60.99999999999999</ele><time>2026-04-06T15:44:16.764Z</time></trkpt><trkpt lat="44.8407976" lon="1.0637348"><ele>60.99999999999999</ele><time>2026-04-06T15:44:17.764Z</time></trkpt><trkpt lat="44.8407221" lon="1.0638236"><ele>61.0</ele><time>2026-04-06T15:44:18.755Z</time></trkpt><trkpt lat="44.8406473" lon="1.0639168"><ele>61.0</ele><time>2026-04-06T15:44:19.767Z</time></trkpt><trkpt lat="44.8405738" lon="1.0640069"><ele>60.8</ele><time>2026-04-06T15:44:20.76Z</time></trkpt><trkpt lat="44.8404991" lon="1.0641142"><ele>60.599999999999994</ele><time>2026-04-06T15:44:21.756Z</time></trkpt><trkpt lat="44.8404043" lon="1.0642233"><ele>60.4</ele><time>2026-04-06T15:44:22.77Z</time></trkpt><trkpt lat="44.8403186" lon="1.0643229"><ele>60.2</ele><time>2026-04-06T15:44:23.762Z</time></trkpt><trkpt lat="44.8402457" lon="1.0644214"><ele>60.0</ele><time>2026-04-06T15:44:24.761Z</time></trkpt><trkpt lat="44.8401808" lon="1.0645186"><ele>60.2</ele><time>2026-04-06T15:44:25.762Z</time></trkpt><trkpt lat="44.8401268" lon="1.0646126"><ele>60.4</ele><time>2026-04-06T15:44:26.763Z</time></trkpt><trkpt lat="44.8400715" lon="1.0647016"><ele>60.599999999999994</ele><time>2026-04-06T15:44:27.762Z</time></trkpt><trkpt lat="44.8399935" lon="1.0647855"><ele>60.8</ele><time>2026-04-06T15:44:28.77Z</time></trkpt><trkpt lat="44.8399159" lon="1.0648657"><ele>61.0</ele><time>2026-04-06T15:44:29.795Z</time></trkpt><trkpt lat="44.839838" lon="1.0649159"><ele>61.0</ele><time>2026-04-06T15:44:30.773Z</time></trkpt><trkpt lat="44.839761" lon="1.0649812"><ele>60.99999999999999</ele><time>2026-04-06T15:44:31.765Z</time></trkpt><trkpt lat="44.8396961" lon="1.0650705"><ele>60.99999999999999</ele><time>2026-04-06T15:44:32.782Z</time></trkpt><trkpt lat="44.8396139" lon="1.0651712"><ele>61.0</ele><time>2026-04-06T15:44:33.76Z</time></trkpt><trkpt lat="44.8395228" lon="1.0652902"><ele>61.0</ele><time>2026-04-06T15:44:34.757Z</time></trkpt><trkpt lat="44.8394348" lon="1.0654001"><ele>61.0</ele><time>2026-04-06T15:44:35.76Z</time></trkpt><trkpt lat="44.8393561" lon="1.0654985"><ele>60.99999999999999</ele><time>2026-04-06T15:44:36.756Z</time></trkpt><trkpt lat="44.8392728" lon="1.0655926"><ele>60.99999999999999</ele><time>2026-04-06T15:44:37.761Z</time></trkpt><trkpt lat="44.8391827" lon="1.0656858"><ele>61.0</ele><time>2026-04-06T15:44:38.761Z</time></trkpt><trkpt lat="44.8390888" lon="1.0657868"><ele>61.0</ele><time>2026-04-06T15:44:39.756Z</time></trkpt><trkpt lat="44.8389894" lon="1.0659005"><ele>61.4</ele><time>2026-04-06T15:44:40.763Z</time></trkpt><trkpt lat="44.8388959" lon="1.0660187"><ele>61.8</ele><time>2026-04-06T15:44:41.76Z</time></trkpt><trkpt lat="44.8388129" lon="1.0661294"><ele>62.199999999999996</ele><time>2026-04-06T15:44:42.786Z</time></trkpt><trkpt lat="44.8387416" lon="1.0662341"><ele>62.599999999999994</ele><time>2026-04-06T15:44:43.763Z</time></trkpt><trkpt lat="44.8386762" lon="1.06633"><ele>63.0</ele><time>2026-04-06T15:44:44.756Z</time></trkpt><trkpt lat="44.8385975" lon="1.0663749"><ele>63.0</ele><time>2026-04-06T15:44:45.762Z</time></trkpt><trkpt lat="44.838523" lon="1.0664123"><ele>63.0</ele><time>2026-04-06T15:44:46.757Z</time></trkpt><trkpt lat="44.838456" lon="1.0664477"><ele>63.0</ele><time>2026-04-06T15:44:47.781Z</time></trkpt><trkpt lat="44.8383977" lon="1.0664859"><ele>63.0</ele><time>2026-04-06T15:44:48.759Z</time></trkpt><trkpt lat="44.8382952" lon="1.0665604"><ele>63.0</ele><time>2026-04-06T15:44:50.755Z</time></trkpt><trkpt lat="44.8382217" lon="1.0666436"><ele>63.0</ele><time>2026-04-06T15:44:52.752Z</time></trkpt><trkpt lat="44.8381686" lon="1.0667555"><ele>62.333333333333336</ele><time>2026-04-06T15:44:54.764Z</time></trkpt><trkpt lat="44.8381178" lon="1.0668584"><ele>61.66666666666667</ele><time>2026-04-06T15:44:56.757Z</time></trkpt><trkpt lat="44.8380857" lon="1.0669351"><ele>61.0</ele><time>2026-04-06T15:44:58.765Z</time></trkpt><trkpt lat="44.8380698" lon="1.0670224"><ele>60.333333333333336</ele><time>2026-04-06T15:45:01.762Z</time></trkpt><trkpt lat="44.8380589" lon="1.0671125"><ele>59.66666666666667</ele><time>2026-04-06T15:45:03.761Z</time></trkpt><trkpt lat="44.8380629" lon="1.067214"><ele>59.0</ele><time>2026-04-06T15:45:05.757Z</time></trkpt><trkpt lat="44.8380637" lon="1.0673717"><ele>59.400000000000006</ele><time>2026-04-06T15:45:07.76Z</time></trkpt><trkpt lat="44.8380502" lon="1.0675386"><ele>59.800000000000004</ele><time>2026-04-06T15:45:09.754Z</time></trkpt><trkpt lat="44.8380398" lon="1.0677098"><ele>60.199999999999996</ele><time>2026-04-06T15:45:11.756Z</time></trkpt><trkpt lat="44.8380457" lon="1.0678954"><ele>60.599999999999994</ele><time>2026-04-06T15:45:13.757Z</time></trkpt><trkpt lat="44.8380455" lon="1.068001"><ele>61.0</ele><time>2026-04-06T15:45:14.757Z</time></trkpt><trkpt lat="44.83805" lon="1.0681685"><ele>60.99999999999999</ele><time>2026-04-06T15:45:16.761Z</time></trkpt><trkpt lat="44.8380778" lon="1.0683095"><ele>61.0</ele><time>2026-04-06T15:45:18.762Z</time></trkpt><trkpt lat="44.8381093" lon="1.0683944"><ele>61.0</ele><time>2026-04-06T15:45:20.761Z</time></trkpt><trkpt lat="44.8380802" lon="1.0684857"><ele>61.0</ele><time>2026-04-06T15:45:25.762Z</time></trkpt><trkpt lat="44.8379909" lon="1.0685274"><ele>60.99999999999999</ele><time>2026-04-06T15:45:27.784Z</time></trkpt><trkpt lat="44.8379216" lon="1.0685386"><ele>61.0</ele><time>2026-04-06T15:45:28.76Z</time></trkpt><trkpt lat="44.8378465" lon="1.0685537"><ele>60.99999999999999</ele><time>2026-04-06T15:45:29.767Z</time></trkpt><trkpt lat="44.8377637" lon="1.0685696"><ele>61.0</ele><time>2026-04-06T15:45:30.761Z</time></trkpt><trkpt lat="44.8376823" lon="1.0685895"><ele>61.0</ele><time>2026-04-06T15:45:31.763Z</time></trkpt><trkpt lat="44.8376015" lon="1.0686046"><ele>61.0</ele><time>2026-04-06T15:45:32.758Z</time></trkpt><trkpt lat="44.8375208" lon="1.0686205"><ele>60.99999999999999</ele><time>2026-04-06T15:45:33.764Z</time></trkpt><trkpt lat="44.837439" lon="1.0686417"><ele>61.0</ele><time>2026-04-06T15:45:34.757Z</time></trkpt><trkpt lat="44.8373537" lon="1.0686635"><ele>60.99999999999999</ele><time>2026-04-06T15:45:35.755Z</time></trkpt><trkpt lat="44.8372658" lon="1.0686823"><ele>61.0</ele><time>2026-04-06T15:45:36.755Z</time></trkpt><trkpt lat="44.8371757" lon="1.0687027"><ele>61.0</ele><time>2026-04-06T15:45:37.756Z</time></trkpt><trkpt lat="44.837086" lon="1.0687209"><ele>61.0</ele><time>2026-04-06T15:45:38.768Z</time></trkpt><trkpt lat="44.8369978" lon="1.0687392"><ele>60.99999999999999</ele><time>2026-04-06T15:45:39.763Z</time></trkpt><trkpt lat="44.8369142" lon="1.0687558"><ele>61.0</ele><time>2026-04-06T15:45:40.761Z</time></trkpt><trkpt lat="44.8368369" lon="1.0687727"><ele>61.83333333333333</ele><time>2026-04-06T15:45:41.76Z</time></trkpt><trkpt lat="44.8367663" lon="1.0687875"><ele>62.666666666666664</ele><time>2026-04-06T15:45:42.768Z</time></trkpt><trkpt lat="44.8367018" lon="1.0688016"><ele>63.5</ele><time>2026-04-06T15:45:43.771Z</time></trkpt><trkpt lat="44.8365932" lon="1.0688234"><ele>64.33333333333333</ele><time>2026-04-06T15:45:45.761Z</time></trkpt><trkpt lat="44.8364931" lon="1.068843"><ele>65.16666666666667</ele><time>2026-04-06T15:45:47.772Z</time></trkpt><trkpt lat="44.8363979" lon="1.0688637"><ele>66.0</ele><time>2026-04-06T15:45:49.751Z</time></trkpt><trkpt lat="44.8363268" lon="1.0688789"><ele>66.0</ele><time>2026-04-06T15:45:51.761Z</time></trkpt><trkpt lat="44.8362593" lon="1.068895"><ele>66.0</ele><time>2026-04-06T15:45:54.77Z</time></trkpt><trkpt lat="44.8361969" lon="1.0689296"><ele>66.0</ele><time>2026-04-06T15:45:56.762Z</time></trkpt><trkpt lat="44.8361161" lon="1.0690209"><ele>66.0</ele><time>2026-04-06T15:45:58.759Z</time></trkpt><trkpt lat="44.8360733" lon="1.0690892"><ele>66.0</ele><time>2026-04-06T15:45:59.761Z</time></trkpt><trkpt lat="44.8360314" lon="1.0691564"><ele>66.0</ele><time>2026-04-06T15:46:00.771Z</time></trkpt><trkpt lat="44.8359867" lon="1.0692278"><ele>66.0</ele><time>2026-04-06T15:46:01.761Z</time></trkpt><trkpt lat="44.8359422" lon="1.0693006"><ele>66.85714285714286</ele><time>2026-04-06T15:46:02.763Z</time></trkpt><trkpt lat="44.8358967" lon="1.0693764"><ele>67.71428571428572</ele><time>2026-04-06T15:46:03.764Z</time></trkpt><trkpt lat="44.8358499" lon="1.0694523"><ele>68.57142857142858</ele><time>2026-04-06T15:46:04.756Z</time></trkpt><trkpt lat="44.8358037" lon="1.0695291"><ele>69.42857142857143</ele><time>2026-04-06T15:46:05.766Z</time></trkpt><trkpt lat="44.8357545" lon="1.0696068"><ele>70.28571428571429</ele><time>2026-04-06T15:46:06.756Z</time></trkpt><trkpt lat="44.8357047" lon="1.0696846"><ele>71.14285714285715</ele><time>2026-04-06T15:46:07.765Z</time></trkpt><trkpt lat="44.835655" lon="1.0697644"><ele>72.0</ele><time>2026-04-06T15:46:08.759Z</time></trkpt><trkpt lat="44.8356047" lon="1.0698459"><ele>72.0</ele><time>2026-04-06T15:46:09.758Z</time></trkpt><trkpt lat="44.8355563" lon="1.06993"><ele>72.0</ele><time>2026-04-06T15:46:10.754Z</time></trkpt><trkpt lat="44.8355023" lon="1.070013"><ele>72.0</ele><time>2026-04-06T15:46:11.763Z</time></trkpt><trkpt lat="44.8354459" lon="1.0700954"><ele>72.0</ele><time>2026-04-06T15:46:12.761Z</time></trkpt><trkpt lat="44.8353882" lon="1.0701804"><ele>72.0</ele><time>2026-04-06T15:46:13.764Z</time></trkpt><trkpt lat="44.8353305" lon="1.0702657"><ele>72.0</ele><time>2026-04-06T15:46:14.757Z</time></trkpt><trkpt lat="44.8352694" lon="1.0703499"><ele>71.5</ele><time>2026-04-06T15:46:15.763Z</time></trkpt><trkpt lat="44.8352078" lon="1.0704352"><ele>71.0</ele><time>2026-04-06T15:46:16.763Z</time></trkpt><trkpt lat="44.8351411" lon="1.0705209"><ele>70.5</ele><time>2026-04-06T15:46:17.76Z</time></trkpt><trkpt lat="44.835079" lon="1.0706078"><ele>70.0</ele><time>2026-04-06T15:46:18.757Z</time></trkpt><trkpt lat="44.8350203" lon="1.0707035"><ele>69.5</ele><time>2026-04-06T15:46:19.759Z</time></trkpt><trkpt lat="44.8349683" lon="1.0708066"><ele>69.0</ele><time>2026-04-06T15:46:20.759Z</time></trkpt><trkpt lat="44.8349234" lon="1.0709173"><ele>69.0</ele><time>2026-04-06T15:46:21.761Z</time></trkpt><trkpt lat="44.8348813" lon="1.071032"><ele>69.0</ele><time>2026-04-06T15:46:22.751Z</time></trkpt><trkpt lat="44.8348401" lon="1.071147"><ele>69.0</ele><time>2026-04-06T15:46:23.764Z</time></trkpt><trkpt lat="44.8347961" lon="1.0712615"><ele>69.0</ele><time>2026-04-06T15:46:24.764Z</time></trkpt><trkpt lat="44.8347463" lon="1.0713703"><ele>69.0</ele><time>2026-04-06T15:46:25.76Z</time></trkpt><trkpt lat="44.8346933" lon="1.0714752"><ele>69.0</ele><time>2026-04-06T15:46:26.759Z</time></trkpt><trkpt lat="44.8346378" lon="1.0715741"><ele>69.0</ele><time>2026-04-06T15:46:27.757Z</time></trkpt><trkpt lat="44.8345829" lon="1.0716672"><ele>69.0</ele><time>2026-04-06T15:46:28.764Z</time></trkpt><trkpt lat="44.8345289" lon="1.0717547"><ele>69.0</ele><time>2026-04-06T15:46:29.756Z</time></trkpt><trkpt lat="44.8344759" lon="1.0718391"><ele>69.0</ele><time>2026-04-06T15:46:30.763Z</time></trkpt><trkpt lat="44.8344258" lon="1.0719197"><ele>69.0</ele><time>2026-04-06T15:46:31.77Z</time></trkpt><trkpt lat="44.8343752" lon="1.0719972"><ele>68.0</ele><time>2026-04-06T15:46:32.758Z</time></trkpt><trkpt lat="44.8343206" lon="1.0720669"><ele>67.0</ele><time>2026-04-06T15:46:33.756Z</time></trkpt><trkpt lat="44.8342616" lon="1.0721228"><ele>66.0</ele><time>2026-04-06T15:46:34.766Z</time></trkpt><trkpt lat="44.8342049" lon="1.0721645"><ele>65.0</ele><time>2026-04-06T15:46:35.764Z</time></trkpt><trkpt lat="44.834103" lon="1.0722206"><ele>64.0</ele><time>2026-04-06T15:46:37.763Z</time></trkpt><trkpt lat="44.8340065" lon="1.0722457"><ele>63.0</ele><time>2026-04-06T15:46:39.761Z</time></trkpt><trkpt lat="44.8339218" lon="1.0723096"><ele>64.0</ele><time>2026-04-06T15:46:41.758Z</time></trkpt><trkpt lat="44.8338995" lon="1.0724303"><ele>65.0</ele><time>2026-04-06T15:46:43.758Z</time></trkpt><trkpt lat="44.8339527" lon="1.0725539"><ele>66.0</ele><time>2026-04-06T15:46:45.757Z</time></trkpt><trkpt lat="44.83405" lon="1.0726658"><ele>67.0</ele><time>2026-04-06T15:46:47.758Z</time></trkpt><trkpt lat="44.8341039" lon="1.0727196"><ele>68.0</ele><time>2026-04-06T15:46:48.758Z</time></trkpt><trkpt lat="44.8341748" lon="1.0727571"><ele>68.0</ele><time>2026-04-06T15:46:49.757Z</time></trkpt><trkpt lat="44.8342468" lon="1.0727951"><ele>68.0</ele><time>2026-04-06T15:46:50.762Z</time></trkpt><trkpt lat="44.8343281" lon="1.0728145"><ele>68.0</ele><time>2026-04-06T15:46:51.76Z</time></trkpt><trkpt lat="44.8344137" lon="1.0728225"><ele>68.0</ele><time>2026-04-06T15:46:52.758Z</time></trkpt><trkpt lat="44.8345044" lon="1.0728243"><ele>68.0</ele><time>2026-04-06T15:46:53.762Z</time></trkpt><trkpt lat="44.8345933" lon="1.0728253"><ele>68.0</ele><time>2026-04-06T15:46:54.755Z</time></trkpt><trkpt lat="44.8346768" lon="1.07283"><ele>67.57142857142857</ele><time>2026-04-06T15:46:55.757Z</time></trkpt><trkpt lat="44.8347548" lon="1.072837"><ele>67.14285714285714</ele><time>2026-04-06T15:46:56.759Z</time></trkpt><trkpt lat="44.8348258" lon="1.0728566"><ele>66.71428571428572</ele><time>2026-04-06T15:46:57.761Z</time></trkpt><trkpt lat="44.8348929" lon="1.0728888"><ele>66.28571428571428</ele><time>2026-04-06T15:46:58.76Z</time></trkpt><trkpt lat="44.8349525" lon="1.0729311"><ele>65.85714285714286</ele><time>2026-04-06T15:46:59.769Z</time></trkpt><trkpt lat="44.8350053" lon="1.0729885"><ele>65.42857142857143</ele><time>2026-04-06T15:47:00.778Z</time></trkpt><trkpt lat="44.8350562" lon="1.0730635"><ele>65.0</ele><time>2026-04-06T15:47:01.769Z</time></trkpt><trkpt lat="44.8351086" lon="1.0731406"><ele>65.0</ele><time>2026-04-06T15:47:02.757Z</time></trkpt><trkpt lat="44.8351317" lon="1.07325"><ele>65.0</ele><time>2026-04-06T15:47:03.757Z</time></trkpt><trkpt lat="44.8351352" lon="1.0733766"><ele>65.0</ele><time>2026-04-06T15:47:04.765Z</time></trkpt><trkpt lat="44.8351116" lon="1.0735127"><ele>65.0</ele><time>2026-04-06T15:47:05.758Z</time></trkpt><trkpt lat="44.8350624" lon="1.0736493"><ele>65.0</ele><time>2026-04-06T15:47:06.762Z</time></trkpt><trkpt lat="44.8349927" lon="1.0737775"><ele>64.75</ele><time>2026-04-06T15:47:07.764Z</time></trkpt><trkpt lat="44.8349129" lon="1.0739034"><ele>64.5</ele><time>2026-04-06T15:47:08.77Z</time></trkpt><trkpt lat="44.8348295" lon="1.0740291"><ele>64.25</ele><time>2026-04-06T15:47:09.762Z</time></trkpt><trkpt lat="44.8347464" lon="1.0741498"><ele>64.0</ele><time>2026-04-06T15:47:10.759Z</time></trkpt><trkpt lat="44.8346684" lon="1.0742701"><ele>63.6</ele><time>2026-04-06T15:47:11.765Z</time></trkpt><trkpt lat="44.8345914" lon="1.0743881"><ele>63.2</ele><time>2026-04-06T15:47:12.763Z</time></trkpt><trkpt lat="44.8345191" lon="1.0744993"><ele>62.800000000000004</ele><time>2026-04-06T15:47:13.758Z</time></trkpt><trkpt lat="44.8344451" lon="1.0746192"><ele>62.400000000000006</ele><time>2026-04-06T15:47:14.756Z</time></trkpt><trkpt lat="44.8343737" lon="1.0747415"><ele>62.0</ele><time>2026-04-06T15:47:15.761Z</time></trkpt><trkpt lat="44.8343056" lon="1.0748738"><ele>62.25</ele><time>2026-04-06T15:47:16.774Z</time></trkpt><trkpt lat="44.8342395" lon="1.0750077"><ele>62.5</ele><time>2026-04-06T15:47:17.77Z</time></trkpt><trkpt lat="44.8341703" lon="1.0751441"><ele>62.75</ele><time>2026-04-06T15:47:18.764Z</time></trkpt><trkpt lat="44.8340992" lon="1.0752807"><ele>63.0</ele><time>2026-04-06T15:47:19.774Z</time></trkpt><trkpt lat="44.8340277" lon="1.0754192"><ele>63.0</ele><time>2026-04-06T15:47:20.763Z</time></trkpt><trkpt lat="44.8339554" lon="1.0755615"><ele>63.0</ele><time>2026-04-06T15:47:21.758Z</time></trkpt><trkpt lat="44.8338841" lon="1.0757051"><ele>63.0</ele><time>2026-04-06T15:47:22.758Z</time></trkpt><trkpt lat="44.8338125" lon="1.0758513"><ele>63.0</ele><time>2026-04-06T15:47:23.764Z</time></trkpt><trkpt lat="44.8337431" lon="1.0759994"><ele>62.75</ele><time>2026-04-06T15:47:24.762Z</time></trkpt><trkpt lat="44.8336724" lon="1.0761492"><ele>62.5</ele><time>2026-04-06T15:47:25.76Z</time></trkpt><trkpt lat="44.8336033" lon="1.076296"><ele>62.25</ele><time>2026-04-06T15:47:26.759Z</time></trkpt><trkpt lat="44.8335388" lon="1.0764349"><ele>62.0</ele><time>2026-04-06T15:47:27.763Z</time></trkpt><trkpt lat="44.83348" lon="1.076563"><ele>62.00000000000001</ele><time>2026-04-06T15:47:28.759Z</time></trkpt><trkpt lat="44.8334271" lon="1.0766798"><ele>62.0</ele><time>2026-04-06T15:47:29.764Z</time></trkpt><trkpt lat="44.8333797" lon="1.0767842"><ele>62.0</ele><time>2026-04-06T15:47:30.763Z</time></trkpt><trkpt lat="44.8333385" lon="1.076877"><ele>62.0</ele><time>2026-04-06T15:47:31.768Z</time></trkpt><trkpt lat="44.8333033" lon="1.0769571"><ele>62.00000000000001</ele><time>2026-04-06T15:47:32.777Z</time></trkpt><trkpt lat="44.8332421" lon="1.0770731"><ele>62.0</ele><time>2026-04-06T15:47:34.761Z</time></trkpt><trkpt lat="44.8331714" lon="1.0771143"><ele>62.00000000000001</ele><time>2026-04-06T15:47:43.764Z</time></trkpt><trkpt lat="44.8331223" lon="1.0770185"><ele>62.0</ele><time>2026-04-06T15:47:46.759Z</time></trkpt><trkpt lat="44.8330873" lon="1.0768827"><ele>62.0</ele><time>2026-04-06T15:47:48.767Z</time></trkpt><trkpt lat="44.8330653" lon="1.0767965"><ele>62.0</ele><time>2026-04-06T15:47:49.767Z</time></trkpt><trkpt lat="44.8330417" lon="1.0767006"><ele>62.00000000000001</ele><time>2026-04-06T15:47:50.756Z</time></trkpt><trkpt lat="44.8330164" lon="1.0765985"><ele>62.0</ele><time>2026-04-06T15:47:51.757Z</time></trkpt><trkpt lat="44.832989" lon="1.0764927"><ele>62.00000000000001</ele><time>2026-04-06T15:47:52.76Z</time></trkpt><trkpt lat="44.8329607" lon="1.0763849"><ele>62.0</ele><time>2026-04-06T15:47:53.757Z</time></trkpt><trkpt lat="44.8329324" lon="1.0762752"><ele>62.0</ele><time>2026-04-06T15:47:54.781Z</time></trkpt><trkpt lat="44.8329069" lon="1.0761645"><ele>62.0</ele><time>2026-04-06T15:47:55.759Z</time></trkpt><trkpt lat="44.8328873" lon="1.0760562"><ele>62.00000000000001</ele><time>2026-04-06T15:47:56.764Z</time></trkpt><trkpt lat="44.8328714" lon="1.0759569"><ele>62.0</ele><time>2026-04-06T15:47:57.764Z</time></trkpt><trkpt lat="44.8328581" lon="1.0758637"><ele>63.0</ele><time>2026-04-06T15:47:58.768Z</time></trkpt><trkpt lat="44.8328391" lon="1.0756955"><ele>64.0</ele><time>2026-04-06T15:48:00.762Z</time></trkpt><trkpt lat="44.8328186" lon="1.0755599"><ele>65.0</ele><time>2026-04-06T15:48:02.758Z</time></trkpt><trkpt lat="44.8327703" lon="1.0754435"><ele>66.0</ele><time>2026-04-06T15:48:04.757Z</time></trkpt><trkpt lat="44.8326997" lon="1.0753406"><ele>67.0</ele><time>2026-04-06T15:48:06.766Z</time></trkpt><trkpt lat="44.8326235" lon="1.0752512"><ele>69.16666666666666</ele><time>2026-04-06T15:48:08.756Z</time></trkpt><trkpt lat="44.8325771" lon="1.075184"><ele>71.33333333333333</ele><time>2026-04-06T15:48:10.763Z</time></trkpt><trkpt lat="44.8325131" lon="1.0751545"><ele>73.5</ele><time>2026-04-06T15:48:18.767Z</time></trkpt><trkpt lat="44.8324223" lon="1.0752014"><ele>75.66666666666667</ele><time>2026-04-06T15:48:21.762Z</time></trkpt><trkpt lat="44.832334" lon="1.0752504"><ele>77.83333333333334</ele><time>2026-04-06T15:48:23.76Z</time></trkpt><trkpt lat="44.8322307" lon="1.0753361"><ele>80.0</ele><time>2026-04-06T15:48:25.767Z</time></trkpt><trkpt lat="44.83218" lon="1.0753916"><ele>80.0</ele><time>2026-04-06T15:48:26.768Z</time></trkpt><trkpt lat="44.8320938" lon="1.075505"><ele>80.0</ele><time>2026-04-06T15:48:28.767Z</time></trkpt><trkpt lat="44.8320177" lon="1.0756206"><ele>80.0</ele><time>2026-04-06T15:48:30.799Z</time></trkpt><trkpt lat="44.8319751" lon="1.0756869"><ele>80.0</ele><time>2026-04-06T15:48:31.76Z</time></trkpt><trkpt lat="44.8319262" lon="1.075762"><ele>80.0</ele><time>2026-04-06T15:48:32.762Z</time></trkpt><trkpt lat="44.8318766" lon="1.0758435"><ele>80.0</ele><time>2026-04-06T15:48:33.76Z</time></trkpt><trkpt lat="44.8318259" lon="1.0759282"><ele>81.28571428571428</ele><time>2026-04-06T15:48:34.762Z</time></trkpt><trkpt lat="44.8317743" lon="1.0760121"><ele>82.57142857142857</ele><time>2026-04-06T15:48:35.77Z</time></trkpt><trkpt lat="44.8317243" lon="1.0760946"><ele>83.85714285714286</ele><time>2026-04-06T15:48:36.756Z</time></trkpt><trkpt lat="44.8316755" lon="1.0761773"><ele>85.14285714285714</ele><time>2026-04-06T15:48:37.754Z</time></trkpt><trkpt lat="44.8316293" lon="1.0762576"><ele>86.42857142857143</ele><time>2026-04-06T15:48:38.753Z</time></trkpt><trkpt lat="44.8315844" lon="1.0763361"><ele>87.71428571428571</ele><time>2026-04-06T15:48:39.755Z</time></trkpt><trkpt lat="44.8315421" lon="1.0764133"><ele>89.0</ele><time>2026-04-06T15:48:40.764Z</time></trkpt><trkpt lat="44.8315002" lon="1.0764917"><ele>88.99999999999999</ele><time>2026-04-06T15:48:41.768Z</time></trkpt><trkpt lat="44.8314593" lon="1.0765692"><ele>89.0</ele><time>2026-04-06T15:48:42.759Z</time></trkpt><trkpt lat="44.8314176" lon="1.0766513"><ele>89.0</ele><time>2026-04-06T15:48:43.76Z</time></trkpt><trkpt lat="44.8313742" lon="1.0767362"><ele>89.0</ele><time>2026-04-06T15:48:44.755Z</time></trkpt><trkpt lat="44.8313309" lon="1.0768231"><ele>89.0</ele><time>2026-04-06T15:48:45.77Z</time></trkpt><trkpt lat="44.831288" lon="1.0769107"><ele>88.99999999999999</ele><time>2026-04-06T15:48:46.76Z</time></trkpt><trkpt lat="44.8312457" lon="1.0770048"><ele>89.0</ele><time>2026-04-06T15:48:47.761Z</time></trkpt><trkpt lat="44.8312072" lon="1.0771016"><ele>86.83333333333334</ele><time>2026-04-06T15:48:48.761Z</time></trkpt><trkpt lat="44.8311712" lon="1.0771974"><ele>84.66666666666667</ele><time>2026-04-06T15:48:49.779Z</time></trkpt><trkpt lat="44.8311348" lon="1.0772948"><ele>82.5</ele><time>2026-04-06T15:48:50.757Z</time></trkpt><trkpt lat="44.8311024" lon="1.0773961"><ele>80.33333333333333</ele><time>2026-04-06T15:48:51.76Z</time></trkpt><trkpt lat="44.8310701" lon="1.0774983"><ele>78.16666666666666</ele><time>2026-04-06T15:48:52.76Z</time></trkpt><trkpt lat="44.8310361" lon="1.0776001"><ele>76.0</ele><time>2026-04-06T15:48:53.764Z</time></trkpt><trkpt lat="44.8310008" lon="1.0776999"><ele>77.4</ele><time>2026-04-06T15:48:54.764Z</time></trkpt><trkpt lat="44.8309674" lon="1.0777956"><ele>78.8</ele><time>2026-04-06T15:48:55.761Z</time></trkpt><trkpt lat="44.8309385" lon="1.0778833"><ele>80.2</ele><time>2026-04-06T15:48:56.762Z</time></trkpt><trkpt lat="44.8309" lon="1.0780386"><ele>81.60000000000001</ele><time>2026-04-06T15:48:58.769Z</time></trkpt><trkpt lat="44.8308993" lon="1.0781831"><ele>83.0</ele><time>2026-04-06T15:49:00.762Z</time></trkpt><trkpt lat="44.8309212" lon="1.0783184"><ele>83.0</ele><time>2026-04-06T15:49:02.76Z</time></trkpt><trkpt lat="44.8309117" lon="1.0784595"><ele>83.0</ele><time>2026-04-06T15:49:04.755Z</time></trkpt><trkpt lat="44.8308893" lon="1.0785427"><ele>83.0</ele><time>2026-04-06T15:49:05.765Z</time></trkpt><trkpt lat="44.8308594" lon="1.07863"><ele>83.0</ele><time>2026-04-06T15:49:06.761Z</time></trkpt><trkpt lat="44.8308278" lon="1.0787246"><ele>83.0</ele><time>2026-04-06T15:49:07.765Z</time></trkpt><trkpt lat="44.8307939" lon="1.0788229"><ele>83.0</ele><time>2026-04-06T15:49:08.758Z</time></trkpt><trkpt lat="44.830757" lon="1.0789207"><ele>83.0</ele><time>2026-04-06T15:49:09.762Z</time></trkpt><trkpt lat="44.8307192" lon="1.0790166"><ele>83.0</ele><time>2026-04-06T15:49:10.766Z</time></trkpt><trkpt lat="44.8306838" lon="1.0791075"><ele>83.0</ele><time>2026-04-06T15:49:11.772Z</time></trkpt><trkpt lat="44.8306484" lon="1.0791952"><ele>83.0</ele><time>2026-04-06T15:49:12.757Z</time></trkpt><trkpt lat="44.8306144" lon="1.0792812"><ele>83.0</ele><time>2026-04-06T15:49:13.769Z</time></trkpt><trkpt lat="44.8305843" lon="1.0793654"><ele>83.0</ele><time>2026-04-06T15:49:14.764Z</time></trkpt><trkpt lat="44.8305555" lon="1.0794485"><ele>83.0</ele><time>2026-04-06T15:49:15.761Z</time></trkpt><trkpt lat="44.8305349" lon="1.0795394"><ele>81.75</ele><time>2026-04-06T15:49:16.762Z</time></trkpt><trkpt lat="44.8304959" lon="1.0797013"><ele>80.5</ele><time>2026-04-06T15:49:18.765Z</time></trkpt><trkpt lat="44.8304543" lon="1.0798613"><ele>79.25</ele><time>2026-04-06T15:49:20.764Z</time></trkpt><trkpt lat="44.830431" lon="1.0800296"><ele>78.0</ele><time>2026-04-06T15:49:22.767Z</time></trkpt><trkpt lat="44.8304447" lon="1.0801926"><ele>77.33333333333333</ele><time>2026-04-06T15:49:24.77Z</time></trkpt><trkpt lat="44.8304452" lon="1.0803695"><ele>76.66666666666667</ele><time>2026-04-06T15:49:26.777Z</time></trkpt><trkpt lat="44.8304339" lon="1.0804592"><ele>76.0</ele><time>2026-04-06T15:49:27.766Z</time></trkpt><trkpt lat="44.8304171" lon="1.0805505"><ele>75.33333333333334</ele><time>2026-04-06T15:49:28.762Z</time></trkpt><trkpt lat="44.8303973" lon="1.0806385"><ele>74.66666666666667</ele><time>2026-04-06T15:49:29.767Z</time></trkpt><trkpt lat="44.8303594" lon="1.0807935"><ele>74.0</ele><time>2026-04-06T15:49:31.772Z</time></trkpt><trkpt lat="44.8303105" lon="1.0809489"><ele>73.16666666666667</ele><time>2026-04-06T15:49:33.769Z</time></trkpt><trkpt lat="44.8302828" lon="1.0810332"><ele>72.33333333333334</ele><time>2026-04-06T15:49:34.761Z</time></trkpt><trkpt lat="44.8302507" lon="1.0811226"><ele>71.5</ele><time>2026-04-06T15:49:35.789Z</time></trkpt><trkpt lat="44.8302113" lon="1.0812176"><ele>70.66666666666667</ele><time>2026-04-06T15:49:36.764Z</time></trkpt><trkpt lat="44.8301686" lon="1.0813158"><ele>69.83333333333333</ele><time>2026-04-06T15:49:37.76Z</time></trkpt><trkpt lat="44.830129" lon="1.0814123"><ele>69.0</ele><time>2026-04-06T15:49:38.765Z</time></trkpt><trkpt lat="44.8300944" lon="1.0815061"><ele>71.2</ele><time>2026-04-06T15:49:39.769Z</time></trkpt><trkpt lat="44.8300489" lon="1.0816323"><ele>73.4</ele><time>2026-04-06T15:49:41.763Z</time></trkpt><trkpt lat="44.8300214" lon="1.0817134"><ele>75.6</ele><time>2026-04-06T15:49:52.759Z</time></trkpt><trkpt lat="44.8299824" lon="1.0818454"><ele>77.8</ele><time>2026-04-06T15:49:55.768Z</time></trkpt><trkpt lat="44.8299413" lon="1.0819897"><ele>80.0</ele><time>2026-04-06T15:49:57.77Z</time></trkpt><trkpt lat="44.8298943" lon="1.0821584"><ele>80.0</ele><time>2026-04-06T15:49:59.76Z</time></trkpt><trkpt lat="44.8298643" lon="1.0822528"><ele>80.0</ele><time>2026-04-06T15:50:00.773Z</time></trkpt><trkpt lat="44.8298344" lon="1.0823551"><ele>80.0</ele><time>2026-04-06T15:50:01.762Z</time></trkpt><trkpt lat="44.8298034" lon="1.0824632"><ele>80.0</ele><time>2026-04-06T15:50:02.761Z</time></trkpt><trkpt lat="44.8297758" lon="1.0825756"><ele>80.0</ele><time>2026-04-06T15:50:03.77Z</time></trkpt><trkpt lat="44.8297521" lon="1.082692"><ele>80.0</ele><time>2026-04-06T15:50:04.769Z</time></trkpt><trkpt lat="44.8297269" lon="1.0828093"><ele>79.33333333333334</ele><time>2026-04-06T15:50:05.76Z</time></trkpt><trkpt lat="44.8297006" lon="1.0829253"><ele>78.66666666666667</ele><time>2026-04-06T15:50:06.761Z</time></trkpt><trkpt lat="44.8296746" lon="1.0830402"><ele>78.0</ele><time>2026-04-06T15:50:07.764Z</time></trkpt><trkpt lat="44.8296445" lon="1.0831574"><ele>77.33333333333333</ele><time>2026-04-06T15:50:08.761Z</time></trkpt><trkpt lat="44.8296129" lon="1.0832734"><ele>76.66666666666666</ele><time>2026-04-06T15:50:09.764Z</time></trkpt><trkpt lat="44.8295815" lon="1.0833863"><ele>76.0</ele><time>2026-04-06T15:50:10.757Z</time></trkpt><trkpt lat="44.8295489" lon="1.0834948"><ele>75.33333333333333</ele><time>2026-04-06T15:50:11.76Z</time></trkpt><trkpt lat="44.8295163" lon="1.0835961"><ele>74.66666666666666</ele><time>2026-04-06T15:50:12.761Z</time></trkpt><trkpt lat="44.8294861" lon="1.0836876"><ele>74.0</ele><time>2026-04-06T15:50:13.765Z</time></trkpt><trkpt lat="44.8294578" lon="1.083772"><ele>73.33333333333333</ele><time>2026-04-06T15:50:14.763Z</time></trkpt><trkpt lat="44.8294121" lon="1.0839068"><ele>72.66666666666667</ele><time>2026-04-06T15:50:16.76Z</time></trkpt><trkpt lat="44.8294433" lon="1.0839851"><ele>72.0</ele><time>2026-04-06T15:51:01.77Z</time></trkpt><trkpt lat="44.8295074" lon="1.0839923"><ele>72.0</ele><time>2026-04-06T15:51:03.774Z</time></trkpt><trkpt lat="44.8295795" lon="1.0840248"><ele>72.0</ele><time>2026-04-06T15:51:05.769Z</time></trkpt><trkpt lat="44.8296402" lon="1.0841048"><ele>72.0</ele><time>2026-04-06T15:51:07.763Z</time></trkpt><trkpt lat="44.8296759" lon="1.0842295"><ele>72.0</ele><time>2026-04-06T15:51:09.789Z</time></trkpt><trkpt lat="44.8296843" lon="1.0843966"><ele>72.0</ele><time>2026-04-06T15:51:11.766Z</time></trkpt><trkpt lat="44.8296738" lon="1.0844945"><ele>72.0</ele><time>2026-04-06T15:51:12.78Z</time></trkpt><trkpt lat="44.8296552" lon="1.084594"><ele>71.83333333333333</ele><time>2026-04-06T15:51:13.769Z</time></trkpt><trkpt lat="44.8296319" lon="1.0846913"><ele>71.66666666666667</ele><time>2026-04-06T15:51:14.766Z</time></trkpt><trkpt lat="44.8296052" lon="1.0847891"><ele>71.5</ele><time>2026-04-06T15:51:15.768Z</time></trkpt><trkpt lat="44.8295801" lon="1.0848832"><ele>71.33333333333334</ele><time>2026-04-06T15:51:16.76Z</time></trkpt><trkpt lat="44.8295591" lon="1.084969"><ele>71.16666666666667</ele><time>2026-04-06T15:51:17.76Z</time></trkpt><trkpt lat="44.8295358" lon="1.0851183"><ele>71.0</ele><time>2026-04-06T15:51:19.769Z</time></trkpt><trkpt lat="44.8295768" lon="1.0852454"><ele>70.2</ele><time>2026-04-06T15:51:21.771Z</time></trkpt><trkpt lat="44.8296431" lon="1.0853247"><ele>69.39999999999999</ele><time>2026-04-06T15:51:23.768Z</time></trkpt><trkpt lat="44.8297248" lon="1.0853881"><ele>68.6</ele><time>2026-04-06T15:51:25.769Z</time></trkpt><trkpt lat="44.8298277" lon="1.085477"><ele>67.8</ele><time>2026-04-06T15:51:27.769Z</time></trkpt><trkpt lat="44.8298896" lon="1.0855315"><ele>67.0</ele><time>2026-04-06T15:51:28.766Z</time></trkpt><trkpt lat="44.82996" lon="1.0855941"><ele>67.0</ele><time>2026-04-06T15:51:29.785Z</time></trkpt><trkpt lat="44.8300355" lon="1.0856632"><ele>67.0</ele><time>2026-04-06T15:51:30.773Z</time></trkpt><trkpt lat="44.830116" lon="1.085732"><ele>67.0</ele><time>2026-04-06T15:51:31.782Z</time></trkpt><trkpt lat="44.8301965" lon="1.0858038"><ele>67.0</ele><time>2026-04-06T15:51:32.765Z</time></trkpt><trkpt lat="44.8302749" lon="1.0858741"><ele>67.0</ele><time>2026-04-06T15:51:33.769Z</time></trkpt><trkpt lat="44.8303504" lon="1.0859414"><ele>66.16666666666666</ele><time>2026-04-06T15:51:34.775Z</time></trkpt><trkpt lat="44.8304203" lon="1.0860044"><ele>65.33333333333333</ele><time>2026-04-06T15:51:35.762Z</time></trkpt><trkpt lat="44.8304853" lon="1.0860648"><ele>64.5</ele><time>2026-04-06T15:51:36.76Z</time></trkpt><trkpt lat="44.8305457" lon="1.0861203"><ele>63.66666666666667</ele><time>2026-04-06T15:51:37.762Z</time></trkpt><trkpt lat="44.8306237" lon="1.0862067"><ele>62.833333333333336</ele><time>2026-04-06T15:51:39.766Z</time></trkpt><trkpt lat="44.8306454" lon="1.0863297"><ele>62.0</ele><time>2026-04-06T15:51:42.765Z</time></trkpt><trkpt lat="44.8306178" lon="1.0865108"><ele>62.0</ele><time>2026-04-06T15:51:44.763Z</time></trkpt><trkpt lat="44.8305913" lon="1.0866311"><ele>62.0</ele><time>2026-04-06T15:51:45.775Z</time></trkpt><trkpt lat="44.8305614" lon="1.0867634"><ele>62.0</ele><time>2026-04-06T15:51:46.767Z</time></trkpt><trkpt lat="44.830528" lon="1.086903"><ele>62.0</ele><time>2026-04-06T15:51:47.764Z</time></trkpt><trkpt lat="44.8304897" lon="1.0870491"><ele>62.0</ele><time>2026-04-06T15:51:48.758Z</time></trkpt><trkpt lat="44.8304483" lon="1.0872017"><ele>62.0</ele><time>2026-04-06T15:51:49.765Z</time></trkpt><trkpt lat="44.8304063" lon="1.087358"><ele>62.0</ele><time>2026-04-06T15:51:50.773Z</time></trkpt><trkpt lat="44.8303658" lon="1.0875095"><ele>62.0</ele><time>2026-04-06T15:51:51.77Z</time></trkpt><trkpt lat="44.8303226" lon="1.0876523"><ele>62.0</ele><time>2026-04-06T15:51:52.758Z</time></trkpt><trkpt lat="44.8302799" lon="1.0877914"><ele>62.0</ele><time>2026-04-06T15:51:53.763Z</time></trkpt><trkpt lat="44.8302159" lon="1.0879197"><ele>62.0</ele><time>2026-04-06T15:51:54.767Z</time></trkpt><trkpt lat="44.8301445" lon="1.0880389"><ele>62.0</ele><time>2026-04-06T15:51:55.765Z</time></trkpt><trkpt lat="44.8300654" lon="1.0881524"><ele>62.0</ele><time>2026-04-06T15:51:56.767Z</time></trkpt><trkpt lat="44.8299772" lon="1.0882544"><ele>62.0</ele><time>2026-04-06T15:51:57.767Z</time></trkpt><trkpt lat="44.8298809" lon="1.0883482"><ele>62.0</ele><time>2026-04-06T15:51:58.768Z</time></trkpt><trkpt lat="44.8297771" lon="1.088437"><ele>62.0</ele><time>2026-04-06T15:51:59.764Z</time></trkpt><trkpt lat="44.8296693" lon="1.0885293"><ele>62.0</ele><time>2026-04-06T15:52:00.762Z</time></trkpt><trkpt lat="44.8295616" lon="1.0886259"><ele>62.0</ele><time>2026-04-06T15:52:01.764Z</time></trkpt><trkpt lat="44.8294545" lon="1.088726"><ele>62.0</ele><time>2026-04-06T15:52:02.769Z</time></trkpt><trkpt lat="44.829348" lon="1.0888285"><ele>62.0</ele><time>2026-04-06T15:52:03.768Z</time></trkpt><trkpt lat="44.8292424" lon="1.0889333"><ele>62.0</ele><time>2026-04-06T15:52:04.781Z</time></trkpt><trkpt lat="44.8291371" lon="1.0890411"><ele>62.0</ele><time>2026-04-06T15:52:05.76Z</time></trkpt><trkpt lat="44.829033" lon="1.0891513"><ele>62.0</ele><time>2026-04-06T15:52:06.768Z</time></trkpt><trkpt lat="44.8289304" lon="1.0892663"><ele>62.0</ele><time>2026-04-06T15:52:07.763Z</time></trkpt><trkpt lat="44.8288306" lon="1.0893844"><ele>62.0</ele><time>2026-04-06T15:52:08.759Z</time></trkpt><trkpt lat="44.828733" lon="1.0895046"><ele>62.0</ele><time>2026-04-06T15:52:09.773Z</time></trkpt><trkpt lat="44.8286375" lon="1.0896272"><ele>62.0</ele><time>2026-04-06T15:52:10.762Z</time></trkpt><trkpt lat="44.8285433" lon="1.0897519"><ele>62.0</ele><time>2026-04-06T15:52:11.763Z</time></trkpt><trkpt lat="44.8284501" lon="1.0898778"><ele>62.0</ele><time>2026-04-06T15:52:12.763Z</time></trkpt><trkpt lat="44.8283581" lon="1.0900042"><ele>62.0</ele><time>2026-04-06T15:52:13.767Z</time></trkpt><trkpt lat="44.8282672" lon="1.0901306"><ele>62.0</ele><time>2026-04-06T15:52:14.756Z</time></trkpt><trkpt lat="44.828178" lon="1.0902552"><ele>62.0</ele><time>2026-04-06T15:52:15.76Z</time></trkpt><trkpt lat="44.828089" lon="1.0903826"><ele>62.0</ele><time>2026-04-06T15:52:16.761Z</time></trkpt><trkpt lat="44.8280015" lon="1.0905086"><ele>62.0</ele><time>2026-04-06T15:52:17.768Z</time></trkpt><trkpt lat="44.8279137" lon="1.0906321"><ele>62.0</ele><time>2026-04-06T15:52:18.787Z</time></trkpt><trkpt lat="44.8278265" lon="1.0907554"><ele>62.0</ele><time>2026-04-06T15:52:19.77Z</time></trkpt><trkpt lat="44.8277378" lon="1.0908796"><ele>62.0</ele><time>2026-04-06T15:52:20.759Z</time></trkpt><trkpt lat="44.8276525" lon="1.0909987"><ele>62.0</ele><time>2026-04-06T15:52:21.763Z</time></trkpt><trkpt lat="44.8275666" lon="1.0911169"><ele>62.8</ele><time>2026-04-06T15:52:22.782Z</time></trkpt><trkpt lat="44.8274788" lon="1.0912264"><ele>63.6</ele><time>2026-04-06T15:52:23.77Z</time></trkpt><trkpt lat="44.8273936" lon="1.0913306"><ele>64.39999999999999</ele><time>2026-04-06T15:52:24.769Z</time></trkpt><trkpt lat="44.8273081" lon="1.091416"><ele>65.2</ele><time>2026-04-06T15:52:25.761Z</time></trkpt><trkpt lat="44.82723" lon="1.0914881"><ele>66.0</ele><time>2026-04-06T15:52:26.772Z</time></trkpt><trkpt lat="44.8271383" lon="1.0915255"><ele>66.0</ele><time>2026-04-06T15:52:27.759Z</time></trkpt><trkpt lat="44.8270431" lon="1.0915298"><ele>66.0</ele><time>2026-04-06T15:52:28.775Z</time></trkpt><trkpt lat="44.8269618" lon="1.0915271"><ele>66.0</ele><time>2026-04-06T15:52:29.772Z</time></trkpt><trkpt lat="44.8268785" lon="1.0915346"><ele>66.0</ele><time>2026-04-06T15:52:30.766Z</time></trkpt><trkpt lat="44.8267992" lon="1.0915541"><ele>66.0</ele><time>2026-04-06T15:52:31.762Z</time></trkpt><trkpt lat="44.8267232" lon="1.0915697"><ele>66.0</ele><time>2026-04-06T15:52:32.764Z</time></trkpt><trkpt lat="44.8266511" lon="1.0915663"><ele>68.5</ele><time>2026-04-06T15:52:33.772Z</time></trkpt><trkpt lat="44.8265433" lon="1.0914881"><ele>71.0</ele><time>2026-04-06T15:52:35.768Z</time></trkpt><trkpt lat="44.8264443" lon="1.0914082"><ele>73.5</ele><time>2026-04-06T15:52:37.766Z</time></trkpt><trkpt lat="44.82638" lon="1.0914021"><ele>76.0</ele><time>2026-04-06T15:52:38.761Z</time></trkpt><trkpt lat="44.8263128" lon="1.0913958"><ele>78.5</ele><time>2026-04-06T15:52:39.762Z</time></trkpt><trkpt lat="44.8262499" lon="1.0913896"><ele>81.0</ele><time>2026-04-06T15:52:40.76Z</time></trkpt><trkpt lat="44.826133" lon="1.0913751"><ele>81.0</ele><time>2026-04-06T15:52:42.763Z</time></trkpt><trkpt lat="44.8260324" lon="1.0913751"><ele>81.0</ele><time>2026-04-06T15:52:44.771Z</time></trkpt><trkpt lat="44.8259328" lon="1.0913767"><ele>81.0</ele><time>2026-04-06T15:52:46.771Z</time></trkpt><trkpt lat="44.825811" lon="1.0913869"><ele>81.0</ele><time>2026-04-06T15:52:48.762Z</time></trkpt><trkpt lat="44.8257413" lon="1.0913866"><ele>81.0</ele><time>2026-04-06T15:52:49.772Z</time></trkpt><trkpt lat="44.8256732" lon="1.0913859"><ele>81.0</ele><time>2026-04-06T15:52:50.783Z</time></trkpt><trkpt lat="44.8256028" lon="1.0913804"><ele>81.0</ele><time>2026-04-06T15:52:51.783Z</time></trkpt><trkpt lat="44.8255342" lon="1.0913765"><ele>81.0</ele><time>2026-04-06T15:52:52.774Z</time></trkpt><trkpt lat="44.8254645" lon="1.0913608"><ele>81.0</ele><time>2026-04-06T15:52:53.762Z</time></trkpt><trkpt lat="44.8253938" lon="1.0913435"><ele>81.0</ele><time>2026-04-06T15:52:54.763Z</time></trkpt><trkpt lat="44.8253265" lon="1.0913247"><ele>81.0</ele><time>2026-04-06T15:52:55.763Z</time></trkpt><trkpt lat="44.8252068" lon="1.0912895"><ele>81.6</ele><time>2026-04-06T15:52:57.756Z</time></trkpt><trkpt lat="44.8251133" lon="1.0912441"><ele>82.19999999999999</ele><time>2026-04-06T15:52:59.762Z</time></trkpt><trkpt lat="44.8250284" lon="1.0911642"><ele>82.80000000000001</ele><time>2026-04-06T15:53:01.754Z</time></trkpt><trkpt lat="44.8249532" lon="1.0910534"><ele>83.4</ele><time>2026-04-06T15:53:03.769Z</time></trkpt><trkpt lat="44.8248904" lon="1.0908928"><ele>84.0</ele><time>2026-04-06T15:53:05.768Z</time></trkpt><trkpt lat="44.8248599" lon="1.0908075"><ele>84.14285714285714</ele><time>2026-04-06T15:53:06.771Z</time></trkpt><trkpt lat="44.8248286" lon="1.090721"><ele>84.28571428571428</ele><time>2026-04-06T15:53:07.763Z</time></trkpt><trkpt lat="44.8248108" lon="1.0906255"><ele>84.42857142857143</ele><time>2026-04-06T15:53:08.763Z</time></trkpt><trkpt lat="44.8247947" lon="1.0905284"><ele>84.57142857142857</ele><time>2026-04-06T15:53:09.76Z</time></trkpt><trkpt lat="44.8247794" lon="1.0904283"><ele>84.71428571428571</ele><time>2026-04-06T15:53:10.768Z</time></trkpt><trkpt lat="44.8247658" lon="1.090329"><ele>84.85714285714286</ele><time>2026-04-06T15:53:11.763Z</time></trkpt><trkpt lat="44.8247516" lon="1.0902288"><ele>85.0</ele><time>2026-04-06T15:53:12.774Z</time></trkpt><trkpt lat="44.8247342" lon="1.0901322"><ele>85.0</ele><time>2026-04-06T15:53:13.76Z</time></trkpt><trkpt lat="44.824717" lon="1.0900352"><ele>85.0</ele><time>2026-04-06T15:53:14.76Z</time></trkpt><trkpt lat="44.8247002" lon="1.0899412"><ele>85.0</ele><time>2026-04-06T15:53:15.771Z</time></trkpt><trkpt lat="44.82468" lon="1.0898499"><ele>85.0</ele><time>2026-04-06T15:53:16.772Z</time></trkpt><trkpt lat="44.8246592" lon="1.0897613"><ele>85.0</ele><time>2026-04-06T15:53:17.764Z</time></trkpt><trkpt lat="44.8246386" lon="1.0896747"><ele>85.0</ele><time>2026-04-06T15:53:18.768Z</time></trkpt><trkpt lat="44.824585" lon="1.0895235"><ele>85.8</ele><time>2026-04-06T15:53:20.774Z</time></trkpt><trkpt lat="44.8245196" lon="1.0893945"><ele>86.6</ele><time>2026-04-06T15:53:22.769Z</time></trkpt><trkpt lat="44.8244461" lon="1.0892896"><ele>87.4</ele><time>2026-04-06T15:53:24.783Z</time></trkpt><trkpt lat="44.8243636" lon="1.0892122"><ele>88.2</ele><time>2026-04-06T15:53:26.763Z</time></trkpt><trkpt lat="44.8242776" lon="1.0891633"><ele>89.0</ele><time>2026-04-06T15:53:28.754Z</time></trkpt><trkpt lat="44.8241826" lon="1.0891462"><ele>89.2</ele><time>2026-04-06T15:53:30.77Z</time></trkpt><trkpt lat="44.8241051" lon="1.0891412"><ele>89.4</ele><time>2026-04-06T15:53:32.763Z</time></trkpt><trkpt lat="44.8240458" lon="1.0891065"><ele>89.6</ele><time>2026-04-06T15:53:34.776Z</time></trkpt><trkpt lat="44.8239757" lon="1.0890326"><ele>89.8</ele><time>2026-04-06T15:53:36.769Z</time></trkpt><trkpt lat="44.8238922" lon="1.0889311"><ele>90.0</ele><time>2026-04-06T15:53:38.768Z</time></trkpt><trkpt lat="44.8237959" lon="1.0888222"><ele>92.0</ele><time>2026-04-06T15:53:40.768Z</time></trkpt><trkpt lat="44.8237083" lon="1.0887307"><ele>94.0</ele><time>2026-04-06T15:53:42.76Z</time></trkpt><trkpt lat="44.8236273" lon="1.0886467"><ele>96.0</ele><time>2026-04-06T15:53:44.765Z</time></trkpt><trkpt lat="44.8235544" lon="1.088541"><ele>98.0</ele><time>2026-04-06T15:53:46.764Z</time></trkpt><trkpt lat="44.823484" lon="1.0884048"><ele>100.0</ele><time>2026-04-06T15:53:48.76Z</time></trkpt><trkpt lat="44.8234259" lon="1.0882517"><ele>100.0</ele><time>2026-04-06T15:53:50.764Z</time></trkpt><trkpt lat="44.8233761" lon="1.0880965"><ele>100.0</ele><time>2026-04-06T15:53:52.759Z</time></trkpt><trkpt lat="44.8233338" lon="1.0879472"><ele>100.0</ele><time>2026-04-06T15:53:54.763Z</time></trkpt><trkpt lat="44.8232991" lon="1.0878114"><ele>100.0</ele><time>2026-04-06T15:53:56.777Z</time></trkpt><trkpt lat="44.8232639" lon="1.0876997"><ele>100.0</ele><time>2026-04-06T15:53:58.772Z</time></trkpt><trkpt lat="44.8231949" lon="1.0876099"><ele>100.00000000000001</ele><time>2026-04-06T15:54:00.76Z</time></trkpt><trkpt lat="44.8231029" lon="1.0875523"><ele>100.0</ele><time>2026-04-06T15:54:02.765Z</time></trkpt><trkpt lat="44.8230399" lon="1.087504"><ele>100.0</ele><time>2026-04-06T15:54:04.77Z</time></trkpt><trkpt lat="44.8230311" lon="1.0873915"><ele>100.0</ele><time>2026-04-06T15:54:12.759Z</time></trkpt><trkpt lat="44.8230588" lon="1.0872995"><ele>100.00000000000001</ele><time>2026-04-06T15:54:14.769Z</time></trkpt><trkpt lat="44.8231101" lon="1.0871839"><ele>100.0</ele><time>2026-04-06T15:54:16.761Z</time></trkpt><trkpt lat="44.8231514" lon="1.0870889"><ele>101.42857142857143</ele><time>2026-04-06T15:54:18.759Z</time></trkpt><trkpt lat="44.8231737" lon="1.0870046"><ele>102.85714285714286</ele><time>2026-04-06T15:54:26.772Z</time></trkpt><trkpt lat="44.823159" lon="1.0868932"><ele>104.28571428571428</ele><time>2026-04-06T15:54:29.785Z</time></trkpt><trkpt lat="44.8231363" lon="1.086794"><ele>105.71428571428572</ele><time>2026-04-06T15:54:31.781Z</time></trkpt><trkpt lat="44.8231092" lon="1.086691"><ele>107.14285714285714</ele><time>2026-04-06T15:54:33.761Z</time></trkpt><trkpt lat="44.8230825" lon="1.0865873"><ele>108.57142857142857</ele><time>2026-04-06T15:54:35.775Z</time></trkpt><trkpt lat="44.8230653" lon="1.0864942"><ele>110.0</ele><time>2026-04-06T15:54:37.764Z</time></trkpt><trkpt lat="44.8230703" lon="1.0863811"><ele>111.83333333333333</ele><time>2026-04-06T15:54:40.758Z</time></trkpt><trkpt lat="44.8231168" lon="1.0862942"><ele>113.66666666666666</ele><time>2026-04-06T15:54:43.761Z</time></trkpt><trkpt lat="44.8230901" lon="1.0861771"><ele>115.5</ele><time>2026-04-06T15:54:46.754Z</time></trkpt><trkpt lat="44.8230452" lon="1.086082"><ele>117.33333333333334</ele><time>2026-04-06T15:54:48.758Z</time></trkpt><trkpt lat="44.8230033" lon="1.0859845"><ele>119.16666666666667</ele><time>2026-04-06T15:54:50.76Z</time></trkpt><trkpt lat="44.8229675" lon="1.0858687"><ele>121.0</ele><time>2026-04-06T15:54:52.765Z</time></trkpt><trkpt lat="44.8229349" lon="1.0857547"><ele>122.66666666666667</ele><time>2026-04-06T15:54:54.761Z</time></trkpt><trkpt lat="44.8229055" lon="1.0856298"><ele>124.33333333333334</ele><time>2026-04-06T15:54:56.762Z</time></trkpt><trkpt lat="44.8228905" lon="1.0855035"><ele>126.0</ele><time>2026-04-06T15:54:58.775Z</time></trkpt><trkpt lat="44.822878" lon="1.0854001"><ele>127.66666666666666</ele><time>2026-04-06T15:55:00.783Z</time></trkpt><trkpt lat="44.8228695" lon="1.0853048"><ele>129.33333333333331</ele><time>2026-04-06T15:55:02.762Z</time></trkpt><trkpt lat="44.8228528" lon="1.0851882"><ele>131.0</ele><time>2026-04-06T15:55:07.77Z</time></trkpt><trkpt lat="44.8228462" lon="1.0850929"><ele>131.0</ele><time>2026-04-06T15:55:09.767Z</time></trkpt><trkpt lat="44.8228549" lon="1.0849994"><ele>131.0</ele><time>2026-04-06T15:55:11.766Z</time></trkpt><trkpt lat="44.8228761" lon="1.0848732"><ele>131.0</ele><time>2026-04-06T15:55:13.758Z</time></trkpt><trkpt lat="44.8228997" lon="1.0847286"><ele>131.0</ele><time>2026-04-06T15:55:15.778Z</time></trkpt><trkpt lat="44.8229257" lon="1.0845815"><ele>131.0</ele><time>2026-04-06T15:55:17.766Z</time></trkpt><trkpt lat="44.8229533" lon="1.0844811"><ele>131.0</ele><time>2026-04-06T15:55:19.768Z</time></trkpt><trkpt lat="44.8229835" lon="1.0843642"><ele>131.66666666666666</ele><time>2026-04-06T15:55:22.776Z</time></trkpt><trkpt lat="44.8230113" lon="1.0842788"><ele>132.33333333333331</ele><time>2026-04-06T15:55:25.766Z</time></trkpt><trkpt lat="44.8230538" lon="1.0841918"><ele>133.0</ele><time>2026-04-06T15:55:28.764Z</time></trkpt><trkpt lat="44.8231043" lon="1.0840808"><ele>133.66666666666666</ele><time>2026-04-06T15:55:31.771Z</time></trkpt><trkpt lat="44.8231535" lon="1.0839955"><ele>134.33333333333334</ele><time>2026-04-06T15:55:33.765Z</time></trkpt><trkpt lat="44.8232147" lon="1.0838966"><ele>135.0</ele><time>2026-04-06T15:55:36.759Z</time></trkpt><trkpt lat="44.8232643" lon="1.0838196"><ele>135.6</ele><time>2026-04-06T15:55:38.785Z</time></trkpt><trkpt lat="44.8233228" lon="1.0837358"><ele>136.2</ele><time>2026-04-06T15:55:40.777Z</time></trkpt><trkpt lat="44.8233848" lon="1.0836492"><ele>136.8</ele><time>2026-04-06T15:55:42.769Z</time></trkpt><trkpt lat="44.8234477" lon="1.0835484"><ele>137.4</ele><time>2026-04-06T15:55:44.773Z</time></trkpt><trkpt lat="44.8235178" lon="1.0834308"><ele>138.0</ele><time>2026-04-06T15:55:46.76Z</time></trkpt><trkpt lat="44.8235918" lon="1.0833133"><ele>141.0</ele><time>2026-04-06T15:55:48.768Z</time></trkpt><trkpt lat="44.8236634" lon="1.0832118"><ele>144.0</ele><time>2026-04-06T15:55:50.764Z</time></trkpt><trkpt lat="44.8237236" lon="1.0831096"><ele>147.0</ele><time>2026-04-06T15:55:52.771Z</time></trkpt><trkpt lat="44.8237672" lon="1.0829729"><ele>150.0</ele><time>2026-04-06T15:55:54.774Z</time></trkpt><trkpt lat="44.8237994" lon="1.0828522"><ele>153.0</ele><time>2026-04-06T15:55:56.78Z</time></trkpt><trkpt lat="44.8238326" lon="1.0827185"><ele>153.0</ele><time>2026-04-06T15:55:58.764Z</time></trkpt><trkpt lat="44.8238645" lon="1.0825995"><ele>153.0</ele><time>2026-04-06T15:56:00.768Z</time></trkpt><trkpt lat="44.8238946" lon="1.0824943"><ele>153.0</ele><time>2026-04-06T15:56:02.765Z</time></trkpt><trkpt lat="44.823908" lon="1.0823806"><ele>153.0</ele><time>2026-04-06T15:56:04.771Z</time></trkpt><trkpt lat="44.8239186" lon="1.0822698"><ele>153.0</ele><time>2026-04-06T15:56:06.786Z</time></trkpt><trkpt lat="44.8239356" lon="1.082169"><ele>153.0</ele><time>2026-04-06T15:56:08.765Z</time></trkpt><trkpt lat="44.8239361" lon="1.0820361"><ele>154.33333333333334</ele><time>2026-04-06T15:56:10.771Z</time></trkpt><trkpt lat="44.8239211" lon="1.0819322"><ele>155.66666666666666</ele><time>2026-04-06T15:56:12.766Z</time></trkpt><trkpt lat="44.8239081" lon="1.0818353"><ele>157.0</ele><time>2026-04-06T15:56:14.764Z</time></trkpt><trkpt lat="44.823909" lon="1.0817349"><ele>158.33333333333331</ele><time>2026-04-06T15:56:16.767Z</time></trkpt><trkpt lat="44.8239073" lon="1.0816131"><ele>159.66666666666666</ele><time>2026-04-06T15:56:18.781Z</time></trkpt><trkpt lat="44.8238943" lon="1.0814977"><ele>161.0</ele><time>2026-04-06T15:56:20.765Z</time></trkpt><trkpt lat="44.8239027" lon="1.0813656"><ele>162.5</ele><time>2026-04-06T15:56:22.781Z</time></trkpt><trkpt lat="44.8239359" lon="1.0812529"><ele>164.0</ele><time>2026-04-06T15:56:24.781Z</time></trkpt><trkpt lat="44.8239512" lon="1.0811373"><ele>165.5</ele><time>2026-04-06T15:56:26.77Z</time></trkpt><trkpt lat="44.8239513" lon="1.0810214"><ele>167.0</ele><time>2026-04-06T15:56:28.765Z</time></trkpt><trkpt lat="44.8239452" lon="1.080899"><ele>168.5</ele><time>2026-04-06T15:56:30.768Z</time></trkpt><trkpt lat="44.8239399" lon="1.0807899"><ele>170.0</ele><time>2026-04-06T15:56:32.763Z</time></trkpt><trkpt lat="44.8239659" lon="1.0806827"><ele>172.16666666666666</ele><time>2026-04-06T15:56:34.764Z</time></trkpt><trkpt lat="44.8239753" lon="1.080558"><ele>174.33333333333331</ele><time>2026-04-06T15:56:52.764Z</time></trkpt><trkpt lat="44.8239471" lon="1.0804765"><ele>176.5</ele><time>2026-04-06T15:56:54.77Z</time></trkpt><trkpt lat="44.8239479" lon="1.0803578"><ele>178.66666666666666</ele><time>2026-04-06T15:56:56.772Z</time></trkpt><trkpt lat="44.8239784" lon="1.0802476"><ele>180.83333333333334</ele><time>2026-04-06T15:56:58.769Z</time></trkpt><trkpt lat="44.8240178" lon="1.0801237"><ele>183.0</ele><time>2026-04-06T15:57:00.771Z</time></trkpt><trkpt lat="44.8240935" lon="1.0800217"><ele>184.5</ele><time>2026-04-06T15:57:02.766Z</time></trkpt><trkpt lat="44.8241625" lon="1.0799315"><ele>186.0</ele><time>2026-04-06T15:57:04.77Z</time></trkpt><trkpt lat="44.8242267" lon="1.0798363"><ele>187.5</ele><time>2026-04-06T15:57:06.766Z</time></trkpt><trkpt lat="44.8242728" lon="1.0797211"><ele>189.0</ele><time>2026-04-06T15:57:08.77Z</time></trkpt><trkpt lat="44.8242995" lon="1.0796151"><ele>190.5</ele><time>2026-04-06T15:57:10.773Z</time></trkpt><trkpt lat="44.8243022" lon="1.0794969"><ele>192.0</ele><time>2026-04-06T15:57:12.766Z</time></trkpt><trkpt lat="44.8242638" lon="1.0794016"><ele>192.0</ele><time>2026-04-06T15:57:14.762Z</time></trkpt><trkpt lat="44.8242121" lon="1.0793186"><ele>192.0</ele><time>2026-04-06T15:57:16.768Z</time></trkpt><trkpt lat="44.8241505" lon="1.0792195"><ele>192.0</ele><time>2026-04-06T15:57:18.775Z</time></trkpt><trkpt lat="44.8240837" lon="1.0791077"><ele>192.0</ele><time>2026-04-06T15:57:20.766Z</time></trkpt><trkpt lat="44.8240076" lon="1.078997"><ele>192.0</ele><time>2026-04-06T15:57:22.761Z</time></trkpt><trkpt lat="44.8239396" lon="1.0788926"><ele>192.8</ele><time>2026-04-06T15:57:24.769Z</time></trkpt><trkpt lat="44.8238677" lon="1.0787661"><ele>193.6</ele><time>2026-04-06T15:57:26.767Z</time></trkpt><trkpt lat="44.8237937" lon="1.0786427"><ele>194.4</ele><time>2026-04-06T15:57:28.769Z</time></trkpt><trkpt lat="44.8237205" lon="1.0785248"><ele>195.20000000000002</ele><time>2026-04-06T15:57:30.767Z</time></trkpt><trkpt lat="44.8236605" lon="1.0784091"><ele>196.0</ele><time>2026-04-06T15:57:32.768Z</time></trkpt><trkpt lat="44.823628" lon="1.0782881"><ele>196.60000000000002</ele><time>2026-04-06T15:57:34.761Z</time></trkpt><trkpt lat="44.8236297" lon="1.0781366"><ele>197.2</ele><time>2026-04-06T15:57:36.77Z</time></trkpt><trkpt lat="44.8236706" lon="1.0779759"><ele>197.8</ele><time>2026-04-06T15:57:38.762Z</time></trkpt><trkpt lat="44.8236996" lon="1.0778919"><ele>198.39999999999998</ele><time>2026-04-06T15:57:39.765Z</time></trkpt><trkpt lat="44.8237361" lon="1.0778053"><ele>199.0</ele><time>2026-04-06T15:57:40.783Z</time></trkpt><trkpt lat="44.8237975" lon="1.0776468"><ele>198.99999999999997</ele><time>2026-04-06T15:57:42.757Z</time></trkpt><trkpt lat="44.8238216" lon="1.0775537"><ele>199.0</ele><time>2026-04-06T15:57:43.766Z</time></trkpt><trkpt lat="44.8238429" lon="1.077453"><ele>199.0</ele><time>2026-04-06T15:57:44.769Z</time></trkpt><trkpt lat="44.8238668" lon="1.0773507"><ele>199.0</ele><time>2026-04-06T15:57:45.773Z</time></trkpt><trkpt lat="44.8238922" lon="1.077249"><ele>198.99999999999997</ele><time>2026-04-06T15:57:46.761Z</time></trkpt><trkpt lat="44.8239144" lon="1.0771523"><ele>199.0</ele><time>2026-04-06T15:57:47.763Z</time></trkpt><trkpt lat="44.8239509" lon="1.0769928"><ele>199.99999999999997</ele><time>2026-04-06T15:57:49.766Z</time></trkpt><trkpt lat="44.8239856" lon="1.0768558"><ele>201.0</ele><time>2026-04-06T15:57:51.767Z</time></trkpt><trkpt lat="44.8240073" lon="1.0767688"><ele>202.0</ele><time>2026-04-06T15:57:54.764Z</time></trkpt><trkpt lat="44.8240433" lon="1.0766642"><ele>203.0</ele><time>2026-04-06T15:58:02.777Z</time></trkpt><trkpt lat="44.824074" lon="1.0765679"><ele>203.99999999999997</ele><time>2026-04-06T15:58:04.764Z</time></trkpt><trkpt lat="44.8241012" lon="1.0764486"><ele>205.0</ele><time>2026-04-06T15:58:07.777Z</time></trkpt><trkpt lat="44.8241145" lon="1.076356"><ele>205.99999999999997</ele><time>2026-04-06T15:58:09.77Z</time></trkpt><trkpt lat="44.8241249" lon="1.0762651"><ele>207.0</ele><time>2026-04-06T15:58:11.767Z</time></trkpt><trkpt lat="44.8241331" lon="1.0761437"><ele>208.0</ele><time>2026-04-06T15:58:14.761Z</time></trkpt><trkpt lat="44.8241429" lon="1.0760541"><ele>209.0</ele><time>2026-04-06T15:58:17.773Z</time></trkpt><trkpt lat="44.8241772" lon="1.0759622"><ele>209.99999999999997</ele><time>2026-04-06T15:58:20.768Z</time></trkpt><trkpt lat="44.8242185" lon="1.0758675"><ele>211.0</ele><time>2026-04-06T15:58:22.765Z</time></trkpt><trkpt lat="44.8242612" lon="1.0757673"><ele>211.14285714285714</ele><time>2026-04-06T15:58:25.771Z</time></trkpt><trkpt lat="44.8242886" lon="1.075687"><ele>211.28571428571428</ele><time>2026-04-06T15:58:29.769Z</time></trkpt><trkpt lat="44.824332" lon="1.0755652"><ele>211.42857142857144</ele><time>2026-04-06T15:58:32.779Z</time></trkpt><trkpt lat="44.8243681" lon="1.0754754"><ele>211.57142857142856</ele><time>2026-04-06T15:58:34.768Z</time></trkpt><trkpt lat="44.8244009" lon="1.0753851"><ele>211.7142857142857</ele><time>2026-04-06T15:58:36.788Z</time></trkpt><trkpt lat="44.8244218" lon="1.0753008"><ele>211.85714285714286</ele><time>2026-04-06T15:58:39.765Z</time></trkpt><trkpt lat="44.82445" lon="1.0752147"><ele>212.0</ele><time>2026-04-06T15:58:42.772Z</time></trkpt><trkpt lat="44.8245136" lon="1.0751713"><ele>210.39999999999998</ele><time>2026-04-06T15:58:54.785Z</time></trkpt><trkpt lat="44.824469" lon="1.0752476"><ele>208.79999999999998</ele><time>2026-04-06T15:59:29.77Z</time></trkpt><trkpt lat="44.8244398" lon="1.0753792"><ele>207.2</ele><time>2026-04-06T15:59:32.772Z</time></trkpt><trkpt lat="44.8243964" lon="1.0755196"><ele>205.6</ele><time>2026-04-06T15:59:34.774Z</time></trkpt><trkpt lat="44.8243711" lon="1.0756087"><ele>204.0</ele><time>2026-04-06T15:59:35.768Z</time></trkpt><trkpt lat="44.8243232" lon="1.0757581"><ele>205.39999999999998</ele><time>2026-04-06T15:59:37.765Z</time></trkpt><trkpt lat="44.8242771" lon="1.0758807"><ele>206.8</ele><time>2026-04-06T15:59:39.758Z</time></trkpt><trkpt lat="44.824237" lon="1.0759725"><ele>208.2</ele><time>2026-04-06T15:59:41.765Z</time></trkpt><trkpt lat="44.8242014" lon="1.0760519"><ele>209.60000000000002</ele><time>2026-04-06T15:59:44.769Z</time></trkpt><trkpt lat="44.8241885" lon="1.0762012"><ele>211.0</ele><time>2026-04-06T15:59:46.776Z</time></trkpt><trkpt lat="44.8241764" lon="1.0763703"><ele>210.99999999999997</ele><time>2026-04-06T15:59:48.771Z</time></trkpt><trkpt lat="44.8241484" lon="1.0765156"><ele>211.0</ele><time>2026-04-06T15:59:50.769Z</time></trkpt><trkpt lat="44.8241149" lon="1.0766229"><ele>211.0</ele><time>2026-04-06T15:59:52.768Z</time></trkpt><trkpt lat="44.8240765" lon="1.076715"><ele>211.0</ele><time>2026-04-06T15:59:57.776Z</time></trkpt><trkpt lat="44.8240171" lon="1.0767501"><ele>210.99999999999997</ele><time>2026-04-06T16:00:01.771Z</time></trkpt><trkpt lat="44.8240623" lon="1.0766634"><ele>211.0</ele><time>2026-04-06T16:00:16.779Z</time></trkpt><trkpt lat="44.8240092" lon="1.0765882"><ele>211.0</ele><time>2026-04-06T16:00:33.764Z</time></trkpt><trkpt lat="44.8239562" lon="1.076533"><ele>211.0</ele><time>2026-04-06T16:00:36.771Z</time></trkpt><trkpt lat="44.8239006" lon="1.0764788"><ele>211.0</ele><time>2026-04-06T16:00:39.764Z</time></trkpt><trkpt lat="44.8238374" lon="1.0764087"><ele>211.0</ele><time>2026-04-06T16:00:42.776Z</time></trkpt><trkpt lat="44.8237872" lon="1.076353"><ele>211.0</ele><time>2026-04-06T16:00:48.77Z</time></trkpt><trkpt lat="44.823727" lon="1.0763925"><ele>211.0</ele><time>2026-04-06T16:00:55.769Z</time></trkpt><trkpt lat="44.8236683" lon="1.076455"><ele>211.0</ele><time>2026-04-06T16:00:58.763Z</time></trkpt><trkpt lat="44.8235788" lon="1.0764492"><ele>210.99999999999997</ele><time>2026-04-06T16:01:02.771Z</time></trkpt><trkpt lat="44.8235035" lon="1.0764007"><ele>211.0</ele><time>2026-04-06T16:01:04.772Z</time></trkpt><trkpt lat="44.8234262" lon="1.0763398"><ele>211.0</ele><time>2026-04-06T16:01:07.769Z</time></trkpt><trkpt lat="44.8233642" lon="1.076298"><ele>211.0</ele><time>2026-04-06T16:01:11.771Z</time></trkpt><trkpt lat="44.8232898" lon="1.0763354"><ele>210.99999999999997</ele><time>2026-04-06T16:01:14.763Z</time></trkpt><trkpt lat="44.823209" lon="1.0764433"><ele>211.0</ele><time>2026-04-06T16:01:17.772Z</time></trkpt><trkpt lat="44.8231068" lon="1.0765685"><ele>211.8</ele><time>2026-04-06T16:01:19.761Z</time></trkpt><trkpt lat="44.8230428" lon="1.0766378"><ele>212.60000000000002</ele><time>2026-04-06T16:01:20.768Z</time></trkpt><trkpt lat="44.8229638" lon="1.0766978"><ele>213.4</ele><time>2026-04-06T16:01:21.79Z</time></trkpt><trkpt lat="44.8228812" lon="1.0767591"><ele>214.2</ele><time>2026-04-06T16:01:22.774Z</time></trkpt><trkpt lat="44.8227818" lon="1.0768009"><ele>215.0</ele><time>2026-04-06T16:01:23.767Z</time></trkpt><trkpt lat="44.8226795" lon="1.0768265"><ele>216.4</ele><time>2026-04-06T16:01:24.784Z</time></trkpt><trkpt lat="44.8225785" lon="1.0768461"><ele>217.8</ele><time>2026-04-06T16:01:25.777Z</time></trkpt><trkpt lat="44.8224797" lon="1.0768587"><ele>219.2</ele><time>2026-04-06T16:01:26.772Z</time></trkpt><trkpt lat="44.8223828" lon="1.0768717"><ele>220.6</ele><time>2026-04-06T16:01:27.765Z</time></trkpt><trkpt lat="44.822285" lon="1.0768869"><ele>222.0</ele><time>2026-04-06T16:01:28.76Z</time></trkpt><trkpt lat="44.8221824" lon="1.0769101"><ele>222.0</ele><time>2026-04-06T16:01:29.79Z</time></trkpt><trkpt lat="44.822079" lon="1.076945"><ele>222.0</ele><time>2026-04-06T16:01:30.786Z</time></trkpt><trkpt lat="44.8219747" lon="1.0769932"><ele>222.0</ele><time>2026-04-06T16:01:31.764Z</time></trkpt><trkpt lat="44.8218732" lon="1.0770534"><ele>222.0</ele><time>2026-04-06T16:01:32.766Z</time></trkpt><trkpt lat="44.8217736" lon="1.0771255"><ele>222.0</ele><time>2026-04-06T16:01:33.772Z</time></trkpt><trkpt lat="44.8216744" lon="1.0772039"><ele>222.0</ele><time>2026-04-06T16:01:34.767Z</time></trkpt><trkpt lat="44.821576" lon="1.0772884"><ele>222.0</ele><time>2026-04-06T16:01:35.776Z</time></trkpt><trkpt lat="44.8214807" lon="1.0773789"><ele>222.0</ele><time>2026-04-06T16:01:36.77Z</time></trkpt><trkpt lat="44.8213842" lon="1.077472"><ele>222.0</ele><time>2026-04-06T16:01:37.762Z</time></trkpt><trkpt lat="44.8212863" lon="1.0775665"><ele>221.75</ele><time>2026-04-06T16:01:38.79Z</time></trkpt><trkpt lat="44.8211891" lon="1.0776595"><ele>221.5</ele><time>2026-04-06T16:01:39.767Z</time></trkpt><trkpt lat="44.8210905" lon="1.0777498"><ele>221.25</ele><time>2026-04-06T16:01:40.76Z</time></trkpt><trkpt lat="44.8209904" lon="1.077834"><ele>221.0</ele><time>2026-04-06T16:01:41.76Z</time></trkpt><trkpt lat="44.8208849" lon="1.0779054"><ele>221.8</ele><time>2026-04-06T16:01:42.782Z</time></trkpt><trkpt lat="44.8207752" lon="1.0779578"><ele>222.60000000000002</ele><time>2026-04-06T16:01:43.768Z</time></trkpt><trkpt lat="44.8206642" lon="1.0779931"><ele>223.4</ele><time>2026-04-06T16:01:44.763Z</time></trkpt><trkpt lat="44.8205567" lon="1.0780316"><ele>224.2</ele><time>2026-04-06T16:01:45.774Z</time></trkpt><trkpt lat="44.8204559" lon="1.0780866"><ele>225.0</ele><time>2026-04-06T16:01:46.77Z</time></trkpt><trkpt lat="44.8203634" lon="1.0781684"><ele>224.5</ele><time>2026-04-06T16:01:47.805Z</time></trkpt><trkpt lat="44.820285" lon="1.0782801"><ele>224.0</ele><time>2026-04-06T16:01:48.772Z</time></trkpt><trkpt lat="44.8202248" lon="1.0784209"><ele>223.5</ele><time>2026-04-06T16:01:49.768Z</time></trkpt><trkpt lat="44.8201644" lon="1.0785633"><ele>223.0</ele><time>2026-04-06T16:01:50.775Z</time></trkpt><trkpt lat="44.8201173" lon="1.0787289"><ele>223.0</ele><time>2026-04-06T16:01:51.775Z</time></trkpt><trkpt lat="44.8200714" lon="1.0789015"><ele>223.0</ele><time>2026-04-06T16:01:52.764Z</time></trkpt><trkpt lat="44.8200264" lon="1.0790741"><ele>223.0</ele><time>2026-04-06T16:01:53.764Z</time></trkpt><trkpt lat="44.819982" lon="1.0792459"><ele>223.0</ele><time>2026-04-06T16:01:54.791Z</time></trkpt><trkpt lat="44.8199367" lon="1.0794133"><ele>222.25</ele><time>2026-04-06T16:01:55.763Z</time></trkpt><trkpt lat="44.819892" lon="1.0795833"><ele>221.5</ele><time>2026-04-06T16:01:56.768Z</time></trkpt><trkpt lat="44.8198396" lon="1.0797505"><ele>220.75</ele><time>2026-04-06T16:01:57.766Z</time></trkpt><trkpt lat="44.8197776" lon="1.0799007"><ele>220.0</ele><time>2026-04-06T16:01:58.774Z</time></trkpt><trkpt lat="44.8197067" lon="1.0800328"><ele>219.0</ele><time>2026-04-06T16:01:59.768Z</time></trkpt><trkpt lat="44.819625" lon="1.0801532"><ele>218.0</ele><time>2026-04-06T16:02:00.783Z</time></trkpt><trkpt lat="44.8195356" lon="1.0802683"><ele>217.0</ele><time>2026-04-06T16:02:01.763Z</time></trkpt><trkpt lat="44.8194427" lon="1.0803819"><ele>216.0</ele><time>2026-04-06T16:02:02.764Z</time></trkpt><trkpt lat="44.8193461" lon="1.0805002"><ele>215.75</ele><time>2026-04-06T16:02:03.768Z</time></trkpt><trkpt lat="44.8192466" lon="1.0806201"><ele>215.5</ele><time>2026-04-06T16:02:04.766Z</time></trkpt><trkpt lat="44.8191441" lon="1.0807444"><ele>215.25</ele><time>2026-04-06T16:02:05.77Z</time></trkpt><trkpt lat="44.8190393" lon="1.0808658"><ele>215.0</ele><time>2026-04-06T16:02:06.769Z</time></trkpt><trkpt lat="44.8189301" lon="1.0809839"><ele>215.0</ele><time>2026-04-06T16:02:07.765Z</time></trkpt><trkpt lat="44.8188148" lon="1.0810851"><ele>215.0</ele><time>2026-04-06T16:02:08.771Z</time></trkpt><trkpt lat="44.8187018" lon="1.0811828"><ele>215.0</ele><time>2026-04-06T16:02:09.772Z</time></trkpt><trkpt lat="44.8185743" lon="1.0812351"><ele>215.0</ele><time>2026-04-06T16:02:10.773Z</time></trkpt><trkpt lat="44.8184438" lon="1.0812621"><ele>215.0</ele><time>2026-04-06T16:02:11.761Z</time></trkpt><trkpt lat="44.8183145" lon="1.0812732"><ele>215.0</ele><time>2026-04-06T16:02:12.765Z</time></trkpt><trkpt lat="44.8181835" lon="1.0812805"><ele>215.0</ele><time>2026-04-06T16:02:13.767Z</time></trkpt><trkpt lat="44.8180543" lon="1.0812863"><ele>215.0</ele><time>2026-04-06T16:02:14.768Z</time></trkpt><trkpt lat="44.8179248" lon="1.0812992"><ele>215.0</ele><time>2026-04-06T16:02:15.772Z</time></trkpt><trkpt lat="44.8177973" lon="1.0813144"><ele>215.0</ele><time>2026-04-06T16:02:16.761Z</time></trkpt><trkpt lat="44.8176726" lon="1.0813224"><ele>215.0</ele><time>2026-04-06T16:02:17.78Z</time></trkpt><trkpt lat="44.8175514" lon="1.0813283"><ele>215.0</ele><time>2026-04-06T16:02:18.765Z</time></trkpt><trkpt lat="44.8174293" lon="1.0813408"><ele>214.75</ele><time>2026-04-06T16:02:19.771Z</time></trkpt><trkpt lat="44.8173073" lon="1.0813601"><ele>214.5</ele><time>2026-04-06T16:02:20.773Z</time></trkpt><trkpt lat="44.8171852" lon="1.0813851"><ele>214.25</ele><time>2026-04-06T16:02:21.756Z</time></trkpt><trkpt lat="44.8170637" lon="1.0814151"><ele>214.0</ele><time>2026-04-06T16:02:22.769Z</time></trkpt><trkpt lat="44.8169415" lon="1.0814461"><ele>214.0</ele><time>2026-04-06T16:02:23.778Z</time></trkpt><trkpt lat="44.8168207" lon="1.0814762"><ele>214.0</ele><time>2026-04-06T16:02:24.787Z</time></trkpt><trkpt lat="44.8166988" lon="1.0815024"><ele>214.0</ele><time>2026-04-06T16:02:25.773Z</time></trkpt><trkpt lat="44.8165778" lon="1.0815238"><ele>214.0</ele><time>2026-04-06T16:02:26.763Z</time></trkpt><trkpt lat="44.816458" lon="1.0815409"><ele>214.2</ele><time>2026-04-06T16:02:27.777Z</time></trkpt><trkpt lat="44.816343" lon="1.0815577"><ele>214.39999999999998</ele><time>2026-04-06T16:02:28.771Z</time></trkpt><trkpt lat="44.8162338" lon="1.0815722"><ele>214.6</ele><time>2026-04-06T16:02:29.764Z</time></trkpt><trkpt lat="44.8161298" lon="1.0815872"><ele>214.8</ele><time>2026-04-06T16:02:30.764Z</time></trkpt><trkpt lat="44.8160306" lon="1.0816022"><ele>215.0</ele><time>2026-04-06T16:02:31.772Z</time></trkpt><trkpt lat="44.8159337" lon="1.0816168"><ele>216.0</ele><time>2026-04-06T16:02:32.765Z</time></trkpt><trkpt lat="44.8158428" lon="1.0816534"><ele>217.0</ele><time>2026-04-06T16:02:33.771Z</time></trkpt><trkpt lat="44.815753" lon="1.0817032"><ele>218.0</ele><time>2026-04-06T16:02:34.787Z</time></trkpt><trkpt lat="44.8156609" lon="1.0817573"><ele>219.0</ele><time>2026-04-06T16:02:35.789Z</time></trkpt><trkpt lat="44.8155684" lon="1.0818171"><ele>220.0</ele><time>2026-04-06T16:02:36.77Z</time></trkpt><trkpt lat="44.8154759" lon="1.0818803"><ele>220.0</ele><time>2026-04-06T16:02:37.763Z</time></trkpt><trkpt lat="44.8153866" lon="1.0819449"><ele>220.0</ele><time>2026-04-06T16:02:38.775Z</time></trkpt><trkpt lat="44.8153013" lon="1.0820012"><ele>220.0</ele><time>2026-04-06T16:02:39.772Z</time></trkpt><trkpt lat="44.8152166" lon="1.0820478"><ele>220.0</ele><time>2026-04-06T16:02:40.764Z</time></trkpt><trkpt lat="44.8151327" lon="1.0820819"><ele>220.0</ele><time>2026-04-06T16:02:41.769Z</time></trkpt><trkpt lat="44.815051" lon="1.0821017"><ele>221.0</ele><time>2026-04-06T16:02:42.765Z</time></trkpt><trkpt lat="44.8149721" lon="1.0821079"><ele>222.0</ele><time>2026-04-06T16:02:43.774Z</time></trkpt><trkpt lat="44.8148973" lon="1.0820985"><ele>223.0</ele><time>2026-04-06T16:02:44.786Z</time></trkpt><trkpt lat="44.8147973" lon="1.0820822"><ele>224.0</ele><time>2026-04-06T16:02:46.771Z</time></trkpt><trkpt lat="44.8147605" lon="1.0821965"><ele>225.0</ele><time>2026-04-06T16:02:49.762Z</time></trkpt><trkpt lat="44.8147937" lon="1.082338"><ele>223.5</ele><time>2026-04-06T16:02:51.787Z</time></trkpt><trkpt lat="44.8148376" lon="1.0824711"><ele>222.0</ele><time>2026-04-06T16:02:53.761Z</time></trkpt><trkpt lat="44.8148852" lon="1.0826179"><ele>220.5</ele><time>2026-04-06T16:02:55.778Z</time></trkpt><trkpt lat="44.8149131" lon="1.0826998"><ele>219.0</ele><time>2026-04-06T16:02:56.761Z</time></trkpt><trkpt lat="44.8149436" lon="1.0827845"><ele>217.5</ele><time>2026-04-06T16:02:57.763Z</time></trkpt><trkpt lat="44.8149721" lon="1.0828787"><ele>216.0</ele><time>2026-04-06T16:02:58.769Z</time></trkpt><trkpt lat="44.8150033" lon="1.0829802"><ele>216.0</ele><time>2026-04-06T16:02:59.766Z</time></trkpt><trkpt lat="44.815035" lon="1.0830833"><ele>216.0</ele><time>2026-04-06T16:03:00.771Z</time></trkpt><trkpt lat="44.8150639" lon="1.0831937"><ele>216.0</ele><time>2026-04-06T16:03:01.79Z</time></trkpt><trkpt lat="44.8150911" lon="1.0833029"><ele>216.0</ele><time>2026-04-06T16:03:02.766Z</time></trkpt><trkpt lat="44.8151165" lon="1.0834166"><ele>216.0</ele><time>2026-04-06T16:03:03.762Z</time></trkpt><trkpt lat="44.8151405" lon="1.0835328"><ele>216.0</ele><time>2026-04-06T16:03:04.766Z</time></trkpt><trkpt lat="44.8151641" lon="1.0836534"><ele>214.16666666666666</ele><time>2026-04-06T16:03:05.767Z</time></trkpt><trkpt lat="44.8151876" lon="1.0837745"><ele>212.33333333333331</ele><time>2026-04-06T16:03:06.783Z</time></trkpt><trkpt lat="44.81521" lon="1.0838898"><ele>210.5</ele><time>2026-04-06T16:03:07.773Z</time></trkpt><trkpt lat="44.8152288" lon="1.0840007"><ele>208.66666666666666</ele><time>2026-04-06T16:03:08.767Z</time></trkpt><trkpt lat="44.8152471" lon="1.0841131"><ele>206.83333333333331</ele><time>2026-04-06T16:03:09.761Z</time></trkpt><trkpt lat="44.815266" lon="1.0842243"><ele>205.0</ele><time>2026-04-06T16:03:10.763Z</time></trkpt><trkpt lat="44.8152845" lon="1.08433"><ele>204.16666666666666</ele><time>2026-04-06T16:03:11.765Z</time></trkpt><trkpt lat="44.8153029" lon="1.0844319"><ele>203.33333333333331</ele><time>2026-04-06T16:03:12.764Z</time></trkpt><trkpt lat="44.8153213" lon="1.08453"><ele>202.5</ele><time>2026-04-06T16:03:13.77Z</time></trkpt><trkpt lat="44.8153436" lon="1.0846177"><ele>201.66666666666669</ele><time>2026-04-06T16:03:14.768Z</time></trkpt><trkpt lat="44.8153694" lon="1.0847174"><ele>200.83333333333334</ele><time>2026-04-06T16:03:16.768Z</time></trkpt><trkpt lat="44.8153645" lon="1.0848643"><ele>200.0</ele><time>2026-04-06T16:03:51.766Z</time></trkpt><trkpt lat="44.8153289" lon="1.0849592"><ele>200.33333333333334</ele><time>2026-04-06T16:03:52.778Z</time></trkpt><trkpt lat="44.8152912" lon="1.0850542"><ele>200.66666666666669</ele><time>2026-04-06T16:03:53.773Z</time></trkpt><trkpt lat="44.8152571" lon="1.0851477"><ele>201.0</ele><time>2026-04-06T16:03:54.761Z</time></trkpt><trkpt lat="44.8152361" lon="1.0852465"><ele>201.33333333333331</ele><time>2026-04-06T16:03:55.769Z</time></trkpt><trkpt lat="44.8152069" lon="1.0853357"><ele>201.66666666666666</ele><time>2026-04-06T16:03:56.766Z</time></trkpt><trkpt lat="44.8151596" lon="1.0854764"><ele>202.0</ele><time>2026-04-06T16:03:58.771Z</time></trkpt><trkpt lat="44.8151242" lon="1.0855744"><ele>202.0</ele><time>2026-04-06T16:04:00.766Z</time></trkpt><trkpt lat="44.8150761" lon="1.0856736"><ele>202.0</ele><time>2026-04-06T16:04:03.772Z</time></trkpt><trkpt lat="44.8150186" lon="1.0857716"><ele>202.0</ele><time>2026-04-06T16:04:05.768Z</time></trkpt><trkpt lat="44.8149726" lon="1.0858451"><ele>202.0</ele><time>2026-04-06T16:04:06.768Z</time></trkpt><trkpt lat="44.8149265" lon="1.0859162"><ele>202.0</ele><time>2026-04-06T16:04:07.767Z</time></trkpt><trkpt lat="44.8148768" lon="1.0859795"><ele>202.0</ele><time>2026-04-06T16:04:08.793Z</time></trkpt><trkpt lat="44.8148233" lon="1.0860385"><ele>202.0</ele><time>2026-04-06T16:04:09.77Z</time></trkpt><trkpt lat="44.8147649" lon="1.0860988"><ele>200.39999999999998</ele><time>2026-04-06T16:04:10.762Z</time></trkpt><trkpt lat="44.8147104" lon="1.0861511"><ele>198.79999999999998</ele><time>2026-04-06T16:04:11.766Z</time></trkpt><trkpt lat="44.8146489" lon="1.0861979"><ele>197.2</ele><time>2026-04-06T16:04:12.764Z</time></trkpt><trkpt lat="44.8145441" lon="1.0862843"><ele>195.6</ele><time>2026-04-06T16:04:14.76Z</time></trkpt><trkpt lat="44.8144473" lon="1.0863649"><ele>194.0</ele><time>2026-04-06T16:04:16.775Z</time></trkpt><trkpt lat="44.8143687" lon="1.0864519"><ele>194.0</ele><time>2026-04-06T16:04:18.781Z</time></trkpt><trkpt lat="44.8143484" lon="1.0865796"><ele>194.0</ele><time>2026-04-06T16:04:20.757Z</time></trkpt><trkpt lat="44.8143637" lon="1.0867163"><ele>194.0</ele><time>2026-04-06T16:04:22.768Z</time></trkpt><trkpt lat="44.8143372" lon="1.0868798"><ele>194.0</ele><time>2026-04-06T16:04:24.815Z</time></trkpt><trkpt lat="44.8143028" lon="1.0869659"><ele>194.0</ele><time>2026-04-06T16:04:25.773Z</time></trkpt><trkpt lat="44.8142627" lon="1.0870473"><ele>192.6</ele><time>2026-04-06T16:04:26.762Z</time></trkpt><trkpt lat="44.814222" lon="1.087127"><ele>191.2</ele><time>2026-04-06T16:04:27.763Z</time></trkpt><trkpt lat="44.8141686" lon="1.0871838"><ele>189.79999999999998</ele><time>2026-04-06T16:04:28.763Z</time></trkpt><trkpt lat="44.8140617" lon="1.0872457"><ele>188.39999999999998</ele><time>2026-04-06T16:04:30.765Z</time></trkpt><trkpt lat="44.8139825" lon="1.087337"><ele>187.0</ele><time>2026-04-06T16:04:32.77Z</time></trkpt><trkpt lat="44.8139323" lon="1.0874572"><ele>185.5</ele><time>2026-04-06T16:04:34.765Z</time></trkpt><trkpt lat="44.8138815" lon="1.0875951"><ele>184.0</ele><time>2026-04-06T16:04:36.767Z</time></trkpt><trkpt lat="44.8138386" lon="1.0877438"><ele>182.5</ele><time>2026-04-06T16:04:38.759Z</time></trkpt><trkpt lat="44.8138217" lon="1.0878921"><ele>181.0</ele><time>2026-04-06T16:04:40.773Z</time></trkpt><trkpt lat="44.8138055" lon="1.0880817"><ele>181.0</ele><time>2026-04-06T16:04:42.771Z</time></trkpt><trkpt lat="44.8137907" lon="1.0881962"><ele>181.0</ele><time>2026-04-06T16:04:43.768Z</time></trkpt><trkpt lat="44.8137595" lon="1.0883168"><ele>181.0</ele><time>2026-04-06T16:04:44.817Z</time></trkpt><trkpt lat="44.8137378" lon="1.0884321"><ele>181.0</ele><time>2026-04-06T16:04:45.767Z</time></trkpt><trkpt lat="44.8137186" lon="1.0885363"><ele>181.0</ele><time>2026-04-06T16:04:46.77Z</time></trkpt><trkpt lat="44.8136908" lon="1.0886421"><ele>181.0</ele><time>2026-04-06T16:04:47.762Z</time></trkpt><trkpt lat="44.813657" lon="1.0887446"><ele>180.42857142857142</ele><time>2026-04-06T16:04:48.777Z</time></trkpt><trkpt lat="44.8136202" lon="1.0888453"><ele>179.85714285714283</ele><time>2026-04-06T16:04:49.764Z</time></trkpt><trkpt lat="44.8135851" lon="1.0889396"><ele>179.28571428571428</ele><time>2026-04-06T16:04:50.763Z</time></trkpt><trkpt lat="44.8135556" lon="1.0890234"><ele>178.71428571428572</ele><time>2026-04-06T16:04:51.764Z</time></trkpt><trkpt lat="44.813525" lon="1.0891072"><ele>178.14285714285714</ele><time>2026-04-06T16:04:52.766Z</time></trkpt><trkpt lat="44.8134947" lon="1.0891898"><ele>177.57142857142858</ele><time>2026-04-06T16:04:53.765Z</time></trkpt><trkpt lat="44.8134707" lon="1.0892745"><ele>177.0</ele><time>2026-04-06T16:04:54.792Z</time></trkpt><trkpt lat="44.8134514" lon="1.0893653"><ele>175.33333333333334</ele><time>2026-04-06T16:04:55.761Z</time></trkpt><trkpt lat="44.8134236" lon="1.089454"><ele>173.66666666666666</ele><time>2026-04-06T16:04:56.78Z</time></trkpt><trkpt lat="44.8133895" lon="1.0895394"><ele>172.0</ele><time>2026-04-06T16:04:57.764Z</time></trkpt><trkpt lat="44.8133471" lon="1.0896146"><ele>170.33333333333331</ele><time>2026-04-06T16:04:58.765Z</time></trkpt><trkpt lat="44.8132969" lon="1.0897257"><ele>168.66666666666666</ele><time>2026-04-06T16:05:00.763Z</time></trkpt><trkpt lat="44.813305" lon="1.0898465"><ele>167.0</ele><time>2026-04-06T16:05:02.775Z</time></trkpt><trkpt lat="44.8133939" lon="1.0899784"><ele>166.33333333333331</ele><time>2026-04-06T16:05:04.763Z</time></trkpt><trkpt lat="44.8134392" lon="1.0900545"><ele>165.66666666666666</ele><time>2026-04-06T16:05:05.763Z</time></trkpt><trkpt lat="44.8134767" lon="1.0901321"><ele>165.0</ele><time>2026-04-06T16:05:06.766Z</time></trkpt><trkpt lat="44.8135353" lon="1.0902666"><ele>164.33333333333334</ele><time>2026-04-06T16:05:08.776Z</time></trkpt><trkpt lat="44.8135497" lon="1.0903598"><ele>163.66666666666669</ele><time>2026-04-06T16:05:09.771Z</time></trkpt><trkpt lat="44.8135397" lon="1.0904854"><ele>163.0</ele><time>2026-04-06T16:05:11.779Z</time></trkpt><trkpt lat="44.8134786" lon="1.0905555"><ele>162.33333333333334</ele><time>2026-04-06T16:05:13.765Z</time></trkpt><trkpt lat="44.8133936" lon="1.090583"><ele>161.66666666666669</ele><time>2026-04-06T16:05:15.774Z</time></trkpt><trkpt lat="44.8133104" lon="1.0905653"><ele>161.0</ele><time>2026-04-06T16:05:17.778Z</time></trkpt><trkpt lat="44.8132413" lon="1.0905167"><ele>160.33333333333334</ele><time>2026-04-06T16:05:19.766Z</time></trkpt><trkpt lat="44.8131801" lon="1.0904509"><ele>159.66666666666666</ele><time>2026-04-06T16:05:21.765Z</time></trkpt><trkpt lat="44.8131263" lon="1.0903866"><ele>159.0</ele><time>2026-04-06T16:05:23.771Z</time></trkpt><trkpt lat="44.8130695" lon="1.0903241"><ele>159.0</ele><time>2026-04-06T16:05:25.765Z</time></trkpt><trkpt lat="44.8130087" lon="1.0902577"><ele>159.0</ele><time>2026-04-06T16:05:27.768Z</time></trkpt><trkpt lat="44.812946" lon="1.0902166"><ele>159.0</ele><time>2026-04-06T16:05:29.765Z</time></trkpt><trkpt lat="44.8129081" lon="1.0903084"><ele>159.0</ele><time>2026-04-06T16:05:32.762Z</time></trkpt><trkpt lat="44.8129245" lon="1.090408"><ele>159.0</ele><time>2026-04-06T16:05:34.802Z</time></trkpt><trkpt lat="44.8129258" lon="1.0905276"><ele>159.0</ele><time>2026-04-06T16:05:36.767Z</time></trkpt><trkpt lat="44.8129162" lon="1.0906391"><ele>159.0</ele><time>2026-04-06T16:05:38.763Z</time></trkpt><trkpt lat="44.8128966" lon="1.0907282"><ele>159.0</ele><time>2026-04-06T16:05:40.766Z</time></trkpt><trkpt lat="44.8128526" lon="1.0908738"><ele>159.0</ele><time>2026-04-06T16:05:43.77Z</time></trkpt><trkpt lat="44.8128174" lon="1.0909872"><ele>159.0</ele><time>2026-04-06T16:05:45.772Z</time></trkpt><trkpt lat="44.8127947" lon="1.0911023"><ele>159.0</ele><time>2026-04-06T16:05:49.778Z</time></trkpt><trkpt lat="44.8127711" lon="1.0911846"><ele>159.0</ele><time>2026-04-06T16:05:51.765Z</time></trkpt><trkpt lat="44.8127112" lon="1.091286"><ele>156.66666666666666</ele><time>2026-04-06T16:05:53.76Z</time></trkpt><trkpt lat="44.8126369" lon="1.0913783"><ele>154.33333333333334</ele><time>2026-04-06T16:05:55.759Z</time></trkpt><trkpt lat="44.812582" lon="1.0914445"><ele>152.0</ele><time>2026-04-06T16:05:57.766Z</time></trkpt><trkpt lat="44.8125248" lon="1.0915426"><ele>149.66666666666669</ele><time>2026-04-06T16:05:59.761Z</time></trkpt><trkpt lat="44.8124822" lon="1.0916518"><ele>147.33333333333334</ele><time>2026-04-06T16:06:01.762Z</time></trkpt><trkpt lat="44.812477" lon="1.0917482"><ele>145.0</ele><time>2026-04-06T16:06:03.76Z</time></trkpt><trkpt lat="44.8125078" lon="1.0918511"><ele>142.83333333333334</ele><time>2026-04-06T16:06:07.763Z</time></trkpt><trkpt lat="44.8125133" lon="1.0919582"><ele>140.66666666666669</ele><time>2026-04-06T16:06:09.76Z</time></trkpt><trkpt lat="44.8125087" lon="1.0921151"><ele>138.5</ele><time>2026-04-06T16:06:11.759Z</time></trkpt><trkpt lat="44.8125053" lon="1.0922066"><ele>136.33333333333334</ele><time>2026-04-06T16:06:12.77Z</time></trkpt><trkpt lat="44.8124972" lon="1.0923742"><ele>134.16666666666666</ele><time>2026-04-06T16:06:14.758Z</time></trkpt><trkpt lat="44.8124932" lon="1.092472"><ele>132.0</ele><time>2026-04-06T16:06:15.765Z</time></trkpt><trkpt lat="44.8124838" lon="1.092564"><ele>131.14285714285714</ele><time>2026-04-06T16:06:16.76Z</time></trkpt><trkpt lat="44.8124785" lon="1.092659"><ele>130.28571428571428</ele><time>2026-04-06T16:06:17.783Z</time></trkpt><trkpt lat="44.8124724" lon="1.092751"><ele>129.42857142857144</ele><time>2026-04-06T16:06:18.758Z</time></trkpt><trkpt lat="44.8124675" lon="1.0928409"><ele>128.57142857142856</ele><time>2026-04-06T16:06:19.763Z</time></trkpt><trkpt lat="44.8124606" lon="1.0929384"><ele>127.71428571428572</ele><time>2026-04-06T16:06:20.764Z</time></trkpt><trkpt lat="44.8124513" lon="1.0930328"><ele>126.85714285714286</ele><time>2026-04-06T16:06:21.76Z</time></trkpt><trkpt lat="44.8124406" lon="1.0931265"><ele>126.0</ele><time>2026-04-06T16:06:22.759Z</time></trkpt><trkpt lat="44.8124321" lon="1.0932183"><ele>124.33333333333333</ele><time>2026-04-06T16:06:23.766Z</time></trkpt><trkpt lat="44.8124182" lon="1.093309"><ele>122.66666666666666</ele><time>2026-04-06T16:06:24.764Z</time></trkpt><trkpt lat="44.8124077" lon="1.0934004"><ele>121.0</ele><time>2026-04-06T16:06:25.796Z</time></trkpt><trkpt lat="44.8123906" lon="1.0935267"><ele>119.33333333333333</ele><time>2026-04-06T16:06:27.777Z</time></trkpt><trkpt lat="44.8123833" lon="1.0936424"><ele>117.66666666666666</ele><time>2026-04-06T16:06:31.784Z</time></trkpt><trkpt lat="44.8124241" lon="1.0937125"><ele>116.0</ele><time>2026-04-06T16:06:33.758Z</time></trkpt><trkpt lat="44.8125143" lon="1.0937429"><ele>115.99999999999999</ele><time>2026-04-06T16:06:35.765Z</time></trkpt><trkpt lat="44.8126055" lon="1.0937904"><ele>116.0</ele><time>2026-04-06T16:06:37.763Z</time></trkpt><trkpt lat="44.8126592" lon="1.0938451"><ele>116.0</ele><time>2026-04-06T16:06:39.758Z</time></trkpt><trkpt lat="44.8127201" lon="1.093894"><ele>116.0</ele><time>2026-04-06T16:06:42.765Z</time></trkpt><trkpt lat="44.8128156" lon="1.0938982"><ele>115.99999999999999</ele><time>2026-04-06T16:06:44.764Z</time></trkpt><trkpt lat="44.8128809" lon="1.0938978"><ele>116.0</ele><time>2026-04-06T16:06:45.765Z</time></trkpt><trkpt lat="44.8129571" lon="1.0938973"><ele>117.8</ele><time>2026-04-06T16:06:46.777Z</time></trkpt><trkpt lat="44.8130414" lon="1.0938964"><ele>119.6</ele><time>2026-04-06T16:06:47.766Z</time></trkpt><trkpt lat="44.8131296" lon="1.0938915"><ele>121.4</ele><time>2026-04-06T16:06:48.797Z</time></trkpt><trkpt lat="44.8132225" lon="1.0938838"><ele>123.2</ele><time>2026-04-06T16:06:49.758Z</time></trkpt><trkpt lat="44.8133154" lon="1.0938766"><ele>125.0</ele><time>2026-04-06T16:06:50.769Z</time></trkpt><trkpt lat="44.8134106" lon="1.0938673"><ele>124.33333333333333</ele><time>2026-04-06T16:06:51.757Z</time></trkpt><trkpt lat="44.8135068" lon="1.0938569"><ele>123.66666666666666</ele><time>2026-04-06T16:06:52.761Z</time></trkpt><trkpt lat="44.8135982" lon="1.093844"><ele>123.0</ele><time>2026-04-06T16:06:53.768Z</time></trkpt><trkpt lat="44.8136868" lon="1.0938322"><ele>122.33333333333334</ele><time>2026-04-06T16:06:54.778Z</time></trkpt><trkpt lat="44.813771" lon="1.0938219"><ele>121.66666666666667</ele><time>2026-04-06T16:06:55.767Z</time></trkpt><trkpt lat="44.8138496" lon="1.0938143"><ele>121.0</ele><time>2026-04-06T16:06:56.773Z</time></trkpt><trkpt lat="44.8139175" lon="1.0938155"><ele>121.0</ele><time>2026-04-06T16:06:57.761Z</time></trkpt><trkpt lat="44.8139861" lon="1.0938653"><ele>121.0</ele><time>2026-04-06T16:06:59.759Z</time></trkpt><trkpt lat="44.8140181" lon="1.0939772"><ele>121.0</ele><time>2026-04-06T16:07:01.76Z</time></trkpt><trkpt lat="44.8140127" lon="1.0941377"><ele>121.0</ele><time>2026-04-06T16:07:03.785Z</time></trkpt><trkpt lat="44.8139939" lon="1.0942925"><ele>121.0</ele><time>2026-04-06T16:07:05.763Z</time></trkpt><trkpt lat="44.8139751" lon="1.0944358"><ele>118.16666666666667</ele><time>2026-04-06T16:07:07.76Z</time></trkpt><trkpt lat="44.8139601" lon="1.0945697"><ele>115.33333333333334</ele><time>2026-04-06T16:07:09.764Z</time></trkpt><trkpt lat="44.81395" lon="1.0946916"><ele>112.5</ele><time>2026-04-06T16:07:11.765Z</time></trkpt><trkpt lat="44.813925" lon="1.0947907"><ele>109.66666666666666</ele><time>2026-04-06T16:07:13.768Z</time></trkpt><trkpt lat="44.8138919" lon="1.0948695"><ele>106.83333333333333</ele><time>2026-04-06T16:07:15.78Z</time></trkpt><trkpt lat="44.8138374" lon="1.0949549"><ele>104.0</ele><time>2026-04-06T16:07:18.762Z</time></trkpt><trkpt lat="44.8137841" lon="1.0950072"><ele>103.99999999999999</ele><time>2026-04-06T16:07:20.77Z</time></trkpt><trkpt lat="44.8137121" lon="1.095047"><ele>104.0</ele><time>2026-04-06T16:07:22.763Z</time></trkpt><trkpt lat="44.8136331" lon="1.0950771"><ele>104.0</ele><time>2026-04-06T16:07:24.761Z</time></trkpt><trkpt lat="44.8135516" lon="1.09509"><ele>104.0</ele><time>2026-04-06T16:07:26.764Z</time></trkpt><trkpt lat="44.8134686" lon="1.0951017"><ele>103.99999999999999</ele><time>2026-04-06T16:07:28.777Z</time></trkpt><trkpt lat="44.8133819" lon="1.0951241"><ele>104.0</ele><time>2026-04-06T16:07:30.785Z</time></trkpt><trkpt lat="44.813275" lon="1.0951567"><ele>104.4</ele><time>2026-04-06T16:07:32.762Z</time></trkpt><trkpt lat="44.8131564" lon="1.0951888"><ele>104.80000000000001</ele><time>2026-04-06T16:07:34.76Z</time></trkpt><trkpt lat="44.8130318" lon="1.0952224"><ele>105.19999999999999</ele><time>2026-04-06T16:07:36.758Z</time></trkpt><trkpt lat="44.8129551" lon="1.0952401"><ele>105.6</ele><time>2026-04-06T16:07:37.81Z</time></trkpt><trkpt lat="44.8128784" lon="1.0952528"><ele>106.0</ele><time>2026-04-06T16:07:38.761Z</time></trkpt><trkpt lat="44.8128056" lon="1.0952681"><ele>106.0</ele><time>2026-04-06T16:07:39.76Z</time></trkpt><trkpt lat="44.8127384" lon="1.0952893"><ele>106.0</ele><time>2026-04-06T16:07:40.767Z</time></trkpt><trkpt lat="44.8126717" lon="1.0953209"><ele>106.0</ele><time>2026-04-06T16:07:41.765Z</time></trkpt><trkpt lat="44.8126083" lon="1.0953516"><ele>106.0</ele><time>2026-04-06T16:07:42.786Z</time></trkpt><trkpt lat="44.8125436" lon="1.0953995"><ele>106.0</ele><time>2026-04-06T16:07:43.762Z</time></trkpt><trkpt lat="44.8124706" lon="1.0954544"><ele>106.0</ele><time>2026-04-06T16:07:44.765Z</time></trkpt><trkpt lat="44.8123932" lon="1.0955057"><ele>106.0</ele><time>2026-04-06T16:07:45.761Z</time></trkpt><trkpt lat="44.812314" lon="1.0955599"><ele>107.4</ele><time>2026-04-06T16:07:46.761Z</time></trkpt><trkpt lat="44.8122339" lon="1.0956162"><ele>108.8</ele><time>2026-04-06T16:07:47.759Z</time></trkpt><trkpt lat="44.8121521" lon="1.0956727"><ele>110.20000000000002</ele><time>2026-04-06T16:07:48.761Z</time></trkpt><trkpt lat="44.8120697" lon="1.0957287"><ele>111.60000000000001</ele><time>2026-04-06T16:07:49.767Z</time></trkpt><trkpt lat="44.8119831" lon="1.0957888"><ele>113.0</ele><time>2026-04-06T16:07:50.78Z</time></trkpt><trkpt lat="44.8118977" lon="1.095844"><ele>116.16666666666666</ele><time>2026-04-06T16:07:51.761Z</time></trkpt><trkpt lat="44.811817" lon="1.0959005"><ele>119.33333333333333</ele><time>2026-04-06T16:07:52.764Z</time></trkpt><trkpt lat="44.8117406" lon="1.0959545"><ele>122.5</ele><time>2026-04-06T16:07:53.767Z</time></trkpt><trkpt lat="44.8116666" lon="1.0960052"><ele>125.66666666666666</ele><time>2026-04-06T16:07:54.758Z</time></trkpt><trkpt lat="44.8115929" lon="1.0960497"><ele>128.83333333333334</ele><time>2026-04-06T16:07:55.765Z</time></trkpt><trkpt lat="44.8115203" lon="1.0960881"><ele>132.0</ele><time>2026-04-06T16:07:56.781Z</time></trkpt><trkpt lat="44.8114448" lon="1.0961235"><ele>132.0</ele><time>2026-04-06T16:07:57.761Z</time></trkpt><trkpt lat="44.8113662" lon="1.0961637"><ele>132.0</ele><time>2026-04-06T16:07:58.78Z</time></trkpt><trkpt lat="44.8112832" lon="1.0962147"><ele>132.0</ele><time>2026-04-06T16:07:59.772Z</time></trkpt><trkpt lat="44.8111991" lon="1.0962683"><ele>132.0</ele><time>2026-04-06T16:08:00.768Z</time></trkpt><trkpt lat="44.8111127" lon="1.0963239"><ele>132.0</ele><time>2026-04-06T16:08:01.762Z</time></trkpt><trkpt lat="44.811021" lon="1.0963801"><ele>133.83333333333334</ele><time>2026-04-06T16:08:02.768Z</time></trkpt><trkpt lat="44.8109366" lon="1.0964405"><ele>135.66666666666666</ele><time>2026-04-06T16:08:03.771Z</time></trkpt><trkpt lat="44.8108575" lon="1.0964994"><ele>137.5</ele><time>2026-04-06T16:08:04.764Z</time></trkpt><trkpt lat="44.8107904" lon="1.0965686"><ele>139.33333333333331</ele><time>2026-04-06T16:08:05.764Z</time></trkpt><trkpt lat="44.8107262" lon="1.0966418"><ele>141.16666666666666</ele><time>2026-04-06T16:08:06.777Z</time></trkpt><trkpt lat="44.8106635" lon="1.0967165"><ele>143.0</ele><time>2026-04-06T16:08:07.766Z</time></trkpt><trkpt lat="44.8105976" lon="1.0967845"><ele>143.0</ele><time>2026-04-06T16:08:08.76Z</time></trkpt><trkpt lat="44.8105237" lon="1.0968387"><ele>143.0</ele><time>2026-04-06T16:08:09.766Z</time></trkpt><trkpt lat="44.8104477" lon="1.0968817"><ele>143.0</ele><time>2026-04-06T16:08:10.767Z</time></trkpt><trkpt lat="44.8103647" lon="1.0969157"><ele>143.0</ele><time>2026-04-06T16:08:11.765Z</time></trkpt><trkpt lat="44.81028" lon="1.0969548"><ele>143.0</ele><time>2026-04-06T16:08:12.796Z</time></trkpt><trkpt lat="44.8101984" lon="1.0970109"><ele>143.0</ele><time>2026-04-06T16:08:13.761Z</time></trkpt><trkpt lat="44.8101143" lon="1.0970842"><ele>143.6</ele><time>2026-04-06T16:08:14.766Z</time></trkpt><trkpt lat="44.8100265" lon="1.0971738"><ele>144.20000000000002</ele><time>2026-04-06T16:08:15.768Z</time></trkpt><trkpt lat="44.809941" lon="1.0972608"><ele>144.8</ele><time>2026-04-06T16:08:16.766Z</time></trkpt><trkpt lat="44.8098732" lon="1.0973402"><ele>145.4</ele><time>2026-04-06T16:08:17.783Z</time></trkpt><trkpt lat="44.8098096" lon="1.097416"><ele>146.0</ele><time>2026-04-06T16:08:18.766Z</time></trkpt><trkpt lat="44.8097375" lon="1.0974725"><ele>146.0</ele><time>2026-04-06T16:08:19.781Z</time></trkpt><trkpt lat="44.80966" lon="1.0975126"><ele>146.0</ele><time>2026-04-06T16:08:20.765Z</time></trkpt><trkpt lat="44.8095859" lon="1.0975521"><ele>146.0</ele><time>2026-04-06T16:08:21.765Z</time></trkpt><trkpt lat="44.8095174" lon="1.0975936"><ele>146.0</ele><time>2026-04-06T16:08:22.767Z</time></trkpt><trkpt lat="44.809442" lon="1.0976472"><ele>146.0</ele><time>2026-04-06T16:08:23.763Z</time></trkpt><trkpt lat="44.8093719" lon="1.097699"><ele>146.0</ele><time>2026-04-06T16:08:24.785Z</time></trkpt><trkpt lat="44.8092992" lon="1.0977508"><ele>148.33333333333331</ele><time>2026-04-06T16:08:25.76Z</time></trkpt><trkpt lat="44.8092216" lon="1.0978082"><ele>150.66666666666666</ele><time>2026-04-06T16:08:26.759Z</time></trkpt><trkpt lat="44.8091492" lon="1.0978659"><ele>153.0</ele><time>2026-04-06T16:08:27.759Z</time></trkpt><trkpt lat="44.8090823" lon="1.0979218"><ele>155.33333333333334</ele><time>2026-04-06T16:08:28.76Z</time></trkpt><trkpt lat="44.8090185" lon="1.0979771"><ele>157.66666666666669</ele><time>2026-04-06T16:08:29.765Z</time></trkpt><trkpt lat="44.8089537" lon="1.0980309"><ele>160.0</ele><time>2026-04-06T16:08:30.768Z</time></trkpt><trkpt lat="44.8088949" lon="1.0980771"><ele>160.0</ele><time>2026-04-06T16:08:31.762Z</time></trkpt><trkpt lat="44.8088002" lon="1.0981709"><ele>160.0</ele><time>2026-04-06T16:08:33.757Z</time></trkpt><trkpt lat="44.8087056" lon="1.0982862"><ele>160.0</ele><time>2026-04-06T16:08:35.764Z</time></trkpt><trkpt lat="44.8086454" lon="1.098351"><ele>160.0</ele><time>2026-04-06T16:08:36.772Z</time></trkpt><trkpt lat="44.8085813" lon="1.0984181"><ele>160.0</ele><time>2026-04-06T16:08:37.772Z</time></trkpt><trkpt lat="44.8085175" lon="1.0984843"><ele>162.0</ele><time>2026-04-06T16:08:38.766Z</time></trkpt><trkpt lat="44.8084508" lon="1.0985532"><ele>164.0</ele><time>2026-04-06T16:08:39.761Z</time></trkpt><trkpt lat="44.8083926" lon="1.0986119"><ele>166.0</ele><time>2026-04-06T16:08:40.76Z</time></trkpt><trkpt lat="44.8083331" lon="1.0986686"><ele>168.0</ele><time>2026-04-06T16:08:41.762Z</time></trkpt><trkpt lat="44.8082672" lon="1.098721"><ele>170.0</ele><time>2026-04-06T16:08:42.758Z</time></trkpt><trkpt lat="44.8081969" lon="1.0987657"><ele>172.0</ele><time>2026-04-06T16:08:43.782Z</time></trkpt><trkpt lat="44.8081145" lon="1.0988028"><ele>172.0</ele><time>2026-04-06T16:08:44.768Z</time></trkpt><trkpt lat="44.8080212" lon="1.0988325"><ele>172.0</ele><time>2026-04-06T16:08:45.765Z</time></trkpt><trkpt lat="44.8079216" lon="1.0988628"><ele>172.0</ele><time>2026-04-06T16:08:46.764Z</time></trkpt><trkpt lat="44.8078162" lon="1.0988916"><ele>172.0</ele><time>2026-04-06T16:08:47.761Z</time></trkpt><trkpt lat="44.8077091" lon="1.0989217"><ele>172.0</ele><time>2026-04-06T16:08:48.788Z</time></trkpt><trkpt lat="44.8075992" lon="1.0989505"><ele>172.8</ele><time>2026-04-06T16:08:49.769Z</time></trkpt><trkpt lat="44.807494" lon="1.0989774"><ele>173.6</ele><time>2026-04-06T16:08:50.76Z</time></trkpt><trkpt lat="44.8073947" lon="1.0989972"><ele>174.4</ele><time>2026-04-06T16:08:51.764Z</time></trkpt><trkpt lat="44.8072994" lon="1.0990238"><ele>175.20000000000002</ele><time>2026-04-06T16:08:52.762Z</time></trkpt><trkpt lat="44.8072078" lon="1.0990473"><ele>176.0</ele><time>2026-04-06T16:08:53.765Z</time></trkpt><trkpt lat="44.8071168" lon="1.0990617"><ele>176.0</ele><time>2026-04-06T16:08:54.777Z</time></trkpt><trkpt lat="44.8070262" lon="1.0990775"><ele>176.0</ele><time>2026-04-06T16:08:55.764Z</time></trkpt><trkpt lat="44.8069365" lon="1.0990944"><ele>176.0</ele><time>2026-04-06T16:08:56.786Z</time></trkpt><trkpt lat="44.8068498" lon="1.0991074"><ele>176.0</ele><time>2026-04-06T16:08:57.763Z</time></trkpt><trkpt lat="44.8067639" lon="1.099119"><ele>176.0</ele><time>2026-04-06T16:08:58.764Z</time></trkpt><trkpt lat="44.8066843" lon="1.0991291"><ele>176.0</ele><time>2026-04-06T16:08:59.769Z</time></trkpt><trkpt lat="44.8066063" lon="1.0991385"><ele>175.33333333333331</ele><time>2026-04-06T16:09:00.769Z</time></trkpt><trkpt lat="44.8065239" lon="1.0991494"><ele>174.66666666666666</ele><time>2026-04-06T16:09:01.768Z</time></trkpt><trkpt lat="44.8064378" lon="1.0991696"><ele>174.0</ele><time>2026-04-06T16:09:02.764Z</time></trkpt><trkpt lat="44.8063508" lon="1.0991902"><ele>173.33333333333334</ele><time>2026-04-06T16:09:03.769Z</time></trkpt><trkpt lat="44.806265" lon="1.0992267"><ele>172.66666666666669</ele><time>2026-04-06T16:09:04.766Z</time></trkpt><trkpt lat="44.8061737" lon="1.0992706"><ele>172.0</ele><time>2026-04-06T16:09:05.808Z</time></trkpt><trkpt lat="44.8060702" lon="1.0993159"><ele>173.6</ele><time>2026-04-06T16:09:06.762Z</time></trkpt><trkpt lat="44.8059661" lon="1.0993517"><ele>175.2</ele><time>2026-04-06T16:09:07.762Z</time></trkpt><trkpt lat="44.8058708" lon="1.099372"><ele>176.8</ele><time>2026-04-06T16:09:08.759Z</time></trkpt><trkpt lat="44.8057909" lon="1.0993884"><ele>178.4</ele><time>2026-04-06T16:09:09.772Z</time></trkpt><trkpt lat="44.8057055" lon="1.0994061"><ele>180.0</ele><time>2026-04-06T16:09:10.767Z</time></trkpt><trkpt lat="44.8056205" lon="1.0994196"><ele>180.0</ele><time>2026-04-06T16:09:11.759Z</time></trkpt><trkpt lat="44.8055184" lon="1.0994373"><ele>180.0</ele><time>2026-04-06T16:09:12.766Z</time></trkpt><trkpt lat="44.8053788" lon="1.0994589"><ele>180.0</ele><time>2026-04-06T16:09:13.769Z</time></trkpt><trkpt lat="44.8052334" lon="1.0994799"><ele>180.0</ele><time>2026-04-06T16:09:14.76Z</time></trkpt><trkpt lat="44.8050826" lon="1.0995032"><ele>181.25</ele><time>2026-04-06T16:09:15.784Z</time></trkpt><trkpt lat="44.8049431" lon="1.0995283"><ele>182.5</ele><time>2026-04-06T16:09:16.766Z</time></trkpt><trkpt lat="44.8048181" lon="1.0995492"><ele>183.75</ele><time>2026-04-06T16:09:17.767Z</time></trkpt><trkpt lat="44.8046992" lon="1.0995676"><ele>185.0</ele><time>2026-04-06T16:09:18.764Z</time></trkpt><trkpt lat="44.8045946" lon="1.0995782"><ele>185.0</ele><time>2026-04-06T16:09:19.767Z</time></trkpt><trkpt lat="44.8045019" lon="1.0995817"><ele>185.0</ele><time>2026-04-06T16:09:20.788Z</time></trkpt><trkpt lat="44.8044242" lon="1.0995847"><ele>185.0</ele><time>2026-04-06T16:09:21.772Z</time></trkpt><trkpt lat="44.8043601" lon="1.0995924"><ele>185.0</ele><time>2026-04-06T16:09:22.766Z</time></trkpt><trkpt lat="44.804277" lon="1.0996039"><ele>185.0</ele><time>2026-04-06T16:09:24.768Z</time></trkpt><trkpt lat="44.8042142" lon="1.0996101"><ele>185.0</ele><time>2026-04-06T16:09:34.765Z</time></trkpt><trkpt lat="44.8041201" lon="1.0996214"><ele>185.66666666666666</ele><time>2026-04-06T16:09:36.789Z</time></trkpt><trkpt lat="44.8040567" lon="1.0996287"><ele>186.33333333333331</ele><time>2026-04-06T16:09:37.774Z</time></trkpt><trkpt lat="44.8039778" lon="1.0996287"><ele>187.0</ele><time>2026-04-06T16:09:38.787Z</time></trkpt><trkpt lat="44.8039005" lon="1.0996326"><ele>187.66666666666666</ele><time>2026-04-06T16:09:39.787Z</time></trkpt><trkpt lat="44.803819" lon="1.0996294"><ele>188.33333333333334</ele><time>2026-04-06T16:09:40.784Z</time></trkpt><trkpt lat="44.8037337" lon="1.0996274"><ele>189.0</ele><time>2026-04-06T16:09:41.775Z</time></trkpt><trkpt lat="44.8036513" lon="1.0996249"><ele>189.0</ele><time>2026-04-06T16:09:42.795Z</time></trkpt><trkpt lat="44.8035642" lon="1.099617"><ele>189.0</ele><time>2026-04-06T16:09:43.77Z</time></trkpt><trkpt lat="44.8034791" lon="1.0996068"><ele>189.0</ele><time>2026-04-06T16:09:44.774Z</time></trkpt><trkpt lat="44.8033929" lon="1.0995991"><ele>189.0</ele><time>2026-04-06T16:09:45.787Z</time></trkpt><trkpt lat="44.8033121" lon="1.0995972"><ele>189.0</ele><time>2026-04-06T16:09:46.763Z</time></trkpt><trkpt lat="44.8032349" lon="1.0995931"><ele>189.0</ele><time>2026-04-06T16:09:47.769Z</time></trkpt><trkpt lat="44.8031621" lon="1.0995871"><ele>189.85714285714286</ele><time>2026-04-06T16:09:48.767Z</time></trkpt><trkpt lat="44.8030957" lon="1.0995819"><ele>190.71428571428572</ele><time>2026-04-06T16:09:49.782Z</time></trkpt><trkpt lat="44.8030318" lon="1.0995775"><ele>191.57142857142856</ele><time>2026-04-06T16:09:50.771Z</time></trkpt><trkpt lat="44.8029661" lon="1.0995718"><ele>192.42857142857144</ele><time>2026-04-06T16:09:51.768Z</time></trkpt><trkpt lat="44.8029004" lon="1.0995569"><ele>193.28571428571428</ele><time>2026-04-06T16:09:52.768Z</time></trkpt><trkpt lat="44.8028336" lon="1.099538"><ele>194.14285714285714</ele><time>2026-04-06T16:09:53.782Z</time></trkpt><trkpt lat="44.8027692" lon="1.0995185"><ele>195.0</ele><time>2026-04-06T16:09:54.774Z</time></trkpt><trkpt lat="44.8026768" lon="1.0994884"><ele>196.33333333333334</ele><time>2026-04-06T16:09:56.776Z</time></trkpt><trkpt lat="44.8025623" lon="1.0995115"><ele>197.66666666666669</ele><time>2026-04-06T16:09:58.775Z</time></trkpt><trkpt lat="44.8024918" lon="1.0995463"><ele>199.0</ele><time>2026-04-06T16:09:59.768Z</time></trkpt><trkpt lat="44.8024159" lon="1.0995811"><ele>200.33333333333334</ele><time>2026-04-06T16:10:00.767Z</time></trkpt><trkpt lat="44.8023415" lon="1.0996242"><ele>201.66666666666669</ele><time>2026-04-06T16:10:01.773Z</time></trkpt><trkpt lat="44.8022747" lon="1.0996627"><ele>203.0</ele><time>2026-04-06T16:10:02.79Z</time></trkpt><trkpt lat="44.8021659" lon="1.0997206"><ele>203.00000000000003</ele><time>2026-04-06T16:10:04.766Z</time></trkpt><trkpt lat="44.8020447" lon="1.0997704"><ele>203.0</ele><time>2026-04-06T16:10:06.772Z</time></trkpt><trkpt lat="44.801966" lon="1.0997951"><ele>203.0</ele><time>2026-04-06T16:10:07.773Z</time></trkpt><trkpt lat="44.8018956" lon="1.0998172"><ele>203.0</ele><time>2026-04-06T16:10:08.77Z</time></trkpt><trkpt lat="44.8018147" lon="1.099823"><ele>203.00000000000003</ele><time>2026-04-06T16:10:09.769Z</time></trkpt><trkpt lat="44.8017416" lon="1.0998238"><ele>203.0</ele><time>2026-04-06T16:10:10.773Z</time></trkpt><trkpt lat="44.8016709" lon="1.0998021"><ele>205.33333333333334</ele><time>2026-04-06T16:10:11.763Z</time></trkpt><trkpt lat="44.8016001" lon="1.0997781"><ele>207.66666666666669</ele><time>2026-04-06T16:10:12.784Z</time></trkpt><trkpt lat="44.8015322" lon="1.0997617"><ele>210.0</ele><time>2026-04-06T16:10:13.774Z</time></trkpt><trkpt lat="44.8014605" lon="1.0997419"><ele>212.33333333333331</ele><time>2026-04-06T16:10:14.772Z</time></trkpt><trkpt lat="44.8013836" lon="1.099717"><ele>214.66666666666666</ele><time>2026-04-06T16:10:15.77Z</time></trkpt><trkpt lat="44.8013106" lon="1.0997009"><ele>217.0</ele><time>2026-04-06T16:10:16.777Z</time></trkpt><trkpt lat="44.801227" lon="1.0996916"><ele>217.0</ele><time>2026-04-06T16:10:17.766Z</time></trkpt><trkpt lat="44.8011538" lon="1.099679"><ele>217.0</ele><time>2026-04-06T16:10:18.788Z</time></trkpt><trkpt lat="44.8010849" lon="1.0996738"><ele>217.0</ele><time>2026-04-06T16:10:19.767Z</time></trkpt><trkpt lat="44.8010205" lon="1.0996764"><ele>217.0</ele><time>2026-04-06T16:10:20.774Z</time></trkpt><trkpt lat="44.8009564" lon="1.0996924"><ele>217.0</ele><time>2026-04-06T16:10:21.775Z</time></trkpt><trkpt lat="44.8008893" lon="1.099713"><ele>217.0</ele><time>2026-04-06T16:10:22.77Z</time></trkpt><trkpt lat="44.8008232" lon="1.0997447"><ele>217.0</ele><time>2026-04-06T16:10:23.781Z</time></trkpt><trkpt lat="44.8007599" lon="1.0997856"><ele>219.0</ele><time>2026-04-06T16:10:24.777Z</time></trkpt><trkpt lat="44.8007037" lon="1.0998298"><ele>221.0</ele><time>2026-04-06T16:10:25.774Z</time></trkpt><trkpt lat="44.8006012" lon="1.0999131"><ele>223.0</ele><time>2026-04-06T16:10:27.766Z</time></trkpt><trkpt lat="44.800496" lon="1.0999988"><ele>225.0</ele><time>2026-04-06T16:10:29.768Z</time></trkpt><trkpt lat="44.8004415" lon="1.1000457"><ele>227.0</ele><time>2026-04-06T16:10:30.764Z</time></trkpt><trkpt lat="44.8003389" lon="1.100138"><ele>227.39999999999998</ele><time>2026-04-06T16:10:32.772Z</time></trkpt><trkpt lat="44.8002485" lon="1.1002366"><ele>227.79999999999998</ele><time>2026-04-06T16:10:34.765Z</time></trkpt><trkpt lat="44.8001651" lon="1.1003284"><ele>228.2</ele><time>2026-04-06T16:10:36.778Z</time></trkpt><trkpt lat="44.8000865" lon="1.1004419"><ele>228.6</ele><time>2026-04-06T16:10:38.769Z</time></trkpt><trkpt lat="44.8000428" lon="1.1005277"><ele>229.0</ele><time>2026-04-06T16:10:39.778Z</time></trkpt><trkpt lat="44.7999976" lon="1.1006269"><ele>228.99999999999997</ele><time>2026-04-06T16:10:40.767Z</time></trkpt><trkpt lat="44.7999514" lon="1.1007306"><ele>229.0</ele><time>2026-04-06T16:10:41.781Z</time></trkpt><trkpt lat="44.7999036" lon="1.1008352"><ele>229.0</ele><time>2026-04-06T16:10:42.775Z</time></trkpt><trkpt lat="44.7998535" lon="1.1009347"><ele>229.0</ele><time>2026-04-06T16:10:43.766Z</time></trkpt><trkpt lat="44.7997959" lon="1.1010227"><ele>228.99999999999997</ele><time>2026-04-06T16:10:44.773Z</time></trkpt><trkpt lat="44.7997333" lon="1.1010984"><ele>229.0</ele><time>2026-04-06T16:10:45.768Z</time></trkpt><trkpt lat="44.7996734" lon="1.1011704"><ele>228.99999999999997</ele><time>2026-04-06T16:10:46.775Z</time></trkpt><trkpt lat="44.7996077" lon="1.1012304"><ele>229.0</ele><time>2026-04-06T16:10:47.761Z</time></trkpt><trkpt lat="44.7995456" lon="1.1012875"><ele>229.0</ele><time>2026-04-06T16:10:48.775Z</time></trkpt><trkpt lat="44.7994869" lon="1.101331"><ele>229.0</ele><time>2026-04-06T16:10:49.769Z</time></trkpt><trkpt lat="44.7993892" lon="1.101405"><ele>228.99999999999997</ele><time>2026-04-06T16:10:51.766Z</time></trkpt><trkpt lat="44.7993298" lon="1.1014567"><ele>229.0</ele><time>2026-04-06T16:10:54.761Z</time></trkpt><trkpt lat="44.7992747" lon="1.101536"><ele>229.99999999999997</ele><time>2026-04-06T16:11:04.761Z</time></trkpt><trkpt lat="44.7992342" lon="1.1016385"><ele>231.0</ele><time>2026-04-06T16:11:32.768Z</time></trkpt><trkpt lat="44.7992031" lon="1.1017519"><ele>232.0</ele><time>2026-04-06T16:11:34.76Z</time></trkpt><trkpt lat="44.7991811" lon="1.1019186"><ele>233.0</ele><time>2026-04-06T16:11:36.757Z</time></trkpt><trkpt lat="44.7991687" lon="1.1020134"><ele>233.99999999999997</ele><time>2026-04-06T16:11:37.786Z</time></trkpt><trkpt lat="44.7991542" lon="1.1021141"><ele>235.0</ele><time>2026-04-06T16:11:38.77Z</time></trkpt><trkpt lat="44.7991378" lon="1.1022215"><ele>234.99999999999997</ele><time>2026-04-06T16:11:39.757Z</time></trkpt><trkpt lat="44.7991213" lon="1.1023281"><ele>235.0</ele><time>2026-04-06T16:11:40.771Z</time></trkpt><trkpt lat="44.7991017" lon="1.1024415"><ele>235.0</ele><time>2026-04-06T16:11:41.764Z</time></trkpt><trkpt lat="44.7990786" lon="1.1025618"><ele>235.0</ele><time>2026-04-06T16:11:42.77Z</time></trkpt><trkpt lat="44.7990545" lon="1.1026673"><ele>234.99999999999997</ele><time>2026-04-06T16:11:43.762Z</time></trkpt><trkpt lat="44.7990272" lon="1.102772"><ele>235.0</ele><time>2026-04-06T16:11:44.768Z</time></trkpt><trkpt lat="44.7989935" lon="1.1028709"><ele>234.16666666666666</ele><time>2026-04-06T16:11:45.758Z</time></trkpt><trkpt lat="44.7989654" lon="1.1029575"><ele>233.33333333333331</ele><time>2026-04-06T16:11:46.767Z</time></trkpt><trkpt lat="44.7989339" lon="1.1030573"><ele>232.5</ele><time>2026-04-06T16:11:47.772Z</time></trkpt><trkpt lat="44.7989062" lon="1.1031468"><ele>231.66666666666669</ele><time>2026-04-06T16:11:48.786Z</time></trkpt><trkpt lat="44.7988815" lon="1.1032329"><ele>230.83333333333334</ele><time>2026-04-06T16:11:49.761Z</time></trkpt><trkpt lat="44.7988368" lon="1.1033726"><ele>230.0</ele><time>2026-04-06T16:11:51.762Z</time></trkpt><trkpt lat="44.7987654" lon="1.1035047"><ele>230.16666666666669</ele><time>2026-04-06T16:11:53.763Z</time></trkpt><trkpt lat="44.7987063" lon="1.103565"><ele>230.33333333333334</ele><time>2026-04-06T16:11:54.761Z</time></trkpt><trkpt lat="44.7986323" lon="1.1036235"><ele>230.5</ele><time>2026-04-06T16:11:55.769Z</time></trkpt><trkpt lat="44.7985557" lon="1.1036841"><ele>230.66666666666669</ele><time>2026-04-06T16:11:56.778Z</time></trkpt><trkpt lat="44.7984885" lon="1.1037371"><ele>230.83333333333334</ele><time>2026-04-06T16:11:57.763Z</time></trkpt><trkpt lat="44.7984066" lon="1.1037776"><ele>231.0</ele><time>2026-04-06T16:11:58.768Z</time></trkpt><trkpt lat="44.7983248" lon="1.1038095"><ele>231.0</ele><time>2026-04-06T16:11:59.762Z</time></trkpt><trkpt lat="44.7982402" lon="1.1038407"><ele>231.0</ele><time>2026-04-06T16:12:00.772Z</time></trkpt><trkpt lat="44.7981534" lon="1.103875"><ele>231.0</ele><time>2026-04-06T16:12:01.77Z</time></trkpt><trkpt lat="44.7980655" lon="1.1039126"><ele>231.0</ele><time>2026-04-06T16:12:02.775Z</time></trkpt><trkpt lat="44.7979762" lon="1.1039518"><ele>231.0</ele><time>2026-04-06T16:12:03.765Z</time></trkpt><trkpt lat="44.7978968" lon="1.1039889"><ele>231.0</ele><time>2026-04-06T16:12:04.763Z</time></trkpt><trkpt lat="44.7978305" lon="1.1040169"><ele>231.0</ele><time>2026-04-06T16:12:05.758Z</time></trkpt><trkpt lat="44.7977686" lon="1.104038"><ele>231.0</ele><time>2026-04-06T16:12:06.774Z</time></trkpt><trkpt lat="44.7976976" lon="1.1040565"><ele>231.0</ele><time>2026-04-06T16:12:07.765Z</time></trkpt><trkpt lat="44.79763" lon="1.1040687"><ele>231.0</ele><time>2026-04-06T16:12:08.768Z</time></trkpt><trkpt lat="44.7975472" lon="1.1040716"><ele>231.0</ele><time>2026-04-06T16:12:09.785Z</time></trkpt><trkpt lat="44.7974703" lon="1.1040705"><ele>231.0</ele><time>2026-04-06T16:12:10.765Z</time></trkpt><trkpt lat="44.7973948" lon="1.1040685"><ele>231.0</ele><time>2026-04-06T16:12:11.759Z</time></trkpt><trkpt lat="44.7973041" lon="1.1040793"><ele>228.0</ele><time>2026-04-06T16:12:13.763Z</time></trkpt><trkpt lat="44.7972242" lon="1.1041273"><ele>225.0</ele><time>2026-04-06T16:12:23.765Z</time></trkpt><trkpt lat="44.7971054" lon="1.1041353"><ele>222.0</ele><time>2026-04-06T16:12:25.76Z</time></trkpt><trkpt lat="44.7970345" lon="1.1041416"><ele>219.0</ele><time>2026-04-06T16:12:26.77Z</time></trkpt><trkpt lat="44.7969576" lon="1.104158"><ele>216.0</ele><time>2026-04-06T16:12:27.765Z</time></trkpt><trkpt lat="44.7968786" lon="1.1041808"><ele>213.0</ele><time>2026-04-06T16:12:28.765Z</time></trkpt><trkpt lat="44.7967937" lon="1.1042033"><ele>212.4</ele><time>2026-04-06T16:12:29.762Z</time></trkpt><trkpt lat="44.7967116" lon="1.1042235"><ele>211.8</ele><time>2026-04-06T16:12:30.761Z</time></trkpt><trkpt lat="44.7966265" lon="1.1042305"><ele>211.2</ele><time>2026-04-06T16:12:31.763Z</time></trkpt><trkpt lat="44.7965363" lon="1.1042245"><ele>210.6</ele><time>2026-04-06T16:12:32.764Z</time></trkpt><trkpt lat="44.7964429" lon="1.1042032"><ele>210.0</ele><time>2026-04-06T16:12:33.763Z</time></trkpt><trkpt lat="44.7963458" lon="1.104172"><ele>210.0</ele><time>2026-04-06T16:12:34.759Z</time></trkpt><trkpt lat="44.7962419" lon="1.1041392"><ele>210.0</ele><time>2026-04-06T16:12:35.761Z</time></trkpt><trkpt lat="44.7961393" lon="1.1041065"><ele>210.0</ele><time>2026-04-06T16:12:36.758Z</time></trkpt><trkpt lat="44.7960282" lon="1.1040916"><ele>210.0</ele><time>2026-04-06T16:12:37.767Z</time></trkpt><trkpt lat="44.7959192" lon="1.1040886"><ele>210.0</ele><time>2026-04-06T16:12:38.757Z</time></trkpt><trkpt lat="44.7958166" lon="1.1041002"><ele>209.83333333333334</ele><time>2026-04-06T16:12:39.77Z</time></trkpt><trkpt lat="44.7957205" lon="1.1041243"><ele>209.66666666666669</ele><time>2026-04-06T16:12:40.767Z</time></trkpt><trkpt lat="44.7956311" lon="1.1041564"><ele>209.5</ele><time>2026-04-06T16:12:41.764Z</time></trkpt><trkpt lat="44.7955542" lon="1.1041917"><ele>209.33333333333334</ele><time>2026-04-06T16:12:42.758Z</time></trkpt><trkpt lat="44.7954889" lon="1.1042332"><ele>209.16666666666669</ele><time>2026-04-06T16:12:43.762Z</time></trkpt><trkpt lat="44.7954293" lon="1.1042792"><ele>209.0</ele><time>2026-04-06T16:12:44.76Z</time></trkpt><trkpt lat="44.7953275" lon="1.1043626"><ele>209.0</ele><time>2026-04-06T16:12:46.764Z</time></trkpt><trkpt lat="44.7952468" lon="1.104425"><ele>209.0</ele><time>2026-04-06T16:12:48.76Z</time></trkpt><trkpt lat="44.7951779" lon="1.1044904"><ele>209.0</ele><time>2026-04-06T16:12:51.767Z</time></trkpt><trkpt lat="44.7950925" lon="1.104536"><ele>209.0</ele><time>2026-04-06T16:12:53.768Z</time></trkpt><trkpt lat="44.7949713" lon="1.1045681"><ele>209.0</ele><time>2026-04-06T16:12:55.766Z</time></trkpt><trkpt lat="44.7949056" lon="1.1045813"><ele>209.50000000000003</ele><time>2026-04-06T16:12:56.771Z</time></trkpt><trkpt lat="44.7948329" lon="1.1045881"><ele>210.0</ele><time>2026-04-06T16:12:57.775Z</time></trkpt><trkpt lat="44.794763" lon="1.1045911"><ele>210.5</ele><time>2026-04-06T16:12:58.766Z</time></trkpt><trkpt lat="44.7946513" lon="1.1046144"><ele>211.0</ele><time>2026-04-06T16:13:00.764Z</time></trkpt><trkpt lat="44.7945871" lon="1.1046593"><ele>211.50000000000003</ele><time>2026-04-06T16:13:02.761Z</time></trkpt><trkpt lat="44.7945228" lon="1.1047371"><ele>212.0</ele><time>2026-04-06T16:13:06.763Z</time></trkpt><trkpt lat="44.7944756" lon="1.1048144"><ele>212.0</ele><time>2026-04-06T16:13:09.766Z</time></trkpt><trkpt lat="44.7944128" lon="1.1048879"><ele>212.0</ele><time>2026-04-06T16:13:13.763Z</time></trkpt><trkpt lat="44.7943935" lon="1.1049841"><ele>212.0</ele><time>2026-04-06T16:13:18.777Z</time></trkpt><trkpt lat="44.7944558" lon="1.1050065"><ele>212.0</ele><time>2026-04-06T16:13:30.76Z</time></trkpt><trkpt lat="44.794471" lon="1.1048996"><ele>212.0</ele><time>2026-04-06T16:14:25.774Z</time></trkpt><trkpt lat="44.7944977" lon="1.1048095"><ele>212.0</ele><time>2026-04-06T16:14:28.77Z</time></trkpt><trkpt lat="44.7945358" lon="1.1047347"><ele>212.0</ele><time>2026-04-06T16:14:30.763Z</time></trkpt><trkpt lat="44.7945881" lon="1.104668"><ele>212.0</ele><time>2026-04-06T16:14:32.771Z</time></trkpt><trkpt lat="44.794686" lon="1.1046135"><ele>212.0</ele><time>2026-04-06T16:14:34.765Z</time></trkpt><trkpt lat="44.7948083" lon="1.1045986"><ele>212.0</ele><time>2026-04-06T16:14:36.766Z</time></trkpt><trkpt lat="44.7948714" lon="1.1045892"><ele>212.0</ele><time>2026-04-06T16:14:37.762Z</time></trkpt><trkpt lat="44.794934" lon="1.1045792"><ele>212.0</ele><time>2026-04-06T16:14:38.768Z</time></trkpt><trkpt lat="44.7950429" lon="1.10455"><ele>212.0</ele><time>2026-04-06T16:14:40.783Z</time></trkpt><trkpt lat="44.7951329" lon="1.104517"><ele>212.0</ele><time>2026-04-06T16:14:42.77Z</time></trkpt><trkpt lat="44.7951976" lon="1.1045094"><ele>212.0</ele><time>2026-04-06T16:14:44.773Z</time></trkpt><trkpt lat="44.7952521" lon="1.1045709"><ele>212.0</ele><time>2026-04-06T16:14:46.77Z</time></trkpt><trkpt lat="44.7953079" lon="1.1047003"><ele>212.0</ele><time>2026-04-06T16:14:48.764Z</time></trkpt><trkpt lat="44.7953679" lon="1.1048522"><ele>211.83333333333334</ele><time>2026-04-06T16:14:50.775Z</time></trkpt><trkpt lat="44.795406" lon="1.1049281"><ele>211.66666666666669</ele><time>2026-04-06T16:14:51.762Z</time></trkpt><trkpt lat="44.795437" lon="1.1050074"><ele>211.5</ele><time>2026-04-06T16:14:52.767Z</time></trkpt><trkpt lat="44.7954691" lon="1.1050865"><ele>211.33333333333331</ele><time>2026-04-06T16:14:53.763Z</time></trkpt><trkpt lat="44.7955034" lon="1.1051617"><ele>211.16666666666666</ele><time>2026-04-06T16:14:54.767Z</time></trkpt><trkpt lat="44.7955714" lon="1.1052918"><ele>211.0</ele><time>2026-04-06T16:14:56.768Z</time></trkpt><trkpt lat="44.7956349" lon="1.1054258"><ele>211.0</ele><time>2026-04-06T16:14:58.765Z</time></trkpt><trkpt lat="44.7956777" lon="1.1055769"><ele>211.0</ele><time>2026-04-06T16:15:00.767Z</time></trkpt><trkpt lat="44.7957154" lon="1.1057328"><ele>211.0</ele><time>2026-04-06T16:15:02.765Z</time></trkpt><trkpt lat="44.7957737" lon="1.1058826"><ele>211.0</ele><time>2026-04-06T16:15:04.77Z</time></trkpt><trkpt lat="44.7958221" lon="1.1059457"><ele>211.0</ele><time>2026-04-06T16:15:05.764Z</time></trkpt><trkpt lat="44.7959122" lon="1.1060419"><ele>210.49999999999997</ele><time>2026-04-06T16:15:07.77Z</time></trkpt><trkpt lat="44.795991" lon="1.1061061"><ele>210.0</ele><time>2026-04-06T16:15:09.762Z</time></trkpt><trkpt lat="44.796044" lon="1.1062114"><ele>209.5</ele><time>2026-04-06T16:15:12.769Z</time></trkpt><trkpt lat="44.7960399" lon="1.1063101"><ele>209.0</ele><time>2026-04-06T16:15:15.774Z</time></trkpt><trkpt lat="44.7960319" lon="1.1064057"><ele>208.49999999999997</ele><time>2026-04-06T16:15:17.776Z</time></trkpt><trkpt lat="44.7960188" lon="1.1065399"><ele>208.0</ele><time>2026-04-06T16:15:19.767Z</time></trkpt><trkpt lat="44.7960037" lon="1.1066918"><ele>207.99999999999997</ele><time>2026-04-06T16:15:21.763Z</time></trkpt><trkpt lat="44.7959992" lon="1.106793"><ele>208.0</ele><time>2026-04-06T16:15:22.767Z</time></trkpt><trkpt lat="44.7960036" lon="1.1068963"><ele>208.0</ele><time>2026-04-06T16:15:23.762Z</time></trkpt><trkpt lat="44.7960199" lon="1.1070082"><ele>208.0</ele><time>2026-04-06T16:15:24.768Z</time></trkpt><trkpt lat="44.7960406" lon="1.1071143"><ele>207.99999999999997</ele><time>2026-04-06T16:15:25.761Z</time></trkpt><trkpt lat="44.7960656" lon="1.1072176"><ele>208.0</ele><time>2026-04-06T16:15:26.769Z</time></trkpt><trkpt lat="44.7960927" lon="1.1073185"><ele>208.99999999999997</ele><time>2026-04-06T16:15:27.771Z</time></trkpt><trkpt lat="44.7961225" lon="1.1074199"><ele>210.0</ele><time>2026-04-06T16:15:28.762Z</time></trkpt><trkpt lat="44.796158" lon="1.107514"><ele>211.0</ele><time>2026-04-06T16:15:29.766Z</time></trkpt><trkpt lat="44.7961949" lon="1.1076054"><ele>212.0</ele><time>2026-04-06T16:15:30.763Z</time></trkpt><trkpt lat="44.7962382" lon="1.1076879"><ele>212.99999999999997</ele><time>2026-04-06T16:15:31.763Z</time></trkpt><trkpt lat="44.7962796" lon="1.1077654"><ele>214.0</ele><time>2026-04-06T16:15:32.762Z</time></trkpt><trkpt lat="44.796357" lon="1.1078565"><ele>214.0</ele><time>2026-04-06T16:15:34.809Z</time></trkpt><trkpt lat="44.7964422" lon="1.1079251"><ele>214.0</ele><time>2026-04-06T16:15:36.764Z</time></trkpt><trkpt lat="44.7965525" lon="1.1080053"><ele>214.0</ele><time>2026-04-06T16:15:38.758Z</time></trkpt><trkpt lat="44.7966574" lon="1.1080687"><ele>214.0</ele><time>2026-04-06T16:15:40.767Z</time></trkpt><trkpt lat="44.7967639" lon="1.1081252"><ele>213.39999999999998</ele><time>2026-04-06T16:15:42.767Z</time></trkpt><trkpt lat="44.7968666" lon="1.1082024"><ele>212.79999999999998</ele><time>2026-04-06T16:15:44.769Z</time></trkpt><trkpt lat="44.7969422" lon="1.1083414"><ele>212.2</ele><time>2026-04-06T16:15:46.764Z</time></trkpt><trkpt lat="44.7969718" lon="1.1084289"><ele>211.60000000000002</ele><time>2026-04-06T16:15:47.767Z</time></trkpt><trkpt lat="44.7970022" lon="1.1085226"><ele>211.0</ele><time>2026-04-06T16:15:48.765Z</time></trkpt><trkpt lat="44.7970378" lon="1.1086202"><ele>210.83333333333331</ele><time>2026-04-06T16:15:49.763Z</time></trkpt><trkpt lat="44.7970812" lon="1.1087195"><ele>210.66666666666666</ele><time>2026-04-06T16:15:50.763Z</time></trkpt><trkpt lat="44.7971267" lon="1.1088245"><ele>210.5</ele><time>2026-04-06T16:15:51.763Z</time></trkpt><trkpt lat="44.7971758" lon="1.1089303"><ele>210.33333333333331</ele><time>2026-04-06T16:15:52.764Z</time></trkpt><trkpt lat="44.7972254" lon="1.1090365"><ele>210.16666666666666</ele><time>2026-04-06T16:15:53.763Z</time></trkpt><trkpt lat="44.7972717" lon="1.109141"><ele>210.0</ele><time>2026-04-06T16:15:54.764Z</time></trkpt><trkpt lat="44.7973157" lon="1.109241"><ele>209.14285714285714</ele><time>2026-04-06T16:15:55.768Z</time></trkpt><trkpt lat="44.7973573" lon="1.1093318"><ele>208.28571428571428</ele><time>2026-04-06T16:15:56.759Z</time></trkpt><trkpt lat="44.7973944" lon="1.1094186"><ele>207.42857142857144</ele><time>2026-04-06T16:15:57.77Z</time></trkpt><trkpt lat="44.7974289" lon="1.1095023"><ele>206.57142857142856</ele><time>2026-04-06T16:15:58.768Z</time></trkpt><trkpt lat="44.7974615" lon="1.1095814"><ele>205.71428571428572</ele><time>2026-04-06T16:15:59.765Z</time></trkpt><trkpt lat="44.7974942" lon="1.1096645"><ele>204.85714285714286</ele><time>2026-04-06T16:16:00.77Z</time></trkpt><trkpt lat="44.7975325" lon="1.1097521"><ele>204.0</ele><time>2026-04-06T16:16:01.767Z</time></trkpt><trkpt lat="44.7975775" lon="1.1098333"><ele>204.0</ele><time>2026-04-06T16:16:02.761Z</time></trkpt><trkpt lat="44.7976279" lon="1.1099075"><ele>204.0</ele><time>2026-04-06T16:16:03.768Z</time></trkpt><trkpt lat="44.7976799" lon="1.1099775"><ele>204.0</ele><time>2026-04-06T16:16:04.762Z</time></trkpt><trkpt lat="44.7977324" lon="1.1100459"><ele>204.0</ele><time>2026-04-06T16:16:05.762Z</time></trkpt><trkpt lat="44.797782" lon="1.1101151"><ele>204.0</ele><time>2026-04-06T16:16:06.763Z</time></trkpt><trkpt lat="44.7978316" lon="1.1101829"><ele>204.0</ele><time>2026-04-06T16:16:07.764Z</time></trkpt><trkpt lat="44.7978811" lon="1.1102492"><ele>204.0</ele><time>2026-04-06T16:16:08.775Z</time></trkpt><trkpt lat="44.7979304" lon="1.1103159"><ele>202.14285714285714</ele><time>2026-04-06T16:16:09.769Z</time></trkpt><trkpt lat="44.7979829" lon="1.1103775"><ele>200.28571428571428</ele><time>2026-04-06T16:16:10.773Z</time></trkpt><trkpt lat="44.7980396" lon="1.1104349"><ele>198.42857142857144</ele><time>2026-04-06T16:16:11.768Z</time></trkpt><trkpt lat="44.7981002" lon="1.1104877"><ele>196.57142857142856</ele><time>2026-04-06T16:16:12.766Z</time></trkpt><trkpt lat="44.7981637" lon="1.1105395"><ele>194.7142857142857</ele><time>2026-04-06T16:16:13.766Z</time></trkpt><trkpt lat="44.7982294" lon="1.1105925"><ele>192.85714285714286</ele><time>2026-04-06T16:16:14.765Z</time></trkpt><trkpt lat="44.798294" lon="1.1106477"><ele>191.0</ele><time>2026-04-06T16:16:15.767Z</time></trkpt><trkpt lat="44.7983589" lon="1.1107032"><ele>191.0</ele><time>2026-04-06T16:16:16.766Z</time></trkpt><trkpt lat="44.7984226" lon="1.1107593"><ele>191.0</ele><time>2026-04-06T16:16:17.782Z</time></trkpt><trkpt lat="44.7984774" lon="1.1108106"><ele>191.0</ele><time>2026-04-06T16:16:18.771Z</time></trkpt><trkpt lat="44.7985698" lon="1.1108985"><ele>191.0</ele><time>2026-04-06T16:16:20.761Z</time></trkpt><trkpt lat="44.7986249" lon="1.1109904"><ele>191.0</ele><time>2026-04-06T16:16:22.765Z</time></trkpt><trkpt lat="44.7986555" lon="1.1111019"><ele>191.0</ele><time>2026-04-06T16:16:24.761Z</time></trkpt><trkpt lat="44.7986498" lon="1.1112415"><ele>189.20000000000002</ele><time>2026-04-06T16:16:26.77Z</time></trkpt><trkpt lat="44.7986237" lon="1.111398"><ele>187.4</ele><time>2026-04-06T16:16:28.769Z</time></trkpt><trkpt lat="44.7986047" lon="1.1115605"><ele>185.6</ele><time>2026-04-06T16:16:30.775Z</time></trkpt><trkpt lat="44.7985951" lon="1.1117007"><ele>183.8</ele><time>2026-04-06T16:16:32.761Z</time></trkpt><trkpt lat="44.7985874" lon="1.1118518"><ele>182.0</ele><time>2026-04-06T16:16:34.768Z</time></trkpt><trkpt lat="44.7985914" lon="1.1119458"><ele>181.71428571428572</ele><time>2026-04-06T16:16:35.764Z</time></trkpt><trkpt lat="44.7986" lon="1.1120448"><ele>181.42857142857144</ele><time>2026-04-06T16:16:36.78Z</time></trkpt><trkpt lat="44.7986135" lon="1.1121459"><ele>181.14285714285714</ele><time>2026-04-06T16:16:37.761Z</time></trkpt><trkpt lat="44.7986282" lon="1.1122546"><ele>180.85714285714286</ele><time>2026-04-06T16:16:38.764Z</time></trkpt><trkpt lat="44.7986366" lon="1.112364"><ele>180.57142857142858</ele><time>2026-04-06T16:16:39.764Z</time></trkpt><trkpt lat="44.7986385" lon="1.1124668"><ele>180.28571428571428</ele><time>2026-04-06T16:16:40.76Z</time></trkpt><trkpt lat="44.7986339" lon="1.112564"><ele>180.0</ele><time>2026-04-06T16:16:41.763Z</time></trkpt><trkpt lat="44.7986284" lon="1.1126607"><ele>179.0</ele><time>2026-04-06T16:16:42.761Z</time></trkpt><trkpt lat="44.7986173" lon="1.1128241"><ele>178.0</ele><time>2026-04-06T16:16:44.768Z</time></trkpt><trkpt lat="44.7986118" lon="1.112917"><ele>177.0</ele><time>2026-04-06T16:16:46.763Z</time></trkpt><trkpt lat="44.7986392" lon="1.1130473"><ele>176.0</ele><time>2026-04-06T16:18:41.767Z</time></trkpt><trkpt lat="44.7987003" lon="1.1131543"><ele>175.0</ele><time>2026-04-06T16:18:43.781Z</time></trkpt><trkpt lat="44.7987865" lon="1.1132447"><ele>175.0</ele><time>2026-04-06T16:18:45.767Z</time></trkpt><trkpt lat="44.7988598" lon="1.1132786"><ele>175.0</ele><time>2026-04-06T16:18:47.774Z</time></trkpt><trkpt lat="44.7989359" lon="1.1132379"><ele>175.0</ele><time>2026-04-06T16:18:50.769Z</time></trkpt><trkpt lat="44.7990177" lon="1.1131479"><ele>175.0</ele><time>2026-04-06T16:18:52.766Z</time></trkpt><trkpt lat="44.7990719" lon="1.1130937"><ele>175.0</ele><time>2026-04-06T16:18:53.766Z</time></trkpt><trkpt lat="44.7991347" lon="1.1130347"><ele>175.0</ele><time>2026-04-06T16:18:54.772Z</time></trkpt><trkpt lat="44.799203" lon="1.1129713"><ele>175.0</ele><time>2026-04-06T16:18:55.763Z</time></trkpt><trkpt lat="44.7992762" lon="1.112904"><ele>175.0</ele><time>2026-04-06T16:18:56.767Z</time></trkpt><trkpt lat="44.7993538" lon="1.1128347"><ele>175.0</ele><time>2026-04-06T16:18:57.764Z</time></trkpt><trkpt lat="44.7994349" lon="1.1127615"><ele>175.0</ele><time>2026-04-06T16:18:58.77Z</time></trkpt><trkpt lat="44.7995178" lon="1.1126855"><ele>175.0</ele><time>2026-04-06T16:18:59.767Z</time></trkpt><trkpt lat="44.7996029" lon="1.1126083"><ele>175.0</ele><time>2026-04-06T16:19:00.77Z</time></trkpt><trkpt lat="44.7996878" lon="1.1125323"><ele>175.0</ele><time>2026-04-06T16:19:01.757Z</time></trkpt><trkpt lat="44.799773" lon="1.1124564"><ele>175.0</ele><time>2026-04-06T16:19:02.766Z</time></trkpt><trkpt lat="44.7998573" lon="1.1123813"><ele>175.0</ele><time>2026-04-06T16:19:03.755Z</time></trkpt><trkpt lat="44.7999353" lon="1.1123056"><ele>175.0</ele><time>2026-04-06T16:19:04.757Z</time></trkpt><trkpt lat="44.8000141" lon="1.1122287"><ele>174.6</ele><time>2026-04-06T16:19:05.764Z</time></trkpt><trkpt lat="44.8000629" lon="1.1121238"><ele>174.2</ele><time>2026-04-06T16:19:06.758Z</time></trkpt><trkpt lat="44.8001075" lon="1.1120033"><ele>173.8</ele><time>2026-04-06T16:19:07.761Z</time></trkpt><trkpt lat="44.8001523" lon="1.1118791"><ele>173.4</ele><time>2026-04-06T16:19:08.764Z</time></trkpt><trkpt lat="44.8001995" lon="1.1117542"><ele>173.0</ele><time>2026-04-06T16:19:09.766Z</time></trkpt><trkpt lat="44.8002424" lon="1.1116306"><ele>172.60000000000002</ele><time>2026-04-06T16:19:10.772Z</time></trkpt><trkpt lat="44.8002864" lon="1.1115077"><ele>172.20000000000002</ele><time>2026-04-06T16:19:11.758Z</time></trkpt><trkpt lat="44.8003306" lon="1.111386"><ele>171.8</ele><time>2026-04-06T16:19:12.761Z</time></trkpt><trkpt lat="44.8003766" lon="1.1112661"><ele>171.4</ele><time>2026-04-06T16:19:13.759Z</time></trkpt><trkpt lat="44.8004274" lon="1.111151"><ele>171.0</ele><time>2026-04-06T16:19:14.761Z</time></trkpt><trkpt lat="44.8004811" lon="1.1110405"><ele>171.0</ele><time>2026-04-06T16:19:15.759Z</time></trkpt><trkpt lat="44.8005335" lon="1.1109388"><ele>171.0</ele><time>2026-04-06T16:19:16.76Z</time></trkpt><trkpt lat="44.8005853" lon="1.110845"><ele>171.0</ele><time>2026-04-06T16:19:17.762Z</time></trkpt><trkpt lat="44.800635" lon="1.1107563"><ele>171.0</ele><time>2026-04-06T16:19:18.761Z</time></trkpt><trkpt lat="44.8006795" lon="1.110677"><ele>171.0</ele><time>2026-04-06T16:19:19.767Z</time></trkpt><trkpt lat="44.8007428" lon="1.1105853"><ele>171.0</ele><time>2026-04-06T16:19:21.758Z</time></trkpt><trkpt lat="44.8008098" lon="1.1105677"><ele>171.0</ele><time>2026-04-06T16:19:52.791Z</time></trkpt><trkpt lat="44.8008771" lon="1.1105743"><ele>171.0</ele><time>2026-04-06T16:19:54.765Z</time></trkpt><trkpt lat="44.8010055" lon="1.1105811"><ele>171.0</ele><time>2026-04-06T16:19:56.76Z</time></trkpt><trkpt lat="44.8010701" lon="1.1105813"><ele>171.0</ele><time>2026-04-06T16:19:57.764Z</time></trkpt><trkpt lat="44.8011347" lon="1.1105808"><ele>171.0</ele><time>2026-04-06T16:19:58.766Z</time></trkpt><trkpt lat="44.8012065" lon="1.1105808"><ele>171.0</ele><time>2026-04-06T16:19:59.76Z</time></trkpt><trkpt lat="44.8012867" lon="1.110584"><ele>172.16666666666666</ele><time>2026-04-06T16:20:00.759Z</time></trkpt><trkpt lat="44.8013617" lon="1.1105876"><ele>173.33333333333334</ele><time>2026-04-06T16:20:01.759Z</time></trkpt><trkpt lat="44.8014315" lon="1.1105901"><ele>174.5</ele><time>2026-04-06T16:20:02.767Z</time></trkpt><trkpt lat="44.8015092" lon="1.1105929"><ele>175.66666666666669</ele><time>2026-04-06T16:20:03.766Z</time></trkpt><trkpt lat="44.8015745" lon="1.1105977"><ele>176.83333333333334</ele><time>2026-04-06T16:20:04.761Z</time></trkpt><trkpt lat="44.8016616" lon="1.1106077"><ele>178.0</ele><time>2026-04-06T16:20:05.759Z</time></trkpt><trkpt lat="44.8017439" lon="1.1106189"><ele>178.0</ele><time>2026-04-06T16:20:06.773Z</time></trkpt><trkpt lat="44.8018274" lon="1.1106301"><ele>178.0</ele><time>2026-04-06T16:20:07.759Z</time></trkpt><trkpt lat="44.8019151" lon="1.1106477"><ele>178.0</ele><time>2026-04-06T16:20:08.764Z</time></trkpt><trkpt lat="44.8019896" lon="1.1106668"><ele>178.0</ele><time>2026-04-06T16:20:09.766Z</time></trkpt><trkpt lat="44.8020579" lon="1.1106928"><ele>178.0</ele><time>2026-04-06T16:20:10.761Z</time></trkpt><trkpt lat="44.8021326" lon="1.1107392"><ele>178.0</ele><time>2026-04-06T16:20:11.753Z</time></trkpt><trkpt lat="44.8021953" lon="1.1107931"><ele>176.57142857142856</ele><time>2026-04-06T16:20:12.755Z</time></trkpt><trkpt lat="44.8022532" lon="1.1108531"><ele>175.14285714285714</ele><time>2026-04-06T16:20:13.76Z</time></trkpt><trkpt lat="44.8023109" lon="1.110914"><ele>173.71428571428572</ele><time>2026-04-06T16:20:14.775Z</time></trkpt><trkpt lat="44.8023718" lon="1.1109838"><ele>172.28571428571428</ele><time>2026-04-06T16:20:15.777Z</time></trkpt><trkpt lat="44.8024336" lon="1.1110445"><ele>170.85714285714286</ele><time>2026-04-06T16:20:16.769Z</time></trkpt><trkpt lat="44.8024881" lon="1.1111073"><ele>169.42857142857142</ele><time>2026-04-06T16:20:17.76Z</time></trkpt><trkpt lat="44.8025441" lon="1.1111751"><ele>168.0</ele><time>2026-04-06T16:20:18.774Z</time></trkpt><trkpt lat="44.802599" lon="1.1112434"><ele>168.0</ele><time>2026-04-06T16:20:19.762Z</time></trkpt><trkpt lat="44.8026525" lon="1.111308"><ele>168.0</ele><time>2026-04-06T16:20:20.763Z</time></trkpt><trkpt lat="44.8027048" lon="1.1113687"><ele>168.0</ele><time>2026-04-06T16:20:21.762Z</time></trkpt><trkpt lat="44.8027588" lon="1.1114229"><ele>168.0</ele><time>2026-04-06T16:20:22.762Z</time></trkpt><trkpt lat="44.8028583" lon="1.1115149"><ele>168.0</ele><time>2026-04-06T16:20:24.782Z</time></trkpt><trkpt lat="44.8029429" lon="1.1115946"><ele>168.0</ele><time>2026-04-06T16:20:26.763Z</time></trkpt><trkpt lat="44.8030153" lon="1.1116967"><ele>165.83333333333334</ele><time>2026-04-06T16:20:28.764Z</time></trkpt><trkpt lat="44.8030391" lon="1.1118057"><ele>163.66666666666666</ele><time>2026-04-06T16:20:30.765Z</time></trkpt><trkpt lat="44.8030257" lon="1.1119717"><ele>161.5</ele><time>2026-04-06T16:20:32.766Z</time></trkpt><trkpt lat="44.8030026" lon="1.1120549"><ele>159.33333333333331</ele><time>2026-04-06T16:20:33.77Z</time></trkpt><trkpt lat="44.8029778" lon="1.1121413"><ele>157.16666666666666</ele><time>2026-04-06T16:20:34.764Z</time></trkpt><trkpt lat="44.8029437" lon="1.1122204"><ele>155.0</ele><time>2026-04-06T16:20:35.753Z</time></trkpt><trkpt lat="44.8028644" lon="1.1123629"><ele>154.5</ele><time>2026-04-06T16:20:37.76Z</time></trkpt><trkpt lat="44.8028148" lon="1.1124325"><ele>154.0</ele><time>2026-04-06T16:20:38.758Z</time></trkpt><trkpt lat="44.8027614" lon="1.1124933"><ele>153.5</ele><time>2026-04-06T16:20:39.756Z</time></trkpt><trkpt lat="44.8027057" lon="1.1125517"><ele>153.0</ele><time>2026-04-06T16:20:40.766Z</time></trkpt><trkpt lat="44.8026147" lon="1.1126529"><ele>152.5</ele><time>2026-04-06T16:20:42.767Z</time></trkpt><trkpt lat="44.8025635" lon="1.1127265"><ele>152.0</ele><time>2026-04-06T16:20:44.764Z</time></trkpt><trkpt lat="44.802531" lon="1.1128044"><ele>152.0</ele><time>2026-04-06T16:20:47.784Z</time></trkpt><trkpt lat="44.8025964" lon="1.1128167"><ele>152.0</ele><time>2026-04-06T16:21:05.761Z</time></trkpt><trkpt lat="44.8026591" lon="1.1127125"><ele>152.0</ele><time>2026-04-06T16:21:07.764Z</time></trkpt><trkpt lat="44.8027502" lon="1.1125897"><ele>152.0</ele><time>2026-04-06T16:21:09.772Z</time></trkpt><trkpt lat="44.8027984" lon="1.1125292"><ele>152.0</ele><time>2026-04-06T16:21:10.758Z</time></trkpt><trkpt lat="44.8028749" lon="1.1124125"><ele>152.5</ele><time>2026-04-06T16:21:12.764Z</time></trkpt><trkpt lat="44.802942" lon="1.1122742"><ele>153.0</ele><time>2026-04-06T16:21:14.78Z</time></trkpt><trkpt lat="44.802976" lon="1.1121931"><ele>153.5</ele><time>2026-04-06T16:21:15.766Z</time></trkpt><trkpt lat="44.8030063" lon="1.1121073"><ele>154.0</ele><time>2026-04-06T16:21:16.784Z</time></trkpt><trkpt lat="44.803034" lon="1.1120214"><ele>154.5</ele><time>2026-04-06T16:21:17.778Z</time></trkpt><trkpt lat="44.8030593" lon="1.111938"><ele>155.0</ele><time>2026-04-06T16:21:18.761Z</time></trkpt><trkpt lat="44.8030668" lon="1.1117747"><ele>155.0</ele><time>2026-04-06T16:21:20.769Z</time></trkpt><trkpt lat="44.8030113" lon="1.1116302"><ele>155.0</ele><time>2026-04-06T16:21:22.768Z</time></trkpt><trkpt lat="44.80296" lon="1.1115768"><ele>155.0</ele><time>2026-04-06T16:21:23.763Z</time></trkpt><trkpt lat="44.8029061" lon="1.1115277"><ele>155.0</ele><time>2026-04-06T16:21:24.768Z</time></trkpt><trkpt lat="44.8028486" lon="1.1114667"><ele>155.0</ele><time>2026-04-06T16:21:25.757Z</time></trkpt><trkpt lat="44.8027976" lon="1.1114042"><ele>155.0</ele><time>2026-04-06T16:21:26.76Z</time></trkpt><trkpt lat="44.8027348" lon="1.1113287"><ele>156.33333333333331</ele><time>2026-04-06T16:21:27.769Z</time></trkpt><trkpt lat="44.8026777" lon="1.1112513"><ele>157.66666666666666</ele><time>2026-04-06T16:21:28.767Z</time></trkpt><trkpt lat="44.8026138" lon="1.1111692"><ele>159.0</ele><time>2026-04-06T16:21:29.773Z</time></trkpt><trkpt lat="44.8025482" lon="1.1110861"><ele>160.33333333333334</ele><time>2026-04-06T16:21:30.764Z</time></trkpt><trkpt lat="44.8024823" lon="1.1110137"><ele>161.66666666666669</ele><time>2026-04-06T16:21:31.762Z</time></trkpt><trkpt lat="44.8024086" lon="1.1109437"><ele>163.0</ele><time>2026-04-06T16:21:32.756Z</time></trkpt><trkpt lat="44.8023362" lon="1.1108784"><ele>163.83333333333334</ele><time>2026-04-06T16:21:33.763Z</time></trkpt><trkpt lat="44.8022719" lon="1.1108213"><ele>164.66666666666669</ele><time>2026-04-06T16:21:34.764Z</time></trkpt><trkpt lat="44.8021956" lon="1.1107612"><ele>165.5</ele><time>2026-04-06T16:21:35.763Z</time></trkpt><trkpt lat="44.80212" lon="1.1107086"><ele>166.33333333333334</ele><time>2026-04-06T16:21:36.774Z</time></trkpt><trkpt lat="44.8020373" lon="1.1106666"><ele>167.16666666666666</ele><time>2026-04-06T16:21:37.758Z</time></trkpt><trkpt lat="44.8019559" lon="1.1106379"><ele>168.0</ele><time>2026-04-06T16:21:38.76Z</time></trkpt><trkpt lat="44.8018739" lon="1.1106169"><ele>169.66666666666666</ele><time>2026-04-06T16:21:39.753Z</time></trkpt><trkpt lat="44.8017911" lon="1.1105975"><ele>171.33333333333334</ele><time>2026-04-06T16:21:40.753Z</time></trkpt><trkpt lat="44.8017077" lon="1.1105835"><ele>173.0</ele><time>2026-04-06T16:21:41.757Z</time></trkpt><trkpt lat="44.8016245" lon="1.1105748"><ele>174.66666666666669</ele><time>2026-04-06T16:21:42.753Z</time></trkpt><trkpt lat="44.8015385" lon="1.1105697"><ele>176.33333333333334</ele><time>2026-04-06T16:21:43.786Z</time></trkpt><trkpt lat="44.8014407" lon="1.1105685"><ele>178.0</ele><time>2026-04-06T16:21:44.754Z</time></trkpt><trkpt lat="44.8013413" lon="1.1105672"><ele>178.0</ele><time>2026-04-06T16:21:45.757Z</time></trkpt><trkpt lat="44.8012585" lon="1.1105656"><ele>178.0</ele><time>2026-04-06T16:21:46.755Z</time></trkpt><trkpt lat="44.8011851" lon="1.110566"><ele>178.0</ele><time>2026-04-06T16:21:47.756Z</time></trkpt><trkpt lat="44.8011194" lon="1.1105664"><ele>178.0</ele><time>2026-04-06T16:21:48.78Z</time></trkpt><trkpt lat="44.8010278" lon="1.1105509"><ele>178.0</ele><time>2026-04-06T16:21:50.757Z</time></trkpt><trkpt lat="44.8009534" lon="1.1105708"><ele>178.0</ele><time>2026-04-06T16:29:27.737Z</time></trkpt><trkpt lat="44.8008757" lon="1.1105831"><ele>176.99999999999997</ele><time>2026-04-06T16:29:29.764Z</time></trkpt><trkpt lat="44.8008096" lon="1.1105492"><ele>176.0</ele><time>2026-04-06T16:29:31.757Z</time></trkpt><trkpt lat="44.8007795" lon="1.1104698"><ele>175.0</ele><time>2026-04-06T16:29:34.754Z</time></trkpt><trkpt lat="44.8007883" lon="1.1103416"><ele>174.0</ele><time>2026-04-06T16:29:36.772Z</time></trkpt><trkpt lat="44.8008057" lon="1.1102518"><ele>173.0</ele><time>2026-04-06T16:29:37.78Z</time></trkpt><trkpt lat="44.8008233" lon="1.1101621"><ele>171.99999999999997</ele><time>2026-04-06T16:29:38.766Z</time></trkpt><trkpt lat="44.8008394" lon="1.1100555"><ele>171.0</ele><time>2026-04-06T16:29:39.768Z</time></trkpt><trkpt lat="44.8008605" lon="1.1099434"><ele>171.33333333333334</ele><time>2026-04-06T16:29:40.764Z</time></trkpt><trkpt lat="44.8008767" lon="1.1098279"><ele>171.66666666666666</ele><time>2026-04-06T16:29:41.767Z</time></trkpt><trkpt lat="44.8008877" lon="1.1097115"><ele>172.0</ele><time>2026-04-06T16:29:42.764Z</time></trkpt><trkpt lat="44.8009009" lon="1.1095931"><ele>172.33333333333331</ele><time>2026-04-06T16:29:43.765Z</time></trkpt><trkpt lat="44.8009142" lon="1.1094737"><ele>172.66666666666666</ele><time>2026-04-06T16:29:44.768Z</time></trkpt><trkpt lat="44.8009217" lon="1.1093567"><ele>173.0</ele><time>2026-04-06T16:29:45.778Z</time></trkpt><trkpt lat="44.8009219" lon="1.1092419"><ele>173.0</ele><time>2026-04-06T16:29:46.767Z</time></trkpt><trkpt lat="44.8009211" lon="1.1091234"><ele>173.0</ele><time>2026-04-06T16:29:47.765Z</time></trkpt><trkpt lat="44.8009201" lon="1.1090124"><ele>173.0</ele><time>2026-04-06T16:29:48.763Z</time></trkpt><trkpt lat="44.8009157" lon="1.1089018"><ele>173.0</ele><time>2026-04-06T16:29:49.772Z</time></trkpt><trkpt lat="44.8009132" lon="1.1087904"><ele>173.0</ele><time>2026-04-06T16:29:50.767Z</time></trkpt><trkpt lat="44.8009115" lon="1.1086803"><ele>173.0</ele><time>2026-04-06T16:29:51.772Z</time></trkpt><trkpt lat="44.8009155" lon="1.1085677"><ele>173.66666666666666</ele><time>2026-04-06T16:29:52.761Z</time></trkpt><trkpt lat="44.8009217" lon="1.108456"><ele>174.33333333333331</ele><time>2026-04-06T16:29:53.772Z</time></trkpt><trkpt lat="44.8009319" lon="1.108344"><ele>175.0</ele><time>2026-04-06T16:29:54.768Z</time></trkpt><trkpt lat="44.8009397" lon="1.1082334"><ele>175.66666666666666</ele><time>2026-04-06T16:29:55.77Z</time></trkpt><trkpt lat="44.8009512" lon="1.1081242"><ele>176.33333333333334</ele><time>2026-04-06T16:29:56.764Z</time></trkpt><trkpt lat="44.8009675" lon="1.1080179"><ele>177.0</ele><time>2026-04-06T16:29:57.777Z</time></trkpt><trkpt lat="44.8009861" lon="1.1079127"><ele>179.57142857142858</ele><time>2026-04-06T16:29:58.758Z</time></trkpt><trkpt lat="44.8010061" lon="1.1078095"><ele>182.14285714285714</ele><time>2026-04-06T16:29:59.773Z</time></trkpt><trkpt lat="44.8010279" lon="1.1077063"><ele>184.71428571428572</ele><time>2026-04-06T16:30:00.765Z</time></trkpt><trkpt lat="44.8010479" lon="1.1076047"><ele>187.28571428571428</ele><time>2026-04-06T16:30:01.785Z</time></trkpt><trkpt lat="44.8010675" lon="1.1075085"><ele>189.85714285714283</ele><time>2026-04-06T16:30:02.762Z</time></trkpt><trkpt lat="44.8010812" lon="1.1074073"><ele>192.42857142857142</ele><time>2026-04-06T16:30:03.787Z</time></trkpt><trkpt lat="44.8010917" lon="1.1073045"><ele>195.0</ele><time>2026-04-06T16:30:04.769Z</time></trkpt><trkpt lat="44.8010972" lon="1.1072041"><ele>196.14285714285714</ele><time>2026-04-06T16:30:05.776Z</time></trkpt><trkpt lat="44.8010987" lon="1.1071021"><ele>197.28571428571428</ele><time>2026-04-06T16:30:06.771Z</time></trkpt><trkpt lat="44.8010927" lon="1.1070004"><ele>198.42857142857144</ele><time>2026-04-06T16:30:07.788Z</time></trkpt><trkpt lat="44.8010848" lon="1.1069"><ele>199.57142857142856</ele><time>2026-04-06T16:30:08.781Z</time></trkpt><trkpt lat="44.8010718" lon="1.1068016"><ele>200.71428571428572</ele><time>2026-04-06T16:30:09.765Z</time></trkpt><trkpt lat="44.8010552" lon="1.1067045"><ele>201.85714285714286</ele><time>2026-04-06T16:30:10.766Z</time></trkpt><trkpt lat="44.8010371" lon="1.1066084"><ele>203.0</ele><time>2026-04-06T16:30:11.765Z</time></trkpt><trkpt lat="44.8010162" lon="1.1065132"><ele>201.85714285714286</ele><time>2026-04-06T16:30:12.77Z</time></trkpt><trkpt lat="44.8009926" lon="1.1064197"><ele>200.71428571428572</ele><time>2026-04-06T16:30:13.754Z</time></trkpt><trkpt lat="44.8009623" lon="1.10633"><ele>199.57142857142856</ele><time>2026-04-06T16:30:14.762Z</time></trkpt><trkpt lat="44.8009285" lon="1.1062453"><ele>198.42857142857144</ele><time>2026-04-06T16:30:15.761Z</time></trkpt><trkpt lat="44.8008889" lon="1.1061676"><ele>197.28571428571428</ele><time>2026-04-06T16:30:16.77Z</time></trkpt><trkpt lat="44.8008431" lon="1.1060971"><ele>196.14285714285714</ele><time>2026-04-06T16:30:17.766Z</time></trkpt><trkpt lat="44.8007945" lon="1.10604"><ele>195.0</ele><time>2026-04-06T16:30:18.765Z</time></trkpt><trkpt lat="44.8006999" lon="1.1059555"><ele>195.0</ele><time>2026-04-06T16:30:20.774Z</time></trkpt><trkpt lat="44.8006204" lon="1.1058945"><ele>195.0</ele><time>2026-04-06T16:30:22.778Z</time></trkpt><trkpt lat="44.8006088" lon="1.1057916"><ele>195.0</ele><time>2026-04-06T16:30:25.771Z</time></trkpt><trkpt lat="44.800697" lon="1.1058046"><ele>195.0</ele><time>2026-04-06T16:30:28.769Z</time></trkpt><trkpt lat="44.8008006" lon="1.1059069"><ele>195.0</ele><time>2026-04-06T16:30:30.763Z</time></trkpt><trkpt lat="44.800861" lon="1.1059837"><ele>195.0</ele><time>2026-04-06T16:30:31.771Z</time></trkpt><trkpt lat="44.8009238" lon="1.1060712"><ele>195.0</ele><time>2026-04-06T16:30:32.767Z</time></trkpt><trkpt lat="44.8009852" lon="1.1061698"><ele>195.0</ele><time>2026-04-06T16:30:33.759Z</time></trkpt><trkpt lat="44.8010422" lon="1.1062893"><ele>195.0</ele><time>2026-04-06T16:30:34.759Z</time></trkpt><trkpt lat="44.8010912" lon="1.1064233"><ele>195.0</ele><time>2026-04-06T16:30:35.755Z</time></trkpt><trkpt lat="44.8011322" lon="1.106568"><ele>196.6</ele><time>2026-04-06T16:30:36.787Z</time></trkpt><trkpt lat="44.8011697" lon="1.1067188"><ele>198.2</ele><time>2026-04-06T16:30:37.765Z</time></trkpt><trkpt lat="44.8012054" lon="1.1068677"><ele>199.8</ele><time>2026-04-06T16:30:38.769Z</time></trkpt><trkpt lat="44.801235" lon="1.1070146"><ele>201.4</ele><time>2026-04-06T16:30:39.772Z</time></trkpt><trkpt lat="44.801255" lon="1.107156"><ele>203.0</ele><time>2026-04-06T16:30:40.761Z</time></trkpt><trkpt lat="44.8012665" lon="1.1072921"><ele>201.4</ele><time>2026-04-06T16:30:41.787Z</time></trkpt><trkpt lat="44.8012742" lon="1.1074269"><ele>199.8</ele><time>2026-04-06T16:30:42.762Z</time></trkpt><trkpt lat="44.8012786" lon="1.1075556"><ele>198.2</ele><time>2026-04-06T16:30:43.766Z</time></trkpt><trkpt lat="44.8012748" lon="1.1076791"><ele>196.6</ele><time>2026-04-06T16:30:44.758Z</time></trkpt><trkpt lat="44.8012649" lon="1.1078078"><ele>195.0</ele><time>2026-04-06T16:30:45.762Z</time></trkpt><trkpt lat="44.8012579" lon="1.1079457"><ele>195.0</ele><time>2026-04-06T16:30:46.758Z</time></trkpt><trkpt lat="44.8012547" lon="1.1080887"><ele>195.0</ele><time>2026-04-06T16:30:47.788Z</time></trkpt><trkpt lat="44.8012542" lon="1.108234"><ele>195.0</ele><time>2026-04-06T16:30:48.763Z</time></trkpt><trkpt lat="44.8012582" lon="1.1083846"><ele>195.0</ele><time>2026-04-06T16:30:49.785Z</time></trkpt><trkpt lat="44.8012719" lon="1.1085368"><ele>195.0</ele><time>2026-04-06T16:30:50.761Z</time></trkpt><trkpt lat="44.8012923" lon="1.1086843"><ele>194.6</ele><time>2026-04-06T16:30:51.767Z</time></trkpt><trkpt lat="44.8013167" lon="1.1088279"><ele>194.2</ele><time>2026-04-06T16:30:52.762Z</time></trkpt><trkpt lat="44.8013438" lon="1.1089625"><ele>193.8</ele><time>2026-04-06T16:30:53.769Z</time></trkpt><trkpt lat="44.8013701" lon="1.1090909"><ele>193.4</ele><time>2026-04-06T16:30:54.758Z</time></trkpt><trkpt lat="44.801406" lon="1.1092141"><ele>193.0</ele><time>2026-04-06T16:30:55.767Z</time></trkpt><trkpt lat="44.8014553" lon="1.1093281"><ele>192.2</ele><time>2026-04-06T16:30:56.759Z</time></trkpt><trkpt lat="44.8015203" lon="1.109434"><ele>191.4</ele><time>2026-04-06T16:30:57.76Z</time></trkpt><trkpt lat="44.8015994" lon="1.1095265"><ele>190.6</ele><time>2026-04-06T16:30:58.782Z</time></trkpt><trkpt lat="44.8016868" lon="1.1096133"><ele>189.79999999999998</ele><time>2026-04-06T16:30:59.763Z</time></trkpt><trkpt lat="44.8017774" lon="1.1096941"><ele>189.0</ele><time>2026-04-06T16:31:00.766Z</time></trkpt><trkpt lat="44.801867" lon="1.1097605"><ele>189.0</ele><time>2026-04-06T16:31:01.764Z</time></trkpt><trkpt lat="44.8019565" lon="1.1098123"><ele>189.0</ele><time>2026-04-06T16:31:02.763Z</time></trkpt><trkpt lat="44.8020535" lon="1.1098473"><ele>189.0</ele><time>2026-04-06T16:31:03.765Z</time></trkpt><trkpt lat="44.8021556" lon="1.1098603"><ele>189.0</ele><time>2026-04-06T16:31:04.76Z</time></trkpt><trkpt lat="44.8022632" lon="1.109855"><ele>189.0</ele><time>2026-04-06T16:31:05.774Z</time></trkpt><trkpt lat="44.8023739" lon="1.1098404"><ele>189.0</ele><time>2026-04-06T16:31:06.77Z</time></trkpt><trkpt lat="44.8024795" lon="1.1098218"><ele>189.0</ele><time>2026-04-06T16:31:07.789Z</time></trkpt><trkpt lat="44.8025813" lon="1.1097904"><ele>189.0</ele><time>2026-04-06T16:31:08.764Z</time></trkpt><trkpt lat="44.802681" lon="1.1097457"><ele>189.0</ele><time>2026-04-06T16:31:09.77Z</time></trkpt><trkpt lat="44.8027783" lon="1.1097005"><ele>189.0</ele><time>2026-04-06T16:31:10.772Z</time></trkpt><trkpt lat="44.8028707" lon="1.1096415"><ele>187.6</ele><time>2026-04-06T16:31:11.766Z</time></trkpt><trkpt lat="44.8029578" lon="1.109586"><ele>186.2</ele><time>2026-04-06T16:31:12.785Z</time></trkpt><trkpt lat="44.803054" lon="1.1095531"><ele>184.79999999999998</ele><time>2026-04-06T16:31:13.772Z</time></trkpt><trkpt lat="44.8031519" lon="1.1095255"><ele>183.39999999999998</ele><time>2026-04-06T16:31:14.763Z</time></trkpt><trkpt lat="44.8032525" lon="1.1094988"><ele>182.0</ele><time>2026-04-06T16:31:15.773Z</time></trkpt><trkpt lat="44.8033525" lon="1.1094731"><ele>182.0</ele><time>2026-04-06T16:31:16.761Z</time></trkpt><trkpt lat="44.803453" lon="1.1094492"><ele>182.0</ele><time>2026-04-06T16:31:17.784Z</time></trkpt><trkpt lat="44.8035504" lon="1.1094455"><ele>182.0</ele><time>2026-04-06T16:31:18.765Z</time></trkpt><trkpt lat="44.8036427" lon="1.1094436"><ele>182.0</ele><time>2026-04-06T16:31:19.77Z</time></trkpt><trkpt lat="44.8037348" lon="1.1094485"><ele>182.0</ele><time>2026-04-06T16:31:20.775Z</time></trkpt><trkpt lat="44.8038258" lon="1.1094472"><ele>181.8</ele><time>2026-04-06T16:31:21.776Z</time></trkpt><trkpt lat="44.8039191" lon="1.1094443"><ele>181.6</ele><time>2026-04-06T16:31:22.776Z</time></trkpt><trkpt lat="44.8040096" lon="1.1094295"><ele>181.4</ele><time>2026-04-06T16:31:23.778Z</time></trkpt><trkpt lat="44.8041008" lon="1.1094119"><ele>181.20000000000002</ele><time>2026-04-06T16:31:24.766Z</time></trkpt><trkpt lat="44.8041911" lon="1.109392"><ele>181.0</ele><time>2026-04-06T16:31:25.781Z</time></trkpt><trkpt lat="44.8042865" lon="1.1093721"><ele>182.20000000000002</ele><time>2026-04-06T16:31:26.77Z</time></trkpt><trkpt lat="44.8043859" lon="1.1093449"><ele>183.4</ele><time>2026-04-06T16:31:27.79Z</time></trkpt><trkpt lat="44.8044852" lon="1.1093166"><ele>184.6</ele><time>2026-04-06T16:31:28.766Z</time></trkpt><trkpt lat="44.8045829" lon="1.1092897"><ele>185.8</ele><time>2026-04-06T16:31:29.78Z</time></trkpt><trkpt lat="44.8046812" lon="1.1092657"><ele>187.0</ele><time>2026-04-06T16:31:30.768Z</time></trkpt><trkpt lat="44.8047756" lon="1.1092393"><ele>187.0</ele><time>2026-04-06T16:31:31.767Z</time></trkpt><trkpt lat="44.8048672" lon="1.1092147"><ele>187.0</ele><time>2026-04-06T16:31:32.765Z</time></trkpt><trkpt lat="44.8049576" lon="1.1091911"><ele>187.0</ele><time>2026-04-06T16:31:33.765Z</time></trkpt><trkpt lat="44.8050408" lon="1.1091685"><ele>187.0</ele><time>2026-04-06T16:31:34.782Z</time></trkpt><trkpt lat="44.8051166" lon="1.1091492"><ele>187.0</ele><time>2026-04-06T16:31:35.779Z</time></trkpt><trkpt lat="44.8051908" lon="1.1091311"><ele>187.0</ele><time>2026-04-06T16:31:36.767Z</time></trkpt><trkpt lat="44.8052621" lon="1.1091138"><ele>188.16666666666669</ele><time>2026-04-06T16:31:37.773Z</time></trkpt><trkpt lat="44.8053271" lon="1.1090961"><ele>189.33333333333334</ele><time>2026-04-06T16:31:38.766Z</time></trkpt><trkpt lat="44.8054274" lon="1.1090718"><ele>190.5</ele><time>2026-04-06T16:31:40.77Z</time></trkpt><trkpt lat="44.8055094" lon="1.1090513"><ele>191.66666666666669</ele><time>2026-04-06T16:31:42.782Z</time></trkpt><trkpt lat="44.8055866" lon="1.1090346"><ele>192.83333333333334</ele><time>2026-04-06T16:31:44.77Z</time></trkpt><trkpt lat="44.8056737" lon="1.1090434"><ele>194.0</ele><time>2026-04-06T16:32:00.781Z</time></trkpt><trkpt lat="44.8057589" lon="1.1090673"><ele>194.0</ele><time>2026-04-06T16:32:02.772Z</time></trkpt><trkpt lat="44.8058612" lon="1.1091023"><ele>194.0</ele><time>2026-04-06T16:32:04.766Z</time></trkpt><trkpt lat="44.8059487" lon="1.1091338"><ele>194.0</ele><time>2026-04-06T16:32:06.759Z</time></trkpt><trkpt lat="44.8060452" lon="1.109149"><ele>194.0</ele><time>2026-04-06T16:32:08.766Z</time></trkpt><trkpt lat="44.8061522" lon="1.1091478"><ele>194.0</ele><time>2026-04-06T16:32:10.765Z</time></trkpt><trkpt lat="44.8062636" lon="1.1091336"><ele>193.6</ele><time>2026-04-06T16:32:12.77Z</time></trkpt><trkpt lat="44.8063783" lon="1.1091113"><ele>193.2</ele><time>2026-04-06T16:32:14.755Z</time></trkpt><trkpt lat="44.8065024" lon="1.1090795"><ele>192.79999999999998</ele><time>2026-04-06T16:32:16.765Z</time></trkpt><trkpt lat="44.8065714" lon="1.1090638"><ele>192.39999999999998</ele><time>2026-04-06T16:32:17.768Z</time></trkpt><trkpt lat="44.8066455" lon="1.1090463"><ele>192.0</ele><time>2026-04-06T16:32:18.772Z</time></trkpt><trkpt lat="44.8067284" lon="1.1090269"><ele>192.0</ele><time>2026-04-06T16:32:19.769Z</time></trkpt><trkpt lat="44.806818" lon="1.1090065"><ele>192.0</ele><time>2026-04-06T16:32:20.764Z</time></trkpt><trkpt lat="44.8069113" lon="1.1089847"><ele>192.0</ele><time>2026-04-06T16:32:21.786Z</time></trkpt><trkpt lat="44.8070001" lon="1.1089615"><ele>192.0</ele><time>2026-04-06T16:32:22.764Z</time></trkpt><trkpt lat="44.807086" lon="1.1089391"><ele>192.0</ele><time>2026-04-06T16:32:23.766Z</time></trkpt><trkpt lat="44.8071706" lon="1.1089157"><ele>192.0</ele><time>2026-04-06T16:32:24.765Z</time></trkpt><trkpt lat="44.807255" lon="1.1088915"><ele>191.16666666666666</ele><time>2026-04-06T16:32:25.769Z</time></trkpt><trkpt lat="44.807336" lon="1.1088675"><ele>190.33333333333334</ele><time>2026-04-06T16:32:26.771Z</time></trkpt><trkpt lat="44.8074156" lon="1.1088443"><ele>189.5</ele><time>2026-04-06T16:32:27.772Z</time></trkpt><trkpt lat="44.8074922" lon="1.1088209"><ele>188.66666666666669</ele><time>2026-04-06T16:32:28.784Z</time></trkpt><trkpt lat="44.8075662" lon="1.1088002"><ele>187.83333333333334</ele><time>2026-04-06T16:32:29.772Z</time></trkpt><trkpt lat="44.8076399" lon="1.1087796"><ele>187.0</ele><time>2026-04-06T16:32:30.767Z</time></trkpt><trkpt lat="44.8077181" lon="1.1087574"><ele>186.5</ele><time>2026-04-06T16:32:31.769Z</time></trkpt><trkpt lat="44.807797" lon="1.108732"><ele>186.0</ele><time>2026-04-06T16:32:32.769Z</time></trkpt><trkpt lat="44.8078763" lon="1.1086986"><ele>185.5</ele><time>2026-04-06T16:32:33.784Z</time></trkpt><trkpt lat="44.807953" lon="1.1086527"><ele>185.0</ele><time>2026-04-06T16:32:34.761Z</time></trkpt><trkpt lat="44.8080248" lon="1.108596"><ele>184.5</ele><time>2026-04-06T16:32:35.772Z</time></trkpt><trkpt lat="44.808092" lon="1.1085313"><ele>184.0</ele><time>2026-04-06T16:32:36.769Z</time></trkpt><trkpt lat="44.8081451" lon="1.1084681"><ele>184.0</ele><time>2026-04-06T16:32:37.767Z</time></trkpt><trkpt lat="44.8082164" lon="1.1083757"><ele>184.0</ele><time>2026-04-06T16:32:39.763Z</time></trkpt><trkpt lat="44.8082625" lon="1.1083137"><ele>184.0</ele><time>2026-04-06T16:32:42.768Z</time></trkpt><trkpt lat="44.8083253" lon="1.1082715"><ele>184.0</ele><time>2026-04-06T16:32:48.77Z</time></trkpt><trkpt lat="44.8084158" lon="1.1082309"><ele>184.0</ele><time>2026-04-06T16:32:50.766Z</time></trkpt><trkpt lat="44.8084811" lon="1.1082057"><ele>184.0</ele><time>2026-04-06T16:32:51.778Z</time></trkpt><trkpt lat="44.8085471" lon="1.1081864"><ele>184.42857142857144</ele><time>2026-04-06T16:32:52.787Z</time></trkpt><trkpt lat="44.8086166" lon="1.1081698"><ele>184.85714285714283</ele><time>2026-04-06T16:32:53.769Z</time></trkpt><trkpt lat="44.8086883" lon="1.1081581"><ele>185.28571428571428</ele><time>2026-04-06T16:32:54.769Z</time></trkpt><trkpt lat="44.8087552" lon="1.108152"><ele>185.71428571428572</ele><time>2026-04-06T16:32:55.766Z</time></trkpt><trkpt lat="44.8088286" lon="1.1081459"><ele>186.14285714285717</ele><time>2026-04-06T16:32:56.788Z</time></trkpt><trkpt lat="44.8089017" lon="1.1081496"><ele>186.57142857142856</ele><time>2026-04-06T16:32:57.782Z</time></trkpt><trkpt lat="44.8089833" lon="1.1081647"><ele>187.0</ele><time>2026-04-06T16:32:58.78Z</time></trkpt><trkpt lat="44.8090613" lon="1.1081832"><ele>187.0</ele><time>2026-04-06T16:32:59.763Z</time></trkpt><trkpt lat="44.80914" lon="1.1081966"><ele>187.0</ele><time>2026-04-06T16:33:00.782Z</time></trkpt><trkpt lat="44.8092206" lon="1.1082106"><ele>187.0</ele><time>2026-04-06T16:33:01.783Z</time></trkpt><trkpt lat="44.8092855" lon="1.1082021"><ele>187.0</ele><time>2026-04-06T16:33:02.77Z</time></trkpt><trkpt lat="44.8093534" lon="1.1082097"><ele>187.0</ele><time>2026-04-06T16:33:03.772Z</time></trkpt><trkpt lat="44.8094176" lon="1.1082044"><ele>187.0</ele><time>2026-04-06T16:33:04.765Z</time></trkpt><trkpt lat="44.8095378" lon="1.1081995"><ele>187.0</ele><time>2026-04-06T16:33:06.78Z</time></trkpt><trkpt lat="44.8096451" lon="1.1082015"><ele>187.0</ele><time>2026-04-06T16:33:08.767Z</time></trkpt><trkpt lat="44.8097145" lon="1.1082142"><ele>187.0</ele><time>2026-04-06T16:33:10.789Z</time></trkpt><trkpt lat="44.8098033" lon="1.1082829"><ele>187.0</ele><time>2026-04-06T16:33:13.768Z</time></trkpt><trkpt lat="44.8098756" lon="1.1083615"><ele>187.0</ele><time>2026-04-06T16:33:15.771Z</time></trkpt><trkpt lat="44.8099681" lon="1.1084007"><ele>187.8</ele><time>2026-04-06T16:33:17.769Z</time></trkpt><trkpt lat="44.8100714" lon="1.1084293"><ele>188.6</ele><time>2026-04-06T16:33:19.784Z</time></trkpt><trkpt lat="44.8101741" lon="1.1084539"><ele>189.4</ele><time>2026-04-06T16:33:21.774Z</time></trkpt><trkpt lat="44.8102519" lon="1.1084704"><ele>190.20000000000002</ele><time>2026-04-06T16:33:24.767Z</time></trkpt><trkpt lat="44.8103481" lon="1.1084866"><ele>191.0</ele><time>2026-04-06T16:33:29.775Z</time></trkpt><trkpt lat="44.810444" lon="1.1085067"><ele>188.20000000000002</ele><time>2026-04-06T16:33:31.771Z</time></trkpt><trkpt lat="44.8105512" lon="1.1085194"><ele>185.4</ele><time>2026-04-06T16:33:33.761Z</time></trkpt><trkpt lat="44.8106644" lon="1.1085518"><ele>182.6</ele><time>2026-04-06T16:33:35.769Z</time></trkpt><trkpt lat="44.8107311" lon="1.1085947"><ele>179.8</ele><time>2026-04-06T16:33:36.779Z</time></trkpt><trkpt lat="44.8107989" lon="1.1086426"><ele>177.0</ele><time>2026-04-06T16:33:37.778Z</time></trkpt><trkpt lat="44.8108782" lon="1.1086882"><ele>177.0</ele><time>2026-04-06T16:33:38.765Z</time></trkpt><trkpt lat="44.8109578" lon="1.1087365"><ele>177.0</ele><time>2026-04-06T16:33:39.782Z</time></trkpt><trkpt lat="44.8110483" lon="1.1087877"><ele>177.0</ele><time>2026-04-06T16:33:40.766Z</time></trkpt><trkpt lat="44.8111355" lon="1.1088368"><ele>177.0</ele><time>2026-04-06T16:33:41.767Z</time></trkpt><trkpt lat="44.8112283" lon="1.1088885"><ele>177.0</ele><time>2026-04-06T16:33:42.765Z</time></trkpt><trkpt lat="44.8113111" lon="1.1089436"><ele>174.6</ele><time>2026-04-06T16:33:43.774Z</time></trkpt><trkpt lat="44.8113917" lon="1.1089991"><ele>172.2</ele><time>2026-04-06T16:33:44.774Z</time></trkpt><trkpt lat="44.8114708" lon="1.1090692"><ele>169.8</ele><time>2026-04-06T16:33:45.774Z</time></trkpt><trkpt lat="44.811551" lon="1.1091498"><ele>167.4</ele><time>2026-04-06T16:33:46.782Z</time></trkpt><trkpt lat="44.8116237" lon="1.109236"><ele>165.0</ele><time>2026-04-06T16:33:47.767Z</time></trkpt><trkpt lat="44.8116922" lon="1.1093183"><ele>164.8</ele><time>2026-04-06T16:33:48.783Z</time></trkpt><trkpt lat="44.8117579" lon="1.109408"><ele>164.6</ele><time>2026-04-06T16:33:49.774Z</time></trkpt><trkpt lat="44.8118233" lon="1.1094971"><ele>164.39999999999998</ele><time>2026-04-06T16:33:50.769Z</time></trkpt><trkpt lat="44.8118867" lon="1.1095966"><ele>164.2</ele><time>2026-04-06T16:33:51.772Z</time></trkpt><trkpt lat="44.8119489" lon="1.109704"><ele>164.0</ele><time>2026-04-06T16:33:52.773Z</time></trkpt><trkpt lat="44.812007" lon="1.1098065"><ele>163.2</ele><time>2026-04-06T16:33:53.781Z</time></trkpt><trkpt lat="44.8120603" lon="1.1098957"><ele>162.39999999999998</ele><time>2026-04-06T16:33:54.767Z</time></trkpt><trkpt lat="44.8121197" lon="1.109986"><ele>161.6</ele><time>2026-04-06T16:33:55.769Z</time></trkpt><trkpt lat="44.8121786" lon="1.1100771"><ele>160.8</ele><time>2026-04-06T16:33:56.771Z</time></trkpt><trkpt lat="44.8122372" lon="1.1101879"><ele>160.0</ele><time>2026-04-06T16:33:57.774Z</time></trkpt><trkpt lat="44.8122988" lon="1.1103007"><ele>159.8</ele><time>2026-04-06T16:33:58.767Z</time></trkpt><trkpt lat="44.812363" lon="1.1104128"><ele>159.6</ele><time>2026-04-06T16:33:59.761Z</time></trkpt><trkpt lat="44.8124153" lon="1.1105097"><ele>159.4</ele><time>2026-04-06T16:34:00.771Z</time></trkpt><trkpt lat="44.8124563" lon="1.1105866"><ele>159.2</ele><time>2026-04-06T16:34:01.781Z</time></trkpt><trkpt lat="44.8125189" lon="1.110711"><ele>159.0</ele><time>2026-04-06T16:34:03.797Z</time></trkpt><trkpt lat="44.8125872" lon="1.1107924"><ele>157.0</ele><time>2026-04-06T16:34:05.76Z</time></trkpt><trkpt lat="44.8126697" lon="1.1108482"><ele>155.0</ele><time>2026-04-06T16:34:07.771Z</time></trkpt><trkpt lat="44.8127865" lon="1.1108968"><ele>153.0</ele><time>2026-04-06T16:34:09.787Z</time></trkpt><trkpt lat="44.8128665" lon="1.1109205"><ele>151.0</ele><time>2026-04-06T16:34:11.772Z</time></trkpt><trkpt lat="44.8129179" lon="1.1108481"><ele>149.0</ele><time>2026-04-06T16:34:13.767Z</time></trkpt><trkpt lat="44.8129525" lon="1.1107011"><ele>149.0</ele><time>2026-04-06T16:34:15.773Z</time></trkpt><trkpt lat="44.8129781" lon="1.110615"><ele>149.0</ele><time>2026-04-06T16:34:16.783Z</time></trkpt><trkpt lat="44.8130013" lon="1.1105235"><ele>149.0</ele><time>2026-04-06T16:34:17.772Z</time></trkpt><trkpt lat="44.8130259" lon="1.1104304"><ele>149.0</ele><time>2026-04-06T16:34:18.776Z</time></trkpt><trkpt lat="44.8130495" lon="1.1103419"><ele>149.0</ele><time>2026-04-06T16:34:19.767Z</time></trkpt><trkpt lat="44.8130945" lon="1.1101908"><ele>149.0</ele><time>2026-04-06T16:34:21.771Z</time></trkpt><trkpt lat="44.8131348" lon="1.1100702"><ele>149.0</ele><time>2026-04-06T16:34:23.777Z</time></trkpt><trkpt lat="44.8131615" lon="1.1099706"><ele>149.0</ele><time>2026-04-06T16:34:25.773Z</time></trkpt><trkpt lat="44.8131286" lon="1.1098747"><ele>149.0</ele><time>2026-04-06T16:34:28.775Z</time></trkpt><trkpt lat="44.8131571" lon="1.109961"><ele>149.0</ele><time>2026-04-06T16:35:53.774Z</time></trkpt><trkpt lat="44.8131392" lon="1.1100738"><ele>149.0</ele><time>2026-04-06T16:35:55.775Z</time></trkpt><trkpt lat="44.813112" lon="1.1101579"><ele>149.0</ele><time>2026-04-06T16:35:56.771Z</time></trkpt><trkpt lat="44.8130787" lon="1.1102633"><ele>149.0</ele><time>2026-04-06T16:35:57.774Z</time></trkpt><trkpt lat="44.8130474" lon="1.1103741"><ele>149.0</ele><time>2026-04-06T16:35:58.773Z</time></trkpt><trkpt lat="44.8130192" lon="1.1104813"><ele>149.0</ele><time>2026-04-06T16:35:59.774Z</time></trkpt><trkpt lat="44.8129914" lon="1.110584"><ele>149.0</ele><time>2026-04-06T16:36:00.777Z</time></trkpt><trkpt lat="44.8129653" lon="1.1106838"><ele>149.0</ele><time>2026-04-06T16:36:01.773Z</time></trkpt><trkpt lat="44.8129328" lon="1.1108163"><ele>149.0</ele><time>2026-04-06T16:36:03.775Z</time></trkpt><trkpt lat="44.8129299" lon="1.110915"><ele>149.0</ele><time>2026-04-06T16:36:07.767Z</time></trkpt><trkpt lat="44.8129878" lon="1.1109753"><ele>148.4</ele><time>2026-04-06T16:36:09.776Z</time></trkpt><trkpt lat="44.8131098" lon="1.1110151"><ele>147.8</ele><time>2026-04-06T16:36:11.793Z</time></trkpt><trkpt lat="44.8131908" lon="1.1110387"><ele>147.2</ele><time>2026-04-06T16:36:12.773Z</time></trkpt><trkpt lat="44.8132829" lon="1.1110674"><ele>146.6</ele><time>2026-04-06T16:36:13.77Z</time></trkpt><trkpt lat="44.813384" lon="1.1111052"><ele>146.0</ele><time>2026-04-06T16:36:14.769Z</time></trkpt><trkpt lat="44.8134914" lon="1.1111576"><ele>145.2</ele><time>2026-04-06T16:36:15.783Z</time></trkpt><trkpt lat="44.8135957" lon="1.111224"><ele>144.39999999999998</ele><time>2026-04-06T16:36:16.78Z</time></trkpt><trkpt lat="44.813689" lon="1.1112956"><ele>143.6</ele><time>2026-04-06T16:36:17.791Z</time></trkpt><trkpt lat="44.8137759" lon="1.1113621"><ele>142.79999999999998</ele><time>2026-04-06T16:36:18.773Z</time></trkpt><trkpt lat="44.813865" lon="1.1114152"><ele>142.0</ele><time>2026-04-06T16:36:19.769Z</time></trkpt><trkpt lat="44.813963" lon="1.1114727"><ele>142.0</ele><time>2026-04-06T16:36:20.782Z</time></trkpt><trkpt lat="44.8140783" lon="1.1115292"><ele>142.0</ele><time>2026-04-06T16:36:21.775Z</time></trkpt><trkpt lat="44.8142087" lon="1.1115744"><ele>142.0</ele><time>2026-04-06T16:36:22.773Z</time></trkpt><trkpt lat="44.8143452" lon="1.1116053"><ele>142.0</ele><time>2026-04-06T16:36:23.769Z</time></trkpt><trkpt lat="44.8144839" lon="1.1116362"><ele>143.75</ele><time>2026-04-06T16:36:24.767Z</time></trkpt><trkpt lat="44.8146212" lon="1.111658"><ele>145.5</ele><time>2026-04-06T16:36:25.773Z</time></trkpt><trkpt lat="44.81475" lon="1.1116744"><ele>147.25</ele><time>2026-04-06T16:36:26.776Z</time></trkpt><trkpt lat="44.8148744" lon="1.1116921"><ele>149.0</ele><time>2026-04-06T16:36:27.775Z</time></trkpt><trkpt lat="44.814995" lon="1.1117131"><ele>149.0</ele><time>2026-04-06T16:36:28.773Z</time></trkpt><trkpt lat="44.8151097" lon="1.1117514"><ele>149.0</ele><time>2026-04-06T16:36:29.777Z</time></trkpt><trkpt lat="44.8152245" lon="1.1117976"><ele>149.0</ele><time>2026-04-06T16:36:30.775Z</time></trkpt><trkpt lat="44.8153308" lon="1.1118512"><ele>149.0</ele><time>2026-04-06T16:36:31.776Z</time></trkpt><trkpt lat="44.8154337" lon="1.1119057"><ele>149.6</ele><time>2026-04-06T16:36:32.765Z</time></trkpt><trkpt lat="44.8155356" lon="1.1119639"><ele>150.2</ele><time>2026-04-06T16:36:33.776Z</time></trkpt><trkpt lat="44.8156358" lon="1.1120285"><ele>150.79999999999998</ele><time>2026-04-06T16:36:34.774Z</time></trkpt><trkpt lat="44.8157335" lon="1.1121014"><ele>151.4</ele><time>2026-04-06T16:36:35.775Z</time></trkpt><trkpt lat="44.8158318" lon="1.1121852"><ele>152.0</ele><time>2026-04-06T16:36:36.763Z</time></trkpt><trkpt lat="44.8159368" lon="1.1122822"><ele>150.66666666666666</ele><time>2026-04-06T16:36:37.791Z</time></trkpt><trkpt lat="44.8160545" lon="1.1124028"><ele>149.33333333333334</ele><time>2026-04-06T16:36:38.771Z</time></trkpt><trkpt lat="44.816177" lon="1.1125379"><ele>148.0</ele><time>2026-04-06T16:36:39.77Z</time></trkpt><trkpt lat="44.8162946" lon="1.1126678"><ele>148.0</ele><time>2026-04-06T16:36:40.77Z</time></trkpt><trkpt lat="44.816409" lon="1.1127904"><ele>148.0</ele><time>2026-04-06T16:36:41.77Z</time></trkpt><trkpt lat="44.8165178" lon="1.1129064"><ele>148.0</ele><time>2026-04-06T16:36:42.778Z</time></trkpt><trkpt lat="44.8166298" lon="1.1130119"><ele>148.0</ele><time>2026-04-06T16:36:43.777Z</time></trkpt><trkpt lat="44.8167445" lon="1.1131149"><ele>146.5</ele><time>2026-04-06T16:36:44.766Z</time></trkpt><trkpt lat="44.816863" lon="1.1132081"><ele>145.0</ele><time>2026-04-06T16:36:45.769Z</time></trkpt><trkpt lat="44.816984" lon="1.1132929"><ele>143.5</ele><time>2026-04-06T16:36:46.776Z</time></trkpt><trkpt lat="44.8171018" lon="1.1133828"><ele>142.0</ele><time>2026-04-06T16:36:47.773Z</time></trkpt><trkpt lat="44.8172124" lon="1.11348"><ele>141.75</ele><time>2026-04-06T16:36:48.772Z</time></trkpt><trkpt lat="44.8173203" lon="1.1135742"><ele>141.5</ele><time>2026-04-06T16:36:49.769Z</time></trkpt><trkpt lat="44.8174192" lon="1.1136694"><ele>141.25</ele><time>2026-04-06T16:36:50.782Z</time></trkpt><trkpt lat="44.817503" lon="1.1137692"><ele>141.0</ele><time>2026-04-06T16:36:51.775Z</time></trkpt><trkpt lat="44.8175839" lon="1.1138656"><ele>139.0</ele><time>2026-04-06T16:36:52.771Z</time></trkpt><trkpt lat="44.8176764" lon="1.1139607"><ele>137.0</ele><time>2026-04-06T16:36:53.779Z</time></trkpt><trkpt lat="44.8177777" lon="1.1140437"><ele>135.0</ele><time>2026-04-06T16:36:54.789Z</time></trkpt><trkpt lat="44.8178836" lon="1.1141234"><ele>133.0</ele><time>2026-04-06T16:36:55.773Z</time></trkpt><trkpt lat="44.8179894" lon="1.1142038"><ele>132.75</ele><time>2026-04-06T16:36:56.766Z</time></trkpt><trkpt lat="44.8180978" lon="1.1142873"><ele>132.5</ele><time>2026-04-06T16:36:57.776Z</time></trkpt><trkpt lat="44.8182098" lon="1.1143674"><ele>132.25</ele><time>2026-04-06T16:36:58.765Z</time></trkpt><trkpt lat="44.818321" lon="1.1144425"><ele>132.0</ele><time>2026-04-06T16:36:59.794Z</time></trkpt><trkpt lat="44.8184306" lon="1.114515"><ele>130.25</ele><time>2026-04-06T16:37:00.767Z</time></trkpt><trkpt lat="44.8185394" lon="1.1145956"><ele>128.5</ele><time>2026-04-06T16:37:01.783Z</time></trkpt><trkpt lat="44.8186486" lon="1.1146837"><ele>126.75</ele><time>2026-04-06T16:37:02.763Z</time></trkpt><trkpt lat="44.818757" lon="1.1147748"><ele>125.0</ele><time>2026-04-06T16:37:03.783Z</time></trkpt><trkpt lat="44.818863" lon="1.1148635"><ele>124.4</ele><time>2026-04-06T16:37:04.784Z</time></trkpt><trkpt lat="44.818964" lon="1.114951"><ele>123.8</ele><time>2026-04-06T16:37:05.774Z</time></trkpt><trkpt lat="44.8190606" lon="1.1150362"><ele>123.19999999999999</ele><time>2026-04-06T16:37:06.767Z</time></trkpt><trkpt lat="44.8191574" lon="1.1151216"><ele>122.6</ele><time>2026-04-06T16:37:07.771Z</time></trkpt><trkpt lat="44.8192484" lon="1.115181"><ele>122.0</ele><time>2026-04-06T16:37:08.773Z</time></trkpt><trkpt lat="44.8193457" lon="1.1152174"><ele>121.0</ele><time>2026-04-06T16:37:09.772Z</time></trkpt><trkpt lat="44.8194519" lon="1.1152389"><ele>120.0</ele><time>2026-04-06T16:37:10.782Z</time></trkpt><trkpt lat="44.8195656" lon="1.1152592"><ele>119.0</ele><time>2026-04-06T16:37:11.77Z</time></trkpt><trkpt lat="44.8196827" lon="1.115277"><ele>118.0</ele><time>2026-04-06T16:37:12.773Z</time></trkpt><trkpt lat="44.8198007" lon="1.1152941"><ele>118.00000000000001</ele><time>2026-04-06T16:37:13.785Z</time></trkpt><trkpt lat="44.8199126" lon="1.1153101"><ele>118.0</ele><time>2026-04-06T16:37:14.775Z</time></trkpt><trkpt lat="44.8200106" lon="1.1153223"><ele>118.0</ele><time>2026-04-06T16:37:15.766Z</time></trkpt><trkpt lat="44.8200908" lon="1.1153232"><ele>118.0</ele><time>2026-04-06T16:37:16.786Z</time></trkpt><trkpt lat="44.8201666" lon="1.1153333"><ele>118.00000000000001</ele><time>2026-04-06T16:37:17.781Z</time></trkpt><trkpt lat="44.8202428" lon="1.1153479"><ele>118.0</ele><time>2026-04-06T16:37:18.771Z</time></trkpt><trkpt lat="44.8203122" lon="1.1153626"><ele>117.60000000000001</ele><time>2026-04-06T16:37:19.77Z</time></trkpt><trkpt lat="44.8203775" lon="1.115372"><ele>117.20000000000002</ele><time>2026-04-06T16:37:20.773Z</time></trkpt><trkpt lat="44.8204994" lon="1.1153686"><ele>116.8</ele><time>2026-04-06T16:37:22.789Z</time></trkpt><trkpt lat="44.8205972" lon="1.1153095"><ele>116.4</ele><time>2026-04-06T16:37:24.792Z</time></trkpt><trkpt lat="44.8206963" lon="1.1152352"><ele>116.0</ele><time>2026-04-06T16:37:26.779Z</time></trkpt><trkpt lat="44.8208016" lon="1.1151531"><ele>116.0</ele><time>2026-04-06T16:37:28.772Z</time></trkpt><trkpt lat="44.8209082" lon="1.1150739"><ele>116.0</ele><time>2026-04-06T16:37:30.766Z</time></trkpt><trkpt lat="44.8210106" lon="1.1149972"><ele>116.0</ele><time>2026-04-06T16:37:32.775Z</time></trkpt><trkpt lat="44.8211118" lon="1.1149206"><ele>116.0</ele><time>2026-04-06T16:37:34.766Z</time></trkpt><trkpt lat="44.821213" lon="1.1148486"><ele>115.6</ele><time>2026-04-06T16:37:36.775Z</time></trkpt><trkpt lat="44.8213101" lon="1.1147764"><ele>115.19999999999999</ele><time>2026-04-06T16:37:38.776Z</time></trkpt><trkpt lat="44.8214063" lon="1.1147012"><ele>114.80000000000001</ele><time>2026-04-06T16:37:40.779Z</time></trkpt><trkpt lat="44.8215063" lon="1.1146281"><ele>114.4</ele><time>2026-04-06T16:37:42.773Z</time></trkpt><trkpt lat="44.821607" lon="1.114562"><ele>114.0</ele><time>2026-04-06T16:37:44.776Z</time></trkpt><trkpt lat="44.8217078" lon="1.1144943"><ele>114.0</ele><time>2026-04-06T16:37:46.772Z</time></trkpt><trkpt lat="44.8218104" lon="1.1144202"><ele>114.0</ele><time>2026-04-06T16:37:48.786Z</time></trkpt><trkpt lat="44.8219123" lon="1.1143446"><ele>114.0</ele><time>2026-04-06T16:37:50.791Z</time></trkpt><trkpt lat="44.8220206" lon="1.1142657"><ele>114.0</ele><time>2026-04-06T16:37:52.795Z</time></trkpt><trkpt lat="44.8220777" lon="1.1142254"><ele>114.0</ele><time>2026-04-06T16:37:53.774Z</time></trkpt><trkpt lat="44.8221356" lon="1.1141829"><ele>114.14285714285714</ele><time>2026-04-06T16:37:54.771Z</time></trkpt><trkpt lat="44.8221943" lon="1.1141402"><ele>114.28571428571428</ele><time>2026-04-06T16:37:55.773Z</time></trkpt><trkpt lat="44.8222539" lon="1.1140965"><ele>114.42857142857142</ele><time>2026-04-06T16:37:56.793Z</time></trkpt><trkpt lat="44.8223132" lon="1.1140533"><ele>114.57142857142856</ele><time>2026-04-06T16:37:57.78Z</time></trkpt><trkpt lat="44.822374" lon="1.1140095"><ele>114.71428571428571</ele><time>2026-04-06T16:37:58.771Z</time></trkpt><trkpt lat="44.8224354" lon="1.1139655"><ele>114.85714285714283</ele><time>2026-04-06T16:37:59.778Z</time></trkpt><trkpt lat="44.822496" lon="1.1139208"><ele>114.99999999999999</ele><time>2026-04-06T16:38:00.778Z</time></trkpt><trkpt lat="44.822557" lon="1.1138765"><ele>114.83333333333334</ele><time>2026-04-06T16:38:01.775Z</time></trkpt><trkpt lat="44.8226178" lon="1.113833"><ele>114.66666666666667</ele><time>2026-04-06T16:38:02.779Z</time></trkpt><trkpt lat="44.8226781" lon="1.1137904"><ele>114.5</ele><time>2026-04-06T16:38:03.776Z</time></trkpt><trkpt lat="44.8227355" lon="1.1137496"><ele>114.33333333333334</ele><time>2026-04-06T16:38:04.773Z</time></trkpt><trkpt lat="44.8228423" lon="1.1136725"><ele>114.16666666666667</ele><time>2026-04-06T16:38:06.771Z</time></trkpt><trkpt lat="44.8229375" lon="1.1136106"><ele>114.0</ele><time>2026-04-06T16:38:08.772Z</time></trkpt><trkpt lat="44.823015" lon="1.113577"><ele>114.0</ele><time>2026-04-06T16:38:10.772Z</time></trkpt><trkpt lat="44.823083" lon="1.1135774"><ele>114.0</ele><time>2026-04-06T16:38:14.768Z</time></trkpt><trkpt lat="44.8231413" lon="1.1136381"><ele>114.0</ele><time>2026-04-06T16:38:17.78Z</time></trkpt><trkpt lat="44.8231868" lon="1.1137436"><ele>114.0</ele><time>2026-04-06T16:38:19.77Z</time></trkpt><trkpt lat="44.8232344" lon="1.1138588"><ele>114.0</ele><time>2026-04-06T16:38:21.776Z</time></trkpt><trkpt lat="44.8232895" lon="1.1139827"><ele>114.0</ele><time>2026-04-06T16:38:23.787Z</time></trkpt><trkpt lat="44.8233571" lon="1.1140964"><ele>113.80000000000001</ele><time>2026-04-06T16:38:25.781Z</time></trkpt><trkpt lat="44.8234542" lon="1.114162"><ele>113.60000000000001</ele><time>2026-04-06T16:38:27.77Z</time></trkpt><trkpt lat="44.8235601" lon="1.1141992"><ele>113.4</ele><time>2026-04-06T16:38:29.766Z</time></trkpt><trkpt lat="44.8236698" lon="1.1142188"><ele>113.2</ele><time>2026-04-06T16:38:31.765Z</time></trkpt><trkpt lat="44.8237495" lon="1.1142293"><ele>113.0</ele><time>2026-04-06T16:38:33.762Z</time></trkpt><trkpt lat="44.8238142" lon="1.11426"><ele>110.60000000000001</ele><time>2026-04-06T16:38:36.776Z</time></trkpt><trkpt lat="44.8238662" lon="1.1143558"><ele>108.20000000000002</ele><time>2026-04-06T16:38:38.77Z</time></trkpt><trkpt lat="44.8239279" lon="1.1144894"><ele>105.8</ele><time>2026-04-06T16:38:40.768Z</time></trkpt><trkpt lat="44.823998" lon="1.1146427"><ele>103.4</ele><time>2026-04-06T16:38:42.765Z</time></trkpt><trkpt lat="44.8240325" lon="1.1147206"><ele>101.0</ele><time>2026-04-06T16:38:43.768Z</time></trkpt><trkpt lat="44.8240697" lon="1.1148012"><ele>100.99999999999999</ele><time>2026-04-06T16:38:44.757Z</time></trkpt><trkpt lat="44.8241071" lon="1.1148861"><ele>101.0</ele><time>2026-04-06T16:38:45.766Z</time></trkpt><trkpt lat="44.824141" lon="1.114967"><ele>101.0</ele><time>2026-04-06T16:38:46.776Z</time></trkpt><trkpt lat="44.8241979" lon="1.1150967"><ele>101.0</ele><time>2026-04-06T16:38:48.774Z</time></trkpt><trkpt lat="44.8242317" lon="1.1151847"><ele>100.99999999999999</ele><time>2026-04-06T16:38:50.786Z</time></trkpt><trkpt lat="44.824211" lon="1.1152953"><ele>101.0</ele><time>2026-04-06T16:38:52.784Z</time></trkpt><trkpt lat="44.8241284" lon="1.1154125"><ele>101.33333333333333</ele><time>2026-04-06T16:38:54.774Z</time></trkpt><trkpt lat="44.8240614" lon="1.1154606"><ele>101.66666666666666</ele><time>2026-04-06T16:38:55.795Z</time></trkpt><trkpt lat="44.8239963" lon="1.1155122"><ele>102.0</ele><time>2026-04-06T16:38:56.783Z</time></trkpt><trkpt lat="44.823927" lon="1.1155689"><ele>102.33333333333334</ele><time>2026-04-06T16:38:57.77Z</time></trkpt><trkpt lat="44.8238546" lon="1.1156298"><ele>102.66666666666667</ele><time>2026-04-06T16:38:58.791Z</time></trkpt><trkpt lat="44.8237798" lon="1.115701"><ele>103.0</ele><time>2026-04-06T16:38:59.776Z</time></trkpt><trkpt lat="44.823704" lon="1.1157835"><ele>102.0</ele><time>2026-04-06T16:39:00.786Z</time></trkpt><trkpt lat="44.8236246" lon="1.1158677"><ele>101.0</ele><time>2026-04-06T16:39:01.764Z</time></trkpt><trkpt lat="44.8235495" lon="1.1159654"><ele>100.0</ele><time>2026-04-06T16:39:02.767Z</time></trkpt><trkpt lat="44.8234763" lon="1.1160661"><ele>99.0</ele><time>2026-04-06T16:39:03.773Z</time></trkpt><trkpt lat="44.8234023" lon="1.1161667"><ele>98.0</ele><time>2026-04-06T16:39:04.775Z</time></trkpt><trkpt lat="44.8233252" lon="1.1162637"><ele>98.0</ele><time>2026-04-06T16:39:05.77Z</time></trkpt><trkpt lat="44.8232492" lon="1.1163594"><ele>98.0</ele><time>2026-04-06T16:39:06.789Z</time></trkpt><trkpt lat="44.8231645" lon="1.1164549"><ele>98.0</ele><time>2026-04-06T16:39:07.764Z</time></trkpt><trkpt lat="44.8230788" lon="1.1165542"><ele>98.0</ele><time>2026-04-06T16:39:08.771Z</time></trkpt><trkpt lat="44.8229934" lon="1.1166544"><ele>98.0</ele><time>2026-04-06T16:39:09.769Z</time></trkpt><trkpt lat="44.8229113" lon="1.1167492"><ele>98.80000000000001</ele><time>2026-04-06T16:39:10.777Z</time></trkpt><trkpt lat="44.8228279" lon="1.1168437"><ele>99.6</ele><time>2026-04-06T16:39:11.78Z</time></trkpt><trkpt lat="44.8227441" lon="1.1169387"><ele>100.4</ele><time>2026-04-06T16:39:12.769Z</time></trkpt><trkpt lat="44.8226544" lon="1.1170372"><ele>101.19999999999999</ele><time>2026-04-06T16:39:13.781Z</time></trkpt><trkpt lat="44.8225678" lon="1.1171262"><ele>102.0</ele><time>2026-04-06T16:39:14.784Z</time></trkpt><trkpt lat="44.8224856" lon="1.1172113"><ele>102.0</ele><time>2026-04-06T16:39:15.775Z</time></trkpt><trkpt lat="44.8224014" lon="1.1172873"><ele>102.0</ele><time>2026-04-06T16:39:16.787Z</time></trkpt><trkpt lat="44.8223103" lon="1.1173356"><ele>102.0</ele><time>2026-04-06T16:39:17.775Z</time></trkpt><trkpt lat="44.8222249" lon="1.1173623"><ele>102.0</ele><time>2026-04-06T16:39:18.771Z</time></trkpt><trkpt lat="44.8221451" lon="1.1173813"><ele>102.0</ele><time>2026-04-06T16:39:19.772Z</time></trkpt><trkpt lat="44.8220772" lon="1.1174187"><ele>102.0</ele><time>2026-04-06T16:39:20.776Z</time></trkpt><trkpt lat="44.8220308" lon="1.1174804"><ele>99.0</ele><time>2026-04-06T16:39:21.769Z</time></trkpt><trkpt lat="44.8219773" lon="1.1176234"><ele>96.0</ele><time>2026-04-06T16:39:23.768Z</time></trkpt><trkpt lat="44.8219648" lon="1.1177197"><ele>93.0</ele><time>2026-04-06T16:39:25.776Z</time></trkpt><trkpt lat="44.8219168" lon="1.1178123"><ele>90.0</ele><time>2026-04-06T16:39:28.768Z</time></trkpt><trkpt lat="44.8217991" lon="1.1178926"><ele>87.0</ele><time>2026-04-06T16:39:30.78Z</time></trkpt><trkpt lat="44.821722" lon="1.1179309"><ele>87.0</ele><time>2026-04-06T16:39:31.777Z</time></trkpt><trkpt lat="44.8216353" lon="1.1179623"><ele>87.0</ele><time>2026-04-06T16:39:32.787Z</time></trkpt><trkpt lat="44.8215399" lon="1.1179883"><ele>87.0</ele><time>2026-04-06T16:39:33.771Z</time></trkpt><trkpt lat="44.8214403" lon="1.1180092"><ele>87.0</ele><time>2026-04-06T16:39:34.765Z</time></trkpt><trkpt lat="44.8213405" lon="1.1180168"><ele>87.0</ele><time>2026-04-06T16:39:35.764Z</time></trkpt><trkpt lat="44.8212417" lon="1.1180057"><ele>87.0</ele><time>2026-04-06T16:39:36.76Z</time></trkpt><trkpt lat="44.8211461" lon="1.1179837"><ele>87.0</ele><time>2026-04-06T16:39:37.765Z</time></trkpt><trkpt lat="44.8210496" lon="1.1179661"><ele>87.0</ele><time>2026-04-06T16:39:38.779Z</time></trkpt><trkpt lat="44.8209523" lon="1.1179693"><ele>87.0</ele><time>2026-04-06T16:39:39.76Z</time></trkpt><trkpt lat="44.8208559" lon="1.117992"><ele>87.0</ele><time>2026-04-06T16:39:40.77Z</time></trkpt><trkpt lat="44.8207649" lon="1.1180316"><ele>87.83333333333333</ele><time>2026-04-06T16:39:41.766Z</time></trkpt><trkpt lat="44.8206803" lon="1.1180813"><ele>88.66666666666667</ele><time>2026-04-06T16:39:42.763Z</time></trkpt><trkpt lat="44.8206028" lon="1.1181322"><ele>89.5</ele><time>2026-04-06T16:39:43.763Z</time></trkpt><trkpt lat="44.8205342" lon="1.1181815"><ele>90.33333333333334</ele><time>2026-04-06T16:39:44.782Z</time></trkpt><trkpt lat="44.8204713" lon="1.118227"><ele>91.16666666666667</ele><time>2026-04-06T16:39:45.773Z</time></trkpt><trkpt lat="44.8204117" lon="1.1182774"><ele>92.0</ele><time>2026-04-06T16:39:46.783Z</time></trkpt><trkpt lat="44.8203455" lon="1.1183267"><ele>90.0</ele><time>2026-04-06T16:39:47.767Z</time></trkpt><trkpt lat="44.8202607" lon="1.1183719"><ele>88.0</ele><time>2026-04-06T16:39:48.766Z</time></trkpt><trkpt lat="44.820159" lon="1.1184163"><ele>86.0</ele><time>2026-04-06T16:39:49.767Z</time></trkpt><trkpt lat="44.8200467" lon="1.1184613"><ele>84.0</ele><time>2026-04-06T16:39:50.773Z</time></trkpt><trkpt lat="44.819929" lon="1.1185077"><ele>82.0</ele><time>2026-04-06T16:39:51.775Z</time></trkpt><trkpt lat="44.8198107" lon="1.1185528"><ele>82.0</ele><time>2026-04-06T16:39:52.778Z</time></trkpt><trkpt lat="44.819693" lon="1.1186033"><ele>82.0</ele><time>2026-04-06T16:39:53.776Z</time></trkpt><trkpt lat="44.8195758" lon="1.1186602"><ele>82.0</ele><time>2026-04-06T16:39:54.782Z</time></trkpt><trkpt lat="44.8194587" lon="1.1187236"><ele>82.0</ele><time>2026-04-06T16:39:55.77Z</time></trkpt><trkpt lat="44.8193453" lon="1.1187845"><ele>82.19999999999999</ele><time>2026-04-06T16:39:56.768Z</time></trkpt><trkpt lat="44.8192409" lon="1.1188405"><ele>82.4</ele><time>2026-04-06T16:39:57.765Z</time></trkpt><trkpt lat="44.8191467" lon="1.1188933"><ele>82.6</ele><time>2026-04-06T16:39:58.779Z</time></trkpt><trkpt lat="44.8190647" lon="1.1189448"><ele>82.80000000000001</ele><time>2026-04-06T16:39:59.761Z</time></trkpt><trkpt lat="44.8190024" lon="1.1190115"><ele>83.0</ele><time>2026-04-06T16:40:00.767Z</time></trkpt><trkpt lat="44.8189674" lon="1.1191058"><ele>83.0</ele><time>2026-04-06T16:40:01.774Z</time></trkpt><trkpt lat="44.8189663" lon="1.1192184"><ele>83.0</ele><time>2026-04-06T16:40:02.768Z</time></trkpt><trkpt lat="44.8189661" lon="1.1193364"><ele>83.0</ele><time>2026-04-06T16:40:03.768Z</time></trkpt><trkpt lat="44.8190163" lon="1.119464"><ele>83.0</ele><time>2026-04-06T16:40:04.787Z</time></trkpt><trkpt lat="44.8190699" lon="1.1195929"><ele>83.0</ele><time>2026-04-06T16:40:05.775Z</time></trkpt><trkpt lat="44.8191222" lon="1.1197194"><ele>83.0</ele><time>2026-04-06T16:40:06.765Z</time></trkpt><trkpt lat="44.819173" lon="1.1198369"><ele>83.0</ele><time>2026-04-06T16:40:07.774Z</time></trkpt><trkpt lat="44.8192165" lon="1.1199425"><ele>83.0</ele><time>2026-04-06T16:40:08.764Z</time></trkpt><trkpt lat="44.8192496" lon="1.1200352"><ele>83.0</ele><time>2026-04-06T16:40:09.773Z</time></trkpt><trkpt lat="44.8192555" lon="1.120213"><ele>83.0</ele><time>2026-04-06T16:40:11.77Z</time></trkpt><trkpt lat="44.8192532" lon="1.120308"><ele>83.0</ele><time>2026-04-06T16:40:12.766Z</time></trkpt><trkpt lat="44.8192082" lon="1.1204225"><ele>83.0</ele><time>2026-04-06T16:40:13.768Z</time></trkpt><trkpt lat="44.8191391" lon="1.1205446"><ele>83.0</ele><time>2026-04-06T16:40:14.782Z</time></trkpt><trkpt lat="44.8190463" lon="1.120662"><ele>83.0</ele><time>2026-04-06T16:40:15.765Z</time></trkpt><trkpt lat="44.8189391" lon="1.1207786"><ele>83.0</ele><time>2026-04-06T16:40:16.765Z</time></trkpt><trkpt lat="44.8188255" lon="1.1208911"><ele>83.0</ele><time>2026-04-06T16:40:17.778Z</time></trkpt><trkpt lat="44.8187093" lon="1.1210171"><ele>83.0</ele><time>2026-04-06T16:40:18.761Z</time></trkpt><trkpt lat="44.8185947" lon="1.1211485"><ele>83.0</ele><time>2026-04-06T16:40:19.782Z</time></trkpt><trkpt lat="44.8184794" lon="1.1212881"><ele>83.0</ele><time>2026-04-06T16:40:20.776Z</time></trkpt><trkpt lat="44.8183623" lon="1.1214255"><ele>83.0</ele><time>2026-04-06T16:40:21.789Z</time></trkpt><trkpt lat="44.8182388" lon="1.1215515"><ele>83.0</ele><time>2026-04-06T16:40:22.789Z</time></trkpt><trkpt lat="44.818112" lon="1.1216637"><ele>85.0</ele><time>2026-04-06T16:40:23.777Z</time></trkpt><trkpt lat="44.81799" lon="1.1217637"><ele>87.0</ele><time>2026-04-06T16:40:24.785Z</time></trkpt><trkpt lat="44.817878" lon="1.1218631"><ele>89.0</ele><time>2026-04-06T16:40:25.768Z</time></trkpt><trkpt lat="44.8177701" lon="1.1219671"><ele>91.0</ele><time>2026-04-06T16:40:26.774Z</time></trkpt><trkpt lat="44.8176594" lon="1.1220736"><ele>89.5</ele><time>2026-04-06T16:40:27.772Z</time></trkpt><trkpt lat="44.8175473" lon="1.1221872"><ele>88.0</ele><time>2026-04-06T16:40:28.787Z</time></trkpt><trkpt lat="44.8174324" lon="1.122304"><ele>86.5</ele><time>2026-04-06T16:40:29.767Z</time></trkpt><trkpt lat="44.8173149" lon="1.1224208"><ele>85.0</ele><time>2026-04-06T16:40:30.782Z</time></trkpt><trkpt lat="44.8171953" lon="1.1225402"><ele>89.0</ele><time>2026-04-06T16:40:31.781Z</time></trkpt><trkpt lat="44.817075" lon="1.1226641"><ele>93.0</ele><time>2026-04-06T16:40:32.774Z</time></trkpt><trkpt lat="44.8169541" lon="1.1227905"><ele>97.0</ele><time>2026-04-06T16:40:33.788Z</time></trkpt><trkpt lat="44.8168323" lon="1.1229178"><ele>96.33333333333334</ele><time>2026-04-06T16:40:34.769Z</time></trkpt><trkpt lat="44.8167097" lon="1.1230448"><ele>95.66666666666667</ele><time>2026-04-06T16:40:35.77Z</time></trkpt><trkpt lat="44.816589" lon="1.1231699"><ele>95.0</ele><time>2026-04-06T16:40:36.778Z</time></trkpt><trkpt lat="44.8164685" lon="1.1232902"><ele>95.0</ele><time>2026-04-06T16:40:37.769Z</time></trkpt><trkpt lat="44.8163529" lon="1.1234082"><ele>95.0</ele><time>2026-04-06T16:40:38.783Z</time></trkpt><trkpt lat="44.8162336" lon="1.1235232"><ele>95.0</ele><time>2026-04-06T16:40:39.772Z</time></trkpt><trkpt lat="44.8161161" lon="1.1236383"><ele>95.0</ele><time>2026-04-06T16:40:40.765Z</time></trkpt><trkpt lat="44.8159955" lon="1.123747"><ele>93.75</ele><time>2026-04-06T16:40:41.775Z</time></trkpt><trkpt lat="44.8158734" lon="1.123831"><ele>92.5</ele><time>2026-04-06T16:40:42.772Z</time></trkpt><trkpt lat="44.8157475" lon="1.1239019"><ele>91.25</ele><time>2026-04-06T16:40:43.784Z</time></trkpt><trkpt lat="44.8156234" lon="1.1239709"><ele>90.0</ele><time>2026-04-06T16:40:44.773Z</time></trkpt><trkpt lat="44.8155021" lon="1.1240381"><ele>91.5</ele><time>2026-04-06T16:40:45.766Z</time></trkpt><trkpt lat="44.8153869" lon="1.1241028"><ele>93.0</ele><time>2026-04-06T16:40:46.78Z</time></trkpt><trkpt lat="44.8152763" lon="1.1241676"><ele>94.5</ele><time>2026-04-06T16:40:47.775Z</time></trkpt><trkpt lat="44.8151723" lon="1.124227"><ele>96.0</ele><time>2026-04-06T16:40:48.782Z</time></trkpt><trkpt lat="44.8150773" lon="1.1242784"><ele>96.0</ele><time>2026-04-06T16:40:49.787Z</time></trkpt><trkpt lat="44.8149904" lon="1.1243234"><ele>96.0</ele><time>2026-04-06T16:40:50.77Z</time></trkpt><trkpt lat="44.8149144" lon="1.124364"><ele>96.0</ele><time>2026-04-06T16:40:51.773Z</time></trkpt><trkpt lat="44.8148486" lon="1.1243939"><ele>96.0</ele><time>2026-04-06T16:40:52.771Z</time></trkpt><trkpt lat="44.8147461" lon="1.1244306"><ele>96.0</ele><time>2026-04-06T16:40:54.772Z</time></trkpt><trkpt lat="44.8146769" lon="1.1244661"><ele>96.0</ele><time>2026-04-06T16:40:57.773Z</time></trkpt><trkpt lat="44.814645" lon="1.1245466"><ele>96.0</ele><time>2026-04-06T16:41:02.77Z</time></trkpt><trkpt lat="44.8146472" lon="1.124648"><ele>96.0</ele><time>2026-04-06T16:41:05.77Z</time></trkpt><trkpt lat="44.814651" lon="1.1247548"><ele>96.0</ele><time>2026-04-06T16:41:08.768Z</time></trkpt><trkpt lat="44.8146557" lon="1.1248476"><ele>96.0</ele><time>2026-04-06T16:41:10.772Z</time></trkpt><trkpt lat="44.814649" lon="1.1249651"><ele>96.0</ele><time>2026-04-06T16:41:12.768Z</time></trkpt><trkpt lat="44.8146378" lon="1.1250828"><ele>96.0</ele><time>2026-04-06T16:41:14.777Z</time></trkpt><trkpt lat="44.8146323" lon="1.1251917"><ele>98.0</ele><time>2026-04-06T16:41:16.779Z</time></trkpt><trkpt lat="44.814641" lon="1.1253234"><ele>100.0</ele><time>2026-04-06T16:41:18.769Z</time></trkpt><trkpt lat="44.8146537" lon="1.1254361"><ele>102.0</ele><time>2026-04-06T16:41:20.788Z</time></trkpt><trkpt lat="44.8146675" lon="1.1255512"><ele>104.0</ele><time>2026-04-06T16:41:22.782Z</time></trkpt><trkpt lat="44.8146913" lon="1.1256759"><ele>106.0</ele><time>2026-04-06T16:41:24.776Z</time></trkpt><trkpt lat="44.814708" lon="1.1257719"><ele>108.0</ele><time>2026-04-06T16:41:26.776Z</time></trkpt><trkpt lat="44.8147298" lon="1.1258819"><ele>110.5</ele><time>2026-04-06T16:41:28.774Z</time></trkpt><trkpt lat="44.8147677" lon="1.1259752"><ele>113.0</ele><time>2026-04-06T16:41:30.775Z</time></trkpt><trkpt lat="44.8148015" lon="1.1260775"><ele>115.5</ele><time>2026-04-06T16:41:33.778Z</time></trkpt><trkpt lat="44.814895" lon="1.1261299"><ele>118.0</ele><time>2026-04-06T16:41:36.782Z</time></trkpt><trkpt lat="44.8149784" lon="1.1261036"><ele>120.5</ele><time>2026-04-06T16:41:38.774Z</time></trkpt><trkpt lat="44.8150728" lon="1.1261096"><ele>123.0</ele><time>2026-04-06T16:41:40.772Z</time></trkpt><trkpt lat="44.815167" lon="1.1261097"><ele>124.83333333333333</ele><time>2026-04-06T16:41:42.77Z</time></trkpt><trkpt lat="44.8152457" lon="1.1261153"><ele>126.66666666666666</ele><time>2026-04-06T16:41:44.775Z</time></trkpt><trkpt lat="44.8153356" lon="1.1261123"><ele>128.5</ele><time>2026-04-06T16:41:47.769Z</time></trkpt><trkpt lat="44.8154044" lon="1.1261098"><ele>130.33333333333331</ele><time>2026-04-06T16:41:49.8Z</time></trkpt><trkpt lat="44.8154778" lon="1.1261034"><ele>132.16666666666666</ele><time>2026-04-06T16:41:51.777Z</time></trkpt><trkpt lat="44.8155532" lon="1.1261088"><ele>134.0</ele><time>2026-04-06T16:41:53.768Z</time></trkpt><trkpt lat="44.8156346" lon="1.1261052"><ele>134.0</ele><time>2026-04-06T16:41:55.778Z</time></trkpt><trkpt lat="44.8157186" lon="1.1261142"><ele>134.0</ele><time>2026-04-06T16:41:57.773Z</time></trkpt><trkpt lat="44.8157995" lon="1.1261343"><ele>134.0</ele><time>2026-04-06T16:41:59.769Z</time></trkpt><trkpt lat="44.8158894" lon="1.126152"><ele>134.0</ele><time>2026-04-06T16:42:01.764Z</time></trkpt><trkpt lat="44.8159868" lon="1.1261672"><ele>134.0</ele><time>2026-04-06T16:42:03.769Z</time></trkpt><trkpt lat="44.8160884" lon="1.1261713"><ele>136.0</ele><time>2026-04-06T16:42:05.766Z</time></trkpt><trkpt lat="44.816197" lon="1.1261883"><ele>138.0</ele><time>2026-04-06T16:42:07.761Z</time></trkpt><trkpt lat="44.8163055" lon="1.1261953"><ele>140.0</ele><time>2026-04-06T16:42:09.772Z</time></trkpt><trkpt lat="44.8164105" lon="1.1262058"><ele>142.0</ele><time>2026-04-06T16:42:11.795Z</time></trkpt><trkpt lat="44.816507" lon="1.126222"><ele>144.0</ele><time>2026-04-06T16:42:13.766Z</time></trkpt><trkpt lat="44.8166103" lon="1.1262477"><ele>144.0</ele><time>2026-04-06T16:42:15.764Z</time></trkpt><trkpt lat="44.8166896" lon="1.1262822"><ele>144.0</ele><time>2026-04-06T16:42:17.766Z</time></trkpt><trkpt lat="44.8167706" lon="1.1262947"><ele>144.0</ele><time>2026-04-06T16:42:20.762Z</time></trkpt><trkpt lat="44.8168501" lon="1.126345"><ele>144.0</ele><time>2026-04-06T16:42:23.765Z</time></trkpt><trkpt lat="44.816908" lon="1.1264281"><ele>144.0</ele><time>2026-04-06T16:42:25.764Z</time></trkpt><trkpt lat="44.8169902" lon="1.1265265"><ele>144.0</ele><time>2026-04-06T16:42:27.77Z</time></trkpt><trkpt lat="44.8170539" lon="1.1266014"><ele>148.66666666666666</ele><time>2026-04-06T16:42:29.775Z</time></trkpt><trkpt lat="44.8171334" lon="1.1266621"><ele>153.33333333333334</ele><time>2026-04-06T16:42:31.769Z</time></trkpt><trkpt lat="44.8172004" lon="1.1267126"><ele>158.0</ele><time>2026-04-06T16:42:33.772Z</time></trkpt><trkpt lat="44.817271" lon="1.126757"><ele>162.66666666666669</ele><time>2026-04-06T16:42:35.78Z</time></trkpt><trkpt lat="44.8173415" lon="1.126784"><ele>167.33333333333334</ele><time>2026-04-06T16:42:37.775Z</time></trkpt><trkpt lat="44.8174111" lon="1.1268122"><ele>172.0</ele><time>2026-04-06T16:42:42.762Z</time></trkpt><trkpt lat="44.8174694" lon="1.1268746"><ele>172.0</ele><time>2026-04-06T16:42:46.777Z</time></trkpt><trkpt lat="44.8175078" lon="1.1269629"><ele>172.0</ele><time>2026-04-06T16:42:49.77Z</time></trkpt><trkpt lat="44.8175485" lon="1.1270597"><ele>172.0</ele><time>2026-04-06T16:42:52.764Z</time></trkpt><trkpt lat="44.8175807" lon="1.1271604"><ele>172.0</ele><time>2026-04-06T16:42:54.769Z</time></trkpt><trkpt lat="44.8176032" lon="1.1272563"><ele>172.0</ele><time>2026-04-06T16:42:56.768Z</time></trkpt><trkpt lat="44.8176383" lon="1.1273797"><ele>172.0</ele><time>2026-04-06T16:42:58.774Z</time></trkpt><trkpt lat="44.8176654" lon="1.1274969"><ele>176.39999999999998</ele><time>2026-04-06T16:43:00.772Z</time></trkpt><trkpt lat="44.8176786" lon="1.1276328"><ele>180.79999999999998</ele><time>2026-04-06T16:43:02.784Z</time></trkpt><trkpt lat="44.8176821" lon="1.127761"><ele>185.2</ele><time>2026-04-06T16:43:04.768Z</time></trkpt><trkpt lat="44.8176909" lon="1.1278859"><ele>189.6</ele><time>2026-04-06T16:43:06.776Z</time></trkpt><trkpt lat="44.8177159" lon="1.1279969"><ele>194.0</ele><time>2026-04-06T16:43:08.78Z</time></trkpt><trkpt lat="44.8177443" lon="1.1281231"><ele>194.33333333333334</ele><time>2026-04-06T16:43:10.774Z</time></trkpt><trkpt lat="44.8177646" lon="1.1282362"><ele>194.66666666666669</ele><time>2026-04-06T16:43:12.763Z</time></trkpt><trkpt lat="44.8177971" lon="1.1283464"><ele>195.0</ele><time>2026-04-06T16:43:14.777Z</time></trkpt><trkpt lat="44.8178305" lon="1.1284579"><ele>195.33333333333331</ele><time>2026-04-06T16:43:16.767Z</time></trkpt><trkpt lat="44.8178694" lon="1.1285744"><ele>195.66666666666666</ele><time>2026-04-06T16:43:18.768Z</time></trkpt><trkpt lat="44.8179036" lon="1.128699"><ele>196.0</ele><time>2026-04-06T16:43:20.779Z</time></trkpt><trkpt lat="44.8179134" lon="1.1288595"><ele>195.99999999999997</ele><time>2026-04-06T16:43:22.765Z</time></trkpt><trkpt lat="44.8179395" lon="1.128995"><ele>196.0</ele><time>2026-04-06T16:43:24.78Z</time></trkpt><trkpt lat="44.8179609" lon="1.1290787"><ele>196.0</ele><time>2026-04-06T16:43:26.786Z</time></trkpt><trkpt lat="44.8180188" lon="1.1291573"><ele>196.0</ele><time>2026-04-06T16:43:29.78Z</time></trkpt><trkpt lat="44.8180887" lon="1.1291994"><ele>195.99999999999997</ele><time>2026-04-06T16:43:31.79Z</time></trkpt><trkpt lat="44.818148" lon="1.1292916"><ele>196.0</ele><time>2026-04-06T16:43:34.775Z</time></trkpt><trkpt lat="44.8182177" lon="1.1293553"><ele>196.83333333333331</ele><time>2026-04-06T16:43:59.777Z</time></trkpt><trkpt lat="44.8182714" lon="1.1294492"><ele>197.66666666666666</ele><time>2026-04-06T16:44:01.782Z</time></trkpt><trkpt lat="44.8182932" lon="1.1295888"><ele>198.5</ele><time>2026-04-06T16:44:03.776Z</time></trkpt><trkpt lat="44.8183118" lon="1.1296808"><ele>199.33333333333331</ele><time>2026-04-06T16:44:04.779Z</time></trkpt><trkpt lat="44.8183328" lon="1.1297795"><ele>200.16666666666666</ele><time>2026-04-06T16:44:05.768Z</time></trkpt><trkpt lat="44.8183497" lon="1.1298846"><ele>201.0</ele><time>2026-04-06T16:44:06.784Z</time></trkpt><trkpt lat="44.8183664" lon="1.1299928"><ele>201.33333333333334</ele><time>2026-04-06T16:44:07.773Z</time></trkpt><trkpt lat="44.8183801" lon="1.1301107"><ele>201.66666666666669</ele><time>2026-04-06T16:44:08.777Z</time></trkpt><trkpt lat="44.818382" lon="1.1302335"><ele>202.0</ele><time>2026-04-06T16:44:09.769Z</time></trkpt><trkpt lat="44.8183753" lon="1.1303555"><ele>202.33333333333334</ele><time>2026-04-06T16:44:10.779Z</time></trkpt><trkpt lat="44.8183632" lon="1.1304743"><ele>202.66666666666669</ele><time>2026-04-06T16:44:11.772Z</time></trkpt><trkpt lat="44.818349" lon="1.1305911"><ele>203.0</ele><time>2026-04-06T16:44:12.77Z</time></trkpt><trkpt lat="44.8183327" lon="1.1307097"><ele>201.4</ele><time>2026-04-06T16:44:13.778Z</time></trkpt><trkpt lat="44.818316" lon="1.1308294"><ele>199.8</ele><time>2026-04-06T16:44:14.775Z</time></trkpt><trkpt lat="44.8183005" lon="1.1309537"><ele>198.2</ele><time>2026-04-06T16:44:15.774Z</time></trkpt><trkpt lat="44.8182861" lon="1.1310854"><ele>196.6</ele><time>2026-04-06T16:44:16.771Z</time></trkpt><trkpt lat="44.8182709" lon="1.1312203"><ele>195.0</ele><time>2026-04-06T16:44:17.767Z</time></trkpt><trkpt lat="44.8182542" lon="1.1313598"><ele>195.0</ele><time>2026-04-06T16:44:18.768Z</time></trkpt><trkpt lat="44.8182372" lon="1.1315035"><ele>195.0</ele><time>2026-04-06T16:44:19.775Z</time></trkpt><trkpt lat="44.8182173" lon="1.1316482"><ele>195.0</ele><time>2026-04-06T16:44:20.777Z</time></trkpt><trkpt lat="44.8181893" lon="1.1317857"><ele>195.0</ele><time>2026-04-06T16:44:21.784Z</time></trkpt><trkpt lat="44.8181627" lon="1.1319205"><ele>195.0</ele><time>2026-04-06T16:44:22.777Z</time></trkpt><trkpt lat="44.8181296" lon="1.132041"><ele>194.16666666666666</ele><time>2026-04-06T16:44:23.78Z</time></trkpt><trkpt lat="44.8181023" lon="1.1321632"><ele>193.33333333333334</ele><time>2026-04-06T16:44:24.771Z</time></trkpt><trkpt lat="44.8180746" lon="1.1322786"><ele>192.5</ele><time>2026-04-06T16:44:25.782Z</time></trkpt><trkpt lat="44.8180482" lon="1.1323845"><ele>191.66666666666669</ele><time>2026-04-06T16:44:26.785Z</time></trkpt><trkpt lat="44.8180226" lon="1.1324859"><ele>190.83333333333334</ele><time>2026-04-06T16:44:27.769Z</time></trkpt><trkpt lat="44.8179983" lon="1.1325832"><ele>190.0</ele><time>2026-04-06T16:44:28.788Z</time></trkpt><trkpt lat="44.8179773" lon="1.1326779"><ele>190.0</ele><time>2026-04-06T16:44:29.771Z</time></trkpt><trkpt lat="44.8179595" lon="1.1327746"><ele>190.0</ele><time>2026-04-06T16:44:30.788Z</time></trkpt><trkpt lat="44.8179452" lon="1.1328705"><ele>190.0</ele><time>2026-04-06T16:44:31.777Z</time></trkpt><trkpt lat="44.817933" lon="1.1329651"><ele>190.0</ele><time>2026-04-06T16:44:32.777Z</time></trkpt><trkpt lat="44.8179238" lon="1.1330576"><ele>190.0</ele><time>2026-04-06T16:44:33.8Z</time></trkpt><trkpt lat="44.8179123" lon="1.133151"><ele>190.0</ele><time>2026-04-06T16:44:34.771Z</time></trkpt><trkpt lat="44.8179003" lon="1.1332457"><ele>190.0</ele><time>2026-04-06T16:44:35.782Z</time></trkpt><trkpt lat="44.8178827" lon="1.1333405"><ele>189.66666666666669</ele><time>2026-04-06T16:44:36.763Z</time></trkpt><trkpt lat="44.8178587" lon="1.133433"><ele>189.33333333333334</ele><time>2026-04-06T16:44:37.761Z</time></trkpt><trkpt lat="44.8178322" lon="1.1335239"><ele>189.0</ele><time>2026-04-06T16:44:38.79Z</time></trkpt><trkpt lat="44.817811" lon="1.1336101"><ele>188.66666666666666</ele><time>2026-04-06T16:44:39.773Z</time></trkpt><trkpt lat="44.8177746" lon="1.1337651"><ele>188.33333333333331</ele><time>2026-04-06T16:44:41.766Z</time></trkpt><trkpt lat="44.817767" lon="1.133923"><ele>188.0</ele><time>2026-04-06T16:44:43.767Z</time></trkpt><trkpt lat="44.8177909" lon="1.1340067"><ele>186.14285714285714</ele><time>2026-04-06T16:44:44.778Z</time></trkpt><trkpt lat="44.8178145" lon="1.1340925"><ele>184.28571428571428</ele><time>2026-04-06T16:44:45.777Z</time></trkpt><trkpt lat="44.8178417" lon="1.1341833"><ele>182.42857142857144</ele><time>2026-04-06T16:44:46.782Z</time></trkpt><trkpt lat="44.8178683" lon="1.1342825"><ele>180.57142857142856</ele><time>2026-04-06T16:44:47.762Z</time></trkpt><trkpt lat="44.8178936" lon="1.1343772"><ele>178.71428571428572</ele><time>2026-04-06T16:44:48.773Z</time></trkpt><trkpt lat="44.8179048" lon="1.1344776"><ele>176.85714285714286</ele><time>2026-04-06T16:44:49.768Z</time></trkpt><trkpt lat="44.8178932" lon="1.1345846"><ele>175.0</ele><time>2026-04-06T16:44:50.774Z</time></trkpt><trkpt lat="44.8178524" lon="1.1346885"><ele>175.0</ele><time>2026-04-06T16:44:51.771Z</time></trkpt><trkpt lat="44.8178123" lon="1.1347914"><ele>175.0</ele><time>2026-04-06T16:44:52.785Z</time></trkpt><trkpt lat="44.8177994" lon="1.1349057"><ele>175.0</ele><time>2026-04-06T16:44:53.77Z</time></trkpt><trkpt lat="44.8178125" lon="1.1350137"><ele>175.0</ele><time>2026-04-06T16:44:54.766Z</time></trkpt><trkpt lat="44.8178434" lon="1.1351106"><ele>175.0</ele><time>2026-04-06T16:44:55.759Z</time></trkpt><trkpt lat="44.8178695" lon="1.1351974"><ele>175.0</ele><time>2026-04-06T16:44:56.77Z</time></trkpt><trkpt lat="44.8179032" lon="1.135337"><ele>174.2</ele><time>2026-04-06T16:44:58.777Z</time></trkpt><trkpt lat="44.8178932" lon="1.1354771"><ele>173.4</ele><time>2026-04-06T16:45:00.769Z</time></trkpt><trkpt lat="44.8178224" lon="1.1356257"><ele>172.60000000000002</ele><time>2026-04-06T16:45:02.769Z</time></trkpt><trkpt lat="44.8177668" lon="1.1357017"><ele>171.8</ele><time>2026-04-06T16:45:03.78Z</time></trkpt><trkpt lat="44.8177075" lon="1.135778"><ele>171.0</ele><time>2026-04-06T16:45:04.766Z</time></trkpt><trkpt lat="44.8176456" lon="1.1358564"><ele>171.0</ele><time>2026-04-06T16:45:05.766Z</time></trkpt><trkpt lat="44.817583" lon="1.135948"><ele>171.0</ele><time>2026-04-06T16:45:06.785Z</time></trkpt><trkpt lat="44.8175216" lon="1.1360466"><ele>171.0</ele><time>2026-04-06T16:45:07.766Z</time></trkpt><trkpt lat="44.8174623" lon="1.136145"><ele>171.0</ele><time>2026-04-06T16:45:08.774Z</time></trkpt><trkpt lat="44.8174088" lon="1.1362419"><ele>171.0</ele><time>2026-04-06T16:45:09.775Z</time></trkpt><trkpt lat="44.81735" lon="1.1363416"><ele>171.0</ele><time>2026-04-06T16:45:10.768Z</time></trkpt><trkpt lat="44.8172915" lon="1.1364356"><ele>171.0</ele><time>2026-04-06T16:45:11.772Z</time></trkpt><trkpt lat="44.8172191" lon="1.13652"><ele>171.0</ele><time>2026-04-06T16:45:12.766Z</time></trkpt><trkpt lat="44.8171398" lon="1.1366016"><ele>171.0</ele><time>2026-04-06T16:45:13.756Z</time></trkpt><trkpt lat="44.8170552" lon="1.1366761"><ele>171.0</ele><time>2026-04-06T16:45:14.762Z</time></trkpt><trkpt lat="44.8169716" lon="1.1367381"><ele>171.66666666666666</ele><time>2026-04-06T16:45:15.77Z</time></trkpt><trkpt lat="44.8168848" lon="1.1367957"><ele>172.33333333333334</ele><time>2026-04-06T16:45:16.783Z</time></trkpt><trkpt lat="44.8168016" lon="1.1368452"><ele>173.0</ele><time>2026-04-06T16:45:17.764Z</time></trkpt><trkpt lat="44.8167219" lon="1.1368998"><ele>173.66666666666669</ele><time>2026-04-06T16:45:18.777Z</time></trkpt><trkpt lat="44.8166512" lon="1.1369752"><ele>174.33333333333334</ele><time>2026-04-06T16:45:19.764Z</time></trkpt><trkpt lat="44.8165975" lon="1.1370668"><ele>175.0</ele><time>2026-04-06T16:45:20.777Z</time></trkpt><trkpt lat="44.8165417" lon="1.1371624"><ele>175.0</ele><time>2026-04-06T16:45:21.769Z</time></trkpt><trkpt lat="44.8165413" lon="1.1372662"><ele>175.0</ele><time>2026-04-06T16:45:22.768Z</time></trkpt><trkpt lat="44.8165462" lon="1.1373633"><ele>175.0</ele><time>2026-04-06T16:45:23.775Z</time></trkpt><trkpt lat="44.8165367" lon="1.1374814"><ele>175.0</ele><time>2026-04-06T16:45:25.778Z</time></trkpt><trkpt lat="44.8164585" lon="1.1375883"><ele>175.0</ele><time>2026-04-06T16:45:28.773Z</time></trkpt><trkpt lat="44.8163996" lon="1.1376306"><ele>175.0</ele><time>2026-04-06T16:45:29.776Z</time></trkpt><trkpt lat="44.8163345" lon="1.1376949"><ele>173.71428571428572</ele><time>2026-04-06T16:45:30.767Z</time></trkpt><trkpt lat="44.8162633" lon="1.137764"><ele>172.42857142857144</ele><time>2026-04-06T16:45:31.767Z</time></trkpt><trkpt lat="44.8161939" lon="1.1378318"><ele>171.14285714285714</ele><time>2026-04-06T16:45:32.773Z</time></trkpt><trkpt lat="44.8161287" lon="1.1378864"><ele>169.85714285714286</ele><time>2026-04-06T16:45:33.766Z</time></trkpt><trkpt lat="44.8160739" lon="1.1379319"><ele>168.57142857142858</ele><time>2026-04-06T16:45:34.768Z</time></trkpt><trkpt lat="44.8160202" lon="1.1379893"><ele>167.28571428571428</ele><time>2026-04-06T16:45:35.775Z</time></trkpt><trkpt lat="44.8159673" lon="1.138048"><ele>166.0</ele><time>2026-04-06T16:45:36.782Z</time></trkpt><trkpt lat="44.815928" lon="1.1381542"><ele>167.4</ele><time>2026-04-06T16:45:37.771Z</time></trkpt><trkpt lat="44.8158958" lon="1.1382809"><ele>168.8</ele><time>2026-04-06T16:45:38.781Z</time></trkpt><trkpt lat="44.815852" lon="1.1384143"><ele>170.20000000000002</ele><time>2026-04-06T16:45:39.777Z</time></trkpt><trkpt lat="44.8157856" lon="1.1385382"><ele>171.60000000000002</ele><time>2026-04-06T16:45:40.774Z</time></trkpt><trkpt lat="44.8157069" lon="1.1386525"><ele>173.0</ele><time>2026-04-06T16:45:41.768Z</time></trkpt><trkpt lat="44.8156225" lon="1.138768"><ele>173.0</ele><time>2026-04-06T16:45:42.775Z</time></trkpt><trkpt lat="44.8155324" lon="1.1388807"><ele>173.0</ele><time>2026-04-06T16:45:43.778Z</time></trkpt><trkpt lat="44.8154366" lon="1.1389895"><ele>173.0</ele><time>2026-04-06T16:45:44.78Z</time></trkpt><trkpt lat="44.8153403" lon="1.1390941"><ele>173.0</ele><time>2026-04-06T16:45:45.773Z</time></trkpt><trkpt lat="44.8152454" lon="1.1391889"><ele>174.60000000000002</ele><time>2026-04-06T16:45:46.775Z</time></trkpt><trkpt lat="44.8151556" lon="1.1392688"><ele>176.20000000000002</ele><time>2026-04-06T16:45:47.774Z</time></trkpt><trkpt lat="44.8150719" lon="1.1393417"><ele>177.8</ele><time>2026-04-06T16:45:48.776Z</time></trkpt><trkpt lat="44.8149932" lon="1.1394104"><ele>179.4</ele><time>2026-04-06T16:45:49.774Z</time></trkpt><trkpt lat="44.8149234" lon="1.1394852"><ele>181.0</ele><time>2026-04-06T16:45:50.775Z</time></trkpt><trkpt lat="44.8148561" lon="1.139563"><ele>181.0</ele><time>2026-04-06T16:45:51.766Z</time></trkpt><trkpt lat="44.8147885" lon="1.1396398"><ele>181.0</ele><time>2026-04-06T16:45:52.779Z</time></trkpt><trkpt lat="44.81472" lon="1.139716"><ele>181.0</ele><time>2026-04-06T16:45:53.772Z</time></trkpt><trkpt lat="44.8146536" lon="1.1397928"><ele>181.0</ele><time>2026-04-06T16:45:54.761Z</time></trkpt><trkpt lat="44.8145928" lon="1.1398615"><ele>181.0</ele><time>2026-04-06T16:45:55.773Z</time></trkpt><trkpt lat="44.814537" lon="1.1399254"><ele>181.0</ele><time>2026-04-06T16:45:56.762Z</time></trkpt><trkpt lat="44.814485" lon="1.139987"><ele>181.16666666666669</ele><time>2026-04-06T16:45:57.78Z</time></trkpt><trkpt lat="44.8144023" lon="1.1400933"><ele>181.33333333333334</ele><time>2026-04-06T16:45:59.77Z</time></trkpt><trkpt lat="44.8143505" lon="1.1401565"><ele>181.5</ele><time>2026-04-06T16:46:01.77Z</time></trkpt><trkpt lat="44.8142996" lon="1.1402146"><ele>181.66666666666666</ele><time>2026-04-06T16:46:02.771Z</time></trkpt><trkpt lat="44.8142365" lon="1.1402895"><ele>181.83333333333331</ele><time>2026-04-06T16:46:03.768Z</time></trkpt><trkpt lat="44.8141673" lon="1.1403785"><ele>182.0</ele><time>2026-04-06T16:46:04.778Z</time></trkpt><trkpt lat="44.8140951" lon="1.1404772"><ele>182.0</ele><time>2026-04-06T16:46:05.766Z</time></trkpt><trkpt lat="44.8140205" lon="1.1405804"><ele>182.0</ele><time>2026-04-06T16:46:06.77Z</time></trkpt><trkpt lat="44.8139424" lon="1.1406866"><ele>182.0</ele><time>2026-04-06T16:46:07.773Z</time></trkpt><trkpt lat="44.8138629" lon="1.140797"><ele>182.0</ele><time>2026-04-06T16:46:08.77Z</time></trkpt><trkpt lat="44.8137839" lon="1.1409125"><ele>182.0</ele><time>2026-04-06T16:46:09.772Z</time></trkpt><trkpt lat="44.8137079" lon="1.1410339"><ele>182.16666666666666</ele><time>2026-04-06T16:46:10.772Z</time></trkpt><trkpt lat="44.8136455" lon="1.1411523"><ele>182.33333333333331</ele><time>2026-04-06T16:46:11.772Z</time></trkpt><trkpt lat="44.8136017" lon="1.1412679"><ele>182.5</ele><time>2026-04-06T16:46:12.776Z</time></trkpt><trkpt lat="44.8135751" lon="1.1413744"><ele>182.66666666666666</ele><time>2026-04-06T16:46:13.775Z</time></trkpt><trkpt lat="44.8135577" lon="1.1414721"><ele>182.83333333333334</ele><time>2026-04-06T16:46:14.771Z</time></trkpt><trkpt lat="44.8135476" lon="1.1415742"><ele>183.0</ele><time>2026-04-06T16:46:16.776Z</time></trkpt><trkpt lat="44.8135597" lon="1.1417236"><ele>183.0</ele><time>2026-04-06T16:46:20.773Z</time></trkpt><trkpt lat="44.8135925" lon="1.141851"><ele>183.0</ele><time>2026-04-06T16:46:21.766Z</time></trkpt><trkpt lat="44.8136313" lon="1.1419957"><ele>183.0</ele><time>2026-04-06T16:46:22.762Z</time></trkpt><trkpt lat="44.813671" lon="1.1421549"><ele>183.0</ele><time>2026-04-06T16:46:23.761Z</time></trkpt><trkpt lat="44.8137112" lon="1.1423306"><ele>180.75</ele><time>2026-04-06T16:46:24.77Z</time></trkpt><trkpt lat="44.8137461" lon="1.14251"><ele>178.5</ele><time>2026-04-06T16:46:25.762Z</time></trkpt><trkpt lat="44.8137672" lon="1.1426927"><ele>176.25</ele><time>2026-04-06T16:46:26.772Z</time></trkpt><trkpt lat="44.8137781" lon="1.1428795"><ele>174.0</ele><time>2026-04-06T16:46:27.769Z</time></trkpt><trkpt lat="44.8137823" lon="1.143073"><ele>172.0</ele><time>2026-04-06T16:46:28.774Z</time></trkpt><trkpt lat="44.8137845" lon="1.1432703"><ele>170.0</ele><time>2026-04-06T16:46:29.766Z</time></trkpt><trkpt lat="44.8137867" lon="1.1434699"><ele>168.0</ele><time>2026-04-06T16:46:30.761Z</time></trkpt><trkpt lat="44.8137848" lon="1.1436658"><ele>166.0</ele><time>2026-04-06T16:46:31.77Z</time></trkpt><trkpt lat="44.8137834" lon="1.1438575"><ele>165.0</ele><time>2026-04-06T16:46:32.764Z</time></trkpt><trkpt lat="44.8137821" lon="1.1440503"><ele>164.0</ele><time>2026-04-06T16:46:33.783Z</time></trkpt><trkpt lat="44.8137803" lon="1.1442358"><ele>163.0</ele><time>2026-04-06T16:46:34.766Z</time></trkpt><trkpt lat="44.8137732" lon="1.1444031"><ele>162.0</ele><time>2026-04-06T16:46:35.768Z</time></trkpt><trkpt lat="44.813757" lon="1.1445383"><ele>162.0</ele><time>2026-04-06T16:46:36.77Z</time></trkpt><trkpt lat="44.8137216" lon="1.1446473"><ele>162.0</ele><time>2026-04-06T16:46:37.766Z</time></trkpt><trkpt lat="44.8136629" lon="1.1447263"><ele>162.0</ele><time>2026-04-06T16:46:38.78Z</time></trkpt><trkpt lat="44.8135897" lon="1.1447537"><ele>162.0</ele><time>2026-04-06T16:46:39.764Z</time></trkpt><trkpt lat="44.8135041" lon="1.1447625"><ele>162.0</ele><time>2026-04-06T16:46:40.762Z</time></trkpt><trkpt lat="44.8134127" lon="1.1447993"><ele>162.0</ele><time>2026-04-06T16:46:41.761Z</time></trkpt><trkpt lat="44.8133285" lon="1.1448802"><ele>157.25</ele><time>2026-04-06T16:46:42.772Z</time></trkpt><trkpt lat="44.8132412" lon="1.1449667"><ele>152.5</ele><time>2026-04-06T16:46:43.765Z</time></trkpt><trkpt lat="44.813189" lon="1.1451282"><ele>147.75</ele><time>2026-04-06T16:46:44.791Z</time></trkpt><trkpt lat="44.8131485" lon="1.1453032"><ele>143.0</ele><time>2026-04-06T16:46:45.768Z</time></trkpt><trkpt lat="44.8131056" lon="1.1454819"><ele>143.0</ele><time>2026-04-06T16:46:46.763Z</time></trkpt><trkpt lat="44.8130629" lon="1.1456658"><ele>143.0</ele><time>2026-04-06T16:46:47.763Z</time></trkpt><trkpt lat="44.8130231" lon="1.1458533"><ele>143.0</ele><time>2026-04-06T16:46:48.771Z</time></trkpt><trkpt lat="44.8130009" lon="1.1460424"><ele>143.0</ele><time>2026-04-06T16:46:49.765Z</time></trkpt><trkpt lat="44.8129964" lon="1.1462398"><ele>140.5</ele><time>2026-04-06T16:46:50.778Z</time></trkpt><trkpt lat="44.8129919" lon="1.1464402"><ele>138.0</ele><time>2026-04-06T16:46:51.764Z</time></trkpt><trkpt lat="44.8129834" lon="1.1466408"><ele>135.5</ele><time>2026-04-06T16:46:52.78Z</time></trkpt><trkpt lat="44.8129862" lon="1.1468382"><ele>133.0</ele><time>2026-04-06T16:46:53.77Z</time></trkpt><trkpt lat="44.8129959" lon="1.1470336"><ele>130.5</ele><time>2026-04-06T16:46:54.769Z</time></trkpt><trkpt lat="44.8130029" lon="1.147225"><ele>128.0</ele><time>2026-04-06T16:46:55.77Z</time></trkpt><trkpt lat="44.8130002" lon="1.1474129"><ele>125.5</ele><time>2026-04-06T16:46:56.782Z</time></trkpt><trkpt lat="44.8129935" lon="1.1475978"><ele>123.0</ele><time>2026-04-06T16:46:57.765Z</time></trkpt><trkpt lat="44.8129928" lon="1.1477791"><ele>121.5</ele><time>2026-04-06T16:46:58.79Z</time></trkpt><trkpt lat="44.8129925" lon="1.1479662"><ele>120.0</ele><time>2026-04-06T16:46:59.763Z</time></trkpt><trkpt lat="44.8130331" lon="1.1481351"><ele>118.5</ele><time>2026-04-06T16:47:00.771Z</time></trkpt><trkpt lat="44.813094" lon="1.148265"><ele>117.0</ele><time>2026-04-06T16:47:01.762Z</time></trkpt><trkpt lat="44.8131618" lon="1.1483972"><ele>114.75</ele><time>2026-04-06T16:47:02.765Z</time></trkpt><trkpt lat="44.8132194" lon="1.1485411"><ele>112.5</ele><time>2026-04-06T16:47:03.761Z</time></trkpt><trkpt lat="44.8132733" lon="1.1486753"><ele>110.25</ele><time>2026-04-06T16:47:04.773Z</time></trkpt><trkpt lat="44.8132995" lon="1.1488291"><ele>108.0</ele><time>2026-04-06T16:47:05.766Z</time></trkpt><trkpt lat="44.8132911" lon="1.1489944"><ele>108.5</ele><time>2026-04-06T16:47:06.761Z</time></trkpt><trkpt lat="44.8132802" lon="1.1491556"><ele>109.0</ele><time>2026-04-06T16:47:07.764Z</time></trkpt><trkpt lat="44.8132749" lon="1.149314"><ele>109.5</ele><time>2026-04-06T16:47:08.77Z</time></trkpt><trkpt lat="44.8132985" lon="1.1494773"><ele>110.0</ele><time>2026-04-06T16:47:09.781Z</time></trkpt><trkpt lat="44.8133223" lon="1.149636"><ele>110.0</ele><time>2026-04-06T16:47:10.767Z</time></trkpt><trkpt lat="44.8133533" lon="1.1497906"><ele>110.0</ele><time>2026-04-06T16:47:11.766Z</time></trkpt><trkpt lat="44.8133813" lon="1.1499448"><ele>110.0</ele><time>2026-04-06T16:47:12.759Z</time></trkpt><trkpt lat="44.8134079" lon="1.1501036"><ele>110.0</ele><time>2026-04-06T16:47:13.757Z</time></trkpt><trkpt lat="44.8134269" lon="1.1502567"><ele>109.4</ele><time>2026-04-06T16:47:14.769Z</time></trkpt><trkpt lat="44.8134367" lon="1.1504133"><ele>108.8</ele><time>2026-04-06T16:47:15.77Z</time></trkpt><trkpt lat="44.8134355" lon="1.1505621"><ele>108.19999999999999</ele><time>2026-04-06T16:47:16.759Z</time></trkpt><trkpt lat="44.8134263" lon="1.1507069"><ele>107.6</ele><time>2026-04-06T16:47:17.779Z</time></trkpt><trkpt lat="44.8134075" lon="1.1508415"><ele>107.0</ele><time>2026-04-06T16:47:18.764Z</time></trkpt><trkpt lat="44.8133868" lon="1.1509529"><ele>104.99999999999999</ele><time>2026-04-06T16:47:19.777Z</time></trkpt><trkpt lat="44.8133628" lon="1.1510432"><ele>103.0</ele><time>2026-04-06T16:47:20.773Z</time></trkpt><trkpt lat="44.8132961" lon="1.1511828"><ele>101.0</ele><time>2026-04-06T16:47:22.781Z</time></trkpt><trkpt lat="44.8132495" lon="1.1512487"><ele>99.0</ele><time>2026-04-06T16:47:23.771Z</time></trkpt><trkpt lat="44.8131953" lon="1.1513125"><ele>97.0</ele><time>2026-04-06T16:47:24.763Z</time></trkpt><trkpt lat="44.813136" lon="1.1513772"><ele>95.0</ele><time>2026-04-06T16:47:25.78Z</time></trkpt><trkpt lat="44.8130608" lon="1.1514426"><ele>95.0</ele><time>2026-04-06T16:47:26.775Z</time></trkpt><trkpt lat="44.8129761" lon="1.151508"><ele>95.0</ele><time>2026-04-06T16:47:27.788Z</time></trkpt><trkpt lat="44.8128927" lon="1.1515726"><ele>95.0</ele><time>2026-04-06T16:47:28.759Z</time></trkpt><trkpt lat="44.8128158" lon="1.1516328"><ele>95.0</ele><time>2026-04-06T16:47:29.766Z</time></trkpt><trkpt lat="44.8127463" lon="1.1516891"><ele>95.0</ele><time>2026-04-06T16:47:30.765Z</time></trkpt><trkpt lat="44.8126876" lon="1.1517453"><ele>95.0</ele><time>2026-04-06T16:47:31.776Z</time></trkpt><trkpt lat="44.8126408" lon="1.1518748"><ele>94.6</ele><time>2026-04-06T16:47:33.766Z</time></trkpt><trkpt lat="44.8126264" lon="1.1519759"><ele>94.2</ele><time>2026-04-06T16:47:39.781Z</time></trkpt><trkpt lat="44.8125397" lon="1.152065"><ele>93.80000000000001</ele><time>2026-04-06T16:47:42.758Z</time></trkpt><trkpt lat="44.8124122" lon="1.1521168"><ele>93.4</ele><time>2026-04-06T16:47:44.76Z</time></trkpt><trkpt lat="44.8123351" lon="1.1521561"><ele>93.0</ele><time>2026-04-06T16:47:45.775Z</time></trkpt><trkpt lat="44.8122546" lon="1.1521995"><ele>93.0</ele><time>2026-04-06T16:47:46.769Z</time></trkpt><trkpt lat="44.8121742" lon="1.1522439"><ele>93.0</ele><time>2026-04-06T16:47:47.764Z</time></trkpt><trkpt lat="44.8120877" lon="1.1522946"><ele>93.0</ele><time>2026-04-06T16:47:48.758Z</time></trkpt><trkpt lat="44.8119877" lon="1.1523534"><ele>93.0</ele><time>2026-04-06T16:47:49.768Z</time></trkpt><trkpt lat="44.8118701" lon="1.1524223"><ele>93.0</ele><time>2026-04-06T16:47:50.763Z</time></trkpt><trkpt lat="44.8117564" lon="1.1524893"><ele>90.80000000000001</ele><time>2026-04-06T16:47:51.767Z</time></trkpt><trkpt lat="44.811647" lon="1.1525495"><ele>88.6</ele><time>2026-04-06T16:47:52.764Z</time></trkpt><trkpt lat="44.8115439" lon="1.1526054"><ele>86.4</ele><time>2026-04-06T16:47:53.765Z</time></trkpt><trkpt lat="44.8114494" lon="1.1526565"><ele>84.19999999999999</ele><time>2026-04-06T16:47:54.774Z</time></trkpt><trkpt lat="44.8113595" lon="1.152705"><ele>82.0</ele><time>2026-04-06T16:47:55.767Z</time></trkpt><trkpt lat="44.8112714" lon="1.1527533"><ele>82.0</ele><time>2026-04-06T16:47:56.79Z</time></trkpt><trkpt lat="44.8111892" lon="1.1527992"><ele>82.0</ele><time>2026-04-06T16:47:57.776Z</time></trkpt><trkpt lat="44.8111114" lon="1.1528434"><ele>82.0</ele><time>2026-04-06T16:47:58.777Z</time></trkpt><trkpt lat="44.8110286" lon="1.1528908"><ele>82.0</ele><time>2026-04-06T16:47:59.765Z</time></trkpt><trkpt lat="44.8109357" lon="1.1529415"><ele>82.0</ele><time>2026-04-06T16:48:00.769Z</time></trkpt><trkpt lat="44.8108362" lon="1.152998"><ele>80.0</ele><time>2026-04-06T16:48:01.764Z</time></trkpt><trkpt lat="44.8107296" lon="1.1530577"><ele>78.0</ele><time>2026-04-06T16:48:02.759Z</time></trkpt><trkpt lat="44.810622" lon="1.1531148"><ele>76.0</ele><time>2026-04-06T16:48:03.758Z</time></trkpt><trkpt lat="44.810513" lon="1.1531707"><ele>74.0</ele><time>2026-04-06T16:48:04.763Z</time></trkpt><trkpt lat="44.8104061" lon="1.1532256"><ele>74.0</ele><time>2026-04-06T16:48:05.761Z</time></trkpt><trkpt lat="44.8103072" lon="1.1532783"><ele>74.0</ele><time>2026-04-06T16:48:06.764Z</time></trkpt><trkpt lat="44.8102146" lon="1.1533254"><ele>74.0</ele><time>2026-04-06T16:48:07.78Z</time></trkpt><trkpt lat="44.8101268" lon="1.1533682"><ele>74.0</ele><time>2026-04-06T16:48:08.766Z</time></trkpt><trkpt lat="44.8100444" lon="1.1534061"><ele>74.0</ele><time>2026-04-06T16:48:09.78Z</time></trkpt><trkpt lat="44.8099667" lon="1.153441"><ele>75.28571428571429</ele><time>2026-04-06T16:48:10.757Z</time></trkpt><trkpt lat="44.809894" lon="1.1534777"><ele>76.57142857142857</ele><time>2026-04-06T16:48:11.769Z</time></trkpt><trkpt lat="44.8098356" lon="1.1535303"><ele>77.85714285714286</ele><time>2026-04-06T16:48:12.765Z</time></trkpt><trkpt lat="44.8097807" lon="1.153579"><ele>79.14285714285714</ele><time>2026-04-06T16:48:13.76Z</time></trkpt><trkpt lat="44.8097234" lon="1.1536163"><ele>80.42857142857143</ele><time>2026-04-06T16:48:14.767Z</time></trkpt><trkpt lat="44.8096607" lon="1.153645"><ele>81.71428571428571</ele><time>2026-04-06T16:48:15.767Z</time></trkpt><trkpt lat="44.8095915" lon="1.1536761"><ele>83.0</ele><time>2026-04-06T16:48:16.779Z</time></trkpt><trkpt lat="44.8095193" lon="1.1537189"><ele>83.0</ele><time>2026-04-06T16:48:17.783Z</time></trkpt><trkpt lat="44.8094467" lon="1.153762"><ele>83.0</ele><time>2026-04-06T16:48:18.771Z</time></trkpt><trkpt lat="44.8093671" lon="1.1538093"><ele>83.0</ele><time>2026-04-06T16:48:19.768Z</time></trkpt><trkpt lat="44.8092881" lon="1.153856"><ele>83.0</ele><time>2026-04-06T16:48:20.773Z</time></trkpt><trkpt lat="44.8092094" lon="1.153904"><ele>83.0</ele><time>2026-04-06T16:48:21.764Z</time></trkpt><trkpt lat="44.8091335" lon="1.1539528"><ele>83.0</ele><time>2026-04-06T16:48:22.762Z</time></trkpt><trkpt lat="44.809059" lon="1.1540012"><ele>81.71428571428571</ele><time>2026-04-06T16:48:23.776Z</time></trkpt><trkpt lat="44.8089848" lon="1.1540494"><ele>80.42857142857143</ele><time>2026-04-06T16:48:24.763Z</time></trkpt><trkpt lat="44.8089105" lon="1.1540937"><ele>79.14285714285714</ele><time>2026-04-06T16:48:25.768Z</time></trkpt><trkpt lat="44.8088386" lon="1.1541346"><ele>77.85714285714286</ele><time>2026-04-06T16:48:26.776Z</time></trkpt><trkpt lat="44.8087704" lon="1.1541713"><ele>76.57142857142857</ele><time>2026-04-06T16:48:27.762Z</time></trkpt><trkpt lat="44.8087069" lon="1.1542058"><ele>75.28571428571429</ele><time>2026-04-06T16:48:28.776Z</time></trkpt><trkpt lat="44.8086456" lon="1.1542397"><ele>74.0</ele><time>2026-04-06T16:48:29.767Z</time></trkpt><trkpt lat="44.8085417" lon="1.1543066"><ele>74.0</ele><time>2026-04-06T16:48:31.776Z</time></trkpt><trkpt lat="44.8084739" lon="1.1543822"><ele>74.0</ele><time>2026-04-06T16:48:33.766Z</time></trkpt><trkpt lat="44.8084861" lon="1.154493"><ele>74.0</ele><time>2026-04-06T16:48:35.774Z</time></trkpt><trkpt lat="44.8085104" lon="1.1546067"><ele>74.0</ele><time>2026-04-06T16:48:37.765Z</time></trkpt><trkpt lat="44.8085259" lon="1.1547344"><ele>74.0</ele><time>2026-04-06T16:48:39.764Z</time></trkpt><trkpt lat="44.8084613" lon="1.1548821"><ele>74.16666666666667</ele><time>2026-04-06T16:48:41.762Z</time></trkpt><trkpt lat="44.808418" lon="1.1549689"><ele>74.33333333333334</ele><time>2026-04-06T16:48:42.764Z</time></trkpt><trkpt lat="44.8083735" lon="1.1550626"><ele>74.5</ele><time>2026-04-06T16:48:43.764Z</time></trkpt><trkpt lat="44.8083278" lon="1.1551596"><ele>74.66666666666667</ele><time>2026-04-06T16:48:44.781Z</time></trkpt><trkpt lat="44.8082807" lon="1.1552647"><ele>74.83333333333333</ele><time>2026-04-06T16:48:45.766Z</time></trkpt><trkpt lat="44.8082344" lon="1.1553633"><ele>75.0</ele><time>2026-04-06T16:48:46.773Z</time></trkpt><trkpt lat="44.8081871" lon="1.1554627"><ele>75.0</ele><time>2026-04-06T16:48:47.757Z</time></trkpt><trkpt lat="44.8081408" lon="1.155562"><ele>75.0</ele><time>2026-04-06T16:48:48.782Z</time></trkpt><trkpt lat="44.808095" lon="1.1556572"><ele>75.0</ele><time>2026-04-06T16:48:49.761Z</time></trkpt><trkpt lat="44.8080496" lon="1.1557533"><ele>75.0</ele><time>2026-04-06T16:48:50.773Z</time></trkpt><trkpt lat="44.8080032" lon="1.1558509"><ele>75.0</ele><time>2026-04-06T16:48:51.763Z</time></trkpt><trkpt lat="44.8079571" lon="1.1559447"><ele>75.0</ele><time>2026-04-06T16:48:52.771Z</time></trkpt><trkpt lat="44.8079114" lon="1.1560379"><ele>74.28571428571428</ele><time>2026-04-06T16:48:53.769Z</time></trkpt><trkpt lat="44.8078648" lon="1.1561287"><ele>73.57142857142857</ele><time>2026-04-06T16:48:54.763Z</time></trkpt><trkpt lat="44.8078169" lon="1.156217"><ele>72.85714285714286</ele><time>2026-04-06T16:48:55.769Z</time></trkpt><trkpt lat="44.8077707" lon="1.1563036"><ele>72.14285714285714</ele><time>2026-04-06T16:48:56.784Z</time></trkpt><trkpt lat="44.8077267" lon="1.1563858"><ele>71.42857142857143</ele><time>2026-04-06T16:48:57.763Z</time></trkpt><trkpt lat="44.8076857" lon="1.1564621"><ele>70.71428571428571</ele><time>2026-04-06T16:48:58.771Z</time></trkpt><trkpt lat="44.8076476" lon="1.1565343"><ele>70.0</ele><time>2026-04-06T16:48:59.768Z</time></trkpt><trkpt lat="44.8075807" lon="1.1566649"><ele>69.8</ele><time>2026-04-06T16:49:01.773Z</time></trkpt><trkpt lat="44.8075212" lon="1.1567802"><ele>69.6</ele><time>2026-04-06T16:49:03.789Z</time></trkpt><trkpt lat="44.8074623" lon="1.1568975"><ele>69.4</ele><time>2026-04-06T16:49:05.769Z</time></trkpt><trkpt lat="44.807394" lon="1.1570121"><ele>69.2</ele><time>2026-04-06T16:49:07.775Z</time></trkpt><trkpt lat="44.8073688" lon="1.157156"><ele>69.0</ele><time>2026-04-06T16:49:09.77Z</time></trkpt><trkpt lat="44.8074082" lon="1.1572714"><ele>70.0</ele><time>2026-04-06T16:49:11.767Z</time></trkpt><trkpt lat="44.8074659" lon="1.1573794"><ele>71.0</ele><time>2026-04-06T16:49:14.768Z</time></trkpt><trkpt lat="44.8075157" lon="1.1575039"><ele>72.0</ele><time>2026-04-06T16:49:16.763Z</time></trkpt><trkpt lat="44.8075653" lon="1.1576444"><ele>73.0</ele><time>2026-04-06T16:49:18.774Z</time></trkpt><trkpt lat="44.8076045" lon="1.1577282"><ele>74.0</ele><time>2026-04-06T16:49:20.757Z</time></trkpt><trkpt lat="44.807678" lon="1.1577956"><ele>76.4</ele><time>2026-04-06T16:49:22.767Z</time></trkpt><trkpt lat="44.8077402" lon="1.1577805"><ele>78.80000000000001</ele><time>2026-04-06T16:49:23.76Z</time></trkpt><trkpt lat="44.8078254" lon="1.1576981"><ele>81.19999999999999</ele><time>2026-04-06T16:49:24.772Z</time></trkpt><trkpt lat="44.8079284" lon="1.1576033"><ele>83.6</ele><time>2026-04-06T16:49:25.765Z</time></trkpt><trkpt lat="44.8080463" lon="1.1574997"><ele>86.0</ele><time>2026-04-06T16:49:26.77Z</time></trkpt><trkpt lat="44.8081902" lon="1.1573903"><ele>84.0</ele><time>2026-04-06T16:49:27.764Z</time></trkpt><trkpt lat="44.8083463" lon="1.1572783"><ele>82.0</ele><time>2026-04-06T16:49:28.774Z</time></trkpt><trkpt lat="44.8085081" lon="1.1571681"><ele>80.0</ele><time>2026-04-06T16:49:29.756Z</time></trkpt><trkpt lat="44.8086657" lon="1.1570612"><ele>80.0</ele><time>2026-04-06T16:49:30.763Z</time></trkpt><trkpt lat="44.8088299" lon="1.1569478"><ele>80.0</ele><time>2026-04-06T16:49:31.765Z</time></trkpt><trkpt lat="44.8089981" lon="1.1568289"><ele>80.0</ele><time>2026-04-06T16:49:32.765Z</time></trkpt><trkpt lat="44.8091569" lon="1.1567279"><ele>80.0</ele><time>2026-04-06T16:49:33.771Z</time></trkpt><trkpt lat="44.8092984" lon="1.1566585"><ele>80.0</ele><time>2026-04-06T16:49:34.78Z</time></trkpt><trkpt lat="44.8094202" lon="1.1565911"><ele>80.0</ele><time>2026-04-06T16:49:35.761Z</time></trkpt><trkpt lat="44.8095299" lon="1.1565247"><ele>80.0</ele><time>2026-04-06T16:49:36.771Z</time></trkpt><trkpt lat="44.8096517" lon="1.1564886"><ele>77.33333333333334</ele><time>2026-04-06T16:49:37.774Z</time></trkpt><trkpt lat="44.8098073" lon="1.1564552"><ele>74.66666666666667</ele><time>2026-04-06T16:49:38.768Z</time></trkpt><trkpt lat="44.8099651" lon="1.1564351"><ele>72.0</ele><time>2026-04-06T16:49:39.759Z</time></trkpt><trkpt lat="44.8101347" lon="1.1564389"><ele>72.0</ele><time>2026-04-06T16:49:40.763Z</time></trkpt><trkpt lat="44.8103107" lon="1.1564521"><ele>72.0</ele><time>2026-04-06T16:49:41.781Z</time></trkpt><trkpt lat="44.8105003" lon="1.1564506"><ele>72.0</ele><time>2026-04-06T16:49:42.771Z</time></trkpt><trkpt lat="44.810696" lon="1.1564435"><ele>72.0</ele><time>2026-04-06T16:49:43.799Z</time></trkpt><trkpt lat="44.8108691" lon="1.1564318"><ele>72.0</ele><time>2026-04-06T16:49:44.767Z</time></trkpt><trkpt lat="44.8110029" lon="1.1564188"><ele>72.0</ele><time>2026-04-06T16:49:45.763Z</time></trkpt><trkpt lat="44.8111184" lon="1.1564153"><ele>72.0</ele><time>2026-04-06T16:49:46.768Z</time></trkpt><trkpt lat="44.8112543" lon="1.1564199"><ele>72.0</ele><time>2026-04-06T16:49:47.763Z</time></trkpt><trkpt lat="44.8114153" lon="1.1564438"><ele>72.0</ele><time>2026-04-06T16:49:48.796Z</time></trkpt><trkpt lat="44.8115803" lon="1.1564783"><ele>72.0</ele><time>2026-04-06T16:49:49.76Z</time></trkpt><trkpt lat="44.8117163" lon="1.1565107"><ele>75.0</ele><time>2026-04-06T16:49:50.78Z</time></trkpt><trkpt lat="44.8118374" lon="1.1565379"><ele>78.0</ele><time>2026-04-06T16:49:51.765Z</time></trkpt><trkpt lat="44.8119527" lon="1.1565752"><ele>81.0</ele><time>2026-04-06T16:49:52.768Z</time></trkpt><trkpt lat="44.8120616" lon="1.1566152"><ele>84.0</ele><time>2026-04-06T16:49:53.769Z</time></trkpt><trkpt lat="44.812166" lon="1.1566582"><ele>84.0</ele><time>2026-04-06T16:49:54.776Z</time></trkpt><trkpt lat="44.8122788" lon="1.1567046"><ele>84.0</ele><time>2026-04-06T16:49:55.772Z</time></trkpt><trkpt lat="44.8123819" lon="1.1567464"><ele>84.0</ele><time>2026-04-06T16:49:56.8Z</time></trkpt><trkpt lat="44.8124822" lon="1.1567901"><ele>84.0</ele><time>2026-04-06T16:49:57.768Z</time></trkpt><trkpt lat="44.8125806" lon="1.1568235"><ele>84.0</ele><time>2026-04-06T16:49:58.765Z</time></trkpt><trkpt lat="44.8126725" lon="1.1568534"><ele>83.5</ele><time>2026-04-06T16:49:59.772Z</time></trkpt><trkpt lat="44.8127609" lon="1.1568819"><ele>83.0</ele><time>2026-04-06T16:50:00.765Z</time></trkpt><trkpt lat="44.8128507" lon="1.1569156"><ele>82.5</ele><time>2026-04-06T16:50:01.769Z</time></trkpt><trkpt lat="44.8129371" lon="1.1569549"><ele>82.0</ele><time>2026-04-06T16:50:02.769Z</time></trkpt><trkpt lat="44.813016" lon="1.1569826"><ele>81.5</ele><time>2026-04-06T16:50:03.765Z</time></trkpt><trkpt lat="44.8130953" lon="1.1570114"><ele>81.0</ele><time>2026-04-06T16:50:04.782Z</time></trkpt><trkpt lat="44.813179" lon="1.1570199"><ele>81.0</ele><time>2026-04-06T16:50:05.76Z</time></trkpt><trkpt lat="44.813256" lon="1.1570201"><ele>81.0</ele><time>2026-04-06T16:50:06.764Z</time></trkpt><trkpt lat="44.8133204" lon="1.1570221"><ele>81.0</ele><time>2026-04-06T16:50:07.768Z</time></trkpt><trkpt lat="44.8134391" lon="1.1570331"><ele>81.0</ele><time>2026-04-06T16:50:09.769Z</time></trkpt><trkpt lat="44.8135423" lon="1.1570542"><ele>81.0</ele><time>2026-04-06T16:50:11.763Z</time></trkpt><trkpt lat="44.8136488" lon="1.1570952"><ele>82.5</ele><time>2026-04-06T16:50:13.77Z</time></trkpt><trkpt lat="44.8137497" lon="1.1571783"><ele>84.0</ele><time>2026-04-06T16:50:15.786Z</time></trkpt><trkpt lat="44.8138341" lon="1.1572817"><ele>85.5</ele><time>2026-04-06T16:50:17.77Z</time></trkpt><trkpt lat="44.8138985" lon="1.1574087"><ele>87.0</ele><time>2026-04-06T16:50:19.784Z</time></trkpt><trkpt lat="44.813945" lon="1.1575695"><ele>87.0</ele><time>2026-04-06T16:50:21.773Z</time></trkpt><trkpt lat="44.8139647" lon="1.157658"><ele>87.0</ele><time>2026-04-06T16:50:22.785Z</time></trkpt><trkpt lat="44.8139824" lon="1.157756"><ele>87.0</ele><time>2026-04-06T16:50:23.766Z</time></trkpt><trkpt lat="44.8139923" lon="1.1578553"><ele>87.0</ele><time>2026-04-06T16:50:24.776Z</time></trkpt><trkpt lat="44.8140039" lon="1.1579605"><ele>87.0</ele><time>2026-04-06T16:50:25.78Z</time></trkpt><trkpt lat="44.8140123" lon="1.158076"><ele>87.0</ele><time>2026-04-06T16:50:26.762Z</time></trkpt><trkpt lat="44.8140172" lon="1.158199"><ele>90.19999999999999</ele><time>2026-04-06T16:50:27.785Z</time></trkpt><trkpt lat="44.8140191" lon="1.1583243"><ele>93.4</ele><time>2026-04-06T16:50:28.764Z</time></trkpt><trkpt lat="44.8140146" lon="1.1584468"><ele>96.6</ele><time>2026-04-06T16:50:29.771Z</time></trkpt><trkpt lat="44.8140083" lon="1.1585675"><ele>99.80000000000001</ele><time>2026-04-06T16:50:30.765Z</time></trkpt><trkpt lat="44.8140027" lon="1.1587146"><ele>103.0</ele><time>2026-04-06T16:50:31.776Z</time></trkpt><trkpt lat="44.8139991" lon="1.1588453"><ele>103.0</ele><time>2026-04-06T16:50:32.761Z</time></trkpt><trkpt lat="44.8139885" lon="1.1589479"><ele>103.0</ele><time>2026-04-06T16:50:33.771Z</time></trkpt><trkpt lat="44.8139842" lon="1.1591256"><ele>103.0</ele><time>2026-04-06T16:50:35.769Z</time></trkpt><trkpt lat="44.813978" lon="1.1592401"><ele>103.0</ele><time>2026-04-06T16:50:36.769Z</time></trkpt><trkpt lat="44.8139644" lon="1.1593521"><ele>103.0</ele><time>2026-04-06T16:50:37.761Z</time></trkpt><trkpt lat="44.8139458" lon="1.1594796"><ele>104.33333333333334</ele><time>2026-04-06T16:50:38.773Z</time></trkpt><trkpt lat="44.8139252" lon="1.1596039"><ele>105.66666666666667</ele><time>2026-04-06T16:50:39.773Z</time></trkpt><trkpt lat="44.8139122" lon="1.15973"><ele>107.0</ele><time>2026-04-06T16:50:40.768Z</time></trkpt><trkpt lat="44.8139051" lon="1.159845"><ele>108.33333333333334</ele><time>2026-04-06T16:50:41.76Z</time></trkpt><trkpt lat="44.8138974" lon="1.1599496"><ele>109.66666666666667</ele><time>2026-04-06T16:50:42.763Z</time></trkpt><trkpt lat="44.8138895" lon="1.160059"><ele>111.0</ele><time>2026-04-06T16:50:43.769Z</time></trkpt><trkpt lat="44.8138854" lon="1.1601644"><ele>111.66666666666667</ele><time>2026-04-06T16:50:44.769Z</time></trkpt><trkpt lat="44.8138779" lon="1.1602819"><ele>112.33333333333334</ele><time>2026-04-06T16:50:45.776Z</time></trkpt><trkpt lat="44.813876" lon="1.1603952"><ele>113.0</ele><time>2026-04-06T16:50:46.758Z</time></trkpt><trkpt lat="44.8138716" lon="1.160505"><ele>113.66666666666667</ele><time>2026-04-06T16:50:47.767Z</time></trkpt><trkpt lat="44.8138632" lon="1.160611"><ele>114.33333333333334</ele><time>2026-04-06T16:50:48.77Z</time></trkpt><trkpt lat="44.8138652" lon="1.160707"><ele>115.0</ele><time>2026-04-06T16:50:49.764Z</time></trkpt><trkpt lat="44.8138773" lon="1.1608093"><ele>115.00000000000001</ele><time>2026-04-06T16:50:50.772Z</time></trkpt><trkpt lat="44.8138673" lon="1.1609149"><ele>115.0</ele><time>2026-04-06T16:50:51.763Z</time></trkpt><trkpt lat="44.8138698" lon="1.16101"><ele>115.0</ele><time>2026-04-06T16:50:52.77Z</time></trkpt><trkpt lat="44.813869" lon="1.161143"><ele>115.0</ele><time>2026-04-06T16:50:54.774Z</time></trkpt><trkpt lat="44.8138208" lon="1.1612949"><ele>115.00000000000001</ele><time>2026-04-06T16:50:56.784Z</time></trkpt><trkpt lat="44.8137733" lon="1.161398"><ele>115.0</ele><time>2026-04-06T16:50:58.774Z</time></trkpt><trkpt lat="44.8137465" lon="1.1615405"><ele>116.75</ele><time>2026-04-06T16:51:00.775Z</time></trkpt><trkpt lat="44.8137725" lon="1.1617069"><ele>118.5</ele><time>2026-04-06T16:51:02.769Z</time></trkpt><trkpt lat="44.8138519" lon="1.1618581"><ele>120.25</ele><time>2026-04-06T16:51:04.78Z</time></trkpt><trkpt lat="44.8138944" lon="1.1619943"><ele>122.0</ele><time>2026-04-06T16:51:05.771Z</time></trkpt><trkpt lat="44.8139351" lon="1.1621571"><ele>122.0</ele><time>2026-04-06T16:51:06.768Z</time></trkpt><trkpt lat="44.8139868" lon="1.1623541"><ele>122.0</ele><time>2026-04-06T16:51:07.769Z</time></trkpt><trkpt lat="44.8140262" lon="1.1625218"><ele>122.0</ele><time>2026-04-06T16:51:08.768Z</time></trkpt><trkpt lat="44.814063" lon="1.1626727"><ele>122.0</ele><time>2026-04-06T16:51:09.761Z</time></trkpt><trkpt lat="44.8140977" lon="1.1628256"><ele>124.0</ele><time>2026-04-06T16:51:10.763Z</time></trkpt><trkpt lat="44.814137" lon="1.1629583"><ele>125.99999999999999</ele><time>2026-04-06T16:51:11.778Z</time></trkpt><trkpt lat="44.8141805" lon="1.1630999"><ele>127.99999999999999</ele><time>2026-04-06T16:51:12.763Z</time></trkpt><trkpt lat="44.8142247" lon="1.1632246"><ele>130.0</ele><time>2026-04-06T16:51:13.778Z</time></trkpt><trkpt lat="44.8142627" lon="1.1633519"><ele>132.0</ele><time>2026-04-06T16:51:14.773Z</time></trkpt><trkpt lat="44.8143018" lon="1.1634885"><ele>126.39999999999999</ele><time>2026-04-06T16:51:15.769Z</time></trkpt><trkpt lat="44.8143255" lon="1.1636017"><ele>120.79999999999998</ele><time>2026-04-06T16:51:16.776Z</time></trkpt><trkpt lat="44.8143484" lon="1.1637133"><ele>115.2</ele><time>2026-04-06T16:51:17.775Z</time></trkpt><trkpt lat="44.8143868" lon="1.1638247"><ele>109.6</ele><time>2026-04-06T16:51:18.762Z</time></trkpt><trkpt lat="44.8144351" lon="1.1639459"><ele>104.0</ele><time>2026-04-06T16:51:19.768Z</time></trkpt><trkpt lat="44.8144821" lon="1.1640682"><ele>103.99999999999999</ele><time>2026-04-06T16:51:20.762Z</time></trkpt><trkpt lat="44.8145178" lon="1.1642"><ele>104.0</ele><time>2026-04-06T16:51:21.766Z</time></trkpt><trkpt lat="44.8145537" lon="1.1643144"><ele>104.0</ele><time>2026-04-06T16:51:22.767Z</time></trkpt><trkpt lat="44.8145863" lon="1.1644187"><ele>104.0</ele><time>2026-04-06T16:51:23.768Z</time></trkpt><trkpt lat="44.8146214" lon="1.1645211"><ele>103.99999999999999</ele><time>2026-04-06T16:51:24.774Z</time></trkpt><trkpt lat="44.8146597" lon="1.1646402"><ele>104.0</ele><time>2026-04-06T16:51:25.766Z</time></trkpt><trkpt lat="44.8146923" lon="1.1647646"><ele>106.83333333333333</ele><time>2026-04-06T16:51:26.773Z</time></trkpt><trkpt lat="44.8147243" lon="1.1648866"><ele>109.66666666666666</ele><time>2026-04-06T16:51:27.786Z</time></trkpt><trkpt lat="44.8147529" lon="1.1650066"><ele>112.5</ele><time>2026-04-06T16:51:28.776Z</time></trkpt><trkpt lat="44.8147858" lon="1.1651107"><ele>115.33333333333334</ele><time>2026-04-06T16:51:29.763Z</time></trkpt><trkpt lat="44.8148222" lon="1.1652009"><ele>118.16666666666667</ele><time>2026-04-06T16:51:30.773Z</time></trkpt><trkpt lat="44.8148549" lon="1.1652909"><ele>121.0</ele><time>2026-04-06T16:51:31.762Z</time></trkpt><trkpt lat="44.8148857" lon="1.1653973"><ele>121.0</ele><time>2026-04-06T16:51:32.774Z</time></trkpt><trkpt lat="44.8149118" lon="1.1655353"><ele>121.0</ele><time>2026-04-06T16:51:33.767Z</time></trkpt><trkpt lat="44.814944" lon="1.1657139"><ele>121.0</ele><time>2026-04-06T16:51:34.771Z</time></trkpt><trkpt lat="44.8150056" lon="1.1658772"><ele>121.0</ele><time>2026-04-06T16:51:35.766Z</time></trkpt><trkpt lat="44.8150526" lon="1.16602"><ele>119.19999999999999</ele><time>2026-04-06T16:51:36.765Z</time></trkpt><trkpt lat="44.8151078" lon="1.1661494"><ele>117.39999999999999</ele><time>2026-04-06T16:51:37.771Z</time></trkpt><trkpt lat="44.8151546" lon="1.1662577"><ele>115.6</ele><time>2026-04-06T16:51:38.772Z</time></trkpt><trkpt lat="44.815193" lon="1.1663323"><ele>113.8</ele><time>2026-04-06T16:51:39.769Z</time></trkpt><trkpt lat="44.8152452" lon="1.1664849"><ele>112.0</ele><time>2026-04-06T16:51:41.773Z</time></trkpt><trkpt lat="44.8152631" lon="1.1665868"><ele>112.00000000000001</ele><time>2026-04-06T16:51:42.763Z</time></trkpt><trkpt lat="44.815277" lon="1.1666862"><ele>112.0</ele><time>2026-04-06T16:51:43.775Z</time></trkpt><trkpt lat="44.8152909" lon="1.1667955"><ele>112.0</ele><time>2026-04-06T16:51:44.772Z</time></trkpt><trkpt lat="44.8153107" lon="1.1668906"><ele>112.0</ele><time>2026-04-06T16:51:45.791Z</time></trkpt><trkpt lat="44.8153305" lon="1.1669935"><ele>112.00000000000001</ele><time>2026-04-06T16:51:46.771Z</time></trkpt><trkpt lat="44.815411" lon="1.1670911"><ele>112.0</ele><time>2026-04-06T16:51:48.774Z</time></trkpt><trkpt lat="44.815529" lon="1.167148"><ele>112.0</ele><time>2026-04-06T16:51:50.777Z</time></trkpt><trkpt lat="44.8156521" lon="1.1671344"><ele>111.99999999999999</ele><time>2026-04-06T16:51:52.765Z</time></trkpt><trkpt lat="44.8157398" lon="1.1671219"><ele>111.99999999999999</ele><time>2026-04-06T16:51:54.771Z</time></trkpt><trkpt lat="44.8158254" lon="1.1671208"><ele>112.0</ele><time>2026-04-06T16:51:56.776Z</time></trkpt><trkpt lat="44.8159401" lon="1.1671686"><ele>112.0</ele><time>2026-04-06T16:51:58.766Z</time></trkpt><trkpt lat="44.8160369" lon="1.1672456"><ele>110.6</ele><time>2026-04-06T16:52:00.775Z</time></trkpt><trkpt lat="44.8161014" lon="1.1673183"><ele>109.19999999999999</ele><time>2026-04-06T16:52:01.791Z</time></trkpt><trkpt lat="44.8161675" lon="1.1673861"><ele>107.8</ele><time>2026-04-06T16:52:02.764Z</time></trkpt><trkpt lat="44.8162487" lon="1.1674671"><ele>106.4</ele><time>2026-04-06T16:52:03.788Z</time></trkpt><trkpt lat="44.8163322" lon="1.1675507"><ele>105.0</ele><time>2026-04-06T16:52:04.769Z</time></trkpt><trkpt lat="44.8164127" lon="1.1676406"><ele>105.0</ele><time>2026-04-06T16:52:05.759Z</time></trkpt><trkpt lat="44.8164825" lon="1.1677254"><ele>105.0</ele><time>2026-04-06T16:52:06.768Z</time></trkpt><trkpt lat="44.8165594" lon="1.1678253"><ele>105.0</ele><time>2026-04-06T16:52:07.764Z</time></trkpt><trkpt lat="44.8166352" lon="1.1679376"><ele>105.0</ele><time>2026-04-06T16:52:08.761Z</time></trkpt><trkpt lat="44.8167079" lon="1.1680639"><ele>105.0</ele><time>2026-04-06T16:52:09.772Z</time></trkpt><trkpt lat="44.8167796" lon="1.1681958"><ele>101.33333333333333</ele><time>2026-04-06T16:52:10.777Z</time></trkpt><trkpt lat="44.8168401" lon="1.1683218"><ele>97.66666666666667</ele><time>2026-04-06T16:52:11.767Z</time></trkpt><trkpt lat="44.8168804" lon="1.1684298"><ele>94.0</ele><time>2026-04-06T16:52:12.772Z</time></trkpt><trkpt lat="44.8169265" lon="1.1685332"><ele>90.33333333333334</ele><time>2026-04-06T16:52:13.774Z</time></trkpt><trkpt lat="44.8169693" lon="1.1686367"><ele>86.66666666666667</ele><time>2026-04-06T16:52:14.77Z</time></trkpt><trkpt lat="44.8170085" lon="1.1687339"><ele>83.0</ele><time>2026-04-06T16:52:15.761Z</time></trkpt><trkpt lat="44.8170451" lon="1.1688328"><ele>83.0</ele><time>2026-04-06T16:52:16.771Z</time></trkpt><trkpt lat="44.8170849" lon="1.1689413"><ele>83.0</ele><time>2026-04-06T16:52:17.766Z</time></trkpt><trkpt lat="44.8171235" lon="1.1690516"><ele>83.0</ele><time>2026-04-06T16:52:18.759Z</time></trkpt><trkpt lat="44.8171687" lon="1.1691786"><ele>83.0</ele><time>2026-04-06T16:52:19.774Z</time></trkpt><trkpt lat="44.817211" lon="1.1692981"><ele>83.0</ele><time>2026-04-06T16:52:20.774Z</time></trkpt><trkpt lat="44.8172527" lon="1.1694037"><ele>86.66666666666667</ele><time>2026-04-06T16:52:21.767Z</time></trkpt><trkpt lat="44.8172958" lon="1.1695106"><ele>90.33333333333334</ele><time>2026-04-06T16:52:22.781Z</time></trkpt><trkpt lat="44.8173368" lon="1.1696307"><ele>94.0</ele><time>2026-04-06T16:52:23.788Z</time></trkpt><trkpt lat="44.8173683" lon="1.1697507"><ele>97.66666666666667</ele><time>2026-04-06T16:52:24.773Z</time></trkpt><trkpt lat="44.8173975" lon="1.1698697"><ele>101.33333333333333</ele><time>2026-04-06T16:52:25.765Z</time></trkpt><trkpt lat="44.8174114" lon="1.1699907"><ele>105.0</ele><time>2026-04-06T16:52:26.768Z</time></trkpt><trkpt lat="44.817426" lon="1.1701196"><ele>107.0</ele><time>2026-04-06T16:52:27.774Z</time></trkpt><trkpt lat="44.8174468" lon="1.1702525"><ele>109.0</ele><time>2026-04-06T16:52:28.78Z</time></trkpt><trkpt lat="44.8174742" lon="1.1703697"><ele>111.0</ele><time>2026-04-06T16:52:29.77Z</time></trkpt><trkpt lat="44.8175018" lon="1.170483"><ele>113.0</ele><time>2026-04-06T16:52:30.775Z</time></trkpt><trkpt lat="44.8175248" lon="1.1705961"><ele>115.0</ele><time>2026-04-06T16:52:31.768Z</time></trkpt><trkpt lat="44.8175512" lon="1.1707185"><ele>117.0</ele><time>2026-04-06T16:52:32.774Z</time></trkpt><trkpt lat="44.8175665" lon="1.1708504"><ele>117.0</ele><time>2026-04-06T16:52:33.77Z</time></trkpt><trkpt lat="44.817578" lon="1.1709667"><ele>117.0</ele><time>2026-04-06T16:52:34.773Z</time></trkpt><trkpt lat="44.817589" lon="1.1710791"><ele>117.0</ele><time>2026-04-06T16:52:35.764Z</time></trkpt><trkpt lat="44.8175934" lon="1.1712004"><ele>117.0</ele><time>2026-04-06T16:52:36.77Z</time></trkpt><trkpt lat="44.8175936" lon="1.1713156"><ele>117.0</ele><time>2026-04-06T16:52:37.768Z</time></trkpt><trkpt lat="44.817589" lon="1.1714266"><ele>117.0</ele><time>2026-04-06T16:52:38.765Z</time></trkpt><trkpt lat="44.8175795" lon="1.1715388"><ele>115.71428571428572</ele><time>2026-04-06T16:52:39.779Z</time></trkpt><trkpt lat="44.817566" lon="1.1716434"><ele>114.42857142857144</ele><time>2026-04-06T16:52:40.775Z</time></trkpt><trkpt lat="44.8175428" lon="1.1717347"><ele>113.14285714285714</ele><time>2026-04-06T16:52:41.761Z</time></trkpt><trkpt lat="44.8175222" lon="1.1718241"><ele>111.85714285714286</ele><time>2026-04-06T16:52:42.777Z</time></trkpt><trkpt lat="44.8174806" lon="1.1719148"><ele>110.57142857142857</ele><time>2026-04-06T16:52:43.775Z</time></trkpt><trkpt lat="44.8174401" lon="1.1720002"><ele>109.28571428571428</ele><time>2026-04-06T16:52:44.772Z</time></trkpt><trkpt lat="44.8173869" lon="1.1720801"><ele>108.0</ele><time>2026-04-06T16:52:45.764Z</time></trkpt><trkpt lat="44.8173339" lon="1.1721566"><ele>108.0</ele><time>2026-04-06T16:52:46.763Z</time></trkpt><trkpt lat="44.81727" lon="1.1722093"><ele>108.0</ele><time>2026-04-06T16:52:47.774Z</time></trkpt><trkpt lat="44.8172037" lon="1.1722564"><ele>108.0</ele><time>2026-04-06T16:52:48.767Z</time></trkpt><trkpt lat="44.8171377" lon="1.1722977"><ele>108.0</ele><time>2026-04-06T16:52:49.778Z</time></trkpt><trkpt lat="44.8170673" lon="1.1723344"><ele>108.0</ele><time>2026-04-06T16:52:50.783Z</time></trkpt><trkpt lat="44.8169945" lon="1.1723721"><ele>108.0</ele><time>2026-04-06T16:52:51.767Z</time></trkpt><trkpt lat="44.8169151" lon="1.1723949"><ele>107.66666666666667</ele><time>2026-04-06T16:52:52.76Z</time></trkpt><trkpt lat="44.8168338" lon="1.1724099"><ele>107.33333333333334</ele><time>2026-04-06T16:52:53.76Z</time></trkpt><trkpt lat="44.8167561" lon="1.1724183"><ele>107.0</ele><time>2026-04-06T16:52:54.779Z</time></trkpt><trkpt lat="44.8166837" lon="1.1724194"><ele>106.66666666666667</ele><time>2026-04-06T16:52:55.766Z</time></trkpt><trkpt lat="44.8166138" lon="1.172421"><ele>106.33333333333334</ele><time>2026-04-06T16:52:56.777Z</time></trkpt><trkpt lat="44.8165319" lon="1.1725178"><ele>106.0</ele><time>2026-04-06T16:52:58.769Z</time></trkpt><trkpt lat="44.8165108" lon="1.1726442"><ele>106.0</ele><time>2026-04-06T16:53:00.767Z</time></trkpt><trkpt lat="44.8165274" lon="1.1727887"><ele>106.0</ele><time>2026-04-06T16:53:02.761Z</time></trkpt><trkpt lat="44.8165327" lon="1.1729428"><ele>106.0</ele><time>2026-04-06T16:53:04.768Z</time></trkpt><trkpt lat="44.8165477" lon="1.1730901"><ele>106.0</ele><time>2026-04-06T16:53:06.775Z</time></trkpt><trkpt lat="44.8165906" lon="1.173225"><ele>106.0</ele><time>2026-04-06T16:53:08.78Z</time></trkpt><trkpt lat="44.8166486" lon="1.173344"><ele>105.83333333333334</ele><time>2026-04-06T16:53:10.776Z</time></trkpt><trkpt lat="44.8167056" lon="1.1734666"><ele>105.66666666666667</ele><time>2026-04-06T16:53:12.779Z</time></trkpt><trkpt lat="44.8167491" lon="1.1735544"><ele>105.5</ele><time>2026-04-06T16:53:14.772Z</time></trkpt><trkpt lat="44.8167887" lon="1.1736242"><ele>105.33333333333334</ele><time>2026-04-06T16:53:16.765Z</time></trkpt><trkpt lat="44.8168368" lon="1.1736872"><ele>105.16666666666667</ele><time>2026-04-06T16:53:18.764Z</time></trkpt><trkpt lat="44.8169164" lon="1.173717"><ele>105.0</ele><time>2026-04-06T16:53:21.77Z</time></trkpt><trkpt lat="44.8169813" lon="1.1736878"><ele>105.0</ele><time>2026-04-06T16:53:23.763Z</time></trkpt><trkpt lat="44.8170478" lon="1.1736488"><ele>105.0</ele><time>2026-04-06T16:53:25.767Z</time></trkpt><trkpt lat="44.8171305" lon="1.1736217"><ele>105.0</ele><time>2026-04-06T16:53:28.769Z</time></trkpt><trkpt lat="44.8171941" lon="1.1736243"><ele>105.0</ele><time>2026-04-06T16:53:30.774Z</time></trkpt><trkpt lat="44.8172788" lon="1.1736537"><ele>105.0</ele><time>2026-04-06T16:53:33.765Z</time></trkpt><trkpt lat="44.8173489" lon="1.1737012"><ele>105.0</ele><time>2026-04-06T16:53:36.778Z</time></trkpt><trkpt lat="44.8173168" lon="1.1738136"><ele>105.0</ele><time>2026-04-06T16:53:39.769Z</time></trkpt><trkpt lat="44.8172488" lon="1.1738757"><ele>105.0</ele><time>2026-04-06T16:53:41.777Z</time></trkpt><trkpt lat="44.8171429" lon="1.1739254"><ele>105.0</ele><time>2026-04-06T16:53:43.775Z</time></trkpt><trkpt lat="44.8170803" lon="1.1739457"><ele>105.0</ele><time>2026-04-06T16:53:44.789Z</time></trkpt><trkpt lat="44.817009" lon="1.1739676"><ele>105.0</ele><time>2026-04-06T16:53:45.768Z</time></trkpt><trkpt lat="44.816933" lon="1.1739787"><ele>105.0</ele><time>2026-04-06T16:53:46.769Z</time></trkpt><trkpt lat="44.8168429" lon="1.1739681"><ele>105.8</ele><time>2026-04-06T16:53:47.766Z</time></trkpt><trkpt lat="44.8167518" lon="1.1739368"><ele>106.6</ele><time>2026-04-06T16:53:48.768Z</time></trkpt><trkpt lat="44.8166606" lon="1.1738932"><ele>107.4</ele><time>2026-04-06T16:53:49.781Z</time></trkpt><trkpt lat="44.8165682" lon="1.1738513"><ele>108.2</ele><time>2026-04-06T16:53:50.771Z</time></trkpt><trkpt lat="44.8164811" lon="1.173813"><ele>109.0</ele><time>2026-04-06T16:53:51.794Z</time></trkpt><trkpt lat="44.8163943" lon="1.1737769"><ele>109.00000000000001</ele><time>2026-04-06T16:53:52.797Z</time></trkpt><trkpt lat="44.8163069" lon="1.1737462"><ele>109.0</ele><time>2026-04-06T16:53:53.766Z</time></trkpt><trkpt lat="44.8162196" lon="1.1737227"><ele>109.0</ele><time>2026-04-06T16:53:54.78Z</time></trkpt><trkpt lat="44.8161326" lon="1.1737087"><ele>109.0</ele><time>2026-04-06T16:53:55.768Z</time></trkpt><trkpt lat="44.8160461" lon="1.1736957"><ele>109.00000000000001</ele><time>2026-04-06T16:53:56.789Z</time></trkpt><trkpt lat="44.8159604" lon="1.1736939"><ele>109.0</ele><time>2026-04-06T16:53:57.776Z</time></trkpt><trkpt lat="44.8158738" lon="1.1736964"><ele>110.33333333333334</ele><time>2026-04-06T16:53:58.766Z</time></trkpt><trkpt lat="44.8157903" lon="1.1737012"><ele>111.66666666666667</ele><time>2026-04-06T16:53:59.764Z</time></trkpt><trkpt lat="44.8157064" lon="1.1737067"><ele>113.0</ele><time>2026-04-06T16:54:00.773Z</time></trkpt><trkpt lat="44.8156228" lon="1.1737194"><ele>114.33333333333334</ele><time>2026-04-06T16:54:01.775Z</time></trkpt><trkpt lat="44.8155381" lon="1.1737404"><ele>115.66666666666667</ele><time>2026-04-06T16:54:02.77Z</time></trkpt><trkpt lat="44.8154502" lon="1.1737731"><ele>117.0</ele><time>2026-04-06T16:54:03.79Z</time></trkpt><trkpt lat="44.8153609" lon="1.1738161"><ele>117.0</ele><time>2026-04-06T16:54:04.779Z</time></trkpt><trkpt lat="44.8152687" lon="1.1738702"><ele>116.99999999999999</ele><time>2026-04-06T16:54:05.773Z</time></trkpt><trkpt lat="44.8151761" lon="1.1739365"><ele>116.99999999999999</ele><time>2026-04-06T16:54:06.78Z</time></trkpt><trkpt lat="44.8150821" lon="1.1740143"><ele>117.0</ele><time>2026-04-06T16:54:07.774Z</time></trkpt><trkpt lat="44.8149876" lon="1.1741014"><ele>117.0</ele><time>2026-04-06T16:54:08.784Z</time></trkpt><trkpt lat="44.814897" lon="1.1741985"><ele>119.5</ele><time>2026-04-06T16:54:09.778Z</time></trkpt><trkpt lat="44.8148124" lon="1.1743043"><ele>122.0</ele><time>2026-04-06T16:54:10.779Z</time></trkpt><trkpt lat="44.8147344" lon="1.1744191"><ele>124.5</ele><time>2026-04-06T16:54:11.767Z</time></trkpt><trkpt lat="44.8146593" lon="1.1745429"><ele>127.0</ele><time>2026-04-06T16:54:12.77Z</time></trkpt><trkpt lat="44.8145905" lon="1.1746771"><ele>127.0</ele><time>2026-04-06T16:54:13.778Z</time></trkpt><trkpt lat="44.8145271" lon="1.1748184"><ele>127.0</ele><time>2026-04-06T16:54:14.782Z</time></trkpt><trkpt lat="44.8144711" lon="1.1749679"><ele>127.0</ele><time>2026-04-06T16:54:15.792Z</time></trkpt><trkpt lat="44.8144209" lon="1.1751269"><ele>127.0</ele><time>2026-04-06T16:54:16.79Z</time></trkpt><trkpt lat="44.8143767" lon="1.1752943"><ele>126.5</ele><time>2026-04-06T16:54:17.769Z</time></trkpt><trkpt lat="44.8143361" lon="1.1754682"><ele>126.0</ele><time>2026-04-06T16:54:18.777Z</time></trkpt><trkpt lat="44.814298" lon="1.1756479"><ele>125.5</ele><time>2026-04-06T16:54:19.773Z</time></trkpt><trkpt lat="44.8142645" lon="1.175832"><ele>125.0</ele><time>2026-04-06T16:54:20.792Z</time></trkpt><trkpt lat="44.8142283" lon="1.1760161"><ele>125.0</ele><time>2026-04-06T16:54:21.791Z</time></trkpt><trkpt lat="44.814189" lon="1.1761973"><ele>125.0</ele><time>2026-04-06T16:54:22.768Z</time></trkpt><trkpt lat="44.8141482" lon="1.176373"><ele>125.0</ele><time>2026-04-06T16:54:23.768Z</time></trkpt><trkpt lat="44.8141013" lon="1.1765346"><ele>125.0</ele><time>2026-04-06T16:54:24.777Z</time></trkpt><trkpt lat="44.8140476" lon="1.1766728"><ele>126.2</ele><time>2026-04-06T16:54:25.77Z</time></trkpt><trkpt lat="44.8139883" lon="1.1767857"><ele>127.4</ele><time>2026-04-06T16:54:26.78Z</time></trkpt><trkpt lat="44.8139196" lon="1.1768677"><ele>128.6</ele><time>2026-04-06T16:54:27.779Z</time></trkpt><trkpt lat="44.8138439" lon="1.1769223"><ele>129.8</ele><time>2026-04-06T16:54:28.774Z</time></trkpt><trkpt lat="44.8137559" lon="1.1769599"><ele>131.0</ele><time>2026-04-06T16:54:29.772Z</time></trkpt><trkpt lat="44.8136564" lon="1.1769769"><ele>131.0</ele><time>2026-04-06T16:54:30.772Z</time></trkpt><trkpt lat="44.8135482" lon="1.1769826"><ele>131.0</ele><time>2026-04-06T16:54:31.762Z</time></trkpt><trkpt lat="44.813433" lon="1.1769825"><ele>131.0</ele><time>2026-04-06T16:54:32.763Z</time></trkpt><trkpt lat="44.8133121" lon="1.1769765"><ele>131.0</ele><time>2026-04-06T16:54:33.768Z</time></trkpt><trkpt lat="44.8131927" lon="1.1769632"><ele>129.8</ele><time>2026-04-06T16:54:34.772Z</time></trkpt><trkpt lat="44.8130766" lon="1.1769455"><ele>128.6</ele><time>2026-04-06T16:54:35.782Z</time></trkpt><trkpt lat="44.8129632" lon="1.1769244"><ele>127.4</ele><time>2026-04-06T16:54:36.776Z</time></trkpt><trkpt lat="44.8128555" lon="1.1769146"><ele>126.2</ele><time>2026-04-06T16:54:37.775Z</time></trkpt><trkpt lat="44.8127494" lon="1.1769149"><ele>125.0</ele><time>2026-04-06T16:54:38.77Z</time></trkpt><trkpt lat="44.8126459" lon="1.1769253"><ele>125.0</ele><time>2026-04-06T16:54:39.771Z</time></trkpt><trkpt lat="44.812545" lon="1.1769436"><ele>125.0</ele><time>2026-04-06T16:54:40.77Z</time></trkpt><trkpt lat="44.8124447" lon="1.1769619"><ele>125.0</ele><time>2026-04-06T16:54:41.777Z</time></trkpt><trkpt lat="44.8123419" lon="1.1769917"><ele>125.0</ele><time>2026-04-06T16:54:42.773Z</time></trkpt><trkpt lat="44.8122422" lon="1.1770155"><ele>125.0</ele><time>2026-04-06T16:54:43.779Z</time></trkpt><trkpt lat="44.8121464" lon="1.1770325"><ele>124.99999999999999</ele><time>2026-04-06T16:54:44.765Z</time></trkpt><trkpt lat="44.8120523" lon="1.177039"><ele>125.0</ele><time>2026-04-06T16:54:45.766Z</time></trkpt><trkpt lat="44.8119624" lon="1.1770268"><ele>125.0</ele><time>2026-04-06T16:54:46.764Z</time></trkpt><trkpt lat="44.8118758" lon="1.1769939"><ele>125.0</ele><time>2026-04-06T16:54:47.775Z</time></trkpt><trkpt lat="44.8117955" lon="1.1769457"><ele>124.99999999999999</ele><time>2026-04-06T16:54:48.775Z</time></trkpt><trkpt lat="44.8117188" lon="1.1768967"><ele>125.0</ele><time>2026-04-06T16:54:49.776Z</time></trkpt><trkpt lat="44.8116423" lon="1.1768764"><ele>124.2</ele><time>2026-04-06T16:54:50.78Z</time></trkpt><trkpt lat="44.8115623" lon="1.1768564"><ele>123.4</ele><time>2026-04-06T16:54:51.769Z</time></trkpt><trkpt lat="44.8114748" lon="1.1768603"><ele>122.6</ele><time>2026-04-06T16:54:52.768Z</time></trkpt><trkpt lat="44.8113807" lon="1.1768599"><ele>121.8</ele><time>2026-04-06T16:54:53.776Z</time></trkpt><trkpt lat="44.811285" lon="1.1768618"><ele>121.0</ele><time>2026-04-06T16:54:54.777Z</time></trkpt><trkpt lat="44.8111891" lon="1.1768676"><ele>121.0</ele><time>2026-04-06T16:54:55.766Z</time></trkpt><trkpt lat="44.81109" lon="1.1768723"><ele>121.0</ele><time>2026-04-06T16:54:56.793Z</time></trkpt><trkpt lat="44.8109926" lon="1.1768794"><ele>121.0</ele><time>2026-04-06T16:54:57.788Z</time></trkpt><trkpt lat="44.8108973" lon="1.1768871"><ele>121.0</ele><time>2026-04-06T16:54:58.784Z</time></trkpt><trkpt lat="44.8108059" lon="1.176896"><ele>121.0</ele><time>2026-04-06T16:54:59.767Z</time></trkpt><trkpt lat="44.8107296" lon="1.1769061"><ele>121.50000000000001</ele><time>2026-04-06T16:55:00.774Z</time></trkpt><trkpt lat="44.8106437" lon="1.1769441"><ele>122.0</ele><time>2026-04-06T16:55:02.765Z</time></trkpt><trkpt lat="44.8106063" lon="1.1770167"><ele>122.5</ele><time>2026-04-06T16:55:05.77Z</time></trkpt><trkpt lat="44.8105531" lon="1.1770785"><ele>123.0</ele><time>2026-04-06T16:55:08.768Z</time></trkpt><trkpt lat="44.8104741" lon="1.1771286"><ele>123.50000000000001</ele><time>2026-04-06T16:55:11.782Z</time></trkpt><trkpt lat="44.8103982" lon="1.1771601"><ele>124.0</ele><time>2026-04-06T16:55:14.766Z</time></trkpt><trkpt lat="44.8103358" lon="1.1772235"><ele>124.00000000000001</ele><time>2026-04-06T16:55:17.765Z</time></trkpt><trkpt lat="44.8102881" lon="1.1773091"><ele>124.0</ele><time>2026-04-06T16:55:20.774Z</time></trkpt><trkpt lat="44.810286" lon="1.1774281"><ele>124.0</ele><time>2026-04-06T16:55:23.769Z</time></trkpt><trkpt lat="44.8103168" lon="1.1775165"><ele>124.0</ele><time>2026-04-06T16:55:26.768Z</time></trkpt><trkpt lat="44.8103827" lon="1.1775745"><ele>124.00000000000001</ele><time>2026-04-06T16:55:29.785Z</time></trkpt><trkpt lat="44.81046" lon="1.1776095"><ele>124.0</ele><time>2026-04-06T16:55:32.774Z</time></trkpt><trkpt lat="44.8105496" lon="1.1776576"><ele>121.66666666666667</ele><time>2026-04-06T16:55:35.772Z</time></trkpt><trkpt lat="44.8106409" lon="1.1777231"><ele>119.33333333333334</ele><time>2026-04-06T16:55:37.774Z</time></trkpt><trkpt lat="44.8107291" lon="1.1777834"><ele>117.0</ele><time>2026-04-06T16:55:39.78Z</time></trkpt><trkpt lat="44.8107783" lon="1.1778455"><ele>114.66666666666666</ele><time>2026-04-06T16:55:41.773Z</time></trkpt><trkpt lat="44.8108295" lon="1.1779344"><ele>112.33333333333333</ele><time>2026-04-06T16:55:43.776Z</time></trkpt><trkpt lat="44.8108722" lon="1.1780094"><ele>110.0</ele><time>2026-04-06T16:55:46.773Z</time></trkpt><trkpt lat="44.8109101" lon="1.1781014"><ele>107.83333333333333</ele><time>2026-04-06T16:55:49.779Z</time></trkpt><trkpt lat="44.8109015" lon="1.1782304"><ele>105.66666666666666</ele><time>2026-04-06T16:55:53.776Z</time></trkpt><trkpt lat="44.8108725" lon="1.1783273"><ele>103.5</ele><time>2026-04-06T16:55:55.764Z</time></trkpt><trkpt lat="44.8108266" lon="1.1784357"><ele>101.33333333333334</ele><time>2026-04-06T16:55:57.765Z</time></trkpt><trkpt lat="44.810769" lon="1.1785184"><ele>99.16666666666667</ele><time>2026-04-06T16:55:59.765Z</time></trkpt><trkpt lat="44.8107027" lon="1.1786189"><ele>97.0</ele><time>2026-04-06T16:56:01.766Z</time></trkpt><trkpt lat="44.8106625" lon="1.1787007"><ele>97.00000000000001</ele><time>2026-04-06T16:56:03.765Z</time></trkpt><trkpt lat="44.8106698" lon="1.1788227"><ele>97.0</ele><time>2026-04-06T16:56:06.767Z</time></trkpt><trkpt lat="44.8107324" lon="1.1789049"><ele>97.0</ele><time>2026-04-06T16:56:08.782Z</time></trkpt><trkpt lat="44.8107773" lon="1.1789688"><ele>97.0</ele><time>2026-04-06T16:56:09.763Z</time></trkpt><trkpt lat="44.8108344" lon="1.1790536"><ele>97.00000000000001</ele><time>2026-04-06T16:56:10.759Z</time></trkpt><trkpt lat="44.8109007" lon="1.1791386"><ele>97.0</ele><time>2026-04-06T16:56:11.765Z</time></trkpt><trkpt lat="44.8109695" lon="1.1792338"><ele>98.39999999999999</ele><time>2026-04-06T16:56:12.766Z</time></trkpt><trkpt lat="44.8110232" lon="1.17934"><ele>99.8</ele><time>2026-04-06T16:56:13.759Z</time></trkpt><trkpt lat="44.8110689" lon="1.1794522"><ele>101.2</ele><time>2026-04-06T16:56:14.755Z</time></trkpt><trkpt lat="44.8111233" lon="1.1795509"><ele>102.6</ele><time>2026-04-06T16:56:15.763Z</time></trkpt><trkpt lat="44.8111969" lon="1.1796469"><ele>104.0</ele><time>2026-04-06T16:56:16.757Z</time></trkpt><trkpt lat="44.8112662" lon="1.1797302"><ele>104.0</ele><time>2026-04-06T16:56:17.796Z</time></trkpt><trkpt lat="44.8113223" lon="1.1798052"><ele>104.0</ele><time>2026-04-06T16:56:18.763Z</time></trkpt><trkpt lat="44.8113873" lon="1.179938"><ele>104.0</ele><time>2026-04-06T16:56:20.762Z</time></trkpt><trkpt lat="44.8114064" lon="1.1800611"><ele>104.0</ele><time>2026-04-06T16:56:22.769Z</time></trkpt><trkpt lat="44.811359" lon="1.1801934"><ele>104.0</ele><time>2026-04-06T16:56:24.792Z</time></trkpt><trkpt lat="44.8112889" lon="1.1802318"><ele>99.0</ele><time>2026-04-06T16:56:25.756Z</time></trkpt><trkpt lat="44.8111929" lon="1.180301"><ele>94.0</ele><time>2026-04-06T16:56:26.764Z</time></trkpt><trkpt lat="44.8111119" lon="1.1803563"><ele>89.0</ele><time>2026-04-06T16:56:27.759Z</time></trkpt><trkpt lat="44.8110436" lon="1.1804109"><ele>84.0</ele><time>2026-04-06T16:56:28.76Z</time></trkpt><trkpt lat="44.8109837" lon="1.1804637"><ele>79.0</ele><time>2026-04-06T16:56:29.761Z</time></trkpt><trkpt lat="44.8109052" lon="1.1805833"><ele>77.16666666666666</ele><time>2026-04-06T16:56:31.792Z</time></trkpt><trkpt lat="44.8108812" lon="1.1807382"><ele>75.33333333333333</ele><time>2026-04-06T16:56:33.761Z</time></trkpt><trkpt lat="44.810892" lon="1.180837"><ele>73.5</ele><time>2026-04-06T16:56:34.765Z</time></trkpt><trkpt lat="44.810903" lon="1.1809361"><ele>71.66666666666667</ele><time>2026-04-06T16:56:35.762Z</time></trkpt><trkpt lat="44.8109148" lon="1.1810498"><ele>69.83333333333334</ele><time>2026-04-06T16:56:36.781Z</time></trkpt><trkpt lat="44.81094" lon="1.181164"><ele>68.0</ele><time>2026-04-06T16:56:37.764Z</time></trkpt><trkpt lat="44.8109787" lon="1.1812651"><ele>68.2</ele><time>2026-04-06T16:56:38.764Z</time></trkpt><trkpt lat="44.8110214" lon="1.1813697"><ele>68.4</ele><time>2026-04-06T16:56:39.761Z</time></trkpt><trkpt lat="44.8110768" lon="1.1814805"><ele>68.60000000000001</ele><time>2026-04-06T16:56:40.768Z</time></trkpt><trkpt lat="44.8111308" lon="1.1815884"><ele>68.8</ele><time>2026-04-06T16:56:41.787Z</time></trkpt><trkpt lat="44.8111685" lon="1.1817021"><ele>69.0</ele><time>2026-04-06T16:56:42.764Z</time></trkpt><trkpt lat="44.8112051" lon="1.1818177"><ele>69.16666666666667</ele><time>2026-04-06T16:56:43.76Z</time></trkpt><trkpt lat="44.8112409" lon="1.1819331"><ele>69.33333333333333</ele><time>2026-04-06T16:56:44.768Z</time></trkpt><trkpt lat="44.8112925" lon="1.1820373"><ele>69.5</ele><time>2026-04-06T16:56:45.764Z</time></trkpt><trkpt lat="44.8113465" lon="1.1821343"><ele>69.66666666666666</ele><time>2026-04-06T16:56:46.765Z</time></trkpt><trkpt lat="44.8113974" lon="1.1822349"><ele>69.83333333333333</ele><time>2026-04-06T16:56:47.782Z</time></trkpt><trkpt lat="44.8114194" lon="1.1823428"><ele>70.0</ele><time>2026-04-06T16:56:48.766Z</time></trkpt><trkpt lat="44.8114393" lon="1.1824497"><ele>70.0</ele><time>2026-04-06T16:56:49.764Z</time></trkpt><trkpt lat="44.8114472" lon="1.1825772"><ele>70.0</ele><time>2026-04-06T16:56:51.772Z</time></trkpt><trkpt lat="44.8114116" lon="1.1827126"><ele>70.0</ele><time>2026-04-06T16:56:54.768Z</time></trkpt><trkpt lat="44.8113245" lon="1.1828689"><ele>70.0</ele><time>2026-04-06T16:56:56.771Z</time></trkpt><trkpt lat="44.8112583" lon="1.1829622"><ele>70.0</ele><time>2026-04-06T16:56:57.766Z</time></trkpt><trkpt lat="44.8111971" lon="1.1830572"><ele>70.0</ele><time>2026-04-06T16:56:58.769Z</time></trkpt><trkpt lat="44.8111368" lon="1.1831554"><ele>70.0</ele><time>2026-04-06T16:56:59.768Z</time></trkpt><trkpt lat="44.8110782" lon="1.1832506"><ele>70.0</ele><time>2026-04-06T16:57:00.779Z</time></trkpt><trkpt lat="44.8110199" lon="1.1833517"><ele>70.0</ele><time>2026-04-06T16:57:01.761Z</time></trkpt><trkpt lat="44.810963" lon="1.1834473"><ele>70.0</ele><time>2026-04-06T16:57:02.796Z</time></trkpt><trkpt lat="44.8109068" lon="1.1835389"><ele>70.0</ele><time>2026-04-06T16:57:03.78Z</time></trkpt><trkpt lat="44.8108631" lon="1.1836308"><ele>70.16666666666666</ele><time>2026-04-06T16:57:04.788Z</time></trkpt><trkpt lat="44.8108264" lon="1.1837079"><ele>70.33333333333333</ele><time>2026-04-06T16:57:05.769Z</time></trkpt><trkpt lat="44.8107755" lon="1.1837818"><ele>70.5</ele><time>2026-04-06T16:57:06.764Z</time></trkpt><trkpt lat="44.8107096" lon="1.1838482"><ele>70.66666666666667</ele><time>2026-04-06T16:57:07.762Z</time></trkpt><trkpt lat="44.8106407" lon="1.1839148"><ele>70.83333333333334</ele><time>2026-04-06T16:57:08.762Z</time></trkpt><trkpt lat="44.810571" lon="1.1839866"><ele>71.0</ele><time>2026-04-06T16:57:09.761Z</time></trkpt><trkpt lat="44.8104996" lon="1.1840587"><ele>71.0</ele><time>2026-04-06T16:57:10.762Z</time></trkpt><trkpt lat="44.8104355" lon="1.1841345"><ele>71.0</ele><time>2026-04-06T16:57:11.766Z</time></trkpt><trkpt lat="44.8103783" lon="1.1842252"><ele>71.0</ele><time>2026-04-06T16:57:12.765Z</time></trkpt><trkpt lat="44.8103238" lon="1.1843334"><ele>71.0</ele><time>2026-04-06T16:57:13.78Z</time></trkpt><trkpt lat="44.8102719" lon="1.1844487"><ele>71.0</ele><time>2026-04-06T16:57:14.766Z</time></trkpt><trkpt lat="44.8102293" lon="1.1845746"><ele>71.0</ele><time>2026-04-06T16:57:15.761Z</time></trkpt><trkpt lat="44.8101862" lon="1.1847031"><ele>71.0</ele><time>2026-04-06T16:57:16.767Z</time></trkpt><trkpt lat="44.8101394" lon="1.1848316"><ele>71.0</ele><time>2026-04-06T16:57:17.774Z</time></trkpt><trkpt lat="44.8100924" lon="1.1849607"><ele>71.0</ele><time>2026-04-06T16:57:18.762Z</time></trkpt><trkpt lat="44.8100477" lon="1.1850952"><ele>71.0</ele><time>2026-04-06T16:57:19.758Z</time></trkpt><trkpt lat="44.8100031" lon="1.1852306"><ele>71.0</ele><time>2026-04-06T16:57:20.767Z</time></trkpt><trkpt lat="44.8099581" lon="1.1853528"><ele>71.0</ele><time>2026-04-06T16:57:21.763Z</time></trkpt><trkpt lat="44.8099093" lon="1.1854641"><ele>71.0</ele><time>2026-04-06T16:57:22.792Z</time></trkpt><trkpt lat="44.8098602" lon="1.1855778"><ele>71.0</ele><time>2026-04-06T16:57:23.765Z</time></trkpt><trkpt lat="44.8098067" lon="1.1856779"><ele>71.0</ele><time>2026-04-06T16:57:24.763Z</time></trkpt><trkpt lat="44.8097351" lon="1.185779"><ele>71.0</ele><time>2026-04-06T16:57:25.767Z</time></trkpt><trkpt lat="44.8096615" lon="1.1858761"><ele>71.0</ele><time>2026-04-06T16:57:26.764Z</time></trkpt><trkpt lat="44.8095846" lon="1.1859753"><ele>71.0</ele><time>2026-04-06T16:57:27.782Z</time></trkpt><trkpt lat="44.80951" lon="1.1860763"><ele>71.0</ele><time>2026-04-06T16:57:28.763Z</time></trkpt><trkpt lat="44.8094328" lon="1.1861759"><ele>71.0</ele><time>2026-04-06T16:57:29.768Z</time></trkpt><trkpt lat="44.8093653" lon="1.1862986"><ele>71.2</ele><time>2026-04-06T16:57:30.769Z</time></trkpt><trkpt lat="44.8093024" lon="1.1864266"><ele>71.39999999999999</ele><time>2026-04-06T16:57:31.763Z</time></trkpt><trkpt lat="44.8092395" lon="1.186558"><ele>71.6</ele><time>2026-04-06T16:57:32.77Z</time></trkpt><trkpt lat="44.809175" lon="1.1866918"><ele>71.8</ele><time>2026-04-06T16:57:33.767Z</time></trkpt><trkpt lat="44.8091119" lon="1.1868212"><ele>72.0</ele><time>2026-04-06T16:57:34.787Z</time></trkpt><trkpt lat="44.8090525" lon="1.1869505"><ele>72.0</ele><time>2026-04-06T16:57:35.764Z</time></trkpt><trkpt lat="44.8090043" lon="1.1870661"><ele>72.0</ele><time>2026-04-06T16:57:36.768Z</time></trkpt><trkpt lat="44.8089663" lon="1.1871818"><ele>72.0</ele><time>2026-04-06T16:57:37.765Z</time></trkpt><trkpt lat="44.8089377" lon="1.1873064"><ele>72.0</ele><time>2026-04-06T16:57:38.767Z</time></trkpt><trkpt lat="44.8089146" lon="1.187446"><ele>72.0</ele><time>2026-04-06T16:57:39.77Z</time></trkpt><trkpt lat="44.808898" lon="1.1875955"><ele>72.5</ele><time>2026-04-06T16:57:40.764Z</time></trkpt><trkpt lat="44.808886" lon="1.1877512"><ele>73.0</ele><time>2026-04-06T16:57:41.786Z</time></trkpt><trkpt lat="44.8088741" lon="1.1879135"><ele>73.5</ele><time>2026-04-06T16:57:42.767Z</time></trkpt><trkpt lat="44.8088602" lon="1.1880798"><ele>74.0</ele><time>2026-04-06T16:57:43.765Z</time></trkpt><trkpt lat="44.8088361" lon="1.1882502"><ele>73.0</ele><time>2026-04-06T16:57:44.758Z</time></trkpt><trkpt lat="44.8088054" lon="1.1884183"><ele>72.0</ele><time>2026-04-06T16:57:45.768Z</time></trkpt><trkpt lat="44.8087752" lon="1.1885793"><ele>71.0</ele><time>2026-04-06T16:57:46.773Z</time></trkpt><trkpt lat="44.8087377" lon="1.1887267"><ele>70.0</ele><time>2026-04-06T16:57:47.773Z</time></trkpt><trkpt lat="44.8087" lon="1.1888557"><ele>70.0</ele><time>2026-04-06T16:57:48.78Z</time></trkpt><trkpt lat="44.8086652" lon="1.1889794"><ele>70.0</ele><time>2026-04-06T16:57:49.767Z</time></trkpt><trkpt lat="44.8086388" lon="1.1890931"><ele>70.0</ele><time>2026-04-06T16:57:50.761Z</time></trkpt><trkpt lat="44.8086135" lon="1.1891941"><ele>70.0</ele><time>2026-04-06T16:57:51.764Z</time></trkpt><trkpt lat="44.8085842" lon="1.18928"><ele>70.0</ele><time>2026-04-06T16:57:52.767Z</time></trkpt><trkpt lat="44.8085574" lon="1.1893617"><ele>70.0</ele><time>2026-04-06T16:57:53.786Z</time></trkpt><trkpt lat="44.8085062" lon="1.1895164"><ele>69.75</ele><time>2026-04-06T16:57:55.788Z</time></trkpt><trkpt lat="44.8084551" lon="1.1896682"><ele>69.5</ele><time>2026-04-06T16:57:57.764Z</time></trkpt><trkpt lat="44.8084086" lon="1.1898129"><ele>69.25</ele><time>2026-04-06T16:57:59.761Z</time></trkpt><trkpt lat="44.8083594" lon="1.189947"><ele>69.0</ele><time>2026-04-06T16:58:01.77Z</time></trkpt><trkpt lat="44.8083075" lon="1.1900879"><ele>68.83333333333333</ele><time>2026-04-06T16:58:03.773Z</time></trkpt><trkpt lat="44.8082574" lon="1.1902377"><ele>68.66666666666667</ele><time>2026-04-06T16:58:05.767Z</time></trkpt><trkpt lat="44.808207" lon="1.1903874"><ele>68.5</ele><time>2026-04-06T16:58:07.763Z</time></trkpt><trkpt lat="44.8081786" lon="1.1904736"><ele>68.33333333333334</ele><time>2026-04-06T16:58:08.766Z</time></trkpt><trkpt lat="44.8081523" lon="1.1905633"><ele>68.16666666666667</ele><time>2026-04-06T16:58:09.77Z</time></trkpt><trkpt lat="44.8081244" lon="1.190654"><ele>68.0</ele><time>2026-04-06T16:58:10.766Z</time></trkpt><trkpt lat="44.8080975" lon="1.1907478"><ele>67.83333333333334</ele><time>2026-04-06T16:58:11.781Z</time></trkpt><trkpt lat="44.8080673" lon="1.1908505"><ele>67.66666666666667</ele><time>2026-04-06T16:58:12.767Z</time></trkpt><trkpt lat="44.8080329" lon="1.1909575"><ele>67.5</ele><time>2026-04-06T16:58:13.787Z</time></trkpt><trkpt lat="44.8079971" lon="1.1910747"><ele>67.33333333333333</ele><time>2026-04-06T16:58:14.772Z</time></trkpt><trkpt lat="44.8079659" lon="1.1911996"><ele>67.16666666666666</ele><time>2026-04-06T16:58:15.774Z</time></trkpt><trkpt lat="44.8079323" lon="1.191328"><ele>67.0</ele><time>2026-04-06T16:58:16.771Z</time></trkpt><trkpt lat="44.8078952" lon="1.1914575"><ele>67.2</ele><time>2026-04-06T16:58:17.769Z</time></trkpt><trkpt lat="44.8078605" lon="1.1915913"><ele>67.4</ele><time>2026-04-06T16:58:18.768Z</time></trkpt><trkpt lat="44.8078196" lon="1.1917279"><ele>67.6</ele><time>2026-04-06T16:58:19.768Z</time></trkpt><trkpt lat="44.807783" lon="1.1918688"><ele>67.8</ele><time>2026-04-06T16:58:20.765Z</time></trkpt><trkpt lat="44.8077489" lon="1.1920072"><ele>68.0</ele><time>2026-04-06T16:58:21.778Z</time></trkpt><trkpt lat="44.8077156" lon="1.1921398"><ele>68.0</ele><time>2026-04-06T16:58:22.768Z</time></trkpt><trkpt lat="44.8076916" lon="1.1922577"><ele>68.0</ele><time>2026-04-06T16:58:23.79Z</time></trkpt><trkpt lat="44.8076593" lon="1.1923726"><ele>68.0</ele><time>2026-04-06T16:58:24.772Z</time></trkpt><trkpt lat="44.8076267" lon="1.1924809"><ele>68.0</ele><time>2026-04-06T16:58:25.764Z</time></trkpt><trkpt lat="44.8075963" lon="1.1925783"><ele>68.0</ele><time>2026-04-06T16:58:26.769Z</time></trkpt><trkpt lat="44.8075715" lon="1.1926668"><ele>68.0</ele><time>2026-04-06T16:58:27.772Z</time></trkpt><trkpt lat="44.8075548" lon="1.1927596"><ele>68.33333333333334</ele><time>2026-04-06T16:58:28.762Z</time></trkpt><trkpt lat="44.8075472" lon="1.1928555"><ele>68.66666666666667</ele><time>2026-04-06T16:58:29.781Z</time></trkpt><trkpt lat="44.8075496" lon="1.1929489"><ele>69.0</ele><time>2026-04-06T16:58:30.764Z</time></trkpt><trkpt lat="44.8075602" lon="1.1931127"><ele>69.33333333333333</ele><time>2026-04-06T16:58:32.768Z</time></trkpt><trkpt lat="44.8075354" lon="1.1932864"><ele>69.66666666666666</ele><time>2026-04-06T16:58:34.767Z</time></trkpt><trkpt lat="44.8075152" lon="1.1933814"><ele>70.0</ele><time>2026-04-06T16:58:35.764Z</time></trkpt><trkpt lat="44.8074946" lon="1.1934801"><ele>70.0</ele><time>2026-04-06T16:58:36.788Z</time></trkpt><trkpt lat="44.8074764" lon="1.1935928"><ele>70.0</ele><time>2026-04-06T16:58:37.766Z</time></trkpt><trkpt lat="44.8074545" lon="1.1937062"><ele>70.0</ele><time>2026-04-06T16:58:38.76Z</time></trkpt><trkpt lat="44.807434" lon="1.1938151"><ele>70.0</ele><time>2026-04-06T16:58:39.77Z</time></trkpt><trkpt lat="44.8074109" lon="1.1939247"><ele>70.0</ele><time>2026-04-06T16:58:40.76Z</time></trkpt><trkpt lat="44.8073844" lon="1.1940321"><ele>70.0</ele><time>2026-04-06T16:58:41.787Z</time></trkpt><trkpt lat="44.8073588" lon="1.1941373"><ele>69.83333333333333</ele><time>2026-04-06T16:58:42.771Z</time></trkpt><trkpt lat="44.8073435" lon="1.1942508"><ele>69.66666666666666</ele><time>2026-04-06T16:58:43.765Z</time></trkpt><trkpt lat="44.8073389" lon="1.1943643"><ele>69.5</ele><time>2026-04-06T16:58:44.764Z</time></trkpt><trkpt lat="44.8073404" lon="1.1944703"><ele>69.33333333333333</ele><time>2026-04-06T16:58:45.766Z</time></trkpt><trkpt lat="44.8073383" lon="1.1945643"><ele>69.16666666666667</ele><time>2026-04-06T16:58:46.768Z</time></trkpt><trkpt lat="44.8073366" lon="1.194656"><ele>69.0</ele><time>2026-04-06T16:58:47.784Z</time></trkpt><trkpt lat="44.8072902" lon="1.194773"><ele>69.0</ele><time>2026-04-06T16:58:49.815Z</time></trkpt><trkpt lat="44.807168" lon="1.194745"><ele>69.0</ele><time>2026-04-06T16:58:51.77Z</time></trkpt><trkpt lat="44.8071029" lon="1.1947062"><ele>69.0</ele><time>2026-04-06T16:58:52.781Z</time></trkpt><trkpt lat="44.8070351" lon="1.1946707"><ele>69.0</ele><time>2026-04-06T16:58:53.769Z</time></trkpt><trkpt lat="44.8069637" lon="1.1946383"><ele>69.0</ele><time>2026-04-06T16:58:54.765Z</time></trkpt><trkpt lat="44.8068907" lon="1.1946051"><ele>69.0</ele><time>2026-04-06T16:58:55.767Z</time></trkpt><trkpt lat="44.8068144" lon="1.1945668"><ele>69.0</ele><time>2026-04-06T16:58:56.765Z</time></trkpt><trkpt lat="44.8067357" lon="1.194525"><ele>69.0</ele><time>2026-04-06T16:58:57.768Z</time></trkpt><trkpt lat="44.8066577" lon="1.1944866"><ele>69.0</ele><time>2026-04-06T16:58:58.77Z</time></trkpt><trkpt lat="44.806582" lon="1.1944496"><ele>69.0</ele><time>2026-04-06T16:58:59.77Z</time></trkpt><trkpt lat="44.8065053" lon="1.1944138"><ele>69.0</ele><time>2026-04-06T16:59:00.791Z</time></trkpt><trkpt lat="44.8064326" lon="1.1943765"><ele>69.0</ele><time>2026-04-06T16:59:01.767Z</time></trkpt><trkpt lat="44.8063641" lon="1.1943363"><ele>69.0</ele><time>2026-04-06T16:59:02.767Z</time></trkpt><trkpt lat="44.806299" lon="1.1943021"><ele>69.0</ele><time>2026-04-06T16:59:03.771Z</time></trkpt><trkpt lat="44.8062348" lon="1.1942972"><ele>69.0</ele><time>2026-04-06T16:59:04.767Z</time></trkpt><trkpt lat="44.8061714" lon="1.1942957"><ele>69.0</ele><time>2026-04-06T16:59:05.796Z</time></trkpt><trkpt lat="44.8061459" lon="1.1943811"><ele>69.0</ele><time>2026-04-06T16:59:06.783Z</time></trkpt><trkpt lat="44.8061206" lon="1.1944772"><ele>69.0</ele><time>2026-04-06T16:59:07.764Z</time></trkpt><trkpt lat="44.8061029" lon="1.1945876"><ele>69.0</ele><time>2026-04-06T16:59:08.769Z</time></trkpt><trkpt lat="44.8060834" lon="1.1947022"><ele>69.0</ele><time>2026-04-06T16:59:09.764Z</time></trkpt><trkpt lat="44.8060641" lon="1.1948244"><ele>69.0</ele><time>2026-04-06T16:59:10.769Z</time></trkpt><trkpt lat="44.8060453" lon="1.1949493"><ele>69.0</ele><time>2026-04-06T16:59:11.765Z</time></trkpt><trkpt lat="44.8060228" lon="1.1950778"><ele>69.0</ele><time>2026-04-06T16:59:12.782Z</time></trkpt><trkpt lat="44.8059985" lon="1.1952051"><ele>69.0</ele><time>2026-04-06T16:59:13.76Z</time></trkpt><trkpt lat="44.8059753" lon="1.1953328"><ele>69.2</ele><time>2026-04-06T16:59:14.778Z</time></trkpt><trkpt lat="44.8059526" lon="1.1954602"><ele>69.4</ele><time>2026-04-06T16:59:15.765Z</time></trkpt><trkpt lat="44.8059326" lon="1.1955901"><ele>69.6</ele><time>2026-04-06T16:59:16.768Z</time></trkpt><trkpt lat="44.8059152" lon="1.1957242"><ele>69.8</ele><time>2026-04-06T16:59:17.763Z</time></trkpt><trkpt lat="44.8058959" lon="1.1958555"><ele>70.0</ele><time>2026-04-06T16:59:18.768Z</time></trkpt><trkpt lat="44.8058753" lon="1.1959839"><ele>70.0</ele><time>2026-04-06T16:59:19.772Z</time></trkpt><trkpt lat="44.8058533" lon="1.1961138"><ele>70.0</ele><time>2026-04-06T16:59:20.772Z</time></trkpt><trkpt lat="44.8058315" lon="1.1962417"><ele>70.0</ele><time>2026-04-06T16:59:21.762Z</time></trkpt><trkpt lat="44.8058121" lon="1.1963651"><ele>70.0</ele><time>2026-04-06T16:59:22.765Z</time></trkpt><trkpt lat="44.8057967" lon="1.1964841"><ele>70.0</ele><time>2026-04-06T16:59:23.766Z</time></trkpt><trkpt lat="44.8057795" lon="1.1965962"><ele>70.0</ele><time>2026-04-06T16:59:24.768Z</time></trkpt><trkpt lat="44.8057572" lon="1.1967035"><ele>69.85714285714286</ele><time>2026-04-06T16:59:25.769Z</time></trkpt><trkpt lat="44.8057377" lon="1.1968073"><ele>69.71428571428572</ele><time>2026-04-06T16:59:26.793Z</time></trkpt><trkpt lat="44.8057103" lon="1.1969008"><ele>69.57142857142857</ele><time>2026-04-06T16:59:27.761Z</time></trkpt><trkpt lat="44.8056718" lon="1.1969826"><ele>69.42857142857143</ele><time>2026-04-06T16:59:28.772Z</time></trkpt><trkpt lat="44.805618" lon="1.1970518"><ele>69.28571428571429</ele><time>2026-04-06T16:59:29.766Z</time></trkpt><trkpt lat="44.8055637" lon="1.1971206"><ele>69.14285714285714</ele><time>2026-04-06T16:59:30.765Z</time></trkpt><trkpt lat="44.8054938" lon="1.1971824"><ele>69.0</ele><time>2026-04-06T16:59:31.771Z</time></trkpt><trkpt lat="44.8054234" lon="1.1972381"><ele>69.0</ele><time>2026-04-06T16:59:32.763Z</time></trkpt><trkpt lat="44.8053489" lon="1.1972977"><ele>69.0</ele><time>2026-04-06T16:59:33.763Z</time></trkpt><trkpt lat="44.8052735" lon="1.1973618"><ele>69.0</ele><time>2026-04-06T16:59:34.767Z</time></trkpt><trkpt lat="44.8051939" lon="1.1974303"><ele>69.0</ele><time>2026-04-06T16:59:35.768Z</time></trkpt><trkpt lat="44.8051104" lon="1.1974995"><ele>69.0</ele><time>2026-04-06T16:59:36.772Z</time></trkpt><trkpt lat="44.805023" lon="1.1975659"><ele>69.0</ele><time>2026-04-06T16:59:37.77Z</time></trkpt><trkpt lat="44.804933" lon="1.1976351"><ele>69.0</ele><time>2026-04-06T16:59:38.763Z</time></trkpt><trkpt lat="44.8048458" lon="1.1977219"><ele>69.0</ele><time>2026-04-06T16:59:39.788Z</time></trkpt><trkpt lat="44.8047595" lon="1.1978063"><ele>69.0</ele><time>2026-04-06T16:59:40.761Z</time></trkpt><trkpt lat="44.8046746" lon="1.1978971"><ele>69.0</ele><time>2026-04-06T16:59:41.818Z</time></trkpt><trkpt lat="44.8045965" lon="1.1979936"><ele>69.0</ele><time>2026-04-06T16:59:42.766Z</time></trkpt><trkpt lat="44.8045307" lon="1.1980886"><ele>69.0</ele><time>2026-04-06T16:59:43.763Z</time></trkpt><trkpt lat="44.804472" lon="1.198177"><ele>69.0</ele><time>2026-04-06T16:59:44.763Z</time></trkpt><trkpt lat="44.8044137" lon="1.1982651"><ele>69.0</ele><time>2026-04-06T16:59:45.762Z</time></trkpt><trkpt lat="44.8043562" lon="1.1983504"><ele>69.0</ele><time>2026-04-06T16:59:46.767Z</time></trkpt><trkpt lat="44.804297" lon="1.1984196"><ele>69.0</ele><time>2026-04-06T16:59:47.801Z</time></trkpt><trkpt lat="44.8042351" lon="1.1984687"><ele>68.8</ele><time>2026-04-06T16:59:48.767Z</time></trkpt><trkpt lat="44.8041403" lon="1.1985324"><ele>68.60000000000001</ele><time>2026-04-06T16:59:50.765Z</time></trkpt><trkpt lat="44.8041114" lon="1.1986646"><ele>68.4</ele><time>2026-04-06T16:59:53.767Z</time></trkpt><trkpt lat="44.8041361" lon="1.1987689"><ele>68.2</ele><time>2026-04-06T16:59:54.78Z</time></trkpt><trkpt lat="44.8041714" lon="1.1988922"><ele>68.0</ele><time>2026-04-06T16:59:55.768Z</time></trkpt><trkpt lat="44.8042098" lon="1.1990234"><ele>68.5</ele><time>2026-04-06T16:59:56.764Z</time></trkpt><trkpt lat="44.8042345" lon="1.1991705"><ele>69.0</ele><time>2026-04-06T16:59:57.771Z</time></trkpt><trkpt lat="44.8042475" lon="1.1993325"><ele>69.5</ele><time>2026-04-06T16:59:58.762Z</time></trkpt><trkpt lat="44.8042439" lon="1.1995073"><ele>70.0</ele><time>2026-04-06T16:59:59.796Z</time></trkpt><trkpt lat="44.8042269" lon="1.1996887"><ele>70.25</ele><time>2026-04-06T17:00:00.766Z</time></trkpt><trkpt lat="44.8042062" lon="1.1998785"><ele>70.5</ele><time>2026-04-06T17:00:01.765Z</time></trkpt><trkpt lat="44.8041862" lon="1.200067"><ele>70.75</ele><time>2026-04-06T17:00:02.767Z</time></trkpt><trkpt lat="44.8041662" lon="1.2002622"><ele>71.0</ele><time>2026-04-06T17:00:03.764Z</time></trkpt><trkpt lat="44.8041465" lon="1.2004588"><ele>71.0</ele><time>2026-04-06T17:00:04.764Z</time></trkpt><trkpt lat="44.8041296" lon="1.2006577"><ele>71.0</ele><time>2026-04-06T17:00:05.79Z</time></trkpt><trkpt lat="44.8041141" lon="1.2008568"><ele>71.0</ele><time>2026-04-06T17:00:06.762Z</time></trkpt><trkpt lat="44.8041017" lon="1.2010521"><ele>71.0</ele><time>2026-04-06T17:00:07.766Z</time></trkpt><trkpt lat="44.8040915" lon="1.2012448"><ele>71.25</ele><time>2026-04-06T17:00:08.775Z</time></trkpt><trkpt lat="44.8040823" lon="1.2014325"><ele>71.5</ele><time>2026-04-06T17:00:09.767Z</time></trkpt><trkpt lat="44.804073" lon="1.2016121"><ele>71.75</ele><time>2026-04-06T17:00:10.787Z</time></trkpt><trkpt lat="44.8040627" lon="1.2017802"><ele>72.0</ele><time>2026-04-06T17:00:11.768Z</time></trkpt><trkpt lat="44.8040534" lon="1.2019424"><ele>72.0</ele><time>2026-04-06T17:00:12.767Z</time></trkpt><trkpt lat="44.8040432" lon="1.2021008"><ele>72.0</ele><time>2026-04-06T17:00:13.768Z</time></trkpt><trkpt lat="44.8040306" lon="1.2022488"><ele>72.0</ele><time>2026-04-06T17:00:14.766Z</time></trkpt><trkpt lat="44.804013" lon="1.2023833"><ele>72.0</ele><time>2026-04-06T17:00:15.772Z</time></trkpt><trkpt lat="44.8039977" lon="1.2025051"><ele>72.0</ele><time>2026-04-06T17:00:16.769Z</time></trkpt><trkpt lat="44.8039801" lon="1.2026202"><ele>72.0</ele><time>2026-04-06T17:00:17.786Z</time></trkpt><trkpt lat="44.8039601" lon="1.2027281"><ele>72.0</ele><time>2026-04-06T17:00:18.754Z</time></trkpt><trkpt lat="44.8039479" lon="1.2028312"><ele>72.0</ele><time>2026-04-06T17:00:19.763Z</time></trkpt><trkpt lat="44.8039363" lon="1.2029348"><ele>72.0</ele><time>2026-04-06T17:00:20.769Z</time></trkpt><trkpt lat="44.8039521" lon="1.2030383"><ele>72.0</ele><time>2026-04-06T17:00:21.78Z</time></trkpt><trkpt lat="44.8039797" lon="1.2031398"><ele>72.0</ele><time>2026-04-06T17:00:22.765Z</time></trkpt><trkpt lat="44.8040135" lon="1.2032399"><ele>71.85714285714286</ele><time>2026-04-06T17:00:23.779Z</time></trkpt><trkpt lat="44.8040417" lon="1.2033446"><ele>71.71428571428572</ele><time>2026-04-06T17:00:24.761Z</time></trkpt><trkpt lat="44.8040678" lon="1.2034481"><ele>71.57142857142857</ele><time>2026-04-06T17:00:25.766Z</time></trkpt><trkpt lat="44.8040936" lon="1.2035514"><ele>71.42857142857143</ele><time>2026-04-06T17:00:26.763Z</time></trkpt><trkpt lat="44.8041182" lon="1.2036502"><ele>71.28571428571428</ele><time>2026-04-06T17:00:27.761Z</time></trkpt><trkpt lat="44.804139" lon="1.2037446"><ele>71.14285714285714</ele><time>2026-04-06T17:00:28.762Z</time></trkpt><trkpt lat="44.8041559" lon="1.2038319"><ele>71.0</ele><time>2026-04-06T17:00:29.763Z</time></trkpt><trkpt lat="44.8041685" lon="1.2039628"><ele>71.2</ele><time>2026-04-06T17:00:31.766Z</time></trkpt><trkpt lat="44.804197" lon="1.2040795"><ele>71.39999999999999</ele><time>2026-04-06T17:00:38.766Z</time></trkpt><trkpt lat="44.8043089" lon="1.204141"><ele>71.6</ele><time>2026-04-06T17:00:40.762Z</time></trkpt><trkpt lat="44.8043974" lon="1.204175"><ele>71.8</ele><time>2026-04-06T17:00:41.773Z</time></trkpt><trkpt lat="44.8044988" lon="1.2042126"><ele>72.0</ele><time>2026-04-06T17:00:42.767Z</time></trkpt><trkpt lat="44.8046215" lon="1.2042567"><ele>72.66666666666667</ele><time>2026-04-06T17:00:43.764Z</time></trkpt><trkpt lat="44.8047577" lon="1.204307"><ele>73.33333333333334</ele><time>2026-04-06T17:00:44.762Z</time></trkpt><trkpt lat="44.8049052" lon="1.2043601"><ele>74.0</ele><time>2026-04-06T17:00:45.76Z</time></trkpt><trkpt lat="44.8050582" lon="1.2044135"><ele>73.0</ele><time>2026-04-06T17:00:46.761Z</time></trkpt><trkpt lat="44.8052196" lon="1.2044693"><ele>72.0</ele><time>2026-04-06T17:00:47.76Z</time></trkpt><trkpt lat="44.805385" lon="1.2045262"><ele>71.0</ele><time>2026-04-06T17:00:48.766Z</time></trkpt><trkpt lat="44.805557" lon="1.2045864"><ele>71.0</ele><time>2026-04-06T17:00:49.763Z</time></trkpt><trkpt lat="44.8057336" lon="1.2046479"><ele>71.0</ele><time>2026-04-06T17:00:50.79Z</time></trkpt><trkpt lat="44.8059137" lon="1.2047116"><ele>71.0</ele><time>2026-04-06T17:00:51.766Z</time></trkpt><trkpt lat="44.8060996" lon="1.2047776"><ele>71.33333333333334</ele><time>2026-04-06T17:00:52.765Z</time></trkpt><trkpt lat="44.8062866" lon="1.2048441"><ele>71.66666666666667</ele><time>2026-04-06T17:00:53.769Z</time></trkpt><trkpt lat="44.806475" lon="1.2049111"><ele>72.0</ele><time>2026-04-06T17:00:54.758Z</time></trkpt><trkpt lat="44.8066639" lon="1.2049795"><ele>72.33333333333333</ele><time>2026-04-06T17:00:55.762Z</time></trkpt><trkpt lat="44.8068551" lon="1.2050462"><ele>72.66666666666666</ele><time>2026-04-06T17:00:56.764Z</time></trkpt><trkpt lat="44.8070501" lon="1.2051159"><ele>73.0</ele><time>2026-04-06T17:00:57.789Z</time></trkpt><trkpt lat="44.807247" lon="1.2051847"><ele>73.0</ele><time>2026-04-06T17:00:58.765Z</time></trkpt><trkpt lat="44.8074431" lon="1.2052495"><ele>73.0</ele><time>2026-04-06T17:00:59.766Z</time></trkpt><trkpt lat="44.8076367" lon="1.2053125"><ele>73.0</ele><time>2026-04-06T17:01:00.768Z</time></trkpt><trkpt lat="44.8078267" lon="1.2053779"><ele>73.66666666666666</ele><time>2026-04-06T17:01:01.763Z</time></trkpt><trkpt lat="44.8080132" lon="1.2054433"><ele>74.33333333333333</ele><time>2026-04-06T17:01:02.786Z</time></trkpt><trkpt lat="44.8081892" lon="1.2055074"><ele>75.0</ele><time>2026-04-06T17:01:03.767Z</time></trkpt><trkpt lat="44.8083584" lon="1.2055697"><ele>76.33333333333333</ele><time>2026-04-06T17:01:04.765Z</time></trkpt><trkpt lat="44.8085249" lon="1.2056402"><ele>77.66666666666666</ele><time>2026-04-06T17:01:05.765Z</time></trkpt><trkpt lat="44.8086863" lon="1.2057177"><ele>79.0</ele><time>2026-04-06T17:01:06.766Z</time></trkpt><trkpt lat="44.8088439" lon="1.2058072"><ele>79.0</ele><time>2026-04-06T17:01:07.763Z</time></trkpt><trkpt lat="44.8089985" lon="1.2059104"><ele>79.0</ele><time>2026-04-06T17:01:08.761Z</time></trkpt><trkpt lat="44.8091485" lon="1.2060257"><ele>79.0</ele><time>2026-04-06T17:01:09.788Z</time></trkpt><trkpt lat="44.8092921" lon="1.2061585"><ele>79.33333333333333</ele><time>2026-04-06T17:01:10.79Z</time></trkpt><trkpt lat="44.8094285" lon="1.2063054"><ele>79.66666666666667</ele><time>2026-04-06T17:01:11.763Z</time></trkpt><trkpt lat="44.8095582" lon="1.2064613"><ele>80.0</ele><time>2026-04-06T17:01:12.781Z</time></trkpt><trkpt lat="44.8096834" lon="1.2066259"><ele>79.0</ele><time>2026-04-06T17:01:13.762Z</time></trkpt><trkpt lat="44.8098076" lon="1.2067925"><ele>78.0</ele><time>2026-04-06T17:01:14.773Z</time></trkpt><trkpt lat="44.8099295" lon="1.2069589"><ele>77.0</ele><time>2026-04-06T17:01:15.766Z</time></trkpt><trkpt lat="44.8100527" lon="1.2071224"><ele>77.0</ele><time>2026-04-06T17:01:16.771Z</time></trkpt><trkpt lat="44.8101748" lon="1.2072868"><ele>77.0</ele><time>2026-04-06T17:01:17.774Z</time></trkpt><trkpt lat="44.8102941" lon="1.2074499"><ele>77.0</ele><time>2026-04-06T17:01:18.769Z</time></trkpt><trkpt lat="44.8104088" lon="1.2076086"><ele>76.66666666666667</ele><time>2026-04-06T17:01:19.787Z</time></trkpt><trkpt lat="44.8105175" lon="1.2077601"><ele>76.33333333333333</ele><time>2026-04-06T17:01:20.767Z</time></trkpt><trkpt lat="44.8106244" lon="1.2079074"><ele>76.0</ele><time>2026-04-06T17:01:21.76Z</time></trkpt><trkpt lat="44.8107311" lon="1.2080551"><ele>76.0</ele><time>2026-04-06T17:01:22.762Z</time></trkpt><trkpt lat="44.8108395" lon="1.2082049"><ele>76.0</ele><time>2026-04-06T17:01:23.766Z</time></trkpt><trkpt lat="44.810948" lon="1.2083497"><ele>76.0</ele><time>2026-04-06T17:01:24.763Z</time></trkpt><trkpt lat="44.811061" lon="1.2085025"><ele>75.66666666666666</ele><time>2026-04-06T17:01:25.792Z</time></trkpt><trkpt lat="44.8111763" lon="1.2086644"><ele>75.33333333333333</ele><time>2026-04-06T17:01:26.765Z</time></trkpt><trkpt lat="44.8112961" lon="1.2088249"><ele>75.0</ele><time>2026-04-06T17:01:27.764Z</time></trkpt><trkpt lat="44.811416" lon="1.2089897"><ele>75.0</ele><time>2026-04-06T17:01:28.77Z</time></trkpt><trkpt lat="44.8115362" lon="1.2091527"><ele>75.0</ele><time>2026-04-06T17:01:29.763Z</time></trkpt><trkpt lat="44.8116618" lon="1.2093212"><ele>75.0</ele><time>2026-04-06T17:01:30.761Z</time></trkpt><trkpt lat="44.8117854" lon="1.2094899"><ele>75.33333333333333</ele><time>2026-04-06T17:01:31.777Z</time></trkpt><trkpt lat="44.8119095" lon="1.2096577"><ele>75.66666666666666</ele><time>2026-04-06T17:01:32.763Z</time></trkpt><trkpt lat="44.8120229" lon="1.209814"><ele>76.0</ele><time>2026-04-06T17:01:33.767Z</time></trkpt><trkpt lat="44.8121308" lon="1.2099571"><ele>76.0</ele><time>2026-04-06T17:01:34.762Z</time></trkpt><trkpt lat="44.8122296" lon="1.210091"><ele>76.0</ele><time>2026-04-06T17:01:35.77Z</time></trkpt><trkpt lat="44.8123234" lon="1.2102125"><ele>76.0</ele><time>2026-04-06T17:01:36.764Z</time></trkpt><trkpt lat="44.8124104" lon="1.2103254"><ele>76.0</ele><time>2026-04-06T17:01:37.769Z</time></trkpt><trkpt lat="44.8124847" lon="1.2104288"><ele>76.0</ele><time>2026-04-06T17:01:38.761Z</time></trkpt><trkpt lat="44.8125607" lon="1.2105311"><ele>76.0</ele><time>2026-04-06T17:01:39.765Z</time></trkpt><trkpt lat="44.8126359" lon="1.2106309"><ele>76.0</ele><time>2026-04-06T17:01:40.777Z</time></trkpt><trkpt lat="44.8127086" lon="1.2107279"><ele>76.0</ele><time>2026-04-06T17:01:41.766Z</time></trkpt><trkpt lat="44.8127779" lon="1.2108257"><ele>76.0</ele><time>2026-04-06T17:01:42.795Z</time></trkpt><trkpt lat="44.8128471" lon="1.2109251"><ele>76.2</ele><time>2026-04-06T17:01:43.767Z</time></trkpt><trkpt lat="44.8129175" lon="1.2110237"><ele>76.39999999999999</ele><time>2026-04-06T17:01:44.765Z</time></trkpt><trkpt lat="44.8129916" lon="1.2111218"><ele>76.6</ele><time>2026-04-06T17:01:45.767Z</time></trkpt><trkpt lat="44.8130677" lon="1.2112212"><ele>76.8</ele><time>2026-04-06T17:01:46.765Z</time></trkpt><trkpt lat="44.8131426" lon="1.2113201"><ele>77.0</ele><time>2026-04-06T17:01:47.767Z</time></trkpt><trkpt lat="44.8132194" lon="1.211426"><ele>77.0</ele><time>2026-04-06T17:01:48.788Z</time></trkpt><trkpt lat="44.8132979" lon="1.2115375"><ele>77.0</ele><time>2026-04-06T17:01:49.762Z</time></trkpt><trkpt lat="44.8133791" lon="1.2116535"><ele>77.0</ele><time>2026-04-06T17:01:50.765Z</time></trkpt><trkpt lat="44.8134655" lon="1.2117715"><ele>77.0</ele><time>2026-04-06T17:01:51.767Z</time></trkpt><trkpt lat="44.8135541" lon="1.2118914"><ele>77.0</ele><time>2026-04-06T17:01:52.768Z</time></trkpt><trkpt lat="44.8136434" lon="1.2120125"><ele>77.0</ele><time>2026-04-06T17:01:53.762Z</time></trkpt><trkpt lat="44.8137337" lon="1.2121353"><ele>77.0</ele><time>2026-04-06T17:01:54.782Z</time></trkpt><trkpt lat="44.8138256" lon="1.2122598"><ele>77.0</ele><time>2026-04-06T17:01:55.765Z</time></trkpt><trkpt lat="44.8139176" lon="1.2123858"><ele>76.75</ele><time>2026-04-06T17:01:56.773Z</time></trkpt><trkpt lat="44.8140097" lon="1.2125147"><ele>76.5</ele><time>2026-04-06T17:01:57.771Z</time></trkpt><trkpt lat="44.8141028" lon="1.2126462"><ele>76.25</ele><time>2026-04-06T17:01:58.762Z</time></trkpt><trkpt lat="44.8141978" lon="1.2127789"><ele>76.0</ele><time>2026-04-06T17:01:59.763Z</time></trkpt><trkpt lat="44.8142943" lon="1.2129083"><ele>76.5</ele><time>2026-04-06T17:02:00.761Z</time></trkpt><trkpt lat="44.8143862" lon="1.2130281"><ele>77.0</ele><time>2026-04-06T17:02:01.782Z</time></trkpt><trkpt lat="44.8144754" lon="1.2131398"><ele>77.5</ele><time>2026-04-06T17:02:02.764Z</time></trkpt><trkpt lat="44.8145705" lon="1.2132353"><ele>78.0</ele><time>2026-04-06T17:02:03.761Z</time></trkpt><trkpt lat="44.8146708" lon="1.2133351"><ele>78.0</ele><time>2026-04-06T17:02:04.762Z</time></trkpt><trkpt lat="44.8147735" lon="1.2134298"><ele>78.0</ele><time>2026-04-06T17:02:05.763Z</time></trkpt><trkpt lat="44.8148822" lon="1.213522"><ele>78.0</ele><time>2026-04-06T17:02:06.763Z</time></trkpt><trkpt lat="44.8149912" lon="1.2136087"><ele>78.0</ele><time>2026-04-06T17:02:07.76Z</time></trkpt><trkpt lat="44.8151042" lon="1.2136903"><ele>78.25</ele><time>2026-04-06T17:02:08.78Z</time></trkpt><trkpt lat="44.815222" lon="1.2137612"><ele>78.5</ele><time>2026-04-06T17:02:09.762Z</time></trkpt><trkpt lat="44.8153446" lon="1.2138215"><ele>78.75</ele><time>2026-04-06T17:02:10.757Z</time></trkpt><trkpt lat="44.8154674" lon="1.2138716"><ele>79.0</ele><time>2026-04-06T17:02:11.765Z</time></trkpt><trkpt lat="44.8155931" lon="1.2139171"><ele>79.0</ele><time>2026-04-06T17:02:12.759Z</time></trkpt><trkpt lat="44.8157211" lon="1.2139533"><ele>79.0</ele><time>2026-04-06T17:02:13.759Z</time></trkpt><trkpt lat="44.8158493" lon="1.2139843"><ele>79.0</ele><time>2026-04-06T17:02:14.784Z</time></trkpt><trkpt lat="44.8159786" lon="1.2140075"><ele>79.0</ele><time>2026-04-06T17:02:15.759Z</time></trkpt><trkpt lat="44.8161092" lon="1.2140279"><ele>78.5</ele><time>2026-04-06T17:02:16.767Z</time></trkpt><trkpt lat="44.8162398" lon="1.2140446"><ele>78.0</ele><time>2026-04-06T17:02:17.762Z</time></trkpt><trkpt lat="44.8163718" lon="1.2140582"><ele>77.5</ele><time>2026-04-06T17:02:18.763Z</time></trkpt><trkpt lat="44.8165045" lon="1.2140693"><ele>77.0</ele><time>2026-04-06T17:02:19.766Z</time></trkpt><trkpt lat="44.8166364" lon="1.2140829"><ele>77.0</ele><time>2026-04-06T17:02:20.782Z</time></trkpt><trkpt lat="44.8167676" lon="1.2140961"><ele>77.0</ele><time>2026-04-06T17:02:21.768Z</time></trkpt><trkpt lat="44.8168997" lon="1.2141109"><ele>77.0</ele><time>2026-04-06T17:02:22.767Z</time></trkpt><trkpt lat="44.8170296" lon="1.2141218"><ele>77.0</ele><time>2026-04-06T17:02:23.765Z</time></trkpt><trkpt lat="44.8171614" lon="1.2141348"><ele>77.25</ele><time>2026-04-06T17:02:24.76Z</time></trkpt><trkpt lat="44.8172937" lon="1.2141474"><ele>77.5</ele><time>2026-04-06T17:02:25.79Z</time></trkpt><trkpt lat="44.8174231" lon="1.2141597"><ele>77.75</ele><time>2026-04-06T17:02:26.764Z</time></trkpt><trkpt lat="44.8175526" lon="1.2141735"><ele>78.0</ele><time>2026-04-06T17:02:27.769Z</time></trkpt><trkpt lat="44.8176819" lon="1.2141879"><ele>79.5</ele><time>2026-04-06T17:02:28.778Z</time></trkpt><trkpt lat="44.817813" lon="1.2142012"><ele>81.0</ele><time>2026-04-06T17:02:29.77Z</time></trkpt><trkpt lat="44.8179465" lon="1.2142119"><ele>82.5</ele><time>2026-04-06T17:02:30.765Z</time></trkpt><trkpt lat="44.8180882" lon="1.2142137"><ele>84.0</ele><time>2026-04-06T17:02:31.765Z</time></trkpt><trkpt lat="44.8182416" lon="1.2142025"><ele>84.0</ele><time>2026-04-06T17:02:32.766Z</time></trkpt><trkpt lat="44.8184044" lon="1.2141757"><ele>84.0</ele><time>2026-04-06T17:02:33.76Z</time></trkpt><trkpt lat="44.8185719" lon="1.2141349"><ele>84.0</ele><time>2026-04-06T17:02:34.766Z</time></trkpt><trkpt lat="44.8187414" lon="1.2140833"><ele>82.66666666666667</ele><time>2026-04-06T17:02:35.766Z</time></trkpt><trkpt lat="44.8189123" lon="1.2140223"><ele>81.33333333333334</ele><time>2026-04-06T17:02:36.765Z</time></trkpt><trkpt lat="44.819084" lon="1.2139605"><ele>80.0</ele><time>2026-04-06T17:02:37.791Z</time></trkpt><trkpt lat="44.8192565" lon="1.2139016"><ele>80.0</ele><time>2026-04-06T17:02:38.765Z</time></trkpt><trkpt lat="44.819431" lon="1.2138485"><ele>80.0</ele><time>2026-04-06T17:02:39.763Z</time></trkpt><trkpt lat="44.819607" lon="1.2138067"><ele>80.0</ele><time>2026-04-06T17:02:40.766Z</time></trkpt><trkpt lat="44.8197847" lon="1.2137837"><ele>80.0</ele><time>2026-04-06T17:02:41.765Z</time></trkpt><trkpt lat="44.8199648" lon="1.2137813"><ele>80.0</ele><time>2026-04-06T17:02:42.791Z</time></trkpt><trkpt lat="44.8201478" lon="1.2137929"><ele>80.0</ele><time>2026-04-06T17:02:43.766Z</time></trkpt><trkpt lat="44.8203328" lon="1.2138079"><ele>80.0</ele><time>2026-04-06T17:02:44.76Z</time></trkpt><trkpt lat="44.8205211" lon="1.2138224"><ele>80.0</ele><time>2026-04-06T17:02:45.771Z</time></trkpt><trkpt lat="44.8207112" lon="1.2138323"><ele>80.0</ele><time>2026-04-06T17:02:46.765Z</time></trkpt><trkpt lat="44.8209029" lon="1.2138318"><ele>81.0</ele><time>2026-04-06T17:02:47.766Z</time></trkpt><trkpt lat="44.8210964" lon="1.2138257"><ele>82.0</ele><time>2026-04-06T17:02:48.789Z</time></trkpt><trkpt lat="44.8212898" lon="1.2138137"><ele>83.0</ele><time>2026-04-06T17:02:49.762Z</time></trkpt><trkpt lat="44.8214843" lon="1.213799"><ele>83.0</ele><time>2026-04-06T17:02:50.766Z</time></trkpt><trkpt lat="44.8216801" lon="1.2137818"><ele>83.0</ele><time>2026-04-06T17:02:51.778Z</time></trkpt><trkpt lat="44.8218769" lon="1.2137647"><ele>83.0</ele><time>2026-04-06T17:02:52.768Z</time></trkpt><trkpt lat="44.8220748" lon="1.2137462"><ele>83.0</ele><time>2026-04-06T17:02:53.782Z</time></trkpt><trkpt lat="44.822273" lon="1.2137274"><ele>83.0</ele><time>2026-04-06T17:02:54.773Z</time></trkpt><trkpt lat="44.8224719" lon="1.2137056"><ele>83.0</ele><time>2026-04-06T17:02:55.763Z</time></trkpt><trkpt lat="44.8226694" lon="1.2136765"><ele>84.33333333333334</ele><time>2026-04-06T17:02:56.766Z</time></trkpt><trkpt lat="44.8228577" lon="1.213639"><ele>85.66666666666667</ele><time>2026-04-06T17:02:57.767Z</time></trkpt><trkpt lat="44.8230358" lon="1.2135979"><ele>87.0</ele><time>2026-04-06T17:02:58.762Z</time></trkpt><trkpt lat="44.8232071" lon="1.2135605"><ele>87.0</ele><time>2026-04-06T17:02:59.767Z</time></trkpt><trkpt lat="44.8233738" lon="1.2135428"><ele>87.0</ele><time>2026-04-06T17:03:00.785Z</time></trkpt><trkpt lat="44.8235371" lon="1.2135532"><ele>87.0</ele><time>2026-04-06T17:03:01.766Z</time></trkpt><trkpt lat="44.8236973" lon="1.2135948"><ele>87.33333333333333</ele><time>2026-04-06T17:03:02.76Z</time></trkpt><trkpt lat="44.8238539" lon="1.2136742"><ele>87.66666666666666</ele><time>2026-04-06T17:03:03.771Z</time></trkpt><trkpt lat="44.8240021" lon="1.213788"><ele>88.0</ele><time>2026-04-06T17:03:04.776Z</time></trkpt><trkpt lat="44.8241358" lon="1.2139349"><ele>88.66666666666666</ele><time>2026-04-06T17:03:05.766Z</time></trkpt><trkpt lat="44.8242672" lon="1.2140962"><ele>89.33333333333333</ele><time>2026-04-06T17:03:06.797Z</time></trkpt><trkpt lat="44.8243581" lon="1.214306"><ele>90.0</ele><time>2026-04-06T17:03:07.765Z</time></trkpt><trkpt lat="44.8244529" lon="1.2145185"><ele>90.33333333333333</ele><time>2026-04-06T17:03:08.769Z</time></trkpt><trkpt lat="44.8245397" lon="1.2147308"><ele>90.66666666666666</ele><time>2026-04-06T17:03:09.767Z</time></trkpt><trkpt lat="44.8246288" lon="1.2149264"><ele>91.0</ele><time>2026-04-06T17:03:10.766Z</time></trkpt><trkpt lat="44.8247164" lon="1.2151001"><ele>91.0</ele><time>2026-04-06T17:03:11.767Z</time></trkpt><trkpt lat="44.8248033" lon="1.2152563"><ele>91.0</ele><time>2026-04-06T17:03:12.768Z</time></trkpt><trkpt lat="44.8248885" lon="1.2154052"><ele>91.0</ele><time>2026-04-06T17:03:13.765Z</time></trkpt><trkpt lat="44.8249732" lon="1.2155531"><ele>91.0</ele><time>2026-04-06T17:03:14.768Z</time></trkpt><trkpt lat="44.82506" lon="1.2156962"><ele>91.0</ele><time>2026-04-06T17:03:15.765Z</time></trkpt><trkpt lat="44.8251456" lon="1.2158331"><ele>91.0</ele><time>2026-04-06T17:03:16.772Z</time></trkpt><trkpt lat="44.8252303" lon="1.2159654"><ele>91.0</ele><time>2026-04-06T17:03:17.767Z</time></trkpt><trkpt lat="44.8253141" lon="1.2160965"><ele>91.0</ele><time>2026-04-06T17:03:18.771Z</time></trkpt><trkpt lat="44.8253959" lon="1.2162244"><ele>92.25</ele><time>2026-04-06T17:03:19.775Z</time></trkpt><trkpt lat="44.8254768" lon="1.2163496"><ele>93.5</ele><time>2026-04-06T17:03:20.769Z</time></trkpt><trkpt lat="44.8255558" lon="1.2164716"><ele>94.75</ele><time>2026-04-06T17:03:21.771Z</time></trkpt><trkpt lat="44.8256343" lon="1.216592"><ele>96.0</ele><time>2026-04-06T17:03:22.768Z</time></trkpt><trkpt lat="44.8257108" lon="1.2167162"><ele>96.25</ele><time>2026-04-06T17:03:23.768Z</time></trkpt><trkpt lat="44.8257816" lon="1.2168477"><ele>96.5</ele><time>2026-04-06T17:03:24.779Z</time></trkpt><trkpt lat="44.8258423" lon="1.2169872"><ele>96.75</ele><time>2026-04-06T17:03:25.766Z</time></trkpt><trkpt lat="44.8258961" lon="1.2171319"><ele>97.0</ele><time>2026-04-06T17:03:26.786Z</time></trkpt><trkpt lat="44.8259436" lon="1.2172828"><ele>96.5</ele><time>2026-04-06T17:03:27.763Z</time></trkpt><trkpt lat="44.8259831" lon="1.2174351"><ele>96.0</ele><time>2026-04-06T17:03:28.77Z</time></trkpt><trkpt lat="44.8260135" lon="1.2175928"><ele>95.5</ele><time>2026-04-06T17:03:29.771Z</time></trkpt><trkpt lat="44.8260348" lon="1.2177568"><ele>95.0</ele><time>2026-04-06T17:03:30.771Z</time></trkpt><trkpt lat="44.8260543" lon="1.2179218"><ele>95.0</ele><time>2026-04-06T17:03:31.762Z</time></trkpt><trkpt lat="44.8260739" lon="1.2180873"><ele>95.0</ele><time>2026-04-06T17:03:32.773Z</time></trkpt><trkpt lat="44.8260935" lon="1.2182492"><ele>95.0</ele><time>2026-04-06T17:03:33.764Z</time></trkpt><trkpt lat="44.8261131" lon="1.2184097"><ele>95.0</ele><time>2026-04-06T17:03:34.773Z</time></trkpt><trkpt lat="44.8261329" lon="1.2185739"><ele>94.25</ele><time>2026-04-06T17:03:35.767Z</time></trkpt><trkpt lat="44.8261546" lon="1.2187399"><ele>93.5</ele><time>2026-04-06T17:03:36.764Z</time></trkpt><trkpt lat="44.826176" lon="1.2189038"><ele>92.75</ele><time>2026-04-06T17:03:37.765Z</time></trkpt><trkpt lat="44.826196" lon="1.219066"><ele>92.0</ele><time>2026-04-06T17:03:38.766Z</time></trkpt><trkpt lat="44.8262154" lon="1.2192272"><ele>91.5</ele><time>2026-04-06T17:03:39.773Z</time></trkpt><trkpt lat="44.8262356" lon="1.2193866"><ele>91.0</ele><time>2026-04-06T17:03:40.764Z</time></trkpt><trkpt lat="44.8262573" lon="1.2195447"><ele>90.5</ele><time>2026-04-06T17:03:41.786Z</time></trkpt><trkpt lat="44.8262798" lon="1.2197036"><ele>90.0</ele><time>2026-04-06T17:03:42.782Z</time></trkpt><trkpt lat="44.8263013" lon="1.2198587"><ele>89.6</ele><time>2026-04-06T17:03:43.761Z</time></trkpt><trkpt lat="44.8263271" lon="1.2200105"><ele>89.2</ele><time>2026-04-06T17:03:44.769Z</time></trkpt><trkpt lat="44.8263584" lon="1.220162"><ele>88.80000000000001</ele><time>2026-04-06T17:03:45.768Z</time></trkpt><trkpt lat="44.8263949" lon="1.2203106"><ele>88.4</ele><time>2026-04-06T17:03:46.773Z</time></trkpt><trkpt lat="44.8264357" lon="1.220457"><ele>88.0</ele><time>2026-04-06T17:03:47.765Z</time></trkpt><trkpt lat="44.8264814" lon="1.2205963"><ele>86.80000000000001</ele><time>2026-04-06T17:03:48.789Z</time></trkpt><trkpt lat="44.826531" lon="1.2207317"><ele>85.6</ele><time>2026-04-06T17:03:49.766Z</time></trkpt><trkpt lat="44.826582" lon="1.2208595"><ele>84.4</ele><time>2026-04-06T17:03:50.773Z</time></trkpt><trkpt lat="44.8266342" lon="1.2209834"><ele>83.19999999999999</ele><time>2026-04-06T17:03:51.769Z</time></trkpt><trkpt lat="44.8266868" lon="1.2211084"><ele>82.0</ele><time>2026-04-06T17:03:52.765Z</time></trkpt><trkpt lat="44.8267367" lon="1.2212341"><ele>82.0</ele><time>2026-04-06T17:03:53.776Z</time></trkpt><trkpt lat="44.8267848" lon="1.2213593"><ele>82.0</ele><time>2026-04-06T17:03:54.763Z</time></trkpt><trkpt lat="44.8268308" lon="1.2214828"><ele>82.0</ele><time>2026-04-06T17:03:55.788Z</time></trkpt><trkpt lat="44.8268745" lon="1.2216043"><ele>82.0</ele><time>2026-04-06T17:03:56.769Z</time></trkpt><trkpt lat="44.826915" lon="1.2217231"><ele>82.0</ele><time>2026-04-06T17:03:57.771Z</time></trkpt><trkpt lat="44.8269503" lon="1.2218347"><ele>83.83333333333333</ele><time>2026-04-06T17:03:58.767Z</time></trkpt><trkpt lat="44.8269773" lon="1.221939"><ele>85.66666666666666</ele><time>2026-04-06T17:03:59.776Z</time></trkpt><trkpt lat="44.8269948" lon="1.2220352"><ele>87.5</ele><time>2026-04-06T17:04:00.765Z</time></trkpt><trkpt lat="44.8269963" lon="1.222204"><ele>89.33333333333333</ele><time>2026-04-06T17:04:02.769Z</time></trkpt><trkpt lat="44.8269688" lon="1.2222863"><ele>91.16666666666667</ele><time>2026-04-06T17:04:03.771Z</time></trkpt><trkpt lat="44.826921" lon="1.2223637"><ele>93.0</ele><time>2026-04-06T17:04:04.775Z</time></trkpt><trkpt lat="44.8268692" lon="1.2224332"><ele>89.80000000000001</ele><time>2026-04-06T17:04:05.761Z</time></trkpt><trkpt lat="44.8267814" lon="1.222481"><ele>86.60000000000001</ele><time>2026-04-06T17:04:06.763Z</time></trkpt><trkpt lat="44.8266881" lon="1.2225371"><ele>83.4</ele><time>2026-04-06T17:04:07.766Z</time></trkpt><trkpt lat="44.8265763" lon="1.222601"><ele>80.2</ele><time>2026-04-06T17:04:08.769Z</time></trkpt><trkpt lat="44.8264661" lon="1.2226701"><ele>77.0</ele><time>2026-04-06T17:04:09.78Z</time></trkpt><trkpt lat="44.8263568" lon="1.2227362"><ele>77.0</ele><time>2026-04-06T17:04:10.796Z</time></trkpt><trkpt lat="44.8262453" lon="1.2227989"><ele>77.0</ele><time>2026-04-06T17:04:11.765Z</time></trkpt><trkpt lat="44.8261318" lon="1.2228692"><ele>77.0</ele><time>2026-04-06T17:04:12.762Z</time></trkpt><trkpt lat="44.8260197" lon="1.2229391"><ele>77.0</ele><time>2026-04-06T17:04:13.765Z</time></trkpt><trkpt lat="44.8259058" lon="1.2230108"><ele>76.5</ele><time>2026-04-06T17:04:14.76Z</time></trkpt><trkpt lat="44.8257904" lon="1.2230892"><ele>76.0</ele><time>2026-04-06T17:04:15.763Z</time></trkpt><trkpt lat="44.8256748" lon="1.2231636"><ele>75.5</ele><time>2026-04-06T17:04:16.764Z</time></trkpt><trkpt lat="44.8255578" lon="1.2232358"><ele>75.0</ele><time>2026-04-06T17:04:17.765Z</time></trkpt><trkpt lat="44.8254452" lon="1.2233059"><ele>74.5</ele><time>2026-04-06T17:04:18.783Z</time></trkpt><trkpt lat="44.8253358" lon="1.2233817"><ele>74.0</ele><time>2026-04-06T17:04:19.762Z</time></trkpt><trkpt lat="44.825232" lon="1.223472"><ele>73.5</ele><time>2026-04-06T17:04:20.79Z</time></trkpt><trkpt lat="44.8251366" lon="1.2235814"><ele>73.0</ele><time>2026-04-06T17:04:21.764Z</time></trkpt><trkpt lat="44.8250519" lon="1.223706"><ele>73.0</ele><time>2026-04-06T17:04:22.765Z</time></trkpt><trkpt lat="44.824979" lon="1.2238374"><ele>73.0</ele><time>2026-04-06T17:04:23.779Z</time></trkpt><trkpt lat="44.8249144" lon="1.2239606"><ele>73.0</ele><time>2026-04-06T17:04:24.768Z</time></trkpt><trkpt lat="44.8248488" lon="1.2240888"><ele>73.0</ele><time>2026-04-06T17:04:25.776Z</time></trkpt><trkpt lat="44.8247968" lon="1.2241898"><ele>73.0</ele><time>2026-04-06T17:04:26.768Z</time></trkpt><trkpt lat="44.8247526" lon="1.2242777"><ele>73.0</ele><time>2026-04-06T17:04:27.767Z</time></trkpt><trkpt lat="44.8246792" lon="1.2243736"><ele>73.0</ele><time>2026-04-06T17:04:29.772Z</time></trkpt><trkpt lat="44.8245985" lon="1.2243215"><ele>73.0</ele><time>2026-04-06T17:04:31.768Z</time></trkpt><trkpt lat="44.824564" lon="1.2241737"><ele>73.0</ele><time>2026-04-06T17:04:33.765Z</time></trkpt><trkpt lat="44.8245507" lon="1.224078"><ele>73.0</ele><time>2026-04-06T17:04:34.769Z</time></trkpt><trkpt lat="44.8245353" lon="1.2239742"><ele>73.0</ele><time>2026-04-06T17:04:35.774Z</time></trkpt><trkpt lat="44.8245194" lon="1.2238635"><ele>73.0</ele><time>2026-04-06T17:04:36.769Z</time></trkpt><trkpt lat="44.824508" lon="1.2237412"><ele>73.0</ele><time>2026-04-06T17:04:37.762Z</time></trkpt><trkpt lat="44.8244785" lon="1.2236302"><ele>73.0</ele><time>2026-04-06T17:04:38.763Z</time></trkpt><trkpt lat="44.8244521" lon="1.2235119"><ele>73.0</ele><time>2026-04-06T17:04:39.767Z</time></trkpt><trkpt lat="44.8244245" lon="1.22339"><ele>73.0</ele><time>2026-04-06T17:04:40.778Z</time></trkpt><trkpt lat="44.8244013" lon="1.2232598"><ele>73.0</ele><time>2026-04-06T17:04:41.764Z</time></trkpt><trkpt lat="44.8243825" lon="1.2231144"><ele>73.0</ele><time>2026-04-06T17:04:42.788Z</time></trkpt><trkpt lat="44.8243517" lon="1.2229545"><ele>73.0</ele><time>2026-04-06T17:04:43.765Z</time></trkpt><trkpt lat="44.8243149" lon="1.2227894"><ele>73.0</ele><time>2026-04-06T17:04:44.765Z</time></trkpt><trkpt lat="44.8242743" lon="1.2226309"><ele>73.0</ele><time>2026-04-06T17:04:45.763Z</time></trkpt><trkpt lat="44.8242471" lon="1.2224728"><ele>73.2</ele><time>2026-04-06T17:04:46.768Z</time></trkpt><trkpt lat="44.8242285" lon="1.2223154"><ele>73.4</ele><time>2026-04-06T17:04:47.786Z</time></trkpt><trkpt lat="44.8242176" lon="1.2221677"><ele>73.60000000000001</ele><time>2026-04-06T17:04:48.772Z</time></trkpt><trkpt lat="44.8242111" lon="1.2220242"><ele>73.8</ele><time>2026-04-06T17:04:49.778Z</time></trkpt><trkpt lat="44.8242088" lon="1.2218923"><ele>74.0</ele><time>2026-04-06T17:04:50.763Z</time></trkpt><trkpt lat="44.824202" lon="1.2217642"><ele>74.0</ele><time>2026-04-06T17:04:51.765Z</time></trkpt><trkpt lat="44.8241845" lon="1.2216476"><ele>74.0</ele><time>2026-04-06T17:04:52.777Z</time></trkpt><trkpt lat="44.8241536" lon="1.2215439"><ele>74.0</ele><time>2026-04-06T17:04:53.768Z</time></trkpt><trkpt lat="44.8241104" lon="1.2214637"><ele>74.0</ele><time>2026-04-06T17:04:54.784Z</time></trkpt><trkpt lat="44.8240649" lon="1.2213878"><ele>74.0</ele><time>2026-04-06T17:04:55.768Z</time></trkpt><trkpt lat="44.8240087" lon="1.2213259"><ele>74.0</ele><time>2026-04-06T17:04:56.769Z</time></trkpt><trkpt lat="44.8239602" lon="1.221265"><ele>74.0</ele><time>2026-04-06T17:04:57.769Z</time></trkpt><trkpt lat="44.8238962" lon="1.2211922"><ele>73.8</ele><time>2026-04-06T17:04:59.766Z</time></trkpt><trkpt lat="44.8238317" lon="1.2211082"><ele>73.60000000000001</ele><time>2026-04-06T17:05:01.764Z</time></trkpt><trkpt lat="44.8237474" lon="1.2209908"><ele>73.4</ele><time>2026-04-06T17:05:03.768Z</time></trkpt><trkpt lat="44.8236902" lon="1.2209142"><ele>73.2</ele><time>2026-04-06T17:05:04.772Z</time></trkpt><trkpt lat="44.823632" lon="1.2208322"><ele>73.0</ele><time>2026-04-06T17:05:05.772Z</time></trkpt><trkpt lat="44.8235627" lon="1.2207379"><ele>72.75</ele><time>2026-04-06T17:05:06.769Z</time></trkpt><trkpt lat="44.823485" lon="1.22064"><ele>72.5</ele><time>2026-04-06T17:05:07.77Z</time></trkpt><trkpt lat="44.8234005" lon="1.2205363"><ele>72.25</ele><time>2026-04-06T17:05:08.788Z</time></trkpt><trkpt lat="44.8233143" lon="1.220422"><ele>72.0</ele><time>2026-04-06T17:05:09.771Z</time></trkpt><trkpt lat="44.8232171" lon="1.2203022"><ele>72.0</ele><time>2026-04-06T17:05:10.762Z</time></trkpt><trkpt lat="44.8231098" lon="1.2201706"><ele>72.0</ele><time>2026-04-06T17:05:11.761Z</time></trkpt><trkpt lat="44.823005" lon="1.2200338"><ele>72.0</ele><time>2026-04-06T17:05:12.768Z</time></trkpt><trkpt lat="44.8229064" lon="1.2199007"><ele>72.0</ele><time>2026-04-06T17:05:13.772Z</time></trkpt><trkpt lat="44.822817" lon="1.219772"><ele>71.75</ele><time>2026-04-06T17:05:14.766Z</time></trkpt><trkpt lat="44.8227365" lon="1.2196523"><ele>71.5</ele><time>2026-04-06T17:05:15.776Z</time></trkpt><trkpt lat="44.8226591" lon="1.219538"><ele>71.25</ele><time>2026-04-06T17:05:16.767Z</time></trkpt><trkpt lat="44.8225501" lon="1.2194952"><ele>71.0</ele><time>2026-04-06T17:05:17.784Z</time></trkpt><trkpt lat="44.8224325" lon="1.2194538"><ele>71.0</ele><time>2026-04-06T17:05:18.762Z</time></trkpt><trkpt lat="44.8222869" lon="1.2194119"><ele>71.0</ele><time>2026-04-06T17:05:19.769Z</time></trkpt><trkpt lat="44.8221313" lon="1.2193386"><ele>71.0</ele><time>2026-04-06T17:05:20.778Z</time></trkpt><trkpt lat="44.821976" lon="1.21925"><ele>71.0</ele><time>2026-04-06T17:05:21.768Z</time></trkpt><trkpt lat="44.82182" lon="1.219166"><ele>71.0</ele><time>2026-04-06T17:05:22.799Z</time></trkpt><trkpt lat="44.821647" lon="1.2191045"><ele>71.0</ele><time>2026-04-06T17:05:23.78Z</time></trkpt><trkpt lat="44.8214579" lon="1.219066"><ele>71.33333333333334</ele><time>2026-04-06T17:05:24.771Z</time></trkpt><trkpt lat="44.8212575" lon="1.2190324"><ele>71.66666666666667</ele><time>2026-04-06T17:05:25.77Z</time></trkpt><trkpt lat="44.8210485" lon="1.2190024"><ele>72.0</ele><time>2026-04-06T17:05:26.766Z</time></trkpt><trkpt lat="44.8208486" lon="1.2189686"><ele>71.0</ele><time>2026-04-06T17:05:27.77Z</time></trkpt><trkpt lat="44.8206622" lon="1.2189339"><ele>70.0</ele><time>2026-04-06T17:05:28.77Z</time></trkpt><trkpt lat="44.8204819" lon="1.2188946"><ele>69.0</ele><time>2026-04-06T17:05:29.795Z</time></trkpt><trkpt lat="44.8203074" lon="1.2188644"><ele>69.0</ele><time>2026-04-06T17:05:30.769Z</time></trkpt><trkpt lat="44.8201267" lon="1.2188541"><ele>69.0</ele><time>2026-04-06T17:05:31.768Z</time></trkpt><trkpt lat="44.8199372" lon="1.2188607"><ele>69.0</ele><time>2026-04-06T17:05:32.77Z</time></trkpt><trkpt lat="44.8197375" lon="1.2188646"><ele>69.0</ele><time>2026-04-06T17:05:33.764Z</time></trkpt><trkpt lat="44.8195294" lon="1.2188686"><ele>69.0</ele><time>2026-04-06T17:05:34.767Z</time></trkpt><trkpt lat="44.8193149" lon="1.2188707"><ele>69.0</ele><time>2026-04-06T17:05:35.771Z</time></trkpt><trkpt lat="44.8191018" lon="1.2188718"><ele>69.33333333333333</ele><time>2026-04-06T17:05:36.764Z</time></trkpt><trkpt lat="44.8189048" lon="1.2188727"><ele>69.66666666666666</ele><time>2026-04-06T17:05:37.759Z</time></trkpt><trkpt lat="44.8187228" lon="1.218874"><ele>70.0</ele><time>2026-04-06T17:05:38.772Z</time></trkpt><trkpt lat="44.8185551" lon="1.2188769"><ele>70.25</ele><time>2026-04-06T17:05:39.78Z</time></trkpt><trkpt lat="44.8184004" lon="1.2188798"><ele>70.5</ele><time>2026-04-06T17:05:40.764Z</time></trkpt><trkpt lat="44.8182578" lon="1.218886"><ele>70.75</ele><time>2026-04-06T17:05:41.796Z</time></trkpt><trkpt lat="44.8181168" lon="1.2188908"><ele>71.0</ele><time>2026-04-06T17:05:42.772Z</time></trkpt><trkpt lat="44.8179758" lon="1.2188954"><ele>71.0</ele><time>2026-04-06T17:05:43.765Z</time></trkpt><trkpt lat="44.8178468" lon="1.2188963"><ele>71.0</ele><time>2026-04-06T17:05:44.761Z</time></trkpt><trkpt lat="44.8177397" lon="1.2188948"><ele>71.0</ele><time>2026-04-06T17:05:45.764Z</time></trkpt><trkpt lat="44.8176552" lon="1.2188898"><ele>71.0</ele><time>2026-04-06T17:05:46.771Z</time></trkpt><trkpt lat="44.8175885" lon="1.2188858"><ele>71.0</ele><time>2026-04-06T17:05:47.786Z</time></trkpt><trkpt lat="44.8174784" lon="1.2189081"><ele>71.5</ele><time>2026-04-06T17:05:49.789Z</time></trkpt><trkpt lat="44.8173625" lon="1.2189727"><ele>72.0</ele><time>2026-04-06T17:05:51.765Z</time></trkpt><trkpt lat="44.8173082" lon="1.2190285"><ele>72.5</ele><time>2026-04-06T17:05:52.767Z</time></trkpt><trkpt lat="44.8172579" lon="1.2190829"><ele>73.0</ele><time>2026-04-06T17:05:53.767Z</time></trkpt><trkpt lat="44.8171738" lon="1.219132"><ele>73.5</ele><time>2026-04-06T17:05:55.762Z</time></trkpt><trkpt lat="44.8170848" lon="1.2191004"><ele>74.0</ele><time>2026-04-06T17:05:57.765Z</time></trkpt><trkpt lat="44.8170468" lon="1.2190256"><ele>74.0</ele><time>2026-04-06T17:05:58.771Z</time></trkpt><trkpt lat="44.8170039" lon="1.2189571"><ele>74.0</ele><time>2026-04-06T17:05:59.766Z</time></trkpt><trkpt lat="44.8169493" lon="1.218911"><ele>74.0</ele><time>2026-04-06T17:06:00.769Z</time></trkpt><trkpt lat="44.8168495" lon="1.2189053"><ele>74.0</ele><time>2026-04-06T17:06:02.767Z</time></trkpt><trkpt lat="44.8167902" lon="1.2189597"><ele>74.0</ele><time>2026-04-06T17:06:04.77Z</time></trkpt><trkpt lat="44.816796" lon="1.2190541"><ele>74.0</ele><time>2026-04-06T17:06:06.781Z</time></trkpt><trkpt lat="44.816828" lon="1.2191683"><ele>74.0</ele><time>2026-04-06T17:06:08.791Z</time></trkpt><trkpt lat="44.8168621" lon="1.2192553"><ele>74.0</ele><time>2026-04-06T17:06:10.769Z</time></trkpt><trkpt lat="44.8169279" lon="1.219284"><ele>74.0</ele><time>2026-04-06T19:29:48.736Z</time></trkpt><trkpt lat="44.8168649" lon="1.2192865"><ele>74.0</ele><time>2026-04-06T19:29:54.769Z</time></trkpt><trkpt lat="44.8168312" lon="1.2191757"><ele>74.0</ele><time>2026-04-06T19:30:05.772Z</time></trkpt><trkpt lat="44.8167991" lon="1.219079"><ele>74.0</ele><time>2026-04-06T19:30:07.779Z</time></trkpt><trkpt lat="44.8167985" lon="1.2189668"><ele>74.0</ele><time>2026-04-06T19:30:09.782Z</time></trkpt><trkpt lat="44.816881" lon="1.2188721"><ele>74.0</ele><time>2026-04-06T19:30:11.783Z</time></trkpt><trkpt lat="44.8169525" lon="1.2189002"><ele>74.0</ele><time>2026-04-06T19:30:12.776Z</time></trkpt><trkpt lat="44.8170127" lon="1.2189623"><ele>74.0</ele><time>2026-04-06T19:30:13.773Z</time></trkpt><trkpt lat="44.8170612" lon="1.219047"><ele>74.0</ele><time>2026-04-06T19:30:14.774Z</time></trkpt><trkpt lat="44.8171067" lon="1.2191205"><ele>74.0</ele><time>2026-04-06T19:30:15.767Z</time></trkpt><trkpt lat="44.8171878" lon="1.2192015"><ele>74.0</ele><time>2026-04-06T19:30:17.781Z</time></trkpt><trkpt lat="44.8172395" lon="1.2191462"><ele>74.0</ele><time>2026-04-06T19:30:18.78Z</time></trkpt><trkpt lat="44.8173162" lon="1.2190592"><ele>74.0</ele><time>2026-04-06T19:30:19.784Z</time></trkpt><trkpt lat="44.8174089" lon="1.2189898"><ele>74.0</ele><time>2026-04-06T19:30:20.785Z</time></trkpt><trkpt lat="44.8175082" lon="1.2189297"><ele>74.0</ele><time>2026-04-06T19:30:21.771Z</time></trkpt><trkpt lat="44.8176449" lon="1.2189289"><ele>74.0</ele><time>2026-04-06T19:30:22.772Z</time></trkpt><trkpt lat="44.8178037" lon="1.2189329"><ele>73.0</ele><time>2026-04-06T19:30:23.777Z</time></trkpt><trkpt lat="44.8179744" lon="1.2189313"><ele>72.0</ele><time>2026-04-06T19:30:24.765Z</time></trkpt><trkpt lat="44.8181591" lon="1.2189238"><ele>71.0</ele><time>2026-04-06T19:30:25.773Z</time></trkpt><trkpt lat="44.8183477" lon="1.2189156"><ele>70.66666666666667</ele><time>2026-04-06T19:30:26.768Z</time></trkpt><trkpt lat="44.8185429" lon="1.2189114"><ele>70.33333333333333</ele><time>2026-04-06T19:30:27.774Z</time></trkpt><trkpt lat="44.818747" lon="1.2189143"><ele>70.0</ele><time>2026-04-06T19:30:28.77Z</time></trkpt><trkpt lat="44.8189466" lon="1.2189103"><ele>70.0</ele><time>2026-04-06T19:30:29.769Z</time></trkpt><trkpt lat="44.8191352" lon="1.2189029"><ele>70.0</ele><time>2026-04-06T19:30:30.828Z</time></trkpt><trkpt lat="44.8193163" lon="1.2189079"><ele>70.0</ele><time>2026-04-06T19:30:31.772Z</time></trkpt><trkpt lat="44.8195041" lon="1.2188986"><ele>69.66666666666666</ele><time>2026-04-06T19:30:32.774Z</time></trkpt><trkpt lat="44.8196799" lon="1.2188997"><ele>69.33333333333333</ele><time>2026-04-06T19:30:33.782Z</time></trkpt><trkpt lat="44.819839" lon="1.2188973"><ele>69.0</ele><time>2026-04-06T19:30:34.778Z</time></trkpt><trkpt lat="44.8199879" lon="1.2188936"><ele>69.0</ele><time>2026-04-06T19:30:35.771Z</time></trkpt><trkpt lat="44.8201394" lon="1.2188903"><ele>69.0</ele><time>2026-04-06T19:30:36.804Z</time></trkpt><trkpt lat="44.8202897" lon="1.2189044"><ele>69.0</ele><time>2026-04-06T19:30:37.77Z</time></trkpt><trkpt lat="44.8204411" lon="1.218936"><ele>69.0</ele><time>2026-04-06T19:30:38.776Z</time></trkpt><trkpt lat="44.8206025" lon="1.2189722"><ele>69.0</ele><time>2026-04-06T19:30:39.78Z</time></trkpt><trkpt lat="44.8207769" lon="1.2190135"><ele>69.0</ele><time>2026-04-06T19:30:40.77Z</time></trkpt><trkpt lat="44.8209553" lon="1.2190496"><ele>70.0</ele><time>2026-04-06T19:30:41.797Z</time></trkpt><trkpt lat="44.8211211" lon="1.219077"><ele>71.0</ele><time>2026-04-06T19:30:42.774Z</time></trkpt><trkpt lat="44.8212726" lon="1.2190953"><ele>72.0</ele><time>2026-04-06T19:30:43.776Z</time></trkpt><trkpt lat="44.8214115" lon="1.2191166"><ele>72.0</ele><time>2026-04-06T19:30:44.777Z</time></trkpt><trkpt lat="44.8215426" lon="1.2191268"><ele>72.0</ele><time>2026-04-06T19:30:45.771Z</time></trkpt><trkpt lat="44.8216494" lon="1.2191551"><ele>72.0</ele><time>2026-04-06T19:30:46.788Z</time></trkpt><trkpt lat="44.8217526" lon="1.2191944"><ele>72.0</ele><time>2026-04-06T19:30:47.776Z</time></trkpt><trkpt lat="44.8218584" lon="1.2192391"><ele>71.75</ele><time>2026-04-06T19:30:48.787Z</time></trkpt><trkpt lat="44.8219702" lon="1.2193212"><ele>71.5</ele><time>2026-04-06T19:30:49.77Z</time></trkpt><trkpt lat="44.8220904" lon="1.2193915"><ele>71.25</ele><time>2026-04-06T19:30:50.775Z</time></trkpt><trkpt lat="44.8222148" lon="1.2194593"><ele>71.0</ele><time>2026-04-06T19:30:51.766Z</time></trkpt><trkpt lat="44.8223491" lon="1.21951"><ele>71.0</ele><time>2026-04-06T19:30:52.774Z</time></trkpt><trkpt lat="44.822466" lon="1.219547"><ele>71.0</ele><time>2026-04-06T19:30:53.771Z</time></trkpt><trkpt lat="44.8225729" lon="1.219558"><ele>71.0</ele><time>2026-04-06T19:30:54.778Z</time></trkpt><trkpt lat="44.8226645" lon="1.2195814"><ele>71.0</ele><time>2026-04-06T19:30:55.781Z</time></trkpt><trkpt lat="44.8227513" lon="1.2196415"><ele>71.0</ele><time>2026-04-06T19:30:56.772Z</time></trkpt><trkpt lat="44.82283" lon="1.2197604"><ele>71.33333333333334</ele><time>2026-04-06T19:30:57.778Z</time></trkpt><trkpt lat="44.8229196" lon="1.2198946"><ele>71.66666666666667</ele><time>2026-04-06T19:30:58.784Z</time></trkpt><trkpt lat="44.8230307" lon="1.2200647"><ele>72.0</ele><time>2026-04-06T19:30:59.771Z</time></trkpt><trkpt lat="44.8231534" lon="1.2202333"><ele>72.0</ele><time>2026-04-06T19:31:00.781Z</time></trkpt><trkpt lat="44.8232822" lon="1.2203938"><ele>72.0</ele><time>2026-04-06T19:31:01.771Z</time></trkpt><trkpt lat="44.8233927" lon="1.2205383"><ele>72.0</ele><time>2026-04-06T19:31:02.768Z</time></trkpt><trkpt lat="44.8235002" lon="1.2206723"><ele>72.25</ele><time>2026-04-06T19:31:03.771Z</time></trkpt><trkpt lat="44.8235967" lon="1.2207949"><ele>72.5</ele><time>2026-04-06T19:31:04.766Z</time></trkpt><trkpt lat="44.8236909" lon="1.2209146"><ele>72.75</ele><time>2026-04-06T19:31:05.79Z</time></trkpt><trkpt lat="44.8237809" lon="1.221046"><ele>73.0</ele><time>2026-04-06T19:31:06.769Z</time></trkpt><trkpt lat="44.8238714" lon="1.2211708"><ele>73.0</ele><time>2026-04-06T19:31:07.769Z</time></trkpt><trkpt lat="44.8239487" lon="1.2212811"><ele>73.0</ele><time>2026-04-06T19:31:08.767Z</time></trkpt><trkpt lat="44.8240172" lon="1.2213558"><ele>73.0</ele><time>2026-04-06T19:31:09.77Z</time></trkpt><trkpt lat="44.8240801" lon="1.2214293"><ele>73.0</ele><time>2026-04-06T19:31:10.774Z</time></trkpt><trkpt lat="44.8241405" lon="1.2215107"><ele>73.0</ele><time>2026-04-06T19:31:11.8Z</time></trkpt><trkpt lat="44.8241806" lon="1.2216"><ele>73.0</ele><time>2026-04-06T19:31:12.773Z</time></trkpt><trkpt lat="44.8242057" lon="1.221712"><ele>73.2</ele><time>2026-04-06T19:31:13.773Z</time></trkpt><trkpt lat="44.8242182" lon="1.2218394"><ele>73.4</ele><time>2026-04-06T19:31:14.778Z</time></trkpt><trkpt lat="44.8242225" lon="1.2219732"><ele>73.60000000000001</ele><time>2026-04-06T19:31:15.779Z</time></trkpt><trkpt lat="44.8242202" lon="1.2221124"><ele>73.8</ele><time>2026-04-06T19:31:16.769Z</time></trkpt><trkpt lat="44.8242237" lon="1.2222586"><ele>74.0</ele><time>2026-04-06T19:31:17.777Z</time></trkpt><trkpt lat="44.8242367" lon="1.222404"><ele>74.0</ele><time>2026-04-06T19:31:18.774Z</time></trkpt><trkpt lat="44.8242583" lon="1.2225485"><ele>74.0</ele><time>2026-04-06T19:31:19.787Z</time></trkpt><trkpt lat="44.824287" lon="1.2226934"><ele>74.0</ele><time>2026-04-06T19:31:20.771Z</time></trkpt><trkpt lat="44.8243198" lon="1.2228399"><ele>74.0</ele><time>2026-04-06T19:31:21.769Z</time></trkpt><trkpt lat="44.8243518" lon="1.2229796"><ele>74.0</ele><time>2026-04-06T19:31:22.772Z</time></trkpt><trkpt lat="44.8243792" lon="1.2231189"><ele>73.8</ele><time>2026-04-06T19:31:23.769Z</time></trkpt><trkpt lat="44.8244025" lon="1.2232643"><ele>73.60000000000001</ele><time>2026-04-06T19:31:24.772Z</time></trkpt><trkpt lat="44.8244274" lon="1.2234109"><ele>73.4</ele><time>2026-04-06T19:31:25.771Z</time></trkpt><trkpt lat="44.8244565" lon="1.2235545"><ele>73.2</ele><time>2026-04-06T19:31:26.769Z</time></trkpt><trkpt lat="44.8244919" lon="1.2237112"><ele>73.0</ele><time>2026-04-06T19:31:27.766Z</time></trkpt><trkpt lat="44.8245208" lon="1.2238692"><ele>73.2</ele><time>2026-04-06T19:31:28.769Z</time></trkpt><trkpt lat="44.8245484" lon="1.2240218"><ele>73.4</ele><time>2026-04-06T19:31:29.766Z</time></trkpt><trkpt lat="44.8245743" lon="1.2241636"><ele>73.60000000000001</ele><time>2026-04-06T19:31:30.79Z</time></trkpt><trkpt lat="44.8245884" lon="1.2242739"><ele>73.8</ele><time>2026-04-06T19:31:31.772Z</time></trkpt><trkpt lat="44.8246023" lon="1.2243624"><ele>74.0</ele><time>2026-04-06T19:31:32.771Z</time></trkpt><trkpt lat="44.8246774" lon="1.2244365"><ele>74.0</ele><time>2026-04-06T19:31:39.796Z</time></trkpt><trkpt lat="44.8247574" lon="1.2243232"><ele>74.0</ele><time>2026-04-06T19:31:41.771Z</time></trkpt><trkpt lat="44.8248089" lon="1.2242262"><ele>74.0</ele><time>2026-04-06T19:31:42.775Z</time></trkpt><trkpt lat="44.8248697" lon="1.2241053"><ele>74.0</ele><time>2026-04-06T19:31:43.77Z</time></trkpt><trkpt lat="44.8249336" lon="1.2239787"><ele>74.0</ele><time>2026-04-06T19:31:44.787Z</time></trkpt><trkpt lat="44.8249982" lon="1.2238441"><ele>73.75</ele><time>2026-04-06T19:31:45.776Z</time></trkpt><trkpt lat="44.8250722" lon="1.22372"><ele>73.5</ele><time>2026-04-06T19:31:46.787Z</time></trkpt><trkpt lat="44.8251497" lon="1.2235967"><ele>73.25</ele><time>2026-04-06T19:31:47.77Z</time></trkpt><trkpt lat="44.8252394" lon="1.2234965"><ele>73.0</ele><time>2026-04-06T19:31:48.77Z</time></trkpt><trkpt lat="44.8253421" lon="1.2234136"><ele>72.75</ele><time>2026-04-06T19:31:49.775Z</time></trkpt><trkpt lat="44.8254452" lon="1.2233293"><ele>72.5</ele><time>2026-04-06T19:31:50.775Z</time></trkpt><trkpt lat="44.8255549" lon="1.223264"><ele>72.25</ele><time>2026-04-06T19:31:51.777Z</time></trkpt><trkpt lat="44.825665" lon="1.2231936"><ele>72.0</ele><time>2026-04-06T19:31:52.768Z</time></trkpt><trkpt lat="44.8257832" lon="1.2231139"><ele>72.75</ele><time>2026-04-06T19:31:53.794Z</time></trkpt><trkpt lat="44.8259017" lon="1.2230436"><ele>73.5</ele><time>2026-04-06T19:31:54.787Z</time></trkpt><trkpt lat="44.8260239" lon="1.2229666"><ele>74.25</ele><time>2026-04-06T19:31:55.776Z</time></trkpt><trkpt lat="44.8261397" lon="1.2228904"><ele>75.0</ele><time>2026-04-06T19:31:56.787Z</time></trkpt><trkpt lat="44.8262525" lon="1.2228186"><ele>75.4</ele><time>2026-04-06T19:31:57.778Z</time></trkpt><trkpt lat="44.8263578" lon="1.2227498"><ele>75.8</ele><time>2026-04-06T19:31:58.785Z</time></trkpt><trkpt lat="44.8264581" lon="1.2226852"><ele>76.2</ele><time>2026-04-06T19:31:59.768Z</time></trkpt><trkpt lat="44.8265518" lon="1.222622"><ele>76.6</ele><time>2026-04-06T19:32:00.77Z</time></trkpt><trkpt lat="44.8266429" lon="1.2225667"><ele>77.0</ele><time>2026-04-06T19:32:01.765Z</time></trkpt><trkpt lat="44.8267188" lon="1.2225202"><ele>77.0</ele><time>2026-04-06T19:32:02.79Z</time></trkpt><trkpt lat="44.8267884" lon="1.2224722"><ele>77.0</ele><time>2026-04-06T19:32:03.797Z</time></trkpt><trkpt lat="44.8268494" lon="1.2224376"><ele>77.0</ele><time>2026-04-06T19:32:04.777Z</time></trkpt><trkpt lat="44.8269495" lon="1.2224004"><ele>77.0</ele><time>2026-04-06T19:32:06.777Z</time></trkpt><trkpt lat="44.8270296" lon="1.2223458"><ele>77.0</ele><time>2026-04-06T19:32:08.772Z</time></trkpt><trkpt lat="44.827053" lon="1.222208"><ele>77.0</ele><time>2026-04-06T19:32:10.766Z</time></trkpt><trkpt lat="44.8270378" lon="1.2221128"><ele>81.4</ele><time>2026-04-06T19:32:11.768Z</time></trkpt><trkpt lat="44.8270187" lon="1.2220033"><ele>85.80000000000001</ele><time>2026-04-06T19:32:12.776Z</time></trkpt><trkpt lat="44.8269958" lon="1.2218894"><ele>90.2</ele><time>2026-04-06T19:32:13.77Z</time></trkpt><trkpt lat="44.826963" lon="1.2217657"><ele>94.60000000000001</ele><time>2026-04-06T19:32:14.78Z</time></trkpt><trkpt lat="44.8269183" lon="1.2216391"><ele>99.0</ele><time>2026-04-06T19:32:15.766Z</time></trkpt><trkpt lat="44.8268678" lon="1.221496"><ele>99.5</ele><time>2026-04-06T19:32:16.769Z</time></trkpt><trkpt lat="44.8268112" lon="1.2213403"><ele>100.0</ele><time>2026-04-06T19:32:17.769Z</time></trkpt><trkpt lat="44.8267444" lon="1.2211827"><ele>100.5</ele><time>2026-04-06T19:32:18.773Z</time></trkpt><trkpt lat="44.8266717" lon="1.2210171"><ele>101.0</ele><time>2026-04-06T19:32:19.769Z</time></trkpt><trkpt lat="44.8266" lon="1.2208466"><ele>97.75</ele><time>2026-04-06T19:32:20.784Z</time></trkpt><trkpt lat="44.8265333" lon="1.2206725"><ele>94.5</ele><time>2026-04-06T19:32:21.776Z</time></trkpt><trkpt lat="44.8264713" lon="1.2204874"><ele>91.25</ele><time>2026-04-06T19:32:22.768Z</time></trkpt><trkpt lat="44.8264159" lon="1.2202942"><ele>88.0</ele><time>2026-04-06T19:32:23.771Z</time></trkpt><trkpt lat="44.8263627" lon="1.2201043"><ele>88.0</ele><time>2026-04-06T19:32:24.769Z</time></trkpt><trkpt lat="44.826323" lon="1.2198994"><ele>88.0</ele><time>2026-04-06T19:32:25.764Z</time></trkpt><trkpt lat="44.8262979" lon="1.2196929"><ele>88.0</ele><time>2026-04-06T19:32:26.77Z</time></trkpt><trkpt lat="44.8262696" lon="1.2194875"><ele>88.0</ele><time>2026-04-06T19:32:27.779Z</time></trkpt><trkpt lat="44.8262413" lon="1.2192686"><ele>88.66666666666666</ele><time>2026-04-06T19:32:28.792Z</time></trkpt><trkpt lat="44.8262079" lon="1.219044"><ele>89.33333333333333</ele><time>2026-04-06T19:32:29.792Z</time></trkpt><trkpt lat="44.8261837" lon="1.2188269"><ele>90.0</ele><time>2026-04-06T19:32:30.77Z</time></trkpt><trkpt lat="44.8261605" lon="1.2185939"><ele>90.66666666666667</ele><time>2026-04-06T19:32:31.772Z</time></trkpt><trkpt lat="44.8261322" lon="1.2183581"><ele>91.33333333333334</ele><time>2026-04-06T19:32:32.764Z</time></trkpt><trkpt lat="44.8261023" lon="1.2181253"><ele>92.0</ele><time>2026-04-06T19:32:33.773Z</time></trkpt><trkpt lat="44.8260767" lon="1.2179041"><ele>93.0</ele><time>2026-04-06T19:32:34.769Z</time></trkpt><trkpt lat="44.8260524" lon="1.2176938"><ele>94.0</ele><time>2026-04-06T19:32:35.776Z</time></trkpt><trkpt lat="44.8260213" lon="1.217486"><ele>95.0</ele><time>2026-04-06T19:32:36.769Z</time></trkpt><trkpt lat="44.8259735" lon="1.2172801"><ele>95.66666666666667</ele><time>2026-04-06T19:32:37.767Z</time></trkpt><trkpt lat="44.825916" lon="1.217078"><ele>96.33333333333334</ele><time>2026-04-06T19:32:38.781Z</time></trkpt><trkpt lat="44.8258404" lon="1.2168821"><ele>97.0</ele><time>2026-04-06T19:32:39.768Z</time></trkpt><trkpt lat="44.8257439" lon="1.2167033"><ele>97.0</ele><time>2026-04-06T19:32:40.769Z</time></trkpt><trkpt lat="44.8256374" lon="1.2165148"><ele>97.0</ele><time>2026-04-06T19:32:41.767Z</time></trkpt><trkpt lat="44.82551" lon="1.2163264"><ele>97.0</ele><time>2026-04-06T19:32:42.766Z</time></trkpt><trkpt lat="44.8253753" lon="1.2161327"><ele>96.66666666666667</ele><time>2026-04-06T19:32:43.774Z</time></trkpt><trkpt lat="44.8252352" lon="1.2159288"><ele>96.33333333333334</ele><time>2026-04-06T19:32:44.778Z</time></trkpt><trkpt lat="44.825098" lon="1.2157274"><ele>96.0</ele><time>2026-04-06T19:32:45.763Z</time></trkpt><trkpt lat="44.8249634" lon="1.2155177"><ele>94.66666666666667</ele><time>2026-04-06T19:32:46.774Z</time></trkpt><trkpt lat="44.8248292" lon="1.2153112"><ele>93.33333333333334</ele><time>2026-04-06T19:32:47.77Z</time></trkpt><trkpt lat="44.8247137" lon="1.2150787"><ele>92.0</ele><time>2026-04-06T19:32:48.767Z</time></trkpt><trkpt lat="44.8246097" lon="1.2148617"><ele>91.66666666666667</ele><time>2026-04-06T19:32:49.773Z</time></trkpt><trkpt lat="44.8245248" lon="1.214644"><ele>91.33333333333333</ele><time>2026-04-06T19:32:50.767Z</time></trkpt><trkpt lat="44.8244374" lon="1.2144344"><ele>91.0</ele><time>2026-04-06T19:32:51.788Z</time></trkpt><trkpt lat="44.8243371" lon="1.2142411"><ele>90.66666666666666</ele><time>2026-04-06T19:32:52.775Z</time></trkpt><trkpt lat="44.824235" lon="1.2140568"><ele>90.33333333333333</ele><time>2026-04-06T19:32:53.771Z</time></trkpt><trkpt lat="44.8241179" lon="1.2138966"><ele>90.0</ele><time>2026-04-06T19:32:54.772Z</time></trkpt><trkpt lat="44.8239899" lon="1.2137593"><ele>89.33333333333333</ele><time>2026-04-06T19:32:55.772Z</time></trkpt><trkpt lat="44.8238503" lon="1.2136565"><ele>88.66666666666666</ele><time>2026-04-06T19:32:56.772Z</time></trkpt><trkpt lat="44.8237057" lon="1.2135805"><ele>88.0</ele><time>2026-04-06T19:32:57.771Z</time></trkpt><trkpt lat="44.8235441" lon="1.213539"><ele>87.66666666666666</ele><time>2026-04-06T19:32:58.77Z</time></trkpt><trkpt lat="44.8233652" lon="1.21354"><ele>87.33333333333333</ele><time>2026-04-06T19:32:59.786Z</time></trkpt><trkpt lat="44.8231895" lon="1.2135523"><ele>87.0</ele><time>2026-04-06T19:33:00.776Z</time></trkpt><trkpt lat="44.8230045" lon="1.2136025"><ele>87.0</ele><time>2026-04-06T19:33:01.771Z</time></trkpt><trkpt lat="44.8228195" lon="1.2136487"><ele>87.0</ele><time>2026-04-06T19:33:02.77Z</time></trkpt><trkpt lat="44.8226218" lon="1.2136841"><ele>87.0</ele><time>2026-04-06T19:33:03.768Z</time></trkpt><trkpt lat="44.8224182" lon="1.2137118"><ele>85.66666666666667</ele><time>2026-04-06T19:33:04.772Z</time></trkpt><trkpt lat="44.8222124" lon="1.2137346"><ele>84.33333333333334</ele><time>2026-04-06T19:33:05.777Z</time></trkpt><trkpt lat="44.8220089" lon="1.2137538"><ele>83.0</ele><time>2026-04-06T19:33:06.795Z</time></trkpt><trkpt lat="44.8217993" lon="1.213774"><ele>83.0</ele><time>2026-04-06T19:33:07.77Z</time></trkpt><trkpt lat="44.8215872" lon="1.2137917"><ele>83.0</ele><time>2026-04-06T19:33:08.773Z</time></trkpt><trkpt lat="44.8213756" lon="1.213812"><ele>83.0</ele><time>2026-04-06T19:33:09.769Z</time></trkpt><trkpt lat="44.8211564" lon="1.2138258"><ele>82.0</ele><time>2026-04-06T19:33:10.77Z</time></trkpt><trkpt lat="44.8209386" lon="1.2138298"><ele>81.0</ele><time>2026-04-06T19:33:11.77Z</time></trkpt><trkpt lat="44.8207209" lon="1.2138327"><ele>80.0</ele><time>2026-04-06T19:33:12.771Z</time></trkpt><trkpt lat="44.8205112" lon="1.2138248"><ele>80.0</ele><time>2026-04-06T19:33:13.792Z</time></trkpt><trkpt lat="44.8203154" lon="1.2138083"><ele>80.0</ele><time>2026-04-06T19:33:14.766Z</time></trkpt><trkpt lat="44.8201303" lon="1.2137907"><ele>80.0</ele><time>2026-04-06T19:33:15.774Z</time></trkpt><trkpt lat="44.8199535" lon="1.2137792"><ele>80.0</ele><time>2026-04-06T19:33:16.786Z</time></trkpt><trkpt lat="44.8197751" lon="1.2137866"><ele>80.0</ele><time>2026-04-06T19:33:17.769Z</time></trkpt><trkpt lat="44.8195956" lon="1.2138143"><ele>80.0</ele><time>2026-04-06T19:33:18.786Z</time></trkpt><trkpt lat="44.819413" lon="1.2138626"><ele>80.0</ele><time>2026-04-06T19:33:19.775Z</time></trkpt><trkpt lat="44.8192241" lon="1.2139258"><ele>80.0</ele><time>2026-04-06T19:33:20.765Z</time></trkpt><trkpt lat="44.8190409" lon="1.2139934"><ele>80.0</ele><time>2026-04-06T19:33:21.773Z</time></trkpt><trkpt lat="44.8188614" lon="1.214057"><ele>81.33333333333334</ele><time>2026-04-06T19:33:22.784Z</time></trkpt><trkpt lat="44.8186887" lon="1.2141106"><ele>82.66666666666667</ele><time>2026-04-06T19:33:23.771Z</time></trkpt><trkpt lat="44.8185127" lon="1.214157"><ele>84.0</ele><time>2026-04-06T19:33:24.775Z</time></trkpt><trkpt lat="44.8183366" lon="1.2141882"><ele>84.0</ele><time>2026-04-06T19:33:25.775Z</time></trkpt><trkpt lat="44.8181613" lon="1.2142066"><ele>84.0</ele><time>2026-04-06T19:33:26.779Z</time></trkpt><trkpt lat="44.817987" lon="1.2142096"><ele>84.0</ele><time>2026-04-06T19:33:27.78Z</time></trkpt><trkpt lat="44.8178132" lon="1.2142007"><ele>82.0</ele><time>2026-04-06T19:33:28.769Z</time></trkpt><trkpt lat="44.8176406" lon="1.2141897"><ele>80.0</ele><time>2026-04-06T19:33:29.775Z</time></trkpt><trkpt lat="44.817469" lon="1.2141721"><ele>78.0</ele><time>2026-04-06T19:33:30.769Z</time></trkpt><trkpt lat="44.8172952" lon="1.2141545"><ele>78.0</ele><time>2026-04-06T19:33:31.774Z</time></trkpt><trkpt lat="44.8171223" lon="1.214136"><ele>78.0</ele><time>2026-04-06T19:33:32.766Z</time></trkpt><trkpt lat="44.8169487" lon="1.2141181"><ele>78.0</ele><time>2026-04-06T19:33:33.772Z</time></trkpt><trkpt lat="44.8167749" lon="1.2141009"><ele>77.66666666666667</ele><time>2026-04-06T19:33:34.774Z</time></trkpt><trkpt lat="44.8166016" lon="1.2140831"><ele>77.33333333333334</ele><time>2026-04-06T19:33:35.767Z</time></trkpt><trkpt lat="44.8164281" lon="1.2140641"><ele>77.0</ele><time>2026-04-06T19:33:36.773Z</time></trkpt><trkpt lat="44.8162545" lon="1.2140421"><ele>77.0</ele><time>2026-04-06T19:33:37.778Z</time></trkpt><trkpt lat="44.8160779" lon="1.2140176"><ele>77.0</ele><time>2026-04-06T19:33:38.787Z</time></trkpt><trkpt lat="44.8159019" lon="1.2139906"><ele>77.0</ele><time>2026-04-06T19:33:39.774Z</time></trkpt><trkpt lat="44.8157318" lon="1.2139519"><ele>77.66666666666667</ele><time>2026-04-06T19:33:40.794Z</time></trkpt><trkpt lat="44.8155613" lon="1.2139106"><ele>78.33333333333333</ele><time>2026-04-06T19:33:41.765Z</time></trkpt><trkpt lat="44.8153888" lon="1.2138451"><ele>79.0</ele><time>2026-04-06T19:33:42.789Z</time></trkpt><trkpt lat="44.8152254" lon="1.2137659"><ele>78.66666666666666</ele><time>2026-04-06T19:33:43.765Z</time></trkpt><trkpt lat="44.8150639" lon="1.2136677"><ele>78.33333333333333</ele><time>2026-04-06T19:33:44.77Z</time></trkpt><trkpt lat="44.814906" lon="1.2135519"><ele>78.0</ele><time>2026-04-06T19:33:45.769Z</time></trkpt><trkpt lat="44.8147569" lon="1.2134194"><ele>78.0</ele><time>2026-04-06T19:33:46.784Z</time></trkpt><trkpt lat="44.8146123" lon="1.213274"><ele>78.0</ele><time>2026-04-06T19:33:47.775Z</time></trkpt><trkpt lat="44.8144686" lon="1.2131254"><ele>78.0</ele><time>2026-04-06T19:33:48.79Z</time></trkpt><trkpt lat="44.8143425" lon="1.2129574"><ele>77.33333333333333</ele><time>2026-04-06T19:33:49.771Z</time></trkpt><trkpt lat="44.814215" lon="1.2127877"><ele>76.66666666666666</ele><time>2026-04-06T19:33:50.771Z</time></trkpt><trkpt lat="44.8140842" lon="1.212616"><ele>76.0</ele><time>2026-04-06T19:33:51.764Z</time></trkpt><trkpt lat="44.813959" lon="1.2124423"><ele>76.33333333333333</ele><time>2026-04-06T19:33:52.772Z</time></trkpt><trkpt lat="44.8138322" lon="1.2122688"><ele>76.66666666666667</ele><time>2026-04-06T19:33:53.765Z</time></trkpt><trkpt lat="44.8137079" lon="1.2120992"><ele>77.0</ele><time>2026-04-06T19:33:54.776Z</time></trkpt><trkpt lat="44.8135841" lon="1.2119264"><ele>77.0</ele><time>2026-04-06T19:33:55.773Z</time></trkpt><trkpt lat="44.813461" lon="1.2117545"><ele>77.0</ele><time>2026-04-06T19:33:56.777Z</time></trkpt><trkpt lat="44.8133362" lon="1.2115848"><ele>77.0</ele><time>2026-04-06T19:33:57.775Z</time></trkpt><trkpt lat="44.8132119" lon="1.2114139"><ele>77.0</ele><time>2026-04-06T19:33:58.774Z</time></trkpt><trkpt lat="44.8130875" lon="1.2112411"><ele>77.0</ele><time>2026-04-06T19:33:59.792Z</time></trkpt><trkpt lat="44.8129649" lon="1.2110689"><ele>77.0</ele><time>2026-04-06T19:34:00.769Z</time></trkpt><trkpt lat="44.812839" lon="1.2108987"><ele>77.0</ele><time>2026-04-06T19:34:01.765Z</time></trkpt><trkpt lat="44.8127143" lon="1.2107268"><ele>77.0</ele><time>2026-04-06T19:34:02.795Z</time></trkpt><trkpt lat="44.8125854" lon="1.2105502"><ele>77.0</ele><time>2026-04-06T19:34:03.768Z</time></trkpt><trkpt lat="44.8124503" lon="1.2103684"><ele>77.0</ele><time>2026-04-06T19:34:04.788Z</time></trkpt><trkpt lat="44.8123118" lon="1.210181"><ele>77.0</ele><time>2026-04-06T19:34:05.769Z</time></trkpt><trkpt lat="44.8121709" lon="1.2099879"><ele>77.0</ele><time>2026-04-06T19:34:06.765Z</time></trkpt><trkpt lat="44.8120282" lon="1.2097905"><ele>77.0</ele><time>2026-04-06T19:34:07.789Z</time></trkpt><trkpt lat="44.8118837" lon="1.2095931"><ele>77.0</ele><time>2026-04-06T19:34:08.766Z</time></trkpt><trkpt lat="44.8117373" lon="1.209394"><ele>77.0</ele><time>2026-04-06T19:34:09.788Z</time></trkpt><trkpt lat="44.81159" lon="1.2091916"><ele>76.33333333333334</ele><time>2026-04-06T19:34:10.778Z</time></trkpt><trkpt lat="44.8114404" lon="1.2089896"><ele>75.66666666666667</ele><time>2026-04-06T19:34:11.773Z</time></trkpt><trkpt lat="44.811291" lon="1.2087848"><ele>75.0</ele><time>2026-04-06T19:34:12.766Z</time></trkpt><trkpt lat="44.8111426" lon="1.2085843"><ele>75.33333333333333</ele><time>2026-04-06T19:34:13.762Z</time></trkpt><trkpt lat="44.8109866" lon="1.2083797"><ele>75.66666666666666</ele><time>2026-04-06T19:34:14.766Z</time></trkpt><trkpt lat="44.8108344" lon="1.2081714"><ele>76.0</ele><time>2026-04-06T19:34:15.776Z</time></trkpt><trkpt lat="44.8106819" lon="1.2079645"><ele>76.0</ele><time>2026-04-06T19:34:16.768Z</time></trkpt><trkpt lat="44.8105305" lon="1.2077551"><ele>76.0</ele><time>2026-04-06T19:34:17.778Z</time></trkpt><trkpt lat="44.8103798" lon="1.2075472"><ele>76.0</ele><time>2026-04-06T19:34:18.774Z</time></trkpt><trkpt lat="44.8102332" lon="1.2073466"><ele>76.33333333333333</ele><time>2026-04-06T19:34:19.768Z</time></trkpt><trkpt lat="44.8100913" lon="1.2071514"><ele>76.66666666666667</ele><time>2026-04-06T19:34:20.766Z</time></trkpt><trkpt lat="44.8099555" lon="1.2069655"><ele>77.0</ele><time>2026-04-06T19:34:21.763Z</time></trkpt><trkpt lat="44.8098245" lon="1.2067826"><ele>77.0</ele><time>2026-04-06T19:34:22.786Z</time></trkpt><trkpt lat="44.8096958" lon="1.2066086"><ele>77.0</ele><time>2026-04-06T19:34:23.777Z</time></trkpt><trkpt lat="44.8095691" lon="1.2064406"><ele>77.0</ele><time>2026-04-06T19:34:24.759Z</time></trkpt><trkpt lat="44.809443" lon="1.2062886"><ele>77.5</ele><time>2026-04-06T19:34:25.76Z</time></trkpt><trkpt lat="44.8093196" lon="1.2061558"><ele>78.0</ele><time>2026-04-06T19:34:26.76Z</time></trkpt><trkpt lat="44.8092002" lon="1.2060429"><ele>78.5</ele><time>2026-04-06T19:34:27.763Z</time></trkpt><trkpt lat="44.8090849" lon="1.2059498"><ele>79.0</ele><time>2026-04-06T19:34:28.762Z</time></trkpt><trkpt lat="44.8089749" lon="1.205873"><ele>79.0</ele><time>2026-04-06T19:34:29.763Z</time></trkpt><trkpt lat="44.8088714" lon="1.2058117"><ele>79.0</ele><time>2026-04-06T19:34:30.764Z</time></trkpt><trkpt lat="44.8087855" lon="1.2057513"><ele>79.0</ele><time>2026-04-06T19:34:31.769Z</time></trkpt><trkpt lat="44.8087051" lon="1.2056969"><ele>79.0</ele><time>2026-04-06T19:34:32.764Z</time></trkpt><trkpt lat="44.8086502" lon="1.2056083"><ele>79.0</ele><time>2026-04-06T19:34:33.762Z</time></trkpt><trkpt lat="44.8086371" lon="1.2054782"><ele>79.0</ele><time>2026-04-06T19:34:34.762Z</time></trkpt><trkpt lat="44.8086348" lon="1.2053226"><ele>79.0</ele><time>2026-04-06T19:34:35.767Z</time></trkpt><trkpt lat="44.8086445" lon="1.2051363"><ele>79.0</ele><time>2026-04-06T19:34:36.763Z</time></trkpt><trkpt lat="44.8086452" lon="1.2049327"><ele>79.0</ele><time>2026-04-06T19:34:37.783Z</time></trkpt><trkpt lat="44.8086522" lon="1.2047167"><ele>78.33333333333333</ele><time>2026-04-06T19:34:38.761Z</time></trkpt><trkpt lat="44.8086535" lon="1.2044831"><ele>77.66666666666667</ele><time>2026-04-06T19:34:39.765Z</time></trkpt><trkpt lat="44.8086536" lon="1.2042355"><ele>77.0</ele><time>2026-04-06T19:34:40.775Z</time></trkpt><trkpt lat="44.8086546" lon="1.2039678"><ele>76.33333333333334</ele><time>2026-04-06T19:34:41.764Z</time></trkpt><trkpt lat="44.808652" lon="1.2036902"><ele>75.66666666666667</ele><time>2026-04-06T19:34:42.791Z</time></trkpt><trkpt lat="44.8086477" lon="1.2034125"><ele>75.0</ele><time>2026-04-06T19:34:43.763Z</time></trkpt><trkpt lat="44.8086522" lon="1.2031112"><ele>75.0</ele><time>2026-04-06T19:34:44.765Z</time></trkpt><trkpt lat="44.8086552" lon="1.2028147"><ele>75.0</ele><time>2026-04-06T19:34:45.771Z</time></trkpt><trkpt lat="44.808658" lon="1.2025265"><ele>75.0</ele><time>2026-04-06T19:34:46.767Z</time></trkpt><trkpt lat="44.8086569" lon="1.2022423"><ele>75.0</ele><time>2026-04-06T19:34:47.764Z</time></trkpt><trkpt lat="44.8086564" lon="1.2019582"><ele>75.0</ele><time>2026-04-06T19:34:48.766Z</time></trkpt><trkpt lat="44.808658" lon="1.2016747"><ele>75.0</ele><time>2026-04-06T19:34:49.78Z</time></trkpt><trkpt lat="44.8086604" lon="1.2013968"><ele>75.0</ele><time>2026-04-06T19:34:50.771Z</time></trkpt><trkpt lat="44.8086614" lon="1.2011223"><ele>75.0</ele><time>2026-04-06T19:34:51.763Z</time></trkpt><trkpt lat="44.808662" lon="1.2008534"><ele>75.0</ele><time>2026-04-06T19:34:52.765Z</time></trkpt><trkpt lat="44.8086636" lon="1.200591"><ele>75.33333333333333</ele><time>2026-04-06T19:34:53.764Z</time></trkpt><trkpt lat="44.8086732" lon="1.200334"><ele>75.66666666666666</ele><time>2026-04-06T19:34:54.783Z</time></trkpt><trkpt lat="44.8086932" lon="1.2000824"><ele>76.0</ele><time>2026-04-06T19:34:55.765Z</time></trkpt><trkpt lat="44.8087201" lon="1.1998381"><ele>76.0</ele><time>2026-04-06T19:34:56.789Z</time></trkpt><trkpt lat="44.8087579" lon="1.1995979"><ele>76.0</ele><time>2026-04-06T19:34:57.764Z</time></trkpt><trkpt lat="44.8088089" lon="1.1993635"><ele>76.0</ele><time>2026-04-06T19:34:58.769Z</time></trkpt><trkpt lat="44.8088673" lon="1.1991387"><ele>76.66666666666666</ele><time>2026-04-06T19:34:59.77Z</time></trkpt><trkpt lat="44.8089332" lon="1.1989204"><ele>77.33333333333333</ele><time>2026-04-06T19:35:00.768Z</time></trkpt><trkpt lat="44.8090018" lon="1.1987067"><ele>78.0</ele><time>2026-04-06T19:35:01.766Z</time></trkpt><trkpt lat="44.8090743" lon="1.1984992"><ele>78.0</ele><time>2026-04-06T19:35:02.765Z</time></trkpt><trkpt lat="44.8091505" lon="1.1982971"><ele>78.0</ele><time>2026-04-06T19:35:03.766Z</time></trkpt><trkpt lat="44.8092324" lon="1.1981019"><ele>78.0</ele><time>2026-04-06T19:35:04.781Z</time></trkpt><trkpt lat="44.8093228" lon="1.1979149"><ele>78.0</ele><time>2026-04-06T19:35:05.769Z</time></trkpt><trkpt lat="44.8094223" lon="1.1977387"><ele>78.0</ele><time>2026-04-06T19:35:06.766Z</time></trkpt><trkpt lat="44.8095414" lon="1.1975953"><ele>78.0</ele><time>2026-04-06T19:35:07.772Z</time></trkpt><trkpt lat="44.8096745" lon="1.1974752"><ele>78.0</ele><time>2026-04-06T19:35:08.766Z</time></trkpt><trkpt lat="44.8098232" lon="1.1973797"><ele>78.0</ele><time>2026-04-06T19:35:09.814Z</time></trkpt><trkpt lat="44.8099876" lon="1.1973145"><ele>78.0</ele><time>2026-04-06T19:35:10.763Z</time></trkpt><trkpt lat="44.8101641" lon="1.1972707"><ele>76.33333333333333</ele><time>2026-04-06T19:35:11.763Z</time></trkpt><trkpt lat="44.8103473" lon="1.197241"><ele>74.66666666666666</ele><time>2026-04-06T19:35:12.775Z</time></trkpt><trkpt lat="44.8105358" lon="1.1972142"><ele>73.0</ele><time>2026-04-06T19:35:13.764Z</time></trkpt><trkpt lat="44.8107269" lon="1.1971848"><ele>73.0</ele><time>2026-04-06T19:35:14.778Z</time></trkpt><trkpt lat="44.810918" lon="1.1971439"><ele>73.0</ele><time>2026-04-06T19:35:15.766Z</time></trkpt><trkpt lat="44.8111092" lon="1.1970852"><ele>73.0</ele><time>2026-04-06T19:35:16.766Z</time></trkpt><trkpt lat="44.8113033" lon="1.1970151"><ele>73.0</ele><time>2026-04-06T19:35:17.762Z</time></trkpt><trkpt lat="44.8114972" lon="1.1969331"><ele>73.0</ele><time>2026-04-06T19:35:18.768Z</time></trkpt><trkpt lat="44.8116883" lon="1.1968372"><ele>73.0</ele><time>2026-04-06T19:35:19.762Z</time></trkpt><trkpt lat="44.8118773" lon="1.1967246"><ele>73.66666666666666</ele><time>2026-04-06T19:35:20.783Z</time></trkpt><trkpt lat="44.812062" lon="1.1965991"><ele>74.33333333333333</ele><time>2026-04-06T19:35:21.766Z</time></trkpt><trkpt lat="44.8122454" lon="1.1964647"><ele>75.0</ele><time>2026-04-06T19:35:22.768Z</time></trkpt><trkpt lat="44.8124256" lon="1.1963224"><ele>75.0</ele><time>2026-04-06T19:35:23.764Z</time></trkpt><trkpt lat="44.812607" lon="1.1961781"><ele>75.0</ele><time>2026-04-06T19:35:24.765Z</time></trkpt><trkpt lat="44.8127897" lon="1.1960343"><ele>75.0</ele><time>2026-04-06T19:35:25.768Z</time></trkpt><trkpt lat="44.8129731" lon="1.1958903"><ele>74.66666666666667</ele><time>2026-04-06T19:35:26.765Z</time></trkpt><trkpt lat="44.8131579" lon="1.1957475"><ele>74.33333333333334</ele><time>2026-04-06T19:35:27.788Z</time></trkpt><trkpt lat="44.813343" lon="1.1956046"><ele>74.0</ele><time>2026-04-06T19:35:28.773Z</time></trkpt><trkpt lat="44.8135283" lon="1.1954599"><ele>75.0</ele><time>2026-04-06T19:35:29.766Z</time></trkpt><trkpt lat="44.8137136" lon="1.1953128"><ele>76.0</ele><time>2026-04-06T19:35:30.763Z</time></trkpt><trkpt lat="44.8138983" lon="1.1951641"><ele>77.0</ele><time>2026-04-06T19:35:31.768Z</time></trkpt><trkpt lat="44.8140832" lon="1.1950159"><ele>77.0</ele><time>2026-04-06T19:35:32.768Z</time></trkpt><trkpt lat="44.8142684" lon="1.1948684"><ele>77.0</ele><time>2026-04-06T19:35:33.759Z</time></trkpt><trkpt lat="44.8144544" lon="1.1947221"><ele>77.0</ele><time>2026-04-06T19:35:34.779Z</time></trkpt><trkpt lat="44.8146408" lon="1.194578"><ele>76.66666666666667</ele><time>2026-04-06T19:35:35.766Z</time></trkpt><trkpt lat="44.8148256" lon="1.1944353"><ele>76.33333333333333</ele><time>2026-04-06T19:35:36.763Z</time></trkpt><trkpt lat="44.8150084" lon="1.1942955"><ele>76.0</ele><time>2026-04-06T19:35:37.772Z</time></trkpt><trkpt lat="44.8151922" lon="1.194163"><ele>75.33333333333333</ele><time>2026-04-06T19:35:38.773Z</time></trkpt><trkpt lat="44.8153756" lon="1.1940298"><ele>74.66666666666667</ele><time>2026-04-06T19:35:39.767Z</time></trkpt><trkpt lat="44.8155577" lon="1.1938946"><ele>74.0</ele><time>2026-04-06T19:35:40.775Z</time></trkpt><trkpt lat="44.8157405" lon="1.1937598"><ele>74.0</ele><time>2026-04-06T19:35:41.763Z</time></trkpt><trkpt lat="44.8159239" lon="1.1936265"><ele>74.0</ele><time>2026-04-06T19:35:42.768Z</time></trkpt><trkpt lat="44.8161061" lon="1.1934908"><ele>74.0</ele><time>2026-04-06T19:35:43.767Z</time></trkpt><trkpt lat="44.8162869" lon="1.1933524"><ele>73.33333333333334</ele><time>2026-04-06T19:35:44.765Z</time></trkpt><trkpt lat="44.816466" lon="1.1932109"><ele>72.66666666666667</ele><time>2026-04-06T19:35:45.764Z</time></trkpt><trkpt lat="44.8166422" lon="1.1930629"><ele>72.0</ele><time>2026-04-06T19:35:46.767Z</time></trkpt><trkpt lat="44.8168164" lon="1.1929102"><ele>73.66666666666667</ele><time>2026-04-06T19:35:47.768Z</time></trkpt><trkpt lat="44.8169891" lon="1.1927544"><ele>75.33333333333334</ele><time>2026-04-06T19:35:48.761Z</time></trkpt><trkpt lat="44.8171614" lon="1.1925974"><ele>77.0</ele><time>2026-04-06T19:35:49.764Z</time></trkpt><trkpt lat="44.8173343" lon="1.1924421"><ele>76.66666666666667</ele><time>2026-04-06T19:35:50.792Z</time></trkpt><trkpt lat="44.8175066" lon="1.1922867"><ele>76.33333333333333</ele><time>2026-04-06T19:35:51.762Z</time></trkpt><trkpt lat="44.8176787" lon="1.1921308"><ele>76.0</ele><time>2026-04-06T19:35:52.765Z</time></trkpt><trkpt lat="44.8178511" lon="1.1919748"><ele>76.0</ele><time>2026-04-06T19:35:53.766Z</time></trkpt><trkpt lat="44.8180244" lon="1.1918195"><ele>76.0</ele><time>2026-04-06T19:35:54.766Z</time></trkpt><trkpt lat="44.818198" lon="1.1916638"><ele>76.0</ele><time>2026-04-06T19:35:55.76Z</time></trkpt><trkpt lat="44.8183724" lon="1.191508"><ele>75.66666666666666</ele><time>2026-04-06T19:35:56.767Z</time></trkpt><trkpt lat="44.8185457" lon="1.1913502"><ele>75.33333333333333</ele><time>2026-04-06T19:35:57.772Z</time></trkpt><trkpt lat="44.8187189" lon="1.1911919"><ele>75.0</ele><time>2026-04-06T19:35:58.764Z</time></trkpt><trkpt lat="44.8188931" lon="1.1910336"><ele>75.0</ele><time>2026-04-06T19:35:59.782Z</time></trkpt><trkpt lat="44.8190665" lon="1.1908751"><ele>75.0</ele><time>2026-04-06T19:36:00.762Z</time></trkpt><trkpt lat="44.8192404" lon="1.1907163"><ele>75.0</ele><time>2026-04-06T19:36:01.766Z</time></trkpt><trkpt lat="44.8194147" lon="1.1905585"><ele>74.0</ele><time>2026-04-06T19:36:02.762Z</time></trkpt><trkpt lat="44.8195891" lon="1.1904015"><ele>73.0</ele><time>2026-04-06T19:36:03.761Z</time></trkpt><trkpt lat="44.819763" lon="1.1902433"><ele>72.0</ele><time>2026-04-06T19:36:04.784Z</time></trkpt><trkpt lat="44.8199364" lon="1.1900852"><ele>72.0</ele><time>2026-04-06T19:36:05.765Z</time></trkpt><trkpt lat="44.8201106" lon="1.1899284"><ele>72.0</ele><time>2026-04-06T19:36:06.766Z</time></trkpt><trkpt lat="44.8202842" lon="1.1897708"><ele>72.0</ele><time>2026-04-06T19:36:07.768Z</time></trkpt><trkpt lat="44.8204585" lon="1.1896145"><ele>71.66666666666667</ele><time>2026-04-06T19:36:08.767Z</time></trkpt><trkpt lat="44.8206323" lon="1.1894556"><ele>71.33333333333334</ele><time>2026-04-06T19:36:09.778Z</time></trkpt><trkpt lat="44.8208057" lon="1.189298"><ele>71.0</ele><time>2026-04-06T19:36:10.76Z</time></trkpt><trkpt lat="44.8209792" lon="1.1891404"><ele>71.33333333333334</ele><time>2026-04-06T19:36:11.764Z</time></trkpt><trkpt lat="44.8211528" lon="1.1889836"><ele>71.66666666666667</ele><time>2026-04-06T19:36:12.761Z</time></trkpt><trkpt lat="44.8213251" lon="1.1888289"><ele>72.0</ele><time>2026-04-06T19:36:13.767Z</time></trkpt><trkpt lat="44.8214936" lon="1.1886765"><ele>72.0</ele><time>2026-04-06T19:36:14.768Z</time></trkpt><trkpt lat="44.821659" lon="1.1885272"><ele>72.0</ele><time>2026-04-06T19:36:15.764Z</time></trkpt><trkpt lat="44.8218224" lon="1.1883801"><ele>72.0</ele><time>2026-04-06T19:36:16.79Z</time></trkpt><trkpt lat="44.8219836" lon="1.1882332"><ele>71.66666666666667</ele><time>2026-04-06T19:36:17.764Z</time></trkpt><trkpt lat="44.8221429" lon="1.1880861"><ele>71.33333333333334</ele><time>2026-04-06T19:36:18.776Z</time></trkpt><trkpt lat="44.8223014" lon="1.1879396"><ele>71.0</ele><time>2026-04-06T19:36:19.765Z</time></trkpt><trkpt lat="44.8224592" lon="1.1877944"><ele>71.0</ele><time>2026-04-06T19:36:20.769Z</time></trkpt><trkpt lat="44.8226154" lon="1.1876483"><ele>71.0</ele><time>2026-04-06T19:36:21.764Z</time></trkpt><trkpt lat="44.8227691" lon="1.1874998"><ele>71.0</ele><time>2026-04-06T19:36:22.767Z</time></trkpt><trkpt lat="44.822921" lon="1.1873498"><ele>70.0</ele><time>2026-04-06T19:36:23.762Z</time></trkpt><trkpt lat="44.8230712" lon="1.1871975"><ele>69.0</ele><time>2026-04-06T19:36:24.765Z</time></trkpt><trkpt lat="44.8232188" lon="1.1870417"><ele>68.0</ele><time>2026-04-06T19:36:25.761Z</time></trkpt><trkpt lat="44.8233635" lon="1.186883"><ele>68.33333333333334</ele><time>2026-04-06T19:36:26.768Z</time></trkpt><trkpt lat="44.8235046" lon="1.1867214"><ele>68.66666666666667</ele><time>2026-04-06T19:36:27.764Z</time></trkpt><trkpt lat="44.8236419" lon="1.1865611"><ele>69.0</ele><time>2026-04-06T19:36:28.783Z</time></trkpt><trkpt lat="44.8237741" lon="1.186403"><ele>69.0</ele><time>2026-04-06T19:36:29.766Z</time></trkpt><trkpt lat="44.8238986" lon="1.186252"><ele>69.0</ele><time>2026-04-06T19:36:30.772Z</time></trkpt><trkpt lat="44.8240139" lon="1.1861079"><ele>69.0</ele><time>2026-04-06T19:36:31.762Z</time></trkpt><trkpt lat="44.8241176" lon="1.185968"><ele>69.0</ele><time>2026-04-06T19:36:32.771Z</time></trkpt><trkpt lat="44.8242121" lon="1.1858341"><ele>69.0</ele><time>2026-04-06T19:36:33.766Z</time></trkpt><trkpt lat="44.8243024" lon="1.185701"><ele>69.0</ele><time>2026-04-06T19:36:34.765Z</time></trkpt><trkpt lat="44.8243874" lon="1.1855687"><ele>69.0</ele><time>2026-04-06T19:36:35.763Z</time></trkpt><trkpt lat="44.8244662" lon="1.1854364"><ele>71.75</ele><time>2026-04-06T19:36:36.767Z</time></trkpt><trkpt lat="44.8245401" lon="1.1853033"><ele>74.5</ele><time>2026-04-06T19:36:37.77Z</time></trkpt><trkpt lat="44.8246082" lon="1.1851697"><ele>77.25</ele><time>2026-04-06T19:36:38.767Z</time></trkpt><trkpt lat="44.824672" lon="1.1850418"><ele>80.0</ele><time>2026-04-06T19:36:39.762Z</time></trkpt><trkpt lat="44.8247302" lon="1.1849233"><ele>78.6</ele><time>2026-04-06T19:36:40.771Z</time></trkpt><trkpt lat="44.824785" lon="1.1848087"><ele>77.2</ele><time>2026-04-06T19:36:41.76Z</time></trkpt><trkpt lat="44.8248408" lon="1.1846933"><ele>75.8</ele><time>2026-04-06T19:36:42.765Z</time></trkpt><trkpt lat="44.8248982" lon="1.1845772"><ele>74.4</ele><time>2026-04-06T19:36:43.767Z</time></trkpt><trkpt lat="44.8249569" lon="1.1844604"><ele>73.0</ele><time>2026-04-06T19:36:44.766Z</time></trkpt><trkpt lat="44.8250147" lon="1.1843421"><ele>73.0</ele><time>2026-04-06T19:36:45.77Z</time></trkpt><trkpt lat="44.8250712" lon="1.1842212"><ele>73.0</ele><time>2026-04-06T19:36:46.765Z</time></trkpt><trkpt lat="44.8251261" lon="1.1840981"><ele>73.0</ele><time>2026-04-06T19:36:47.794Z</time></trkpt><trkpt lat="44.8251791" lon="1.1839737"><ele>73.0</ele><time>2026-04-06T19:36:48.765Z</time></trkpt><trkpt lat="44.8252305" lon="1.1838469"><ele>73.0</ele><time>2026-04-06T19:36:49.775Z</time></trkpt><trkpt lat="44.8252814" lon="1.1837194"><ele>73.8</ele><time>2026-04-06T19:36:50.766Z</time></trkpt><trkpt lat="44.8253327" lon="1.1835915"><ele>74.6</ele><time>2026-04-06T19:36:51.766Z</time></trkpt><trkpt lat="44.8253834" lon="1.183463"><ele>75.4</ele><time>2026-04-06T19:36:52.767Z</time></trkpt><trkpt lat="44.8254336" lon="1.1833334"><ele>76.2</ele><time>2026-04-06T19:36:53.764Z</time></trkpt><trkpt lat="44.8254836" lon="1.1832031"><ele>77.0</ele><time>2026-04-06T19:36:54.784Z</time></trkpt><trkpt lat="44.8255334" lon="1.1830718"><ele>77.0</ele><time>2026-04-06T19:36:55.762Z</time></trkpt><trkpt lat="44.8255854" lon="1.1829412"><ele>77.0</ele><time>2026-04-06T19:36:56.765Z</time></trkpt><trkpt lat="44.8256374" lon="1.1828105"><ele>77.0</ele><time>2026-04-06T19:36:57.765Z</time></trkpt><trkpt lat="44.8256885" lon="1.1826785"><ele>77.0</ele><time>2026-04-06T19:36:58.768Z</time></trkpt><trkpt lat="44.8257397" lon="1.1825457"><ele>77.0</ele><time>2026-04-06T19:36:59.801Z</time></trkpt><trkpt lat="44.8257917" lon="1.1824132"><ele>76.8</ele><time>2026-04-06T19:37:00.761Z</time></trkpt><trkpt lat="44.8258437" lon="1.1822804"><ele>76.6</ele><time>2026-04-06T19:37:01.762Z</time></trkpt><trkpt lat="44.8258959" lon="1.1821476"><ele>76.39999999999999</ele><time>2026-04-06T19:37:02.763Z</time></trkpt><trkpt lat="44.8259484" lon="1.1820151"><ele>76.2</ele><time>2026-04-06T19:37:03.772Z</time></trkpt><trkpt lat="44.8260009" lon="1.1818822"><ele>76.0</ele><time>2026-04-06T19:37:04.769Z</time></trkpt><trkpt lat="44.8260531" lon="1.1817489"><ele>78.0</ele><time>2026-04-06T19:37:05.79Z</time></trkpt><trkpt lat="44.8261049" lon="1.1816158"><ele>80.0</ele><time>2026-04-06T19:37:06.772Z</time></trkpt><trkpt lat="44.8261547" lon="1.1814821"><ele>82.0</ele><time>2026-04-06T19:37:07.771Z</time></trkpt><trkpt lat="44.8262004" lon="1.181356"><ele>84.0</ele><time>2026-04-06T19:37:08.762Z</time></trkpt><trkpt lat="44.8262426" lon="1.1812351"><ele>86.0</ele><time>2026-04-06T19:37:09.772Z</time></trkpt><trkpt lat="44.8262844" lon="1.1811116"><ele>86.0</ele><time>2026-04-06T19:37:10.773Z</time></trkpt><trkpt lat="44.8263248" lon="1.180986"><ele>86.0</ele><time>2026-04-06T19:37:11.764Z</time></trkpt><trkpt lat="44.8263649" lon="1.1808577"><ele>86.0</ele><time>2026-04-06T19:37:12.764Z</time></trkpt><trkpt lat="44.826406" lon="1.180726"><ele>86.0</ele><time>2026-04-06T19:37:13.768Z</time></trkpt><trkpt lat="44.8264483" lon="1.1805897"><ele>86.0</ele><time>2026-04-06T19:37:14.766Z</time></trkpt><trkpt lat="44.8264918" lon="1.1804505"><ele>82.75</ele><time>2026-04-06T19:37:15.764Z</time></trkpt><trkpt lat="44.8265363" lon="1.1803084"><ele>79.5</ele><time>2026-04-06T19:37:16.762Z</time></trkpt><trkpt lat="44.8265829" lon="1.1801644"><ele>76.25</ele><time>2026-04-06T19:37:17.765Z</time></trkpt><trkpt lat="44.8266308" lon="1.1800185"><ele>73.0</ele><time>2026-04-06T19:37:18.762Z</time></trkpt><trkpt lat="44.8266814" lon="1.1798721"><ele>72.5</ele><time>2026-04-06T19:37:19.765Z</time></trkpt><trkpt lat="44.8267343" lon="1.1797266"><ele>72.0</ele><time>2026-04-06T19:37:20.763Z</time></trkpt><trkpt lat="44.8267873" lon="1.1795805"><ele>71.5</ele><time>2026-04-06T19:37:21.781Z</time></trkpt><trkpt lat="44.82684" lon="1.179433"><ele>71.0</ele><time>2026-04-06T19:37:22.761Z</time></trkpt><trkpt lat="44.8268922" lon="1.1792838"><ele>74.25</ele><time>2026-04-06T19:37:23.79Z</time></trkpt><trkpt lat="44.8269437" lon="1.1791332"><ele>77.5</ele><time>2026-04-06T19:37:24.759Z</time></trkpt><trkpt lat="44.826994" lon="1.178981"><ele>80.75</ele><time>2026-04-06T19:37:25.77Z</time></trkpt><trkpt lat="44.8270422" lon="1.1788275"><ele>84.0</ele><time>2026-04-06T19:37:26.76Z</time></trkpt><trkpt lat="44.8270805" lon="1.1786682"><ele>86.0</ele><time>2026-04-06T19:37:27.762Z</time></trkpt><trkpt lat="44.8271026" lon="1.1784999"><ele>88.0</ele><time>2026-04-06T19:37:28.764Z</time></trkpt><trkpt lat="44.8271087" lon="1.1783251"><ele>90.0</ele><time>2026-04-06T19:37:29.76Z</time></trkpt><trkpt lat="44.827098" lon="1.1781356"><ele>92.0</ele><time>2026-04-06T19:37:30.802Z</time></trkpt><trkpt lat="44.8270719" lon="1.1779323"><ele>100.0</ele><time>2026-04-06T19:37:31.759Z</time></trkpt><trkpt lat="44.8270349" lon="1.1777199"><ele>108.0</ele><time>2026-04-06T19:37:32.76Z</time></trkpt><trkpt lat="44.8269842" lon="1.1775035"><ele>116.0</ele><time>2026-04-06T19:37:33.759Z</time></trkpt><trkpt lat="44.826921" lon="1.1772876"><ele>121.33333333333333</ele><time>2026-04-06T19:37:34.761Z</time></trkpt><trkpt lat="44.82685" lon="1.1770744"><ele>126.66666666666666</ele><time>2026-04-06T19:37:35.759Z</time></trkpt><trkpt lat="44.8267774" lon="1.1768831"><ele>132.0</ele><time>2026-04-06T19:37:36.761Z</time></trkpt><trkpt lat="44.826703" lon="1.1766855"><ele>129.0</ele><time>2026-04-06T19:37:37.766Z</time></trkpt><trkpt lat="44.826626" lon="1.1765001"><ele>126.0</ele><time>2026-04-06T19:37:38.767Z</time></trkpt><trkpt lat="44.8265483" lon="1.1763212"><ele>123.0</ele><time>2026-04-06T19:37:39.786Z</time></trkpt><trkpt lat="44.8264528" lon="1.1761588"><ele>123.0</ele><time>2026-04-06T19:37:40.763Z</time></trkpt><trkpt lat="44.8263372" lon="1.1760076"><ele>123.0</ele><time>2026-04-06T19:37:41.762Z</time></trkpt><trkpt lat="44.8262128" lon="1.1758626"><ele>123.0</ele><time>2026-04-06T19:37:42.765Z</time></trkpt><trkpt lat="44.8260925" lon="1.1757205"><ele>128.25</ele><time>2026-04-06T19:37:43.762Z</time></trkpt><trkpt lat="44.8259815" lon="1.1755627"><ele>133.5</ele><time>2026-04-06T19:37:44.76Z</time></trkpt><trkpt lat="44.8258723" lon="1.1754209"><ele>138.75</ele><time>2026-04-06T19:37:45.762Z</time></trkpt><trkpt lat="44.825767" lon="1.1752903"><ele>144.0</ele><time>2026-04-06T19:37:46.785Z</time></trkpt><trkpt lat="44.8256599" lon="1.1751686"><ele>134.0</ele><time>2026-04-06T19:37:47.762Z</time></trkpt><trkpt lat="44.8255584" lon="1.1750453"><ele>124.0</ele><time>2026-04-06T19:37:48.76Z</time></trkpt><trkpt lat="44.8254693" lon="1.1749167"><ele>114.0</ele><time>2026-04-06T19:37:49.763Z</time></trkpt><trkpt lat="44.8254038" lon="1.1747692"><ele>104.0</ele><time>2026-04-06T19:37:50.775Z</time></trkpt><trkpt lat="44.8253572" lon="1.1746011"><ele>104.0</ele><time>2026-04-06T19:37:51.764Z</time></trkpt><trkpt lat="44.8253233" lon="1.1744043"><ele>104.0</ele><time>2026-04-06T19:37:52.795Z</time></trkpt><trkpt lat="44.8252955" lon="1.1741887"><ele>104.0</ele><time>2026-04-06T19:37:53.76Z</time></trkpt><trkpt lat="44.8252698" lon="1.1739576"><ele>110.66666666666666</ele><time>2026-04-06T19:37:54.768Z</time></trkpt><trkpt lat="44.8252392" lon="1.1737177"><ele>117.33333333333334</ele><time>2026-04-06T19:37:55.763Z</time></trkpt><trkpt lat="44.8252092" lon="1.1734673"><ele>124.0</ele><time>2026-04-06T19:37:56.76Z</time></trkpt><trkpt lat="44.8251775" lon="1.1732095"><ele>110.0</ele><time>2026-04-06T19:37:57.761Z</time></trkpt><trkpt lat="44.8251439" lon="1.1729442"><ele>96.0</ele><time>2026-04-06T19:37:58.759Z</time></trkpt><trkpt lat="44.8251107" lon="1.1726741"><ele>82.0</ele><time>2026-04-06T19:37:59.76Z</time></trkpt><trkpt lat="44.825076" lon="1.1723986"><ele>85.0</ele><time>2026-04-06T19:38:00.765Z</time></trkpt><trkpt lat="44.8250401" lon="1.1721206"><ele>88.0</ele><time>2026-04-06T19:38:01.777Z</time></trkpt><trkpt lat="44.8249932" lon="1.171843"><ele>91.0</ele><time>2026-04-06T19:38:02.766Z</time></trkpt><trkpt lat="44.8249422" lon="1.171562"><ele>94.33333333333333</ele><time>2026-04-06T19:38:03.766Z</time></trkpt><trkpt lat="44.8248865" lon="1.1712793"><ele>97.66666666666666</ele><time>2026-04-06T19:38:04.763Z</time></trkpt><trkpt lat="44.8248256" lon="1.171001"><ele>101.0</ele><time>2026-04-06T19:38:05.765Z</time></trkpt><trkpt lat="44.8247657" lon="1.1707193"><ele>105.0</ele><time>2026-04-06T19:38:06.763Z</time></trkpt><trkpt lat="44.8247048" lon="1.1704379"><ele>109.0</ele><time>2026-04-06T19:38:07.787Z</time></trkpt><trkpt lat="44.8246375" lon="1.1701591"><ele>113.0</ele><time>2026-04-06T19:38:08.764Z</time></trkpt><trkpt lat="44.8245639" lon="1.1698771"><ele>118.0</ele><time>2026-04-06T19:38:09.774Z</time></trkpt><trkpt lat="44.8244808" lon="1.1696009"><ele>123.0</ele><time>2026-04-06T19:38:10.764Z</time></trkpt><trkpt lat="44.8243893" lon="1.1693256"><ele>128.0</ele><time>2026-04-06T19:38:11.774Z</time></trkpt><trkpt lat="44.824296" lon="1.1690519"><ele>114.66666666666666</ele><time>2026-04-06T19:38:12.76Z</time></trkpt><trkpt lat="44.8242025" lon="1.1687739"><ele>101.33333333333333</ele><time>2026-04-06T19:38:13.761Z</time></trkpt><trkpt lat="44.8241139" lon="1.1684982"><ele>88.0</ele><time>2026-04-06T19:38:14.762Z</time></trkpt><trkpt lat="44.8240318" lon="1.1682154"><ele>93.33333333333333</ele><time>2026-04-06T19:38:15.764Z</time></trkpt><trkpt lat="44.823958" lon="1.1679232"><ele>98.66666666666666</ele><time>2026-04-06T19:38:16.789Z</time></trkpt><trkpt lat="44.8238738" lon="1.1676362"><ele>104.0</ele><time>2026-04-06T19:38:17.76Z</time></trkpt><trkpt lat="44.8237805" lon="1.1673615"><ele>111.33333333333333</ele><time>2026-04-06T19:38:18.763Z</time></trkpt><trkpt lat="44.823675" lon="1.1670931"><ele>118.66666666666666</ele><time>2026-04-06T19:38:19.765Z</time></trkpt><trkpt lat="44.82356" lon="1.1668277"><ele>126.0</ele><time>2026-04-06T19:38:20.768Z</time></trkpt><trkpt lat="44.8234415" lon="1.1665651"><ele>116.33333333333334</ele><time>2026-04-06T19:38:21.773Z</time></trkpt><trkpt lat="44.8233262" lon="1.1663151"><ele>106.66666666666667</ele><time>2026-04-06T19:38:22.76Z</time></trkpt><trkpt lat="44.823211" lon="1.1660744"><ele>97.0</ele><time>2026-04-06T19:38:23.779Z</time></trkpt><trkpt lat="44.8230956" lon="1.1658381"><ele>104.33333333333334</ele><time>2026-04-06T19:38:24.758Z</time></trkpt><trkpt lat="44.8229829" lon="1.1656095"><ele>111.66666666666666</ele><time>2026-04-06T19:38:25.764Z</time></trkpt><trkpt lat="44.8228632" lon="1.1653756"><ele>119.0</ele><time>2026-04-06T19:38:26.763Z</time></trkpt><trkpt lat="44.8227447" lon="1.1651466"><ele>107.33333333333333</ele><time>2026-04-06T19:38:27.762Z</time></trkpt><trkpt lat="44.8226349" lon="1.1649098"><ele>95.66666666666666</ele><time>2026-04-06T19:38:28.783Z</time></trkpt><trkpt lat="44.8225331" lon="1.1646707"><ele>84.0</ele><time>2026-04-06T19:38:29.763Z</time></trkpt><trkpt lat="44.8224423" lon="1.1644238"><ele>84.0</ele><time>2026-04-06T19:38:30.792Z</time></trkpt><trkpt lat="44.8223606" lon="1.164172"><ele>84.0</ele><time>2026-04-06T19:38:31.761Z</time></trkpt><trkpt lat="44.8222838" lon="1.1639175"><ele>84.0</ele><time>2026-04-06T19:38:32.76Z</time></trkpt><trkpt lat="44.8222147" lon="1.1636583"><ele>87.66666666666667</ele><time>2026-04-06T19:38:33.758Z</time></trkpt><trkpt lat="44.8221525" lon="1.1633955"><ele>91.33333333333334</ele><time>2026-04-06T19:38:34.758Z</time></trkpt><trkpt lat="44.822094" lon="1.1631323"><ele>95.0</ele><time>2026-04-06T19:38:35.769Z</time></trkpt><trkpt lat="44.8220378" lon="1.1628688"><ele>98.33333333333334</ele><time>2026-04-06T19:38:36.766Z</time></trkpt><trkpt lat="44.821982" lon="1.1626052"><ele>101.66666666666667</ele><time>2026-04-06T19:38:37.796Z</time></trkpt><trkpt lat="44.8219266" lon="1.1623414"><ele>105.0</ele><time>2026-04-06T19:38:38.765Z</time></trkpt><trkpt lat="44.8218741" lon="1.1620815"><ele>105.33333333333334</ele><time>2026-04-06T19:38:39.767Z</time></trkpt><trkpt lat="44.8218264" lon="1.1618157"><ele>105.66666666666667</ele><time>2026-04-06T19:38:40.759Z</time></trkpt><trkpt lat="44.8217804" lon="1.1615526"><ele>106.0</ele><time>2026-04-06T19:38:41.765Z</time></trkpt><trkpt lat="44.821752" lon="1.1612933"><ele>95.33333333333334</ele><time>2026-04-06T19:38:42.763Z</time></trkpt><trkpt lat="44.8217408" lon="1.1610206"><ele>84.66666666666667</ele><time>2026-04-06T19:38:43.778Z</time></trkpt><trkpt lat="44.8217316" lon="1.160754"><ele>74.0</ele><time>2026-04-06T19:38:44.763Z</time></trkpt><trkpt lat="44.8217278" lon="1.1605046"><ele>73.66666666666667</ele><time>2026-04-06T19:38:45.784Z</time></trkpt><trkpt lat="44.8217287" lon="1.1602677"><ele>73.33333333333333</ele><time>2026-04-06T19:38:46.768Z</time></trkpt><trkpt lat="44.8217346" lon="1.160043"><ele>73.0</ele><time>2026-04-06T19:38:47.761Z</time></trkpt><trkpt lat="44.8217596" lon="1.159824"><ele>73.0</ele><time>2026-04-06T19:38:48.769Z</time></trkpt><trkpt lat="44.8218095" lon="1.1596019"><ele>73.0</ele><time>2026-04-06T19:38:49.781Z</time></trkpt><trkpt lat="44.821871" lon="1.1593903"><ele>73.0</ele><time>2026-04-06T19:38:50.764Z</time></trkpt><trkpt lat="44.8219434" lon="1.1591818"><ele>75.66666666666666</ele><time>2026-04-06T19:38:51.784Z</time></trkpt><trkpt lat="44.8220296" lon="1.1589835"><ele>78.33333333333333</ele><time>2026-04-06T19:38:52.763Z</time></trkpt><trkpt lat="44.8221258" lon="1.158794"><ele>81.0</ele><time>2026-04-06T19:38:53.767Z</time></trkpt><trkpt lat="44.8222289" lon="1.1586149"><ele>81.0</ele><time>2026-04-06T19:38:54.763Z</time></trkpt><trkpt lat="44.8223314" lon="1.1584513"><ele>81.0</ele><time>2026-04-06T19:38:55.783Z</time></trkpt><trkpt lat="44.8224274" lon="1.158305"><ele>81.0</ele><time>2026-04-06T19:38:56.759Z</time></trkpt><trkpt lat="44.822517" lon="1.1581709"><ele>81.0</ele><time>2026-04-06T19:38:57.785Z</time></trkpt><trkpt lat="44.8225981" lon="1.1580529"><ele>81.8</ele><time>2026-04-06T19:38:58.767Z</time></trkpt><trkpt lat="44.8226662" lon="1.1579536"><ele>82.6</ele><time>2026-04-06T19:38:59.762Z</time></trkpt><trkpt lat="44.8227169" lon="1.1578792"><ele>83.4</ele><time>2026-04-06T19:39:00.764Z</time></trkpt><trkpt lat="44.8227643" lon="1.1577803"><ele>84.2</ele><time>2026-04-06T19:39:02.771Z</time></trkpt><trkpt lat="44.8227222" lon="1.1576635"><ele>85.0</ele><time>2026-04-06T19:39:05.766Z</time></trkpt><trkpt lat="44.822607" lon="1.1575738"><ele>83.0</ele><time>2026-04-06T19:39:07.764Z</time></trkpt><trkpt lat="44.8225249" lon="1.1575171"><ele>81.0</ele><time>2026-04-06T19:39:08.764Z</time></trkpt><trkpt lat="44.8224276" lon="1.1574551"><ele>79.0</ele><time>2026-04-06T19:39:09.764Z</time></trkpt><trkpt lat="44.8223159" lon="1.157384"><ele>77.0</ele><time>2026-04-06T19:39:10.768Z</time></trkpt><trkpt lat="44.8221875" lon="1.157306"><ele>75.66666666666667</ele><time>2026-04-06T19:39:11.802Z</time></trkpt><trkpt lat="44.8220505" lon="1.1572167"><ele>74.33333333333333</ele><time>2026-04-06T19:39:12.765Z</time></trkpt><trkpt lat="44.8219079" lon="1.1571288"><ele>73.0</ele><time>2026-04-06T19:39:13.778Z</time></trkpt><trkpt lat="44.8217582" lon="1.1570355"><ele>72.66666666666666</ele><time>2026-04-06T19:39:14.76Z</time></trkpt><trkpt lat="44.8216045" lon="1.1569367"><ele>72.33333333333333</ele><time>2026-04-06T19:39:15.77Z</time></trkpt><trkpt lat="44.8214454" lon="1.1568375"><ele>72.0</ele><time>2026-04-06T19:39:16.767Z</time></trkpt><trkpt lat="44.8212828" lon="1.1567354"><ele>72.0</ele><time>2026-04-06T19:39:17.767Z</time></trkpt><trkpt lat="44.8211169" lon="1.1566298"><ele>72.0</ele><time>2026-04-06T19:39:18.763Z</time></trkpt><trkpt lat="44.8209483" lon="1.1565223"><ele>72.0</ele><time>2026-04-06T19:39:19.764Z</time></trkpt><trkpt lat="44.8207779" lon="1.1564136"><ele>70.66666666666667</ele><time>2026-04-06T19:39:20.768Z</time></trkpt><trkpt lat="44.8206066" lon="1.1563048"><ele>69.33333333333334</ele><time>2026-04-06T19:39:21.78Z</time></trkpt><trkpt lat="44.8204352" lon="1.156196"><ele>68.0</ele><time>2026-04-06T19:39:22.763Z</time></trkpt><trkpt lat="44.8202653" lon="1.1560874"><ele>68.66666666666667</ele><time>2026-04-06T19:39:23.762Z</time></trkpt><trkpt lat="44.8200941" lon="1.1559807"><ele>69.33333333333333</ele><time>2026-04-06T19:39:24.768Z</time></trkpt><trkpt lat="44.8199243" lon="1.155873"><ele>70.0</ele><time>2026-04-06T19:39:25.76Z</time></trkpt><trkpt lat="44.8197538" lon="1.1557631"><ele>70.0</ele><time>2026-04-06T19:39:26.761Z</time></trkpt><trkpt lat="44.8195784" lon="1.1556459"><ele>70.0</ele><time>2026-04-06T19:39:27.762Z</time></trkpt><trkpt lat="44.8193956" lon="1.1555214"><ele>70.0</ele><time>2026-04-06T19:39:28.763Z</time></trkpt><trkpt lat="44.8192069" lon="1.1554082"><ele>70.0</ele><time>2026-04-06T19:39:29.762Z</time></trkpt><trkpt lat="44.8190247" lon="1.1552865"><ele>70.0</ele><time>2026-04-06T19:39:30.768Z</time></trkpt><trkpt lat="44.8188437" lon="1.1551587"><ele>70.0</ele><time>2026-04-06T19:39:31.76Z</time></trkpt><trkpt lat="44.8186625" lon="1.1550296"><ele>69.66666666666666</ele><time>2026-04-06T19:39:32.796Z</time></trkpt><trkpt lat="44.8184845" lon="1.1548983"><ele>69.33333333333333</ele><time>2026-04-06T19:39:33.761Z</time></trkpt><trkpt lat="44.8183034" lon="1.154762"><ele>69.0</ele><time>2026-04-06T19:39:34.761Z</time></trkpt><trkpt lat="44.8181182" lon="1.1546223"><ele>69.0</ele><time>2026-04-06T19:39:35.766Z</time></trkpt><trkpt lat="44.8179285" lon="1.1544761"><ele>69.0</ele><time>2026-04-06T19:39:36.766Z</time></trkpt><trkpt lat="44.8177382" lon="1.1543317"><ele>69.0</ele><time>2026-04-06T19:39:37.791Z</time></trkpt><trkpt lat="44.8175565" lon="1.1541958"><ele>68.33333333333333</ele><time>2026-04-06T19:39:38.767Z</time></trkpt><trkpt lat="44.8173812" lon="1.1540633"><ele>67.66666666666666</ele><time>2026-04-06T19:39:39.764Z</time></trkpt><trkpt lat="44.8172083" lon="1.1539313"><ele>67.0</ele><time>2026-04-06T19:39:40.782Z</time></trkpt><trkpt lat="44.81704" lon="1.1538044"><ele>67.0</ele><time>2026-04-06T19:39:41.765Z</time></trkpt><trkpt lat="44.816876" lon="1.1536791"><ele>67.0</ele><time>2026-04-06T19:39:42.792Z</time></trkpt><trkpt lat="44.8167134" lon="1.1535567"><ele>67.0</ele><time>2026-04-06T19:39:43.763Z</time></trkpt><trkpt lat="44.8165549" lon="1.1534378"><ele>67.0</ele><time>2026-04-06T19:39:44.777Z</time></trkpt><trkpt lat="44.8164001" lon="1.1533225"><ele>67.0</ele><time>2026-04-06T19:39:45.767Z</time></trkpt><trkpt lat="44.8162474" lon="1.1532073"><ele>67.0</ele><time>2026-04-06T19:39:46.767Z</time></trkpt><trkpt lat="44.8160995" lon="1.153099"><ele>66.33333333333333</ele><time>2026-04-06T19:39:47.764Z</time></trkpt><trkpt lat="44.8159548" lon="1.1529925"><ele>65.66666666666667</ele><time>2026-04-06T19:39:48.768Z</time></trkpt><trkpt lat="44.8158106" lon="1.1528863"><ele>65.0</ele><time>2026-04-06T19:39:49.765Z</time></trkpt><trkpt lat="44.8156633" lon="1.152777"><ele>65.0</ele><time>2026-04-06T19:39:50.761Z</time></trkpt><trkpt lat="44.8155129" lon="1.1526668"><ele>65.0</ele><time>2026-04-06T19:39:51.774Z</time></trkpt><trkpt lat="44.8153598" lon="1.1525518"><ele>65.0</ele><time>2026-04-06T19:39:52.763Z</time></trkpt><trkpt lat="44.8152046" lon="1.1524335"><ele>64.66666666666667</ele><time>2026-04-06T19:39:53.785Z</time></trkpt><trkpt lat="44.8150476" lon="1.1523151"><ele>64.33333333333333</ele><time>2026-04-06T19:39:54.768Z</time></trkpt><trkpt lat="44.8148904" lon="1.1521956"><ele>64.0</ele><time>2026-04-06T19:39:55.764Z</time></trkpt><trkpt lat="44.8147439" lon="1.1520868"><ele>64.0</ele><time>2026-04-06T19:39:56.761Z</time></trkpt><trkpt lat="44.8146094" lon="1.1519855"><ele>64.0</ele><time>2026-04-06T19:39:57.761Z</time></trkpt><trkpt lat="44.8144867" lon="1.1518927"><ele>64.0</ele><time>2026-04-06T19:39:58.766Z</time></trkpt><trkpt lat="44.8143746" lon="1.1518093"><ele>64.0</ele><time>2026-04-06T19:39:59.762Z</time></trkpt><trkpt lat="44.8142744" lon="1.1517349"><ele>65.0</ele><time>2026-04-06T19:40:00.767Z</time></trkpt><trkpt lat="44.8141851" lon="1.1516689"><ele>66.0</ele><time>2026-04-06T19:40:01.764Z</time></trkpt><trkpt lat="44.8141042" lon="1.1516079"><ele>67.0</ele><time>2026-04-06T19:40:02.763Z</time></trkpt><trkpt lat="44.8140313" lon="1.1515525"><ele>68.0</ele><time>2026-04-06T19:40:03.764Z</time></trkpt><trkpt lat="44.8139679" lon="1.1515041"><ele>69.0</ele><time>2026-04-06T19:40:04.77Z</time></trkpt><trkpt lat="44.813882" lon="1.1514376"><ele>70.0</ele><time>2026-04-06T19:40:06.761Z</time></trkpt><trkpt lat="44.8138436" lon="1.1513293"><ele>71.5</ele><time>2026-04-06T19:40:09.763Z</time></trkpt><trkpt lat="44.8138976" lon="1.1512543"><ele>73.0</ele><time>2026-04-06T19:40:11.766Z</time></trkpt><trkpt lat="44.8139607" lon="1.1512241"><ele>74.5</ele><time>2026-04-06T19:40:12.76Z</time></trkpt><trkpt lat="44.8140283" lon="1.1511999"><ele>76.0</ele><time>2026-04-06T19:40:13.778Z</time></trkpt><trkpt lat="44.8141186" lon="1.1511585"><ele>77.5</ele><time>2026-04-06T19:40:14.762Z</time></trkpt><trkpt lat="44.8142224" lon="1.1511074"><ele>79.0</ele><time>2026-04-06T19:40:15.759Z</time></trkpt><trkpt lat="44.8143349" lon="1.1510483"><ele>79.0</ele><time>2026-04-06T19:40:16.76Z</time></trkpt><trkpt lat="44.8144473" lon="1.1509843"><ele>79.0</ele><time>2026-04-06T19:40:17.756Z</time></trkpt><trkpt lat="44.8145611" lon="1.1509137"><ele>79.0</ele><time>2026-04-06T19:40:18.788Z</time></trkpt><trkpt lat="44.8146743" lon="1.1508379"><ele>79.0</ele><time>2026-04-06T19:40:19.765Z</time></trkpt><trkpt lat="44.8147866" lon="1.1507558"><ele>83.0</ele><time>2026-04-06T19:40:20.762Z</time></trkpt><trkpt lat="44.8149063" lon="1.1506726"><ele>87.0</ele><time>2026-04-06T19:40:21.766Z</time></trkpt><trkpt lat="44.8150375" lon="1.1506"><ele>91.0</ele><time>2026-04-06T19:40:22.764Z</time></trkpt><trkpt lat="44.8151739" lon="1.150529"><ele>95.0</ele><time>2026-04-06T19:40:23.768Z</time></trkpt><trkpt lat="44.8153123" lon="1.150465"><ele>95.0</ele><time>2026-04-06T19:40:24.761Z</time></trkpt><trkpt lat="44.8154522" lon="1.1504022"><ele>95.0</ele><time>2026-04-06T19:40:25.771Z</time></trkpt><trkpt lat="44.8155916" lon="1.150334"><ele>95.0</ele><time>2026-04-06T19:40:26.756Z</time></trkpt><trkpt lat="44.8157279" lon="1.1502563"><ele>95.0</ele><time>2026-04-06T19:40:27.775Z</time></trkpt><trkpt lat="44.8158614" lon="1.1501677"><ele>92.75</ele><time>2026-04-06T19:40:28.765Z</time></trkpt><trkpt lat="44.8159939" lon="1.1500746"><ele>90.5</ele><time>2026-04-06T19:40:29.762Z</time></trkpt><trkpt lat="44.8161269" lon="1.1499792"><ele>88.25</ele><time>2026-04-06T19:40:30.774Z</time></trkpt><trkpt lat="44.8162577" lon="1.1498897"><ele>86.0</ele><time>2026-04-06T19:40:31.765Z</time></trkpt><trkpt lat="44.8163889" lon="1.149806"><ele>86.75</ele><time>2026-04-06T19:40:32.799Z</time></trkpt><trkpt lat="44.8165302" lon="1.1497254"><ele>87.5</ele><time>2026-04-06T19:40:33.763Z</time></trkpt><trkpt lat="44.8166628" lon="1.1496523"><ele>88.25</ele><time>2026-04-06T19:40:34.757Z</time></trkpt><trkpt lat="44.8167985" lon="1.149582"><ele>89.0</ele><time>2026-04-06T19:40:35.764Z</time></trkpt><trkpt lat="44.8169379" lon="1.1495043"><ele>89.0</ele><time>2026-04-06T19:40:36.76Z</time></trkpt><trkpt lat="44.817076" lon="1.1494353"><ele>89.0</ele><time>2026-04-06T19:40:37.779Z</time></trkpt><trkpt lat="44.8172104" lon="1.1493636"><ele>89.0</ele><time>2026-04-06T19:40:38.757Z</time></trkpt><trkpt lat="44.8173451" lon="1.1492949"><ele>89.0</ele><time>2026-04-06T19:40:39.761Z</time></trkpt><trkpt lat="44.8174766" lon="1.1492251"><ele>89.0</ele><time>2026-04-06T19:40:40.757Z</time></trkpt><trkpt lat="44.8176082" lon="1.1491564"><ele>89.0</ele><time>2026-04-06T19:40:41.76Z</time></trkpt><trkpt lat="44.8177393" lon="1.1490829"><ele>89.0</ele><time>2026-04-06T19:40:42.759Z</time></trkpt><trkpt lat="44.8178694" lon="1.1490133"><ele>89.0</ele><time>2026-04-06T19:40:43.761Z</time></trkpt><trkpt lat="44.8180006" lon="1.1489393"><ele>90.75</ele><time>2026-04-06T19:40:44.766Z</time></trkpt><trkpt lat="44.8181268" lon="1.1488717"><ele>92.5</ele><time>2026-04-06T19:40:45.78Z</time></trkpt><trkpt lat="44.8182592" lon="1.1488006"><ele>94.25</ele><time>2026-04-06T19:40:46.759Z</time></trkpt><trkpt lat="44.8183905" lon="1.1487332"><ele>96.0</ele><time>2026-04-06T19:40:47.772Z</time></trkpt><trkpt lat="44.8185253" lon="1.1486696"><ele>96.0</ele><time>2026-04-06T19:40:48.763Z</time></trkpt><trkpt lat="44.8186625" lon="1.1486083"><ele>96.0</ele><time>2026-04-06T19:40:49.76Z</time></trkpt><trkpt lat="44.8188053" lon="1.1485389"><ele>96.0</ele><time>2026-04-06T19:40:50.763Z</time></trkpt><trkpt lat="44.8189437" lon="1.1484785"><ele>96.0</ele><time>2026-04-06T19:40:51.762Z</time></trkpt><trkpt lat="44.8190765" lon="1.148434"><ele>96.0</ele><time>2026-04-06T19:40:52.765Z</time></trkpt><trkpt lat="44.8192052" lon="1.1483972"><ele>96.0</ele><time>2026-04-06T19:40:53.76Z</time></trkpt><trkpt lat="44.8193315" lon="1.1483652"><ele>96.0</ele><time>2026-04-06T19:40:54.792Z</time></trkpt><trkpt lat="44.819461" lon="1.1483326"><ele>96.0</ele><time>2026-04-06T19:40:55.756Z</time></trkpt><trkpt lat="44.8195941" lon="1.1482954"><ele>93.0</ele><time>2026-04-06T19:40:56.776Z</time></trkpt><trkpt lat="44.8197297" lon="1.1482636"><ele>90.0</ele><time>2026-04-06T19:40:57.757Z</time></trkpt><trkpt lat="44.8198651" lon="1.1482393"><ele>87.0</ele><time>2026-04-06T19:40:58.769Z</time></trkpt><trkpt lat="44.8200038" lon="1.1482149"><ele>84.0</ele><time>2026-04-06T19:40:59.763Z</time></trkpt><trkpt lat="44.8201407" lon="1.1481907"><ele>92.0</ele><time>2026-04-06T19:41:00.778Z</time></trkpt><trkpt lat="44.8202763" lon="1.148163"><ele>100.0</ele><time>2026-04-06T19:41:01.762Z</time></trkpt><trkpt lat="44.8204135" lon="1.1481349"><ele>108.0</ele><time>2026-04-06T19:41:02.764Z</time></trkpt><trkpt lat="44.8205395" lon="1.1480979"><ele>116.0</ele><time>2026-04-06T19:41:03.762Z</time></trkpt><trkpt lat="44.8206521" lon="1.1480626"><ele>115.99999999999999</ele><time>2026-04-06T19:41:04.759Z</time></trkpt><trkpt lat="44.8207454" lon="1.1480291"><ele>116.0</ele><time>2026-04-06T19:41:05.768Z</time></trkpt><trkpt lat="44.8208257" lon="1.1480071"><ele>116.0</ele><time>2026-04-06T19:41:06.761Z</time></trkpt><trkpt lat="44.8208899" lon="1.1479933"><ele>116.0</ele><time>2026-04-06T19:41:07.783Z</time></trkpt><trkpt lat="44.820977" lon="1.1479824"><ele>115.99999999999999</ele><time>2026-04-06T19:41:09.756Z</time></trkpt><trkpt lat="44.8210568" lon="1.1479176"><ele>116.0</ele><time>2026-04-06T19:56:19.746Z</time></trkpt><trkpt lat="44.8211242" lon="1.1478489"><ele>113.19999999999999</ele><time>2026-04-06T19:56:21.764Z</time></trkpt><trkpt lat="44.8211925" lon="1.1478066"><ele>110.39999999999999</ele><time>2026-04-06T19:56:22.778Z</time></trkpt><trkpt lat="44.8212987" lon="1.1477657"><ele>107.6</ele><time>2026-04-06T19:56:23.763Z</time></trkpt><trkpt lat="44.8214045" lon="1.1477217"><ele>104.8</ele><time>2026-04-06T19:56:24.763Z</time></trkpt><trkpt lat="44.8215362" lon="1.1476814"><ele>102.0</ele><time>2026-04-06T19:56:25.766Z</time></trkpt><trkpt lat="44.8216622" lon="1.1476458"><ele>102.0</ele><time>2026-04-06T19:56:26.771Z</time></trkpt><trkpt lat="44.8217935" lon="1.1476111"><ele>102.0</ele><time>2026-04-06T19:56:27.772Z</time></trkpt><trkpt lat="44.8219301" lon="1.1475779"><ele>102.0</ele><time>2026-04-06T19:56:28.782Z</time></trkpt><trkpt lat="44.8220705" lon="1.1475423"><ele>102.0</ele><time>2026-04-06T19:56:29.766Z</time></trkpt><trkpt lat="44.8222113" lon="1.1475029"><ele>102.25</ele><time>2026-04-06T19:56:30.764Z</time></trkpt><trkpt lat="44.8223546" lon="1.1474608"><ele>102.5</ele><time>2026-04-06T19:56:31.762Z</time></trkpt><trkpt lat="44.8225003" lon="1.1474113"><ele>102.75</ele><time>2026-04-06T19:56:32.757Z</time></trkpt><trkpt lat="44.8226482" lon="1.1473611"><ele>103.0</ele><time>2026-04-06T19:56:33.784Z</time></trkpt><trkpt lat="44.8227991" lon="1.1472946"><ele>103.0</ele><time>2026-04-06T19:56:34.761Z</time></trkpt><trkpt lat="44.8229462" lon="1.1472189"><ele>103.0</ele><time>2026-04-06T19:56:35.762Z</time></trkpt><trkpt lat="44.8230928" lon="1.147132"><ele>103.0</ele><time>2026-04-06T19:56:36.764Z</time></trkpt><trkpt lat="44.8232367" lon="1.1470378"><ele>103.0</ele><time>2026-04-06T19:56:37.763Z</time></trkpt><trkpt lat="44.8233791" lon="1.1469415"><ele>103.0</ele><time>2026-04-06T19:56:38.782Z</time></trkpt><trkpt lat="44.8235238" lon="1.146847"><ele>103.0</ele><time>2026-04-06T19:56:39.765Z</time></trkpt><trkpt lat="44.8236712" lon="1.1467622"><ele>97.33333333333334</ele><time>2026-04-06T19:56:40.765Z</time></trkpt><trkpt lat="44.8238221" lon="1.1466934"><ele>91.66666666666667</ele><time>2026-04-06T19:56:41.763Z</time></trkpt><trkpt lat="44.8239826" lon="1.1466329"><ele>86.0</ele><time>2026-04-06T19:56:42.767Z</time></trkpt><trkpt lat="44.8241455" lon="1.1465791"><ele>94.0</ele><time>2026-04-06T19:56:43.791Z</time></trkpt><trkpt lat="44.8243096" lon="1.1465335"><ele>102.0</ele><time>2026-04-06T19:56:44.763Z</time></trkpt><trkpt lat="44.8244731" lon="1.1464976"><ele>110.0</ele><time>2026-04-06T19:56:45.765Z</time></trkpt><trkpt lat="44.8246405" lon="1.1464703"><ele>110.0</ele><time>2026-04-06T19:56:46.772Z</time></trkpt><trkpt lat="44.8248054" lon="1.1464492"><ele>110.0</ele><time>2026-04-06T19:56:47.759Z</time></trkpt><trkpt lat="44.8249693" lon="1.1464261"><ele>110.0</ele><time>2026-04-06T19:56:48.802Z</time></trkpt><trkpt lat="44.8251343" lon="1.146399"><ele>108.0</ele><time>2026-04-06T19:56:49.769Z</time></trkpt><trkpt lat="44.8252969" lon="1.1463841"><ele>106.0</ele><time>2026-04-06T19:56:50.765Z</time></trkpt><trkpt lat="44.8254552" lon="1.1463446"><ele>104.0</ele><time>2026-04-06T19:56:51.77Z</time></trkpt><trkpt lat="44.8256178" lon="1.1463012"><ele>104.0</ele><time>2026-04-06T19:56:52.76Z</time></trkpt><trkpt lat="44.8257815" lon="1.1462507"><ele>104.0</ele><time>2026-04-06T19:56:53.783Z</time></trkpt><trkpt lat="44.8259363" lon="1.146211"><ele>104.0</ele><time>2026-04-06T19:56:54.763Z</time></trkpt><trkpt lat="44.8260858" lon="1.1461598"><ele>99.33333333333333</ele><time>2026-04-06T19:56:55.764Z</time></trkpt><trkpt lat="44.8262449" lon="1.1461048"><ele>94.66666666666666</ele><time>2026-04-06T19:56:56.763Z</time></trkpt><trkpt lat="44.8264012" lon="1.1460515"><ele>90.0</ele><time>2026-04-06T19:56:57.761Z</time></trkpt><trkpt lat="44.8265575" lon="1.1459852"><ele>90.0</ele><time>2026-04-06T19:56:58.763Z</time></trkpt><trkpt lat="44.8267047" lon="1.145927"><ele>90.0</ele><time>2026-04-06T19:56:59.759Z</time></trkpt><trkpt lat="44.8268523" lon="1.1458778"><ele>90.0</ele><time>2026-04-06T19:57:00.765Z</time></trkpt><trkpt lat="44.8270118" lon="1.1458168"><ele>87.33333333333333</ele><time>2026-04-06T19:57:01.76Z</time></trkpt><trkpt lat="44.8271731" lon="1.145765"><ele>84.66666666666666</ele><time>2026-04-06T19:57:02.758Z</time></trkpt><trkpt lat="44.8273273" lon="1.1457088"><ele>82.0</ele><time>2026-04-06T19:57:03.756Z</time></trkpt><trkpt lat="44.8274816" lon="1.1456502"><ele>89.0</ele><time>2026-04-06T19:57:04.78Z</time></trkpt><trkpt lat="44.8276359" lon="1.1456061"><ele>96.0</ele><time>2026-04-06T19:57:05.76Z</time></trkpt><trkpt lat="44.8277873" lon="1.1455708"><ele>103.0</ele><time>2026-04-06T19:57:06.781Z</time></trkpt><trkpt lat="44.8279401" lon="1.1455438"><ele>103.0</ele><time>2026-04-06T19:57:07.764Z</time></trkpt><trkpt lat="44.828106" lon="1.1455231"><ele>103.0</ele><time>2026-04-06T19:57:08.761Z</time></trkpt><trkpt lat="44.8282666" lon="1.1454954"><ele>103.0</ele><time>2026-04-06T19:57:09.756Z</time></trkpt><trkpt lat="44.828432" lon="1.1454662"><ele>98.33333333333334</ele><time>2026-04-06T19:57:10.77Z</time></trkpt><trkpt lat="44.8285878" lon="1.1454184"><ele>93.66666666666667</ele><time>2026-04-06T19:57:11.762Z</time></trkpt><trkpt lat="44.8287493" lon="1.1453833"><ele>89.0</ele><time>2026-04-06T19:57:12.759Z</time></trkpt><trkpt lat="44.8289091" lon="1.145331"><ele>89.0</ele><time>2026-04-06T19:57:13.792Z</time></trkpt><trkpt lat="44.8290707" lon="1.1452947"><ele>89.0</ele><time>2026-04-06T19:57:14.76Z</time></trkpt><trkpt lat="44.8292405" lon="1.1452534"><ele>89.0</ele><time>2026-04-06T19:57:15.789Z</time></trkpt><trkpt lat="44.8294102" lon="1.1452392"><ele>86.66666666666667</ele><time>2026-04-06T19:57:16.762Z</time></trkpt><trkpt lat="44.8295725" lon="1.1452272"><ele>84.33333333333333</ele><time>2026-04-06T19:57:17.763Z</time></trkpt><trkpt lat="44.8297358" lon="1.1452115"><ele>82.0</ele><time>2026-04-06T19:57:18.764Z</time></trkpt><trkpt lat="44.829897" lon="1.145203"><ele>82.0</ele><time>2026-04-06T19:57:19.768Z</time></trkpt><trkpt lat="44.8300564" lon="1.145193"><ele>82.0</ele><time>2026-04-06T19:57:20.761Z</time></trkpt><trkpt lat="44.8302161" lon="1.1451847"><ele>82.0</ele><time>2026-04-06T19:57:21.763Z</time></trkpt><trkpt lat="44.8303787" lon="1.145179"><ele>79.66666666666666</ele><time>2026-04-06T19:57:22.761Z</time></trkpt><trkpt lat="44.8305416" lon="1.1451692"><ele>77.33333333333333</ele><time>2026-04-06T19:57:23.765Z</time></trkpt><trkpt lat="44.830709" lon="1.1451539"><ele>75.0</ele><time>2026-04-06T19:57:24.767Z</time></trkpt><trkpt lat="44.8308673" lon="1.1451443"><ele>73.75</ele><time>2026-04-06T19:57:25.791Z</time></trkpt><trkpt lat="44.8310176" lon="1.1451498"><ele>72.5</ele><time>2026-04-06T19:57:26.768Z</time></trkpt><trkpt lat="44.831159" lon="1.1451473"><ele>71.25</ele><time>2026-04-06T19:57:27.775Z</time></trkpt><trkpt lat="44.8312877" lon="1.1451513"><ele>70.0</ele><time>2026-04-06T19:57:28.769Z</time></trkpt><trkpt lat="44.8314149" lon="1.14515"><ele>70.0</ele><time>2026-04-06T19:57:29.766Z</time></trkpt><trkpt lat="44.8315341" lon="1.1451194"><ele>70.0</ele><time>2026-04-06T19:57:30.766Z</time></trkpt><trkpt lat="44.8316428" lon="1.1450619"><ele>70.0</ele><time>2026-04-06T19:57:31.769Z</time></trkpt><trkpt lat="44.8317361" lon="1.1449743"><ele>70.0</ele><time>2026-04-06T19:57:32.765Z</time></trkpt><trkpt lat="44.8318116" lon="1.1448623"><ele>69.8</ele><time>2026-04-06T19:57:33.78Z</time></trkpt><trkpt lat="44.8318641" lon="1.1447365"><ele>69.6</ele><time>2026-04-06T19:57:34.784Z</time></trkpt><trkpt lat="44.8318932" lon="1.1445944"><ele>69.4</ele><time>2026-04-06T19:57:35.762Z</time></trkpt><trkpt lat="44.8319004" lon="1.1444421"><ele>69.2</ele><time>2026-04-06T19:57:36.807Z</time></trkpt><trkpt lat="44.8318876" lon="1.1442851"><ele>69.0</ele><time>2026-04-06T19:57:37.782Z</time></trkpt><trkpt lat="44.8318652" lon="1.1441257"><ele>70.0</ele><time>2026-04-06T19:57:38.765Z</time></trkpt><trkpt lat="44.8318435" lon="1.1439578"><ele>71.0</ele><time>2026-04-06T19:57:39.767Z</time></trkpt><trkpt lat="44.8318155" lon="1.1437909"><ele>72.0</ele><time>2026-04-06T19:57:40.764Z</time></trkpt><trkpt lat="44.8317981" lon="1.1436095"><ele>73.0</ele><time>2026-04-06T19:57:41.791Z</time></trkpt><trkpt lat="44.8317915" lon="1.1434129"><ele>74.0</ele><time>2026-04-06T19:57:42.761Z</time></trkpt><trkpt lat="44.8317903" lon="1.1432199"><ele>75.0</ele><time>2026-04-06T19:57:43.765Z</time></trkpt><trkpt lat="44.8317905" lon="1.143019"><ele>76.0</ele><time>2026-04-06T19:57:44.763Z</time></trkpt><trkpt lat="44.8317913" lon="1.1428072"><ele>77.0</ele><time>2026-04-06T19:57:45.763Z</time></trkpt><trkpt lat="44.8317912" lon="1.1425924"><ele>77.33333333333334</ele><time>2026-04-06T19:57:46.76Z</time></trkpt><trkpt lat="44.8317943" lon="1.1423763"><ele>77.66666666666667</ele><time>2026-04-06T19:57:47.765Z</time></trkpt><trkpt lat="44.8317973" lon="1.1421562"><ele>78.0</ele><time>2026-04-06T19:57:48.762Z</time></trkpt><trkpt lat="44.8318065" lon="1.1419312"><ele>76.33333333333333</ele><time>2026-04-06T19:57:49.766Z</time></trkpt><trkpt lat="44.8318239" lon="1.1417007"><ele>74.66666666666666</ele><time>2026-04-06T19:57:50.779Z</time></trkpt><trkpt lat="44.8318459" lon="1.141466"><ele>73.0</ele><time>2026-04-06T19:57:51.767Z</time></trkpt><trkpt lat="44.8318661" lon="1.1412249"><ele>73.0</ele><time>2026-04-06T19:57:52.765Z</time></trkpt><trkpt lat="44.8318848" lon="1.1409774"><ele>73.0</ele><time>2026-04-06T19:57:53.763Z</time></trkpt><trkpt lat="44.8319072" lon="1.1407276"><ele>73.0</ele><time>2026-04-06T19:57:54.763Z</time></trkpt><trkpt lat="44.8319322" lon="1.1404749"><ele>73.0</ele><time>2026-04-06T19:57:55.765Z</time></trkpt><trkpt lat="44.8319537" lon="1.1402192"><ele>73.0</ele><time>2026-04-06T19:57:56.779Z</time></trkpt><trkpt lat="44.8319767" lon="1.139961"><ele>73.0</ele><time>2026-04-06T19:57:57.769Z</time></trkpt><trkpt lat="44.8320004" lon="1.1397022"><ele>72.66666666666666</ele><time>2026-04-06T19:57:58.768Z</time></trkpt><trkpt lat="44.8320249" lon="1.1394433"><ele>72.33333333333333</ele><time>2026-04-06T19:57:59.764Z</time></trkpt><trkpt lat="44.8320513" lon="1.1391845"><ele>72.0</ele><time>2026-04-06T19:58:00.766Z</time></trkpt><trkpt lat="44.8320772" lon="1.1389263"><ele>72.0</ele><time>2026-04-06T19:58:01.797Z</time></trkpt><trkpt lat="44.8321029" lon="1.1386683"><ele>72.0</ele><time>2026-04-06T19:58:02.778Z</time></trkpt><trkpt lat="44.8321282" lon="1.1384106"><ele>72.0</ele><time>2026-04-06T19:58:03.766Z</time></trkpt><trkpt lat="44.8321528" lon="1.1381539"><ele>71.66666666666667</ele><time>2026-04-06T19:58:04.768Z</time></trkpt><trkpt lat="44.8321768" lon="1.137898"><ele>71.33333333333334</ele><time>2026-04-06T19:58:05.766Z</time></trkpt><trkpt lat="44.8321999" lon="1.1376439"><ele>71.0</ele><time>2026-04-06T19:58:06.788Z</time></trkpt><trkpt lat="44.8322224" lon="1.1373904"><ele>71.0</ele><time>2026-04-06T19:58:07.762Z</time></trkpt><trkpt lat="44.8322447" lon="1.1371363"><ele>71.0</ele><time>2026-04-06T19:58:08.767Z</time></trkpt><trkpt lat="44.8322686" lon="1.1368844"><ele>71.0</ele><time>2026-04-06T19:58:09.767Z</time></trkpt><trkpt lat="44.8322929" lon="1.1366339"><ele>71.0</ele><time>2026-04-06T19:58:10.764Z</time></trkpt><trkpt lat="44.8323169" lon="1.1363917"><ele>71.0</ele><time>2026-04-06T19:58:11.764Z</time></trkpt><trkpt lat="44.8323397" lon="1.1361617"><ele>71.0</ele><time>2026-04-06T19:58:12.768Z</time></trkpt><trkpt lat="44.8323568" lon="1.1359442"><ele>71.0</ele><time>2026-04-06T19:58:13.787Z</time></trkpt><trkpt lat="44.8323666" lon="1.1357338"><ele>71.0</ele><time>2026-04-06T19:58:14.766Z</time></trkpt><trkpt lat="44.8323715" lon="1.1355212"><ele>71.0</ele><time>2026-04-06T19:58:15.763Z</time></trkpt><trkpt lat="44.8323708" lon="1.135307"><ele>70.66666666666667</ele><time>2026-04-06T19:58:16.765Z</time></trkpt><trkpt lat="44.8323648" lon="1.1350905"><ele>70.33333333333333</ele><time>2026-04-06T19:58:17.764Z</time></trkpt><trkpt lat="44.8323525" lon="1.1348758"><ele>70.0</ele><time>2026-04-06T19:58:18.793Z</time></trkpt><trkpt lat="44.8323338" lon="1.1346689"><ele>70.5</ele><time>2026-04-06T19:58:19.768Z</time></trkpt><trkpt lat="44.8323074" lon="1.134472"><ele>71.0</ele><time>2026-04-06T19:58:20.767Z</time></trkpt><trkpt lat="44.8322812" lon="1.1342953"><ele>71.5</ele><time>2026-04-06T19:58:21.767Z</time></trkpt><trkpt lat="44.8322582" lon="1.1341293"><ele>72.0</ele><time>2026-04-06T19:58:22.768Z</time></trkpt><trkpt lat="44.8322445" lon="1.1339622"><ele>72.0</ele><time>2026-04-06T19:58:23.765Z</time></trkpt><trkpt lat="44.8322404" lon="1.1337892"><ele>72.0</ele><time>2026-04-06T19:58:24.765Z</time></trkpt><trkpt lat="44.8322392" lon="1.1336072"><ele>72.0</ele><time>2026-04-06T19:58:25.768Z</time></trkpt><trkpt lat="44.8322385" lon="1.1334162"><ele>72.0</ele><time>2026-04-06T19:58:26.767Z</time></trkpt><trkpt lat="44.8322394" lon="1.1332185"><ele>72.0</ele><time>2026-04-06T19:58:27.769Z</time></trkpt><trkpt lat="44.8322406" lon="1.1330147"><ele>72.0</ele><time>2026-04-06T19:58:28.769Z</time></trkpt><trkpt lat="44.8322412" lon="1.1328055"><ele>72.0</ele><time>2026-04-06T19:58:29.773Z</time></trkpt><trkpt lat="44.8322418" lon="1.1325918"><ele>72.0</ele><time>2026-04-06T19:58:30.768Z</time></trkpt><trkpt lat="44.8322433" lon="1.132374"><ele>71.66666666666667</ele><time>2026-04-06T19:58:31.78Z</time></trkpt><trkpt lat="44.8322458" lon="1.1321531"><ele>71.33333333333334</ele><time>2026-04-06T19:58:32.773Z</time></trkpt><trkpt lat="44.8322495" lon="1.1319295"><ele>71.0</ele><time>2026-04-06T19:58:33.761Z</time></trkpt><trkpt lat="44.8322557" lon="1.1317031"><ele>71.33333333333334</ele><time>2026-04-06T19:58:34.764Z</time></trkpt><trkpt lat="44.8322664" lon="1.1314758"><ele>71.66666666666667</ele><time>2026-04-06T19:58:35.768Z</time></trkpt><trkpt lat="44.8322837" lon="1.1312485"><ele>72.0</ele><time>2026-04-06T19:58:36.769Z</time></trkpt><trkpt lat="44.8323107" lon="1.1310239"><ele>72.0</ele><time>2026-04-06T19:58:37.781Z</time></trkpt><trkpt lat="44.8323453" lon="1.1308009"><ele>72.0</ele><time>2026-04-06T19:58:38.764Z</time></trkpt><trkpt lat="44.8323835" lon="1.1305806"><ele>72.0</ele><time>2026-04-06T19:58:39.764Z</time></trkpt><trkpt lat="44.8324216" lon="1.1303611"><ele>71.66666666666667</ele><time>2026-04-06T19:58:40.773Z</time></trkpt><trkpt lat="44.8324608" lon="1.1301427"><ele>71.33333333333334</ele><time>2026-04-06T19:58:41.768Z</time></trkpt><trkpt lat="44.8324977" lon="1.1299301"><ele>71.0</ele><time>2026-04-06T19:58:42.803Z</time></trkpt><trkpt lat="44.8325277" lon="1.1297213"><ele>70.75</ele><time>2026-04-06T19:58:43.761Z</time></trkpt><trkpt lat="44.8325503" lon="1.1295119"><ele>70.5</ele><time>2026-04-06T19:58:44.771Z</time></trkpt><trkpt lat="44.832563" lon="1.1293052"><ele>70.25</ele><time>2026-04-06T19:58:45.769Z</time></trkpt><trkpt lat="44.8325632" lon="1.1290976"><ele>70.0</ele><time>2026-04-06T19:58:46.769Z</time></trkpt><trkpt lat="44.8325502" lon="1.1288913"><ele>70.0</ele><time>2026-04-06T19:58:47.766Z</time></trkpt><trkpt lat="44.8325241" lon="1.1286951"><ele>70.0</ele><time>2026-04-06T19:58:48.763Z</time></trkpt><trkpt lat="44.8324827" lon="1.1285201"><ele>70.0</ele><time>2026-04-06T19:58:49.765Z</time></trkpt><trkpt lat="44.8324262" lon="1.1283673"><ele>70.0</ele><time>2026-04-06T19:58:50.769Z</time></trkpt><trkpt lat="44.8323549" lon="1.1282262"><ele>69.25</ele><time>2026-04-06T19:58:51.766Z</time></trkpt><trkpt lat="44.8322691" lon="1.1280917"><ele>68.5</ele><time>2026-04-06T19:58:52.782Z</time></trkpt><trkpt lat="44.8321696" lon="1.127963"><ele>67.75</ele><time>2026-04-06T19:58:53.766Z</time></trkpt><trkpt lat="44.83206" lon="1.1278407"><ele>67.0</ele><time>2026-04-06T19:58:54.771Z</time></trkpt><trkpt lat="44.8319457" lon="1.1277173"><ele>67.0</ele><time>2026-04-06T19:58:55.768Z</time></trkpt><trkpt lat="44.8318328" lon="1.1275845"><ele>67.0</ele><time>2026-04-06T19:58:56.763Z</time></trkpt><trkpt lat="44.831722" lon="1.1274404"><ele>67.0</ele><time>2026-04-06T19:58:57.784Z</time></trkpt><trkpt lat="44.8316131" lon="1.1272873"><ele>67.0</ele><time>2026-04-06T19:58:58.761Z</time></trkpt><trkpt lat="44.8315075" lon="1.1271255"><ele>67.0</ele><time>2026-04-06T19:58:59.764Z</time></trkpt><trkpt lat="44.831406" lon="1.1269568"><ele>67.0</ele><time>2026-04-06T19:59:00.761Z</time></trkpt><trkpt lat="44.8313138" lon="1.1267777"><ele>67.0</ele><time>2026-04-06T19:59:01.764Z</time></trkpt><trkpt lat="44.8312305" lon="1.1265923"><ele>67.0</ele><time>2026-04-06T19:59:02.761Z</time></trkpt><trkpt lat="44.8311512" lon="1.1264044"><ele>67.0</ele><time>2026-04-06T19:59:03.789Z</time></trkpt><trkpt lat="44.8310729" lon="1.1262174"><ele>66.33333333333333</ele><time>2026-04-06T19:59:04.768Z</time></trkpt><trkpt lat="44.8309944" lon="1.1260314"><ele>65.66666666666667</ele><time>2026-04-06T19:59:05.766Z</time></trkpt><trkpt lat="44.83092" lon="1.1258423"><ele>65.0</ele><time>2026-04-06T19:59:06.772Z</time></trkpt><trkpt lat="44.8308551" lon="1.1256482"><ele>71.25</ele><time>2026-04-06T19:59:07.769Z</time></trkpt><trkpt lat="44.8307948" lon="1.125453"><ele>77.5</ele><time>2026-04-06T19:59:08.764Z</time></trkpt><trkpt lat="44.8307612" lon="1.125248"><ele>83.75</ele><time>2026-04-06T19:59:09.772Z</time></trkpt><trkpt lat="44.830732" lon="1.1250475"><ele>90.0</ele><time>2026-04-06T19:59:10.764Z</time></trkpt><trkpt lat="44.8307336" lon="1.124871"><ele>90.2</ele><time>2026-04-06T19:59:11.764Z</time></trkpt><trkpt lat="44.8307394" lon="1.1247116"><ele>90.4</ele><time>2026-04-06T19:59:12.767Z</time></trkpt><trkpt lat="44.8307516" lon="1.1245765"><ele>90.6</ele><time>2026-04-06T19:59:13.763Z</time></trkpt><trkpt lat="44.8307577" lon="1.1244611"><ele>90.8</ele><time>2026-04-06T19:59:14.792Z</time></trkpt><trkpt lat="44.8307672" lon="1.1243473"><ele>91.0</ele><time>2026-04-06T19:59:15.765Z</time></trkpt><trkpt lat="44.8307756" lon="1.1242371"><ele>91.0</ele><time>2026-04-06T19:59:16.77Z</time></trkpt><trkpt lat="44.8307645" lon="1.124081"><ele>91.0</ele><time>2026-04-06T19:59:18.762Z</time></trkpt><trkpt lat="44.8307534" lon="1.1239895"><ele>91.0</ele><time>2026-04-06T19:59:20.768Z</time></trkpt><trkpt lat="44.8307431" lon="1.1238537"><ele>91.0</ele><time>2026-04-06T19:59:25.766Z</time></trkpt><trkpt lat="44.8307276" lon="1.1236872"><ele>91.0</ele><time>2026-04-06T19:59:27.766Z</time></trkpt><trkpt lat="44.8307059" lon="1.1235827"><ele>89.6</ele><time>2026-04-06T19:59:28.767Z</time></trkpt><trkpt lat="44.8306857" lon="1.1234621"><ele>88.19999999999999</ele><time>2026-04-06T19:59:29.764Z</time></trkpt><trkpt lat="44.8306684" lon="1.1233273"><ele>86.80000000000001</ele><time>2026-04-06T19:59:30.768Z</time></trkpt><trkpt lat="44.8306486" lon="1.1231795"><ele>85.4</ele><time>2026-04-06T19:59:31.759Z</time></trkpt><trkpt lat="44.8306213" lon="1.1230206"><ele>84.0</ele><time>2026-04-06T19:59:32.761Z</time></trkpt><trkpt lat="44.8305898" lon="1.1228516"><ele>82.5</ele><time>2026-04-06T19:59:33.763Z</time></trkpt><trkpt lat="44.8305554" lon="1.1226733"><ele>81.0</ele><time>2026-04-06T19:59:34.769Z</time></trkpt><trkpt lat="44.8305176" lon="1.1224885"><ele>79.5</ele><time>2026-04-06T19:59:35.768Z</time></trkpt><trkpt lat="44.8304763" lon="1.122297"><ele>78.0</ele><time>2026-04-06T19:59:36.766Z</time></trkpt><trkpt lat="44.8304286" lon="1.1221037"><ele>76.0</ele><time>2026-04-06T19:59:37.789Z</time></trkpt><trkpt lat="44.8303737" lon="1.1219133"><ele>74.0</ele><time>2026-04-06T19:59:38.763Z</time></trkpt><trkpt lat="44.8303139" lon="1.1217382"><ele>72.0</ele><time>2026-04-06T19:59:39.78Z</time></trkpt><trkpt lat="44.8302454" lon="1.1215716"><ele>70.0</ele><time>2026-04-06T19:59:40.764Z</time></trkpt><trkpt lat="44.8301678" lon="1.1214089"><ele>73.25</ele><time>2026-04-06T19:59:41.767Z</time></trkpt><trkpt lat="44.8300875" lon="1.1212517"><ele>76.5</ele><time>2026-04-06T19:59:42.769Z</time></trkpt><trkpt lat="44.8300004" lon="1.1210924"><ele>79.75</ele><time>2026-04-06T19:59:43.77Z</time></trkpt><trkpt lat="44.8299086" lon="1.1209298"><ele>83.0</ele><time>2026-04-06T19:59:44.77Z</time></trkpt><trkpt lat="44.8298178" lon="1.1207638"><ele>79.0</ele><time>2026-04-06T19:59:45.765Z</time></trkpt><trkpt lat="44.8297274" lon="1.1206006"><ele>75.0</ele><time>2026-04-06T19:59:46.766Z</time></trkpt><trkpt lat="44.829634" lon="1.1204354"><ele>71.0</ele><time>2026-04-06T19:59:47.772Z</time></trkpt><trkpt lat="44.8295348" lon="1.1202693"><ele>71.0</ele><time>2026-04-06T19:59:48.763Z</time></trkpt><trkpt lat="44.8294292" lon="1.1201072"><ele>71.0</ele><time>2026-04-06T19:59:49.785Z</time></trkpt><trkpt lat="44.8293154" lon="1.1199499"><ele>71.0</ele><time>2026-04-06T19:59:50.767Z</time></trkpt><trkpt lat="44.8291958" lon="1.1197988"><ele>71.0</ele><time>2026-04-06T19:59:51.776Z</time></trkpt><trkpt lat="44.8290682" lon="1.1196511"><ele>71.0</ele><time>2026-04-06T19:59:52.763Z</time></trkpt><trkpt lat="44.8289362" lon="1.1195077"><ele>71.0</ele><time>2026-04-06T19:59:53.765Z</time></trkpt><trkpt lat="44.828801" lon="1.1193647"><ele>71.0</ele><time>2026-04-06T19:59:54.767Z</time></trkpt><trkpt lat="44.8286614" lon="1.1192233"><ele>71.0</ele><time>2026-04-06T19:59:55.768Z</time></trkpt><trkpt lat="44.8285211" lon="1.1190847"><ele>71.0</ele><time>2026-04-06T19:59:56.774Z</time></trkpt><trkpt lat="44.8283812" lon="1.1189449"><ele>70.66666666666667</ele><time>2026-04-06T19:59:57.768Z</time></trkpt><trkpt lat="44.8282423" lon="1.118805"><ele>70.33333333333333</ele><time>2026-04-06T19:59:58.768Z</time></trkpt><trkpt lat="44.8281021" lon="1.1186675"><ele>70.0</ele><time>2026-04-06T19:59:59.803Z</time></trkpt><trkpt lat="44.8279617" lon="1.1185342"><ele>70.0</ele><time>2026-04-06T20:00:00.772Z</time></trkpt><trkpt lat="44.8278186" lon="1.1184079"><ele>70.0</ele><time>2026-04-06T20:00:01.766Z</time></trkpt><trkpt lat="44.8276748" lon="1.1182832"><ele>70.0</ele><time>2026-04-06T20:00:02.765Z</time></trkpt><trkpt lat="44.8275316" lon="1.1181596"><ele>69.0</ele><time>2026-04-06T20:00:03.77Z</time></trkpt><trkpt lat="44.8273846" lon="1.1180445"><ele>68.0</ele><time>2026-04-06T20:00:04.766Z</time></trkpt><trkpt lat="44.8272355" lon="1.1179372"><ele>67.0</ele><time>2026-04-06T20:00:05.795Z</time></trkpt><trkpt lat="44.8270863" lon="1.1178308"><ele>67.0</ele><time>2026-04-06T20:00:06.765Z</time></trkpt><trkpt lat="44.8269402" lon="1.1177174"><ele>67.0</ele><time>2026-04-06T20:00:07.768Z</time></trkpt><trkpt lat="44.8268033" lon="1.1175861"><ele>67.0</ele><time>2026-04-06T20:00:08.768Z</time></trkpt><trkpt lat="44.8266748" lon="1.1174372"><ele>66.66666666666666</ele><time>2026-04-06T20:00:09.767Z</time></trkpt><trkpt lat="44.8265554" lon="1.1172757"><ele>66.33333333333333</ele><time>2026-04-06T20:00:10.768Z</time></trkpt><trkpt lat="44.8264396" lon="1.1171092"><ele>66.0</ele><time>2026-04-06T20:00:11.786Z</time></trkpt><trkpt lat="44.8263221" lon="1.1169484"><ele>66.0</ele><time>2026-04-06T20:00:12.764Z</time></trkpt><trkpt lat="44.8262078" lon="1.1167822"><ele>66.0</ele><time>2026-04-06T20:00:13.767Z</time></trkpt><trkpt lat="44.8260903" lon="1.1166185"><ele>66.0</ele><time>2026-04-06T20:00:14.771Z</time></trkpt><trkpt lat="44.8259745" lon="1.1164548"><ele>66.66666666666667</ele><time>2026-04-06T20:00:15.767Z</time></trkpt><trkpt lat="44.8258573" lon="1.116291"><ele>67.33333333333334</ele><time>2026-04-06T20:00:16.767Z</time></trkpt><trkpt lat="44.8257456" lon="1.1161304"><ele>68.0</ele><time>2026-04-06T20:00:17.767Z</time></trkpt><trkpt lat="44.825637" lon="1.1159764"><ele>68.0</ele><time>2026-04-06T20:00:18.795Z</time></trkpt><trkpt lat="44.825538" lon="1.1158177"><ele>68.0</ele><time>2026-04-06T20:00:19.775Z</time></trkpt><trkpt lat="44.8254545" lon="1.1156431"><ele>68.0</ele><time>2026-04-06T20:00:20.767Z</time></trkpt><trkpt lat="44.825388" lon="1.1154525"><ele>68.33333333333334</ele><time>2026-04-06T20:00:21.776Z</time></trkpt><trkpt lat="44.8253353" lon="1.1152476"><ele>68.66666666666667</ele><time>2026-04-06T20:00:22.769Z</time></trkpt><trkpt lat="44.8252758" lon="1.115043"><ele>69.0</ele><time>2026-04-06T20:00:23.768Z</time></trkpt><trkpt lat="44.8252027" lon="1.1148448"><ele>70.66666666666667</ele><time>2026-04-06T20:00:24.768Z</time></trkpt><trkpt lat="44.8251204" lon="1.1146504"><ele>72.33333333333334</ele><time>2026-04-06T20:00:25.789Z</time></trkpt><trkpt lat="44.8250347" lon="1.1144574"><ele>74.0</ele><time>2026-04-06T20:00:26.771Z</time></trkpt><trkpt lat="44.8249474" lon="1.1142625"><ele>73.66666666666667</ele><time>2026-04-06T20:00:27.768Z</time></trkpt><trkpt lat="44.824859" lon="1.114069"><ele>73.33333333333333</ele><time>2026-04-06T20:00:28.768Z</time></trkpt><trkpt lat="44.82477" lon="1.113872"><ele>73.0</ele><time>2026-04-06T20:00:29.77Z</time></trkpt><trkpt lat="44.8246814" lon="1.1136723"><ele>73.0</ele><time>2026-04-06T20:00:30.795Z</time></trkpt><trkpt lat="44.824596" lon="1.1134707"><ele>73.0</ele><time>2026-04-06T20:00:31.773Z</time></trkpt><trkpt lat="44.8245139" lon="1.1132658"><ele>73.0</ele><time>2026-04-06T20:00:32.768Z</time></trkpt><trkpt lat="44.8244358" lon="1.1130614"><ele>72.33333333333333</ele><time>2026-04-06T20:00:33.767Z</time></trkpt><trkpt lat="44.8243576" lon="1.1128573"><ele>71.66666666666667</ele><time>2026-04-06T20:00:34.766Z</time></trkpt><trkpt lat="44.8242835" lon="1.1126348"><ele>71.0</ele><time>2026-04-06T20:00:35.762Z</time></trkpt><trkpt lat="44.824214" lon="1.1124041"><ele>71.0</ele><time>2026-04-06T20:00:36.765Z</time></trkpt><trkpt lat="44.8241575" lon="1.1121922"><ele>71.0</ele><time>2026-04-06T20:00:37.767Z</time></trkpt><trkpt lat="44.8240921" lon="1.111987"><ele>71.0</ele><time>2026-04-06T20:00:38.767Z</time></trkpt><trkpt lat="44.8240575" lon="1.1118217"><ele>71.0</ele><time>2026-04-06T20:00:39.79Z</time></trkpt><trkpt lat="44.824013" lon="1.1116662"><ele>70.0</ele><time>2026-04-06T20:00:40.77Z</time></trkpt><trkpt lat="44.8239607" lon="1.1115322"><ele>69.0</ele><time>2026-04-06T20:00:41.77Z</time></trkpt><trkpt lat="44.823901" lon="1.1114025"><ele>68.0</ele><time>2026-04-06T20:00:42.768Z</time></trkpt><trkpt lat="44.8238104" lon="1.111251"><ele>67.0</ele><time>2026-04-06T20:00:43.767Z</time></trkpt><trkpt lat="44.8237221" lon="1.1111029"><ele>67.0</ele><time>2026-04-06T20:00:44.768Z</time></trkpt><trkpt lat="44.8236405" lon="1.1109526"><ele>67.0</ele><time>2026-04-06T20:00:45.792Z</time></trkpt><trkpt lat="44.8235521" lon="1.110797"><ele>67.0</ele><time>2026-04-06T20:00:46.769Z</time></trkpt><trkpt lat="44.8234663" lon="1.1106418"><ele>67.0</ele><time>2026-04-06T20:00:47.806Z</time></trkpt><trkpt lat="44.8233892" lon="1.1104799"><ele>67.5</ele><time>2026-04-06T20:00:48.764Z</time></trkpt><trkpt lat="44.8233248" lon="1.1102993"><ele>68.0</ele><time>2026-04-06T20:00:49.769Z</time></trkpt><trkpt lat="44.8232718" lon="1.1101026"><ele>68.5</ele><time>2026-04-06T20:00:50.763Z</time></trkpt><trkpt lat="44.8232274" lon="1.1099009"><ele>69.0</ele><time>2026-04-06T20:00:51.764Z</time></trkpt><trkpt lat="44.8231851" lon="1.109705"><ele>69.0</ele><time>2026-04-06T20:00:52.782Z</time></trkpt><trkpt lat="44.8231349" lon="1.1095273"><ele>69.0</ele><time>2026-04-06T20:00:53.77Z</time></trkpt><trkpt lat="44.823087" lon="1.1093678"><ele>69.0</ele><time>2026-04-06T20:00:54.772Z</time></trkpt><trkpt lat="44.8230336" lon="1.1092373"><ele>69.0</ele><time>2026-04-06T20:00:55.766Z</time></trkpt><trkpt lat="44.8229819" lon="1.1091122"><ele>68.33333333333333</ele><time>2026-04-06T20:00:56.782Z</time></trkpt><trkpt lat="44.8229364" lon="1.1090076"><ele>67.66666666666667</ele><time>2026-04-06T20:00:57.768Z</time></trkpt><trkpt lat="44.82288" lon="1.1089256"><ele>67.0</ele><time>2026-04-06T20:00:58.769Z</time></trkpt><trkpt lat="44.8228194" lon="1.1088553"><ele>66.33333333333334</ele><time>2026-04-06T20:00:59.774Z</time></trkpt><trkpt lat="44.8227412" lon="1.1088335"><ele>65.66666666666667</ele><time>2026-04-06T20:01:00.766Z</time></trkpt><trkpt lat="44.8226691" lon="1.1088398"><ele>65.0</ele><time>2026-04-06T20:01:01.784Z</time></trkpt><trkpt lat="44.8225884" lon="1.1088736"><ele>69.2</ele><time>2026-04-06T20:01:02.768Z</time></trkpt><trkpt lat="44.8224987" lon="1.1089164"><ele>73.4</ele><time>2026-04-06T20:01:03.764Z</time></trkpt><trkpt lat="44.8224012" lon="1.1089534"><ele>77.6</ele><time>2026-04-06T20:01:04.765Z</time></trkpt><trkpt lat="44.8222975" lon="1.1089798"><ele>81.8</ele><time>2026-04-06T20:01:05.772Z</time></trkpt><trkpt lat="44.8221937" lon="1.1089986"><ele>86.0</ele><time>2026-04-06T20:01:06.77Z</time></trkpt><trkpt lat="44.8220839" lon="1.1090156"><ele>86.0</ele><time>2026-04-06T20:01:07.765Z</time></trkpt><trkpt lat="44.8219699" lon="1.1090222"><ele>86.0</ele><time>2026-04-06T20:01:08.787Z</time></trkpt><trkpt lat="44.8218502" lon="1.1090277"><ele>86.0</ele><time>2026-04-06T20:01:09.776Z</time></trkpt><trkpt lat="44.8217292" lon="1.1090431"><ele>86.0</ele><time>2026-04-06T20:01:10.764Z</time></trkpt><trkpt lat="44.8216073" lon="1.1090651"><ele>87.75</ele><time>2026-04-06T20:01:11.762Z</time></trkpt><trkpt lat="44.8214799" lon="1.1090913"><ele>89.5</ele><time>2026-04-06T20:01:12.769Z</time></trkpt><trkpt lat="44.8213551" lon="1.1091273"><ele>91.25</ele><time>2026-04-06T20:01:13.768Z</time></trkpt><trkpt lat="44.8212254" lon="1.1091621"><ele>93.0</ele><time>2026-04-06T20:01:14.764Z</time></trkpt><trkpt lat="44.8211001" lon="1.1092"><ele>93.0</ele><time>2026-04-06T20:01:15.764Z</time></trkpt><trkpt lat="44.8209842" lon="1.1092347"><ele>93.0</ele><time>2026-04-06T20:01:16.763Z</time></trkpt><trkpt lat="44.8208807" lon="1.1092628"><ele>93.0</ele><time>2026-04-06T20:01:17.766Z</time></trkpt><trkpt lat="44.8207827" lon="1.1092835"><ele>93.0</ele><time>2026-04-06T20:01:18.765Z</time></trkpt><trkpt lat="44.8206894" lon="1.1092986"><ele>93.0</ele><time>2026-04-06T20:01:19.784Z</time></trkpt><trkpt lat="44.8206082" lon="1.1093023"><ele>92.71428571428572</ele><time>2026-04-06T20:01:20.767Z</time></trkpt><trkpt lat="44.8205427" lon="1.1092891"><ele>92.42857142857143</ele><time>2026-04-06T20:01:21.765Z</time></trkpt><trkpt lat="44.8204855" lon="1.1092473"><ele>92.14285714285714</ele><time>2026-04-06T20:01:22.765Z</time></trkpt><trkpt lat="44.8204415" lon="1.1091785"><ele>91.85714285714286</ele><time>2026-04-06T20:01:23.77Z</time></trkpt><trkpt lat="44.8204135" lon="1.1090853"><ele>91.57142857142857</ele><time>2026-04-06T20:01:24.764Z</time></trkpt><trkpt lat="44.820405" lon="1.1089801"><ele>91.28571428571429</ele><time>2026-04-06T20:01:25.766Z</time></trkpt><trkpt lat="44.8204235" lon="1.1088736"><ele>91.0</ele><time>2026-04-06T20:01:26.767Z</time></trkpt><trkpt lat="44.8204695" lon="1.108783"><ele>92.16666666666666</ele><time>2026-04-06T20:01:27.765Z</time></trkpt><trkpt lat="44.8205366" lon="1.1087211"><ele>93.33333333333333</ele><time>2026-04-06T20:01:28.777Z</time></trkpt><trkpt lat="44.8206097" lon="1.1086646"><ele>94.5</ele><time>2026-04-06T20:01:29.765Z</time></trkpt><trkpt lat="44.8206869" lon="1.1086204"><ele>95.66666666666666</ele><time>2026-04-06T20:01:30.779Z</time></trkpt><trkpt lat="44.8207628" lon="1.1085628"><ele>96.83333333333333</ele><time>2026-04-06T20:01:31.786Z</time></trkpt><trkpt lat="44.820823" lon="1.1084704"><ele>98.0</ele><time>2026-04-06T20:01:32.77Z</time></trkpt><trkpt lat="44.8208793" lon="1.1083712"><ele>98.0</ele><time>2026-04-06T20:01:33.797Z</time></trkpt><trkpt lat="44.8209298" lon="1.1082645"><ele>98.0</ele><time>2026-04-06T20:01:34.764Z</time></trkpt><trkpt lat="44.8209787" lon="1.1081515"><ele>98.0</ele><time>2026-04-06T20:01:35.768Z</time></trkpt><trkpt lat="44.8210201" lon="1.1080407"><ele>98.0</ele><time>2026-04-06T20:01:36.765Z</time></trkpt><trkpt lat="44.8210637" lon="1.1079237"><ele>98.0</ele><time>2026-04-06T20:01:37.768Z</time></trkpt><trkpt lat="44.8211022" lon="1.1078036"><ele>97.80000000000001</ele><time>2026-04-06T20:01:38.765Z</time></trkpt><trkpt lat="44.8211404" lon="1.1076853"><ele>97.6</ele><time>2026-04-06T20:01:39.798Z</time></trkpt><trkpt lat="44.8211766" lon="1.1075651"><ele>97.4</ele><time>2026-04-06T20:01:40.767Z</time></trkpt><trkpt lat="44.8212068" lon="1.1074397"><ele>97.19999999999999</ele><time>2026-04-06T20:01:41.766Z</time></trkpt><trkpt lat="44.8212325" lon="1.1073082"><ele>97.0</ele><time>2026-04-06T20:01:42.778Z</time></trkpt><trkpt lat="44.8212531" lon="1.1071683"><ele>97.0</ele><time>2026-04-06T20:01:43.765Z</time></trkpt><trkpt lat="44.8212678" lon="1.1070149"><ele>97.0</ele><time>2026-04-06T20:01:44.766Z</time></trkpt><trkpt lat="44.8212744" lon="1.1068502"><ele>97.0</ele><time>2026-04-06T20:01:45.763Z</time></trkpt><trkpt lat="44.8212768" lon="1.1066757"><ele>97.0</ele><time>2026-04-06T20:01:46.777Z</time></trkpt><trkpt lat="44.8212779" lon="1.1064905"><ele>96.75</ele><time>2026-04-06T20:01:47.779Z</time></trkpt><trkpt lat="44.8212816" lon="1.1063014"><ele>96.5</ele><time>2026-04-06T20:01:48.772Z</time></trkpt><trkpt lat="44.8212872" lon="1.1061045"><ele>96.25</ele><time>2026-04-06T20:01:49.79Z</time></trkpt><trkpt lat="44.8212889" lon="1.1059094"><ele>96.0</ele><time>2026-04-06T20:01:50.766Z</time></trkpt><trkpt lat="44.8212775" lon="1.1057202"><ele>96.75</ele><time>2026-04-06T20:01:51.765Z</time></trkpt><trkpt lat="44.8212493" lon="1.1055378"><ele>97.5</ele><time>2026-04-06T20:01:52.774Z</time></trkpt><trkpt lat="44.8212064" lon="1.105363"><ele>98.25</ele><time>2026-04-06T20:01:53.769Z</time></trkpt><trkpt lat="44.821151" lon="1.1051959"><ele>99.0</ele><time>2026-04-06T20:01:54.794Z</time></trkpt><trkpt lat="44.8210897" lon="1.1050348"><ele>100.0</ele><time>2026-04-06T20:01:55.768Z</time></trkpt><trkpt lat="44.8210332" lon="1.1048749"><ele>101.0</ele><time>2026-04-06T20:01:56.771Z</time></trkpt><trkpt lat="44.820986" lon="1.1047107"><ele>102.0</ele><time>2026-04-06T20:01:57.773Z</time></trkpt><trkpt lat="44.8209486" lon="1.1045453"><ele>103.0</ele><time>2026-04-06T20:01:58.771Z</time></trkpt><trkpt lat="44.8209197" lon="1.1043766"><ele>103.25</ele><time>2026-04-06T20:01:59.772Z</time></trkpt><trkpt lat="44.8208945" lon="1.1042087"><ele>103.5</ele><time>2026-04-06T20:02:00.795Z</time></trkpt><trkpt lat="44.8208752" lon="1.1040431"><ele>103.75</ele><time>2026-04-06T20:02:01.768Z</time></trkpt><trkpt lat="44.8208702" lon="1.1038766"><ele>104.0</ele><time>2026-04-06T20:02:02.771Z</time></trkpt><trkpt lat="44.8208808" lon="1.1037095"><ele>104.0</ele><time>2026-04-06T20:02:03.772Z</time></trkpt><trkpt lat="44.8209" lon="1.1035393"><ele>104.0</ele><time>2026-04-06T20:02:04.766Z</time></trkpt><trkpt lat="44.8209212" lon="1.1033673"><ele>104.0</ele><time>2026-04-06T20:02:05.764Z</time></trkpt><trkpt lat="44.8209433" lon="1.1031925"><ele>104.0</ele><time>2026-04-06T20:02:06.77Z</time></trkpt><trkpt lat="44.8209679" lon="1.1030153"><ele>103.75</ele><time>2026-04-06T20:02:07.775Z</time></trkpt><trkpt lat="44.8209973" lon="1.1028393"><ele>103.5</ele><time>2026-04-06T20:02:08.772Z</time></trkpt><trkpt lat="44.8210346" lon="1.1026669"><ele>103.25</ele><time>2026-04-06T20:02:09.772Z</time></trkpt><trkpt lat="44.82108" lon="1.1024943"><ele>103.0</ele><time>2026-04-06T20:02:10.766Z</time></trkpt><trkpt lat="44.8211325" lon="1.1023197"><ele>103.5</ele><time>2026-04-06T20:02:11.766Z</time></trkpt><trkpt lat="44.8211875" lon="1.1021418"><ele>104.0</ele><time>2026-04-06T20:02:12.768Z</time></trkpt><trkpt lat="44.8212443" lon="1.1019639"><ele>104.5</ele><time>2026-04-06T20:02:13.77Z</time></trkpt><trkpt lat="44.8212997" lon="1.1017902"><ele>105.0</ele><time>2026-04-06T20:02:14.775Z</time></trkpt><trkpt lat="44.8213535" lon="1.1016272"><ele>105.75</ele><time>2026-04-06T20:02:15.779Z</time></trkpt><trkpt lat="44.8214037" lon="1.1014659"><ele>106.5</ele><time>2026-04-06T20:02:16.766Z</time></trkpt><trkpt lat="44.821454" lon="1.1012995"><ele>107.25</ele><time>2026-04-06T20:02:17.8Z</time></trkpt><trkpt lat="44.8215015" lon="1.101161"><ele>108.0</ele><time>2026-04-06T20:02:18.766Z</time></trkpt><trkpt lat="44.8215469" lon="1.101037"><ele>108.0</ele><time>2026-04-06T20:02:19.764Z</time></trkpt><trkpt lat="44.8215983" lon="1.100913"><ele>108.00000000000001</ele><time>2026-04-06T20:02:20.769Z</time></trkpt><trkpt lat="44.8216599" lon="1.100792"><ele>108.00000000000001</ele><time>2026-04-06T20:02:21.767Z</time></trkpt><trkpt lat="44.8217384" lon="1.100681"><ele>108.0</ele><time>2026-04-06T20:02:22.796Z</time></trkpt><trkpt lat="44.8218348" lon="1.1005916"><ele>108.0</ele><time>2026-04-06T20:02:23.764Z</time></trkpt><trkpt lat="44.8219425" lon="1.1005092"><ele>107.0</ele><time>2026-04-06T20:02:24.765Z</time></trkpt><trkpt lat="44.8220572" lon="1.1004303"><ele>106.0</ele><time>2026-04-06T20:02:25.765Z</time></trkpt><trkpt lat="44.8221759" lon="1.1003589"><ele>105.0</ele><time>2026-04-06T20:02:26.783Z</time></trkpt><trkpt lat="44.8222994" lon="1.1002892"><ele>104.0</ele><time>2026-04-06T20:02:27.766Z</time></trkpt><trkpt lat="44.8224204" lon="1.10022"><ele>104.0</ele><time>2026-04-06T20:02:28.765Z</time></trkpt><trkpt lat="44.8225431" lon="1.1001528"><ele>104.0</ele><time>2026-04-06T20:02:29.764Z</time></trkpt><trkpt lat="44.8226576" lon="1.1000901"><ele>104.0</ele><time>2026-04-06T20:02:30.77Z</time></trkpt><trkpt lat="44.8227636" lon="1.1000308"><ele>104.0</ele><time>2026-04-06T20:02:31.765Z</time></trkpt><trkpt lat="44.8228627" lon="1.0999755"><ele>103.2</ele><time>2026-04-06T20:02:32.798Z</time></trkpt><trkpt lat="44.822953" lon="1.0998884"><ele>102.4</ele><time>2026-04-06T20:02:33.768Z</time></trkpt><trkpt lat="44.8230287" lon="1.0997843"><ele>101.6</ele><time>2026-04-06T20:02:34.774Z</time></trkpt><trkpt lat="44.823105" lon="1.0996658"><ele>100.8</ele><time>2026-04-06T20:02:35.767Z</time></trkpt><trkpt lat="44.8231671" lon="1.0995312"><ele>100.0</ele><time>2026-04-06T20:02:36.766Z</time></trkpt><trkpt lat="44.8232373" lon="1.0994011"><ele>100.0</ele><time>2026-04-06T20:02:37.768Z</time></trkpt><trkpt lat="44.8233014" lon="1.0992516"><ele>100.0</ele><time>2026-04-06T20:02:38.771Z</time></trkpt><trkpt lat="44.8233625" lon="1.0990923"><ele>100.0</ele><time>2026-04-06T20:02:39.77Z</time></trkpt><trkpt lat="44.8234181" lon="1.0989201"><ele>100.0</ele><time>2026-04-06T20:02:40.78Z</time></trkpt><trkpt lat="44.8234708" lon="1.0987483"><ele>97.75</ele><time>2026-04-06T20:02:41.767Z</time></trkpt><trkpt lat="44.82352" lon="1.0985743"><ele>95.5</ele><time>2026-04-06T20:02:42.766Z</time></trkpt><trkpt lat="44.8235672" lon="1.098407"><ele>93.25</ele><time>2026-04-06T20:02:43.766Z</time></trkpt><trkpt lat="44.8236268" lon="1.0982274"><ele>91.0</ele><time>2026-04-06T20:02:44.764Z</time></trkpt><trkpt lat="44.823678" lon="1.0980557"><ele>91.0</ele><time>2026-04-06T20:02:45.769Z</time></trkpt><trkpt lat="44.8237269" lon="1.0978827"><ele>91.0</ele><time>2026-04-06T20:02:46.784Z</time></trkpt><trkpt lat="44.8237744" lon="1.0977045"><ele>91.0</ele><time>2026-04-06T20:02:47.772Z</time></trkpt><trkpt lat="44.8238218" lon="1.0975278"><ele>91.0</ele><time>2026-04-06T20:02:48.766Z</time></trkpt><trkpt lat="44.8238655" lon="1.0973542"><ele>90.5</ele><time>2026-04-06T20:02:49.781Z</time></trkpt><trkpt lat="44.823908" lon="1.0971864"><ele>90.0</ele><time>2026-04-06T20:02:50.778Z</time></trkpt><trkpt lat="44.8239419" lon="1.0970239"><ele>89.5</ele><time>2026-04-06T20:02:51.794Z</time></trkpt><trkpt lat="44.8239648" lon="1.0968657"><ele>89.0</ele><time>2026-04-06T20:02:52.769Z</time></trkpt><trkpt lat="44.8239756" lon="1.0967058"><ele>86.8</ele><time>2026-04-06T20:02:53.771Z</time></trkpt><trkpt lat="44.8239793" lon="1.0965473"><ele>84.60000000000001</ele><time>2026-04-06T20:02:54.772Z</time></trkpt><trkpt lat="44.8239785" lon="1.0963941"><ele>82.4</ele><time>2026-04-06T20:02:55.771Z</time></trkpt><trkpt lat="44.8239793" lon="1.0962486"><ele>80.2</ele><time>2026-04-06T20:02:56.794Z</time></trkpt><trkpt lat="44.8239873" lon="1.0961155"><ele>78.0</ele><time>2026-04-06T20:02:57.771Z</time></trkpt><trkpt lat="44.8240134" lon="1.0960005"><ele>78.0</ele><time>2026-04-06T20:02:58.776Z</time></trkpt><trkpt lat="44.8240671" lon="1.0959072"><ele>78.0</ele><time>2026-04-06T20:02:59.768Z</time></trkpt><trkpt lat="44.8241429" lon="1.0958213"><ele>78.0</ele><time>2026-04-06T20:03:00.775Z</time></trkpt><trkpt lat="44.8242338" lon="1.09574"><ele>78.0</ele><time>2026-04-06T20:03:01.763Z</time></trkpt><trkpt lat="44.8243321" lon="1.0956646"><ele>78.0</ele><time>2026-04-06T20:03:02.765Z</time></trkpt><trkpt lat="44.8244362" lon="1.0955993"><ele>76.25</ele><time>2026-04-06T20:03:03.766Z</time></trkpt><trkpt lat="44.8245423" lon="1.0955447"><ele>74.5</ele><time>2026-04-06T20:03:04.768Z</time></trkpt><trkpt lat="44.8246509" lon="1.09549"><ele>72.75</ele><time>2026-04-06T20:03:05.77Z</time></trkpt><trkpt lat="44.8247631" lon="1.0954598"><ele>71.0</ele><time>2026-04-06T20:03:06.764Z</time></trkpt><trkpt lat="44.8248747" lon="1.09542"><ele>71.0</ele><time>2026-04-06T20:03:07.79Z</time></trkpt><trkpt lat="44.8249807" lon="1.0953705"><ele>71.0</ele><time>2026-04-06T20:03:08.767Z</time></trkpt><trkpt lat="44.8250814" lon="1.0953094"><ele>71.0</ele><time>2026-04-06T20:03:09.783Z</time></trkpt><trkpt lat="44.8251695" lon="1.095236"><ele>71.0</ele><time>2026-04-06T20:03:10.777Z</time></trkpt><trkpt lat="44.8252423" lon="1.0951505"><ele>71.0</ele><time>2026-04-06T20:03:11.779Z</time></trkpt><trkpt lat="44.8253014" lon="1.0950539"><ele>70.66666666666667</ele><time>2026-04-06T20:03:12.77Z</time></trkpt><trkpt lat="44.8253601" lon="1.0949551"><ele>70.33333333333334</ele><time>2026-04-06T20:03:13.766Z</time></trkpt><trkpt lat="44.8254148" lon="1.0948632"><ele>70.0</ele><time>2026-04-06T20:03:14.767Z</time></trkpt><trkpt lat="44.8254629" lon="1.0947779"><ele>69.66666666666667</ele><time>2026-04-06T20:03:15.767Z</time></trkpt><trkpt lat="44.8255073" lon="1.0946986"><ele>69.33333333333333</ele><time>2026-04-06T20:03:16.768Z</time></trkpt><trkpt lat="44.8255396" lon="1.0946123"><ele>69.0</ele><time>2026-04-06T20:03:17.791Z</time></trkpt><trkpt lat="44.8255741" lon="1.0945138"><ele>69.0</ele><time>2026-04-06T20:03:18.771Z</time></trkpt><trkpt lat="44.8256136" lon="1.0944008"><ele>69.0</ele><time>2026-04-06T20:03:19.764Z</time></trkpt><trkpt lat="44.8256578" lon="1.0942743"><ele>69.0</ele><time>2026-04-06T20:03:20.769Z</time></trkpt><trkpt lat="44.8257025" lon="1.0941382"><ele>69.0</ele><time>2026-04-06T20:03:21.766Z</time></trkpt><trkpt lat="44.8257507" lon="1.0939962"><ele>69.0</ele><time>2026-04-06T20:03:22.788Z</time></trkpt><trkpt lat="44.8258044" lon="1.0938474"><ele>68.25</ele><time>2026-04-06T20:03:23.772Z</time></trkpt><trkpt lat="44.8258649" lon="1.0936928"><ele>67.5</ele><time>2026-04-06T20:03:24.775Z</time></trkpt><trkpt lat="44.825926" lon="1.093537"><ele>66.75</ele><time>2026-04-06T20:03:25.77Z</time></trkpt><trkpt lat="44.8260057" lon="1.0933895"><ele>66.0</ele><time>2026-04-06T20:03:26.763Z</time></trkpt><trkpt lat="44.8260882" lon="1.093254"><ele>66.0</ele><time>2026-04-06T20:03:27.802Z</time></trkpt><trkpt lat="44.8261608" lon="1.0931204"><ele>66.0</ele><time>2026-04-06T20:03:28.772Z</time></trkpt><trkpt lat="44.8262285" lon="1.0929703"><ele>66.0</ele><time>2026-04-06T20:03:29.768Z</time></trkpt><trkpt lat="44.8262902" lon="1.0928101"><ele>66.0</ele><time>2026-04-06T20:03:30.767Z</time></trkpt><trkpt lat="44.8263512" lon="1.0926425"><ele>66.0</ele><time>2026-04-06T20:03:31.765Z</time></trkpt><trkpt lat="44.8264089" lon="1.0924724"><ele>66.0</ele><time>2026-04-06T20:03:32.779Z</time></trkpt><trkpt lat="44.8264608" lon="1.0923016"><ele>66.0</ele><time>2026-04-06T20:03:33.772Z</time></trkpt><trkpt lat="44.8265003" lon="1.0921386"><ele>66.0</ele><time>2026-04-06T20:03:34.771Z</time></trkpt><trkpt lat="44.8265275" lon="1.0919877"><ele>66.0</ele><time>2026-04-06T20:03:35.771Z</time></trkpt><trkpt lat="44.8265447" lon="1.0918516"><ele>66.0</ele><time>2026-04-06T20:03:36.785Z</time></trkpt><trkpt lat="44.8265748" lon="1.0917332"><ele>66.0</ele><time>2026-04-06T20:03:37.767Z</time></trkpt><trkpt lat="44.8266189" lon="1.0916464"><ele>66.0</ele><time>2026-04-06T20:03:38.763Z</time></trkpt><trkpt lat="44.8266686" lon="1.0915579"><ele>66.0</ele><time>2026-04-06T20:03:39.762Z</time></trkpt><trkpt lat="44.8267465" lon="1.0915044"><ele>66.0</ele><time>2026-04-06T20:03:40.767Z</time></trkpt><trkpt lat="44.8268407" lon="1.0914799"><ele>66.0</ele><time>2026-04-06T20:03:41.762Z</time></trkpt><trkpt lat="44.8269436" lon="1.0914864"><ele>66.0</ele><time>2026-04-06T20:03:42.767Z</time></trkpt><trkpt lat="44.8270522" lon="1.0914847"><ele>66.0</ele><time>2026-04-06T20:03:43.769Z</time></trkpt><trkpt lat="44.8271518" lon="1.0914843"><ele>66.0</ele><time>2026-04-06T20:03:44.765Z</time></trkpt><trkpt lat="44.8272521" lon="1.0914569"><ele>66.0</ele><time>2026-04-06T20:03:45.787Z</time></trkpt><trkpt lat="44.8273596" lon="1.0913944"><ele>66.0</ele><time>2026-04-06T20:03:46.764Z</time></trkpt><trkpt lat="44.8274555" lon="1.0912861"><ele>66.0</ele><time>2026-04-06T20:03:47.762Z</time></trkpt><trkpt lat="44.8275438" lon="1.0911681"><ele>66.0</ele><time>2026-04-06T20:03:48.772Z</time></trkpt><trkpt lat="44.827644" lon="1.0910404"><ele>66.0</ele><time>2026-04-06T20:03:49.771Z</time></trkpt><trkpt lat="44.8277434" lon="1.0909136"><ele>65.0</ele><time>2026-04-06T20:03:50.789Z</time></trkpt><trkpt lat="44.8278405" lon="1.0907838"><ele>64.0</ele><time>2026-04-06T20:03:51.766Z</time></trkpt><trkpt lat="44.82794" lon="1.0906406"><ele>63.0</ele><time>2026-04-06T20:03:52.77Z</time></trkpt><trkpt lat="44.8280388" lon="1.0904987"><ele>62.0</ele><time>2026-04-06T20:03:53.774Z</time></trkpt><trkpt lat="44.8281395" lon="1.0903564"><ele>62.0</ele><time>2026-04-06T20:03:54.768Z</time></trkpt><trkpt lat="44.8282379" lon="1.090218"><ele>62.0</ele><time>2026-04-06T20:03:55.788Z</time></trkpt><trkpt lat="44.8283378" lon="1.0900771"><ele>62.0</ele><time>2026-04-06T20:03:56.766Z</time></trkpt><trkpt lat="44.8284383" lon="1.0899372"><ele>62.0</ele><time>2026-04-06T20:03:57.772Z</time></trkpt><trkpt lat="44.8285408" lon="1.0897985"><ele>62.0</ele><time>2026-04-06T20:03:58.768Z</time></trkpt><trkpt lat="44.8286452" lon="1.0896611"><ele>62.0</ele><time>2026-04-06T20:03:59.77Z</time></trkpt><trkpt lat="44.8287528" lon="1.0895234"><ele>62.0</ele><time>2026-04-06T20:04:00.782Z</time></trkpt><trkpt lat="44.8288608" lon="1.0893871"><ele>62.0</ele><time>2026-04-06T20:04:01.764Z</time></trkpt><trkpt lat="44.8289707" lon="1.0892517"><ele>62.0</ele><time>2026-04-06T20:04:02.765Z</time></trkpt><trkpt lat="44.829083" lon="1.089117"><ele>62.0</ele><time>2026-04-06T20:04:03.764Z</time></trkpt><trkpt lat="44.8292016" lon="1.0889919"><ele>62.0</ele><time>2026-04-06T20:04:04.766Z</time></trkpt><trkpt lat="44.8293247" lon="1.0888727"><ele>62.0</ele><time>2026-04-06T20:04:05.77Z</time></trkpt><trkpt lat="44.8294502" lon="1.088759"><ele>62.0</ele><time>2026-04-06T20:04:06.763Z</time></trkpt><trkpt lat="44.8295772" lon="1.0886475"><ele>62.0</ele><time>2026-04-06T20:04:07.786Z</time></trkpt><trkpt lat="44.8297017" lon="1.0885348"><ele>62.0</ele><time>2026-04-06T20:04:08.766Z</time></trkpt><trkpt lat="44.8298253" lon="1.0884246"><ele>62.0</ele><time>2026-04-06T20:04:09.764Z</time></trkpt><trkpt lat="44.8299461" lon="1.0883042"><ele>62.0</ele><time>2026-04-06T20:04:10.76Z</time></trkpt><trkpt lat="44.8300576" lon="1.0881723"><ele>62.0</ele><time>2026-04-06T20:04:11.766Z</time></trkpt><trkpt lat="44.8301539" lon="1.0880268"><ele>62.0</ele><time>2026-04-06T20:04:12.764Z</time></trkpt><trkpt lat="44.8302394" lon="1.087867"><ele>62.0</ele><time>2026-04-06T20:04:13.766Z</time></trkpt><trkpt lat="44.8303139" lon="1.087695"><ele>62.0</ele><time>2026-04-06T20:04:14.763Z</time></trkpt><trkpt lat="44.8303754" lon="1.0875113"><ele>62.0</ele><time>2026-04-06T20:04:15.785Z</time></trkpt><trkpt lat="44.8304298" lon="1.0873227"><ele>62.0</ele><time>2026-04-06T20:04:16.766Z</time></trkpt><trkpt lat="44.8304822" lon="1.087131"><ele>62.0</ele><time>2026-04-06T20:04:17.773Z</time></trkpt><trkpt lat="44.8305313" lon="1.0869368"><ele>62.0</ele><time>2026-04-06T20:04:18.772Z</time></trkpt><trkpt lat="44.8305776" lon="1.0867391"><ele>62.0</ele><time>2026-04-06T20:04:19.764Z</time></trkpt><trkpt lat="44.8306222" lon="1.086541"><ele>62.0</ele><time>2026-04-06T20:04:20.766Z</time></trkpt><trkpt lat="44.8306667" lon="1.0863409"><ele>62.0</ele><time>2026-04-06T20:04:21.764Z</time></trkpt><trkpt lat="44.8307107" lon="1.0861443"><ele>62.0</ele><time>2026-04-06T20:04:22.788Z</time></trkpt><trkpt lat="44.8307542" lon="1.0859452"><ele>62.0</ele><time>2026-04-06T20:04:23.77Z</time></trkpt><trkpt lat="44.8307968" lon="1.0857474"><ele>62.0</ele><time>2026-04-06T20:04:24.774Z</time></trkpt><trkpt lat="44.8308386" lon="1.0855452"><ele>62.0</ele><time>2026-04-06T20:04:25.767Z</time></trkpt><trkpt lat="44.8308837" lon="1.0853433"><ele>62.0</ele><time>2026-04-06T20:04:26.772Z</time></trkpt><trkpt lat="44.830933" lon="1.0851484"><ele>62.0</ele><time>2026-04-06T20:04:27.787Z</time></trkpt><trkpt lat="44.8309906" lon="1.0849521"><ele>62.0</ele><time>2026-04-06T20:04:28.768Z</time></trkpt><trkpt lat="44.8310536" lon="1.0847613"><ele>62.0</ele><time>2026-04-06T20:04:29.768Z</time></trkpt><trkpt lat="44.8311191" lon="1.0845709"><ele>62.25</ele><time>2026-04-06T20:04:30.771Z</time></trkpt><trkpt lat="44.8311839" lon="1.0843796"><ele>62.5</ele><time>2026-04-06T20:04:31.769Z</time></trkpt><trkpt lat="44.83125" lon="1.0841882"><ele>62.75</ele><time>2026-04-06T20:04:32.789Z</time></trkpt><trkpt lat="44.8313152" lon="1.0840006"><ele>63.0</ele><time>2026-04-06T20:04:33.764Z</time></trkpt><trkpt lat="44.8313823" lon="1.083814"><ele>63.25</ele><time>2026-04-06T20:04:34.77Z</time></trkpt><trkpt lat="44.8314539" lon="1.0836283"><ele>63.5</ele><time>2026-04-06T20:04:35.767Z</time></trkpt><trkpt lat="44.8315274" lon="1.0834451"><ele>63.75</ele><time>2026-04-06T20:04:36.77Z</time></trkpt><trkpt lat="44.8316015" lon="1.083262"><ele>64.0</ele><time>2026-04-06T20:04:37.781Z</time></trkpt><trkpt lat="44.8316762" lon="1.0830767"><ele>64.0</ele><time>2026-04-06T20:04:38.773Z</time></trkpt><trkpt lat="44.8317511" lon="1.0828886"><ele>64.0</ele><time>2026-04-06T20:04:39.774Z</time></trkpt><trkpt lat="44.8318254" lon="1.0827005"><ele>64.0</ele><time>2026-04-06T20:04:40.764Z</time></trkpt><trkpt lat="44.8318976" lon="1.0825118"><ele>63.666666666666664</ele><time>2026-04-06T20:04:41.765Z</time></trkpt><trkpt lat="44.8319674" lon="1.0823184"><ele>63.33333333333333</ele><time>2026-04-06T20:04:42.773Z</time></trkpt><trkpt lat="44.832033" lon="1.082122"><ele>63.0</ele><time>2026-04-06T20:04:43.764Z</time></trkpt><trkpt lat="44.8320942" lon="1.0819246"><ele>63.0</ele><time>2026-04-06T20:04:44.785Z</time></trkpt><trkpt lat="44.8321538" lon="1.0817255"><ele>63.0</ele><time>2026-04-06T20:04:45.765Z</time></trkpt><trkpt lat="44.8322118" lon="1.0815236"><ele>63.0</ele><time>2026-04-06T20:04:46.77Z</time></trkpt><trkpt lat="44.8322669" lon="1.0813205"><ele>63.33333333333333</ele><time>2026-04-06T20:04:47.768Z</time></trkpt><trkpt lat="44.8323204" lon="1.0811173"><ele>63.666666666666664</ele><time>2026-04-06T20:04:48.768Z</time></trkpt><trkpt lat="44.8323733" lon="1.0809141"><ele>64.0</ele><time>2026-04-06T20:04:49.768Z</time></trkpt><trkpt lat="44.8324261" lon="1.0807104"><ele>64.0</ele><time>2026-04-06T20:04:50.785Z</time></trkpt><trkpt lat="44.8324793" lon="1.0805072"><ele>64.0</ele><time>2026-04-06T20:04:51.77Z</time></trkpt><trkpt lat="44.8325333" lon="1.0803038"><ele>64.0</ele><time>2026-04-06T20:04:52.767Z</time></trkpt><trkpt lat="44.8325867" lon="1.0800992"><ele>64.0</ele><time>2026-04-06T20:04:53.767Z</time></trkpt><trkpt lat="44.8326413" lon="1.0798947"><ele>64.0</ele><time>2026-04-06T20:04:54.773Z</time></trkpt><trkpt lat="44.8326978" lon="1.0796908"><ele>64.0</ele><time>2026-04-06T20:04:55.766Z</time></trkpt><trkpt lat="44.8327576" lon="1.0794884"><ele>64.0</ele><time>2026-04-06T20:04:56.776Z</time></trkpt><trkpt lat="44.8328215" lon="1.0792862"><ele>64.0</ele><time>2026-04-06T20:04:57.766Z</time></trkpt><trkpt lat="44.8328899" lon="1.079089"><ele>64.0</ele><time>2026-04-06T20:04:58.767Z</time></trkpt><trkpt lat="44.8329545" lon="1.0788906"><ele>63.666666666666664</ele><time>2026-04-06T20:04:59.765Z</time></trkpt><trkpt lat="44.8330105" lon="1.0786914"><ele>63.33333333333333</ele><time>2026-04-06T20:05:00.766Z</time></trkpt><trkpt lat="44.8330592" lon="1.0784919"><ele>63.0</ele><time>2026-04-06T20:05:01.799Z</time></trkpt><trkpt lat="44.8331007" lon="1.0782906"><ele>63.0</ele><time>2026-04-06T20:05:02.765Z</time></trkpt><trkpt lat="44.8331327" lon="1.0780842"><ele>63.0</ele><time>2026-04-06T20:05:03.77Z</time></trkpt><trkpt lat="44.8331508" lon="1.0778775"><ele>63.0</ele><time>2026-04-06T20:05:04.764Z</time></trkpt><trkpt lat="44.8331552" lon="1.0776843"><ele>63.0</ele><time>2026-04-06T20:05:05.766Z</time></trkpt><trkpt lat="44.8331558" lon="1.0775069"><ele>62.8</ele><time>2026-04-06T20:05:06.763Z</time></trkpt><trkpt lat="44.8331653" lon="1.0773454"><ele>62.599999999999994</ele><time>2026-04-06T20:05:07.77Z</time></trkpt><trkpt lat="44.8331953" lon="1.0772047"><ele>62.400000000000006</ele><time>2026-04-06T20:05:08.761Z</time></trkpt><trkpt lat="44.8332494" lon="1.0770717"><ele>62.2</ele><time>2026-04-06T20:05:09.773Z</time></trkpt><trkpt lat="44.8333145" lon="1.0769352"><ele>62.0</ele><time>2026-04-06T20:05:10.769Z</time></trkpt><trkpt lat="44.8333823" lon="1.0767907"><ele>62.0</ele><time>2026-04-06T20:05:11.774Z</time></trkpt><trkpt lat="44.8334513" lon="1.0766373"><ele>62.0</ele><time>2026-04-06T20:05:12.767Z</time></trkpt><trkpt lat="44.833523" lon="1.0764784"><ele>62.0</ele><time>2026-04-06T20:05:13.763Z</time></trkpt><trkpt lat="44.833599" lon="1.0763171"><ele>62.0</ele><time>2026-04-06T20:05:14.769Z</time></trkpt><trkpt lat="44.8336777" lon="1.0761526"><ele>62.0</ele><time>2026-04-06T20:05:15.765Z</time></trkpt><trkpt lat="44.8337574" lon="1.0759852"><ele>62.0</ele><time>2026-04-06T20:05:16.766Z</time></trkpt><trkpt lat="44.8338384" lon="1.0758166"><ele>62.0</ele><time>2026-04-06T20:05:17.778Z</time></trkpt><trkpt lat="44.8339201" lon="1.0756467"><ele>62.0</ele><time>2026-04-06T20:05:18.766Z</time></trkpt><trkpt lat="44.8340036" lon="1.0754771"><ele>62.0</ele><time>2026-04-06T20:05:19.771Z</time></trkpt><trkpt lat="44.8340896" lon="1.0753143"><ele>62.0</ele><time>2026-04-06T20:05:20.766Z</time></trkpt><trkpt lat="44.8341723" lon="1.0751609"><ele>62.0</ele><time>2026-04-06T20:05:21.764Z</time></trkpt><trkpt lat="44.8342494" lon="1.075005"><ele>62.0</ele><time>2026-04-06T20:05:22.766Z</time></trkpt><trkpt lat="44.8343257" lon="1.0748464"><ele>62.0</ele><time>2026-04-06T20:05:23.764Z</time></trkpt><trkpt lat="44.8344064" lon="1.0746934"><ele>62.0</ele><time>2026-04-06T20:05:24.774Z</time></trkpt><trkpt lat="44.834493" lon="1.0745482"><ele>62.0</ele><time>2026-04-06T20:05:25.768Z</time></trkpt><trkpt lat="44.8345829" lon="1.0744105"><ele>62.0</ele><time>2026-04-06T20:05:26.771Z</time></trkpt><trkpt lat="44.8346741" lon="1.0742775"><ele>62.0</ele><time>2026-04-06T20:05:27.768Z</time></trkpt><trkpt lat="44.8347645" lon="1.0741443"><ele>62.0</ele><time>2026-04-06T20:05:28.766Z</time></trkpt><trkpt lat="44.8348533" lon="1.0740135"><ele>62.0</ele><time>2026-04-06T20:05:29.764Z</time></trkpt><trkpt lat="44.8349359" lon="1.0738932"><ele>62.0</ele><time>2026-04-06T20:05:30.765Z</time></trkpt><trkpt lat="44.8350082" lon="1.0737805"><ele>62.400000000000006</ele><time>2026-04-06T20:05:31.787Z</time></trkpt><trkpt lat="44.8350696" lon="1.0736658"><ele>62.800000000000004</ele><time>2026-04-06T20:05:32.77Z</time></trkpt><trkpt lat="44.8351155" lon="1.0735481"><ele>63.2</ele><time>2026-04-06T20:05:33.768Z</time></trkpt><trkpt lat="44.8351425" lon="1.0734242"><ele>63.6</ele><time>2026-04-06T20:05:34.766Z</time></trkpt><trkpt lat="44.8351506" lon="1.0732972"><ele>64.0</ele><time>2026-04-06T20:05:35.77Z</time></trkpt><trkpt lat="44.8351371" lon="1.0731783"><ele>64.16666666666666</ele><time>2026-04-06T20:05:36.765Z</time></trkpt><trkpt lat="44.8351052" lon="1.0730713"><ele>64.33333333333333</ele><time>2026-04-06T20:05:37.77Z</time></trkpt><trkpt lat="44.8350558" lon="1.0729789"><ele>64.5</ele><time>2026-04-06T20:05:38.766Z</time></trkpt><trkpt lat="44.8349922" lon="1.0729056"><ele>64.66666666666667</ele><time>2026-04-06T20:05:39.766Z</time></trkpt><trkpt lat="44.8349173" lon="1.0728507"><ele>64.83333333333334</ele><time>2026-04-06T20:05:40.767Z</time></trkpt><trkpt lat="44.8348334" lon="1.0728142"><ele>65.0</ele><time>2026-04-06T20:05:41.769Z</time></trkpt><trkpt lat="44.8347432" lon="1.0727968"><ele>65.0</ele><time>2026-04-06T20:05:42.772Z</time></trkpt><trkpt lat="44.8346493" lon="1.072792"><ele>65.0</ele><time>2026-04-06T20:05:43.779Z</time></trkpt><trkpt lat="44.8345524" lon="1.0727909"><ele>65.0</ele><time>2026-04-06T20:05:44.773Z</time></trkpt><trkpt lat="44.8344534" lon="1.0727842"><ele>65.0</ele><time>2026-04-06T20:05:45.783Z</time></trkpt><trkpt lat="44.8343541" lon="1.0727654"><ele>65.0</ele><time>2026-04-06T20:05:46.765Z</time></trkpt><trkpt lat="44.8342605" lon="1.072737"><ele>65.6</ele><time>2026-04-06T20:05:47.765Z</time></trkpt><trkpt lat="44.834178" lon="1.0727026"><ele>66.2</ele><time>2026-04-06T20:05:48.769Z</time></trkpt><trkpt lat="44.834107" lon="1.0726596"><ele>66.8</ele><time>2026-04-06T20:05:49.765Z</time></trkpt><trkpt lat="44.8340422" lon="1.0726237"><ele>67.4</ele><time>2026-04-06T20:05:50.788Z</time></trkpt><trkpt lat="44.8340095" lon="1.0724667"><ele>68.0</ele><time>2026-04-06T20:05:52.768Z</time></trkpt><trkpt lat="44.8340481" lon="1.0723238"><ele>67.0</ele><time>2026-04-06T20:05:54.767Z</time></trkpt><trkpt lat="44.8341066" lon="1.0722442"><ele>66.0</ele><time>2026-04-06T20:05:55.769Z</time></trkpt><trkpt lat="44.8341784" lon="1.0721856"><ele>65.0</ele><time>2026-04-06T20:05:56.769Z</time></trkpt><trkpt lat="44.8342574" lon="1.0721273"><ele>64.0</ele><time>2026-04-06T20:05:57.778Z</time></trkpt><trkpt lat="44.8343349" lon="1.0720436"><ele>63.0</ele><time>2026-04-06T20:05:58.763Z</time></trkpt><trkpt lat="44.8344096" lon="1.0719402"><ele>63.0</ele><time>2026-04-06T20:05:59.776Z</time></trkpt><trkpt lat="44.8344846" lon="1.0718258"><ele>63.0</ele><time>2026-04-06T20:06:00.765Z</time></trkpt><trkpt lat="44.8345636" lon="1.0717045"><ele>63.0</ele><time>2026-04-06T20:06:01.766Z</time></trkpt><trkpt lat="44.8346424" lon="1.0715728"><ele>63.0</ele><time>2026-04-06T20:06:02.764Z</time></trkpt><trkpt lat="44.8347159" lon="1.0714298"><ele>64.5</ele><time>2026-04-06T20:06:03.778Z</time></trkpt><trkpt lat="44.8347838" lon="1.0712759"><ele>66.0</ele><time>2026-04-06T20:06:04.771Z</time></trkpt><trkpt lat="44.8348441" lon="1.0711118"><ele>67.5</ele><time>2026-04-06T20:06:05.762Z</time></trkpt><trkpt lat="44.8349077" lon="1.0709484"><ele>69.0</ele><time>2026-04-06T20:06:06.762Z</time></trkpt><trkpt lat="44.8349788" lon="1.070789"><ele>67.5</ele><time>2026-04-06T20:06:07.776Z</time></trkpt><trkpt lat="44.8350644" lon="1.0706411"><ele>66.0</ele><time>2026-04-06T20:06:08.766Z</time></trkpt><trkpt lat="44.8351603" lon="1.0705055"><ele>64.5</ele><time>2026-04-06T20:06:09.782Z</time></trkpt><trkpt lat="44.8352607" lon="1.070373"><ele>63.0</ele><time>2026-04-06T20:06:10.765Z</time></trkpt><trkpt lat="44.8353587" lon="1.0702378"><ele>63.0</ele><time>2026-04-06T20:06:11.761Z</time></trkpt><trkpt lat="44.835456" lon="1.0700982"><ele>63.0</ele><time>2026-04-06T20:06:12.762Z</time></trkpt><trkpt lat="44.8355501" lon="1.0699569"><ele>63.0</ele><time>2026-04-06T20:06:13.768Z</time></trkpt><trkpt lat="44.8356412" lon="1.0698129"><ele>63.0</ele><time>2026-04-06T20:06:14.766Z</time></trkpt><trkpt lat="44.8357298" lon="1.0696673"><ele>62.5</ele><time>2026-04-06T20:06:15.77Z</time></trkpt><trkpt lat="44.8358145" lon="1.0695218"><ele>62.0</ele><time>2026-04-06T20:06:16.761Z</time></trkpt><trkpt lat="44.8358922" lon="1.0693788"><ele>61.5</ele><time>2026-04-06T20:06:17.764Z</time></trkpt><trkpt lat="44.8359666" lon="1.0692463"><ele>61.0</ele><time>2026-04-06T20:06:18.759Z</time></trkpt><trkpt lat="44.8360385" lon="1.0691286"><ele>61.83333333333333</ele><time>2026-04-06T20:06:19.762Z</time></trkpt><trkpt lat="44.8361044" lon="1.0690281"><ele>62.666666666666664</ele><time>2026-04-06T20:06:20.765Z</time></trkpt><trkpt lat="44.8361661" lon="1.0689484"><ele>63.5</ele><time>2026-04-06T20:06:21.775Z</time></trkpt><trkpt lat="44.8362376" lon="1.0688928"><ele>64.33333333333333</ele><time>2026-04-06T20:06:22.77Z</time></trkpt><trkpt lat="44.836321" lon="1.0688563"><ele>65.16666666666667</ele><time>2026-04-06T20:06:23.761Z</time></trkpt><trkpt lat="44.8364154" lon="1.0688325"><ele>66.0</ele><time>2026-04-06T20:06:24.769Z</time></trkpt><trkpt lat="44.8365195" lon="1.0688119"><ele>66.0</ele><time>2026-04-06T20:06:25.765Z</time></trkpt><trkpt lat="44.8366289" lon="1.0687926"><ele>66.0</ele><time>2026-04-06T20:06:26.759Z</time></trkpt><trkpt lat="44.8367411" lon="1.0687728"><ele>66.0</ele><time>2026-04-06T20:06:27.786Z</time></trkpt><trkpt lat="44.83686" lon="1.0687499"><ele>66.0</ele><time>2026-04-06T20:06:28.769Z</time></trkpt><trkpt lat="44.8369827" lon="1.0687273"><ele>64.75</ele><time>2026-04-06T20:06:29.765Z</time></trkpt><trkpt lat="44.8371055" lon="1.0687043"><ele>63.5</ele><time>2026-04-06T20:06:30.764Z</time></trkpt><trkpt lat="44.8372245" lon="1.0686824"><ele>62.25</ele><time>2026-04-06T20:06:31.766Z</time></trkpt><trkpt lat="44.8373376" lon="1.0686617"><ele>61.0</ele><time>2026-04-06T20:06:32.792Z</time></trkpt><trkpt lat="44.8374464" lon="1.06864"><ele>61.0</ele><time>2026-04-06T20:06:33.76Z</time></trkpt><trkpt lat="44.8375571" lon="1.0686189"><ele>61.0</ele><time>2026-04-06T20:06:34.768Z</time></trkpt><trkpt lat="44.8376745" lon="1.0685972"><ele>61.0</ele><time>2026-04-06T20:06:35.771Z</time></trkpt><trkpt lat="44.8377905" lon="1.0685779"><ele>61.0</ele><time>2026-04-06T20:06:36.77Z</time></trkpt><trkpt lat="44.8378981" lon="1.0685595"><ele>60.99999999999999</ele><time>2026-04-06T20:06:37.786Z</time></trkpt><trkpt lat="44.8379984" lon="1.0685167"><ele>61.0</ele><time>2026-04-06T20:06:38.772Z</time></trkpt><trkpt lat="44.8380931" lon="1.0685266"><ele>61.0</ele><time>2026-04-06T20:06:40.764Z</time></trkpt><trkpt lat="44.8381234" lon="1.0686208"><ele>61.0</ele><time>2026-04-06T20:06:43.786Z</time></trkpt><trkpt lat="44.8380651" lon="1.0687046"><ele>60.99999999999999</ele><time>2026-04-06T20:06:45.764Z</time></trkpt><trkpt lat="44.8379914" lon="1.0687819"><ele>61.0</ele><time>2026-04-06T20:06:47.765Z</time></trkpt><trkpt lat="44.83794" lon="1.0688695"><ele>61.0</ele><time>2026-04-06T20:06:49.765Z</time></trkpt><trkpt lat="44.8378435" lon="1.0689267"><ele>60.99999999999999</ele><time>2026-04-06T20:06:51.763Z</time></trkpt><trkpt lat="44.8377367" lon="1.0689123"><ele>60.99999999999999</ele><time>2026-04-06T20:06:53.766Z</time></trkpt><trkpt lat="44.8376407" lon="1.0689418"><ele>61.0</ele><time>2026-04-06T20:06:55.765Z</time></trkpt><trkpt lat="44.837579" lon="1.0690337"><ele>61.0</ele><time>2026-04-06T20:06:57.776Z</time></trkpt><trkpt lat="44.8375731" lon="1.06916"><ele>60.99999999999999</ele><time>2026-04-06T20:06:59.789Z</time></trkpt><trkpt lat="44.8376056" lon="1.0693285"><ele>61.0</ele><time>2026-04-06T20:07:01.776Z</time></trkpt><trkpt lat="44.8376234" lon="1.0694301"><ele>61.0</ele><time>2026-04-06T20:07:02.77Z</time></trkpt><trkpt lat="44.8376421" lon="1.0695339"><ele>61.0</ele><time>2026-04-06T20:07:03.774Z</time></trkpt><trkpt lat="44.8376649" lon="1.0696334"><ele>60.99999999999999</ele><time>2026-04-06T20:07:04.776Z</time></trkpt><trkpt lat="44.8376927" lon="1.0697264"><ele>61.0</ele><time>2026-04-06T20:07:05.777Z</time></trkpt><trkpt lat="44.8377371" lon="1.0698139"><ele>60.99999999999999</ele><time>2026-04-06T20:07:06.776Z</time></trkpt><trkpt lat="44.8377779" lon="1.0699056"><ele>61.0</ele><time>2026-04-06T20:07:07.786Z</time></trkpt><trkpt lat="44.8378238" lon="1.0699949"><ele>61.0</ele><time>2026-04-06T20:07:08.769Z</time></trkpt><trkpt lat="44.8378826" lon="1.0700791"><ele>61.0</ele><time>2026-04-06T20:07:09.773Z</time></trkpt><trkpt lat="44.8379417" lon="1.0701692"><ele>60.99999999999999</ele><time>2026-04-06T20:07:10.772Z</time></trkpt><trkpt lat="44.8379977" lon="1.0702651"><ele>61.0</ele><time>2026-04-06T20:07:11.772Z</time></trkpt><trkpt lat="44.8380526" lon="1.0703606"><ele>60.99999999999999</ele><time>2026-04-06T20:07:12.805Z</time></trkpt><trkpt lat="44.8381128" lon="1.0704522"><ele>61.0</ele><time>2026-04-06T20:07:13.774Z</time></trkpt><trkpt lat="44.8381789" lon="1.0705323"><ele>61.0</ele><time>2026-04-06T20:07:14.777Z</time></trkpt><trkpt lat="44.8382493" lon="1.070607"><ele>61.0</ele><time>2026-04-06T20:07:15.776Z</time></trkpt><trkpt lat="44.8383203" lon="1.070684"><ele>60.99999999999999</ele><time>2026-04-06T20:07:16.772Z</time></trkpt><trkpt lat="44.8383921" lon="1.0707615"><ele>61.0</ele><time>2026-04-06T20:07:17.772Z</time></trkpt><trkpt lat="44.8384589" lon="1.0708479"><ele>60.4</ele><time>2026-04-06T20:07:18.775Z</time></trkpt><trkpt lat="44.8385274" lon="1.0709298"><ele>59.8</ele><time>2026-04-06T20:07:19.794Z</time></trkpt><trkpt lat="44.8386005" lon="1.0710058"><ele>59.199999999999996</ele><time>2026-04-06T20:07:20.787Z</time></trkpt><trkpt lat="44.8386754" lon="1.0710849"><ele>58.599999999999994</ele><time>2026-04-06T20:07:21.778Z</time></trkpt><trkpt lat="44.8387497" lon="1.0711665"><ele>58.0</ele><time>2026-04-06T20:07:22.776Z</time></trkpt><trkpt lat="44.8388193" lon="1.0712531"><ele>58.0</ele><time>2026-04-06T20:07:23.773Z</time></trkpt><trkpt lat="44.8388909" lon="1.0713347"><ele>58.0</ele><time>2026-04-06T20:07:24.778Z</time></trkpt><trkpt lat="44.8389668" lon="1.0714077"><ele>58.0</ele><time>2026-04-06T20:07:25.775Z</time></trkpt><trkpt lat="44.8390474" lon="1.0714759"><ele>58.0</ele><time>2026-04-06T20:07:26.775Z</time></trkpt><trkpt lat="44.8391289" lon="1.071541"><ele>58.0</ele><time>2026-04-06T20:07:27.772Z</time></trkpt><trkpt lat="44.8392133" lon="1.0716005"><ele>57.99999999999999</ele><time>2026-04-06T20:07:28.796Z</time></trkpt><trkpt lat="44.8392982" lon="1.0716619"><ele>58.0</ele><time>2026-04-06T20:07:29.772Z</time></trkpt><trkpt lat="44.8393727" lon="1.0717203"><ele>58.0</ele><time>2026-04-06T20:07:30.774Z</time></trkpt><trkpt lat="44.8394386" lon="1.0717761"><ele>58.0</ele><time>2026-04-06T20:07:31.782Z</time></trkpt><trkpt lat="44.8395055" lon="1.0718279"><ele>57.99999999999999</ele><time>2026-04-06T20:07:32.772Z</time></trkpt><trkpt lat="44.8395743" lon="1.0718797"><ele>58.0</ele><time>2026-04-06T20:07:33.786Z</time></trkpt><trkpt lat="44.8396432" lon="1.0719273"><ele>58.33333333333333</ele><time>2026-04-06T20:07:34.771Z</time></trkpt><trkpt lat="44.8397157" lon="1.0719735"><ele>58.666666666666664</ele><time>2026-04-06T20:07:35.77Z</time></trkpt><trkpt lat="44.8397881" lon="1.0720188"><ele>59.0</ele><time>2026-04-06T20:07:36.772Z</time></trkpt><trkpt lat="44.8398576" lon="1.0720747"><ele>59.33333333333333</ele><time>2026-04-06T20:07:37.777Z</time></trkpt><trkpt lat="44.839922" lon="1.0721357"><ele>59.666666666666664</ele><time>2026-04-06T20:07:38.781Z</time></trkpt><trkpt lat="44.8399805" lon="1.0722028"><ele>60.0</ele><time>2026-04-06T20:07:39.774Z</time></trkpt><trkpt lat="44.8400341" lon="1.0722762"><ele>60.0</ele><time>2026-04-06T20:07:40.795Z</time></trkpt><trkpt lat="44.8400876" lon="1.0723437"><ele>60.0</ele><time>2026-04-06T20:07:41.776Z</time></trkpt><trkpt lat="44.8401429" lon="1.0724069"><ele>60.0</ele><time>2026-04-06T20:07:42.777Z</time></trkpt><trkpt lat="44.8402009" lon="1.0724656"><ele>60.0</ele><time>2026-04-06T20:07:43.775Z</time></trkpt><trkpt lat="44.8402605" lon="1.0725218"><ele>60.0</ele><time>2026-04-06T20:07:44.778Z</time></trkpt><trkpt lat="44.8403206" lon="1.0725781"><ele>60.0</ele><time>2026-04-06T20:07:45.771Z</time></trkpt><trkpt lat="44.8403776" lon="1.0726401"><ele>60.0</ele><time>2026-04-06T20:07:46.779Z</time></trkpt><trkpt lat="44.8404333" lon="1.0727033"><ele>60.142857142857146</ele><time>2026-04-06T20:07:47.773Z</time></trkpt><trkpt lat="44.8404935" lon="1.0727596"><ele>60.28571428571428</ele><time>2026-04-06T20:07:48.819Z</time></trkpt><trkpt lat="44.8405537" lon="1.0728076"><ele>60.42857142857142</ele><time>2026-04-06T20:07:49.788Z</time></trkpt><trkpt lat="44.8406062" lon="1.0728578"><ele>60.57142857142857</ele><time>2026-04-06T20:07:50.783Z</time></trkpt><trkpt lat="44.8406549" lon="1.0729177"><ele>60.71428571428571</ele><time>2026-04-06T20:07:51.776Z</time></trkpt><trkpt lat="44.8406986" lon="1.0729834"><ele>60.85714285714285</ele><time>2026-04-06T20:07:52.776Z</time></trkpt><trkpt lat="44.840742" lon="1.0730514"><ele>60.99999999999999</ele><time>2026-04-06T20:07:53.772Z</time></trkpt><trkpt lat="44.8407852" lon="1.0731182"><ele>60.99999999999999</ele><time>2026-04-06T20:07:54.774Z</time></trkpt><trkpt lat="44.8408733" lon="1.0732463"><ele>61.0</ele><time>2026-04-06T20:07:56.775Z</time></trkpt><trkpt lat="44.8409215" lon="1.0733073"><ele>60.99999999999999</ele><time>2026-04-06T20:07:57.788Z</time></trkpt><trkpt lat="44.8409707" lon="1.0733651"><ele>60.99999999999999</ele><time>2026-04-06T20:07:58.775Z</time></trkpt><trkpt lat="44.8410218" lon="1.0734225"><ele>61.0</ele><time>2026-04-06T20:07:59.77Z</time></trkpt><trkpt lat="44.8410716" lon="1.0734788"><ele>60.99999999999999</ele><time>2026-04-06T20:08:00.771Z</time></trkpt><trkpt lat="44.8411262" lon="1.0735245"><ele>60.99999999999999</ele><time>2026-04-06T20:08:01.772Z</time></trkpt><trkpt lat="44.8411807" lon="1.0735708"><ele>60.83333333333333</ele><time>2026-04-06T20:08:02.776Z</time></trkpt><trkpt lat="44.841282" lon="1.0736746"><ele>60.666666666666664</ele><time>2026-04-06T20:08:04.772Z</time></trkpt><trkpt lat="44.8413355" lon="1.0737281"><ele>60.5</ele><time>2026-04-06T20:08:05.772Z</time></trkpt><trkpt lat="44.8413924" lon="1.0737808"><ele>60.33333333333333</ele><time>2026-04-06T20:08:06.774Z</time></trkpt><trkpt lat="44.8414474" lon="1.0738343"><ele>60.166666666666664</ele><time>2026-04-06T20:08:07.77Z</time></trkpt><trkpt lat="44.8415031" lon="1.0738821"><ele>60.0</ele><time>2026-04-06T20:08:08.782Z</time></trkpt><trkpt lat="44.8415616" lon="1.0739228"><ele>60.0</ele><time>2026-04-06T20:08:09.77Z</time></trkpt><trkpt lat="44.8416211" lon="1.0739632"><ele>60.0</ele><time>2026-04-06T20:08:10.786Z</time></trkpt><trkpt lat="44.8416818" lon="1.0739919"><ele>60.0</ele><time>2026-04-06T20:08:11.768Z</time></trkpt><trkpt lat="44.8417393" lon="1.0740327"><ele>60.0</ele><time>2026-04-06T20:08:12.77Z</time></trkpt><trkpt lat="44.8417985" lon="1.0740759"><ele>60.0</ele><time>2026-04-06T20:08:13.776Z</time></trkpt><trkpt lat="44.8418544" lon="1.0741176"><ele>60.0</ele><time>2026-04-06T20:08:14.774Z</time></trkpt><trkpt lat="44.8419136" lon="1.0741562"><ele>60.0</ele><time>2026-04-06T20:08:15.768Z</time></trkpt><trkpt lat="44.8419782" lon="1.0741861"><ele>60.166666666666664</ele><time>2026-04-06T20:08:16.795Z</time></trkpt><trkpt lat="44.8420431" lon="1.0742017"><ele>60.33333333333333</ele><time>2026-04-06T20:08:17.775Z</time></trkpt><trkpt lat="44.8421096" lon="1.0742149"><ele>60.5</ele><time>2026-04-06T20:08:18.778Z</time></trkpt><trkpt lat="44.8422135" lon="1.074213"><ele>60.666666666666664</ele><time>2026-04-06T20:08:20.776Z</time></trkpt><trkpt lat="44.8423006" lon="1.0742597"><ele>60.83333333333333</ele><time>2026-04-06T20:08:22.779Z</time></trkpt><trkpt lat="44.8423748" lon="1.0743523"><ele>61.0</ele><time>2026-04-06T20:08:24.776Z</time></trkpt><trkpt lat="44.8424538" lon="1.0744548"><ele>60.99999999999999</ele><time>2026-04-06T20:08:26.777Z</time></trkpt><trkpt lat="44.8425334" lon="1.074544"><ele>61.0</ele><time>2026-04-06T20:08:28.79Z</time></trkpt><trkpt lat="44.8426069" lon="1.0746019"><ele>61.0</ele><time>2026-04-06T20:08:30.771Z</time></trkpt><trkpt lat="44.8426829" lon="1.0746426"><ele>61.0</ele><time>2026-04-06T20:08:32.774Z</time></trkpt><trkpt lat="44.8427672" lon="1.0746944"><ele>60.99999999999999</ele><time>2026-04-06T20:09:36.802Z</time></trkpt><trkpt lat="44.8428293" lon="1.0747261"><ele>61.0</ele><time>2026-04-06T20:09:38.771Z</time></trkpt><trkpt lat="44.8429099" lon="1.0747778"><ele>61.166666666666664</ele><time>2026-04-06T20:09:40.774Z</time></trkpt><trkpt lat="44.8429884" lon="1.0748443"><ele>61.33333333333333</ele><time>2026-04-06T20:09:42.794Z</time></trkpt><trkpt lat="44.8430605" lon="1.0749386"><ele>61.5</ele><time>2026-04-06T20:09:44.777Z</time></trkpt><trkpt lat="44.8431171" lon="1.0750465"><ele>61.66666666666667</ele><time>2026-04-06T20:09:46.778Z</time></trkpt><trkpt lat="44.8431415" lon="1.0751582"><ele>61.833333333333336</ele><time>2026-04-06T20:09:48.775Z</time></trkpt><trkpt lat="44.8431263" lon="1.0752545"><ele>62.0</ele><time>2026-04-06T20:09:50.777Z</time></trkpt><trkpt lat="44.8431449" lon="1.0753612"><ele>61.833333333333336</ele><time>2026-04-06T20:09:52.807Z</time></trkpt><trkpt lat="44.8431939" lon="1.0754624"><ele>61.66666666666667</ele><time>2026-04-06T20:09:54.776Z</time></trkpt><trkpt lat="44.8432553" lon="1.0755343"><ele>61.5</ele><time>2026-04-06T20:09:56.791Z</time></trkpt><trkpt lat="44.8433144" lon="1.0755954"><ele>61.33333333333333</ele><time>2026-04-06T20:09:58.78Z</time></trkpt><trkpt lat="44.8433701" lon="1.075676"><ele>61.166666666666664</ele><time>2026-04-06T20:10:00.778Z</time></trkpt><trkpt lat="44.8434179" lon="1.0757667"><ele>61.0</ele><time>2026-04-06T20:10:02.784Z</time></trkpt><trkpt lat="44.8434538" lon="1.0758822"><ele>60.8</ele><time>2026-04-06T20:10:04.777Z</time></trkpt><trkpt lat="44.8434908" lon="1.0760009"><ele>60.599999999999994</ele><time>2026-04-06T20:10:06.788Z</time></trkpt><trkpt lat="44.8435372" lon="1.0761113"><ele>60.4</ele><time>2026-04-06T20:10:08.771Z</time></trkpt><trkpt lat="44.8435878" lon="1.0762163"><ele>60.2</ele><time>2026-04-06T20:10:10.779Z</time></trkpt><trkpt lat="44.8436538" lon="1.076339"><ele>60.0</ele><time>2026-04-06T20:10:12.773Z</time></trkpt><trkpt lat="44.8437307" lon="1.0764535"><ele>60.0</ele><time>2026-04-06T20:10:14.78Z</time></trkpt><trkpt lat="44.8437747" lon="1.0765182"><ele>60.0</ele><time>2026-04-06T20:10:15.783Z</time></trkpt><trkpt lat="44.8438198" lon="1.076585"><ele>60.0</ele><time>2026-04-06T20:10:16.774Z</time></trkpt><trkpt lat="44.8438642" lon="1.0766526"><ele>60.0</ele><time>2026-04-06T20:10:17.775Z</time></trkpt><trkpt lat="44.8439075" lon="1.076722"><ele>60.0</ele><time>2026-04-06T20:10:18.774Z</time></trkpt><trkpt lat="44.8439881" lon="1.0768547"><ele>60.0</ele><time>2026-04-06T20:10:20.774Z</time></trkpt><trkpt lat="44.8440292" lon="1.0769225"><ele>60.0</ele><time>2026-04-06T20:10:21.782Z</time></trkpt><trkpt lat="44.8441095" lon="1.0770532"><ele>60.0</ele><time>2026-04-06T20:10:23.778Z</time></trkpt><trkpt lat="44.84415" lon="1.0771225"><ele>60.0</ele><time>2026-04-06T20:10:24.778Z</time></trkpt><trkpt lat="44.8441886" lon="1.0771934"><ele>60.0</ele><time>2026-04-06T20:10:25.781Z</time></trkpt><trkpt lat="44.8442287" lon="1.0772653"><ele>60.0</ele><time>2026-04-06T20:10:26.776Z</time></trkpt><trkpt lat="44.8442677" lon="1.077336"><ele>60.0</ele><time>2026-04-06T20:10:27.791Z</time></trkpt><trkpt lat="44.8443069" lon="1.0774076"><ele>60.0</ele><time>2026-04-06T20:10:28.787Z</time></trkpt><trkpt lat="44.8443468" lon="1.0774765"><ele>60.0</ele><time>2026-04-06T20:10:29.781Z</time></trkpt><trkpt lat="44.8444206" lon="1.0776192"><ele>60.5</ele><time>2026-04-06T20:10:31.771Z</time></trkpt><trkpt lat="44.8444921" lon="1.077756"><ele>61.0</ele><time>2026-04-06T20:10:33.774Z</time></trkpt><trkpt lat="44.8445652" lon="1.0778907"><ele>61.5</ele><time>2026-04-06T20:10:35.79Z</time></trkpt><trkpt lat="44.8446375" lon="1.0780284"><ele>62.0</ele><time>2026-04-06T20:10:37.771Z</time></trkpt><trkpt lat="44.8447121" lon="1.0781712"><ele>62.0</ele><time>2026-04-06T20:10:39.781Z</time></trkpt><trkpt lat="44.8447501" lon="1.0782442"><ele>62.00000000000001</ele><time>2026-04-06T20:10:40.781Z</time></trkpt><trkpt lat="44.8447876" lon="1.0783188"><ele>62.0</ele><time>2026-04-06T20:10:41.777Z</time></trkpt><trkpt lat="44.8448258" lon="1.0783934"><ele>62.0</ele><time>2026-04-06T20:10:42.782Z</time></trkpt><trkpt lat="44.844866" lon="1.0784684"><ele>62.00000000000001</ele><time>2026-04-06T20:10:43.777Z</time></trkpt><trkpt lat="44.8449055" lon="1.078543"><ele>62.0</ele><time>2026-04-06T20:10:44.772Z</time></trkpt><trkpt lat="44.8449456" lon="1.0786188"><ele>62.0</ele><time>2026-04-06T20:10:45.782Z</time></trkpt><trkpt lat="44.8449849" lon="1.078694"><ele>62.0</ele><time>2026-04-06T20:10:46.773Z</time></trkpt><trkpt lat="44.8450244" lon="1.0787685"><ele>62.00000000000001</ele><time>2026-04-06T20:10:47.785Z</time></trkpt><trkpt lat="44.8450647" lon="1.078843"><ele>62.0</ele><time>2026-04-06T20:10:48.782Z</time></trkpt><trkpt lat="44.8451043" lon="1.0789176"><ele>62.0</ele><time>2026-04-06T20:10:49.778Z</time></trkpt><trkpt lat="44.8451446" lon="1.0789921"><ele>62.00000000000001</ele><time>2026-04-06T20:10:50.771Z</time></trkpt><trkpt lat="44.8451841" lon="1.0790669"><ele>62.0</ele><time>2026-04-06T20:10:51.775Z</time></trkpt><trkpt lat="44.8452237" lon="1.0791416"><ele>62.0</ele><time>2026-04-06T20:10:52.793Z</time></trkpt><trkpt lat="44.8452635" lon="1.079217"><ele>61.85714285714286</ele><time>2026-04-06T20:10:53.787Z</time></trkpt><trkpt lat="44.8453035" lon="1.0792916"><ele>61.71428571428572</ele><time>2026-04-06T20:10:54.783Z</time></trkpt><trkpt lat="44.8453436" lon="1.0793666"><ele>61.57142857142857</ele><time>2026-04-06T20:10:55.777Z</time></trkpt><trkpt lat="44.845384" lon="1.0794409"><ele>61.42857142857143</ele><time>2026-04-06T20:10:56.8Z</time></trkpt><trkpt lat="44.8454245" lon="1.0795158"><ele>61.285714285714285</ele><time>2026-04-06T20:10:57.777Z</time></trkpt><trkpt lat="44.8454651" lon="1.0795908"><ele>61.14285714285714</ele><time>2026-04-06T20:10:58.774Z</time></trkpt><trkpt lat="44.8455058" lon="1.0796657"><ele>60.99999999999999</ele><time>2026-04-06T20:10:59.772Z</time></trkpt><trkpt lat="44.8455466" lon="1.0797422"><ele>60.99999999999999</ele><time>2026-04-06T20:11:00.783Z</time></trkpt><trkpt lat="44.8455878" lon="1.0798183"><ele>61.0</ele><time>2026-04-06T20:11:01.784Z</time></trkpt><trkpt lat="44.8456289" lon="1.079894"><ele>60.99999999999999</ele><time>2026-04-06T20:11:02.783Z</time></trkpt><trkpt lat="44.8456701" lon="1.0799704"><ele>60.99999999999999</ele><time>2026-04-06T20:11:03.774Z</time></trkpt><trkpt lat="44.8457114" lon="1.0800464"><ele>61.0</ele><time>2026-04-06T20:11:04.782Z</time></trkpt><trkpt lat="44.8457529" lon="1.0801231"><ele>60.99999999999999</ele><time>2026-04-06T20:11:05.772Z</time></trkpt><trkpt lat="44.8457952" lon="1.0801985"><ele>60.99999999999999</ele><time>2026-04-06T20:11:06.78Z</time></trkpt><trkpt lat="44.8458377" lon="1.0802741"><ele>60.99999999999999</ele><time>2026-04-06T20:11:07.777Z</time></trkpt><trkpt lat="44.8458798" lon="1.0803503"><ele>61.0</ele><time>2026-04-06T20:11:08.779Z</time></trkpt><trkpt lat="44.8459215" lon="1.080426"><ele>61.0</ele><time>2026-04-06T20:11:09.777Z</time></trkpt><trkpt lat="44.845963" lon="1.0805006"><ele>61.0</ele><time>2026-04-06T20:11:10.786Z</time></trkpt><trkpt lat="44.8460039" lon="1.0805741"><ele>60.99999999999999</ele><time>2026-04-06T20:11:11.776Z</time></trkpt><trkpt lat="44.8460418" lon="1.0806455"><ele>61.0</ele><time>2026-04-06T20:11:12.777Z</time></trkpt><trkpt lat="44.8460959" lon="1.0807922"><ele>61.5</ele><time>2026-04-06T20:11:14.778Z</time></trkpt><trkpt lat="44.8460756" lon="1.0809374"><ele>62.0</ele><time>2026-04-06T20:11:16.769Z</time></trkpt><trkpt lat="44.8459913" lon="1.0810374"><ele>62.5</ele><time>2026-04-06T20:11:18.776Z</time></trkpt><trkpt lat="44.8458961" lon="1.0811366"><ele>63.0</ele><time>2026-04-06T20:11:20.774Z</time></trkpt><trkpt lat="44.8457991" lon="1.0812425"><ele>63.0</ele><time>2026-04-06T20:11:22.772Z</time></trkpt><trkpt lat="44.8457002" lon="1.0813524"><ele>63.0</ele><time>2026-04-06T20:11:24.781Z</time></trkpt><trkpt lat="44.8456496" lon="1.0814067"><ele>63.0</ele><time>2026-04-06T20:11:25.794Z</time></trkpt><trkpt lat="44.8455989" lon="1.0814612"><ele>63.0</ele><time>2026-04-06T20:11:26.797Z</time></trkpt><trkpt lat="44.845548" lon="1.0815162"><ele>63.0</ele><time>2026-04-06T20:11:27.774Z</time></trkpt><trkpt lat="44.8454946" lon="1.0815677"><ele>63.0</ele><time>2026-04-06T20:11:28.776Z</time></trkpt><trkpt lat="44.8454413" lon="1.0816188"><ele>63.0</ele><time>2026-04-06T20:11:29.769Z</time></trkpt><trkpt lat="44.8453848" lon="1.0816658"><ele>63.0</ele><time>2026-04-06T20:11:30.777Z</time></trkpt><trkpt lat="44.8453256" lon="1.081708"><ele>63.0</ele><time>2026-04-06T20:11:31.786Z</time></trkpt><trkpt lat="44.8452638" lon="1.0817441"><ele>63.0</ele><time>2026-04-06T20:11:32.778Z</time></trkpt><trkpt lat="44.8452043" lon="1.0817786"><ele>63.0</ele><time>2026-04-06T20:11:33.77Z</time></trkpt><trkpt lat="44.8451418" lon="1.0818048"><ele>63.0</ele><time>2026-04-06T20:11:34.772Z</time></trkpt><trkpt lat="44.8450253" lon="1.0818525"><ele>63.0</ele><time>2026-04-06T20:11:36.771Z</time></trkpt><trkpt lat="44.8449304" lon="1.0819245"><ele>63.0</ele><time>2026-04-06T20:11:38.771Z</time></trkpt><trkpt lat="44.8448688" lon="1.0820396"><ele>63.0</ele><time>2026-04-06T20:11:40.773Z</time></trkpt><trkpt lat="44.8448217" lon="1.0821568"><ele>63.0</ele><time>2026-04-06T20:11:42.77Z</time></trkpt><trkpt lat="44.8447532" lon="1.0822604"><ele>63.0</ele><time>2026-04-06T20:11:44.768Z</time></trkpt><trkpt lat="44.8446604" lon="1.0823632"><ele>63.0</ele><time>2026-04-06T20:11:46.773Z</time></trkpt><trkpt lat="44.8445615" lon="1.0824766"><ele>62.85714285714286</ele><time>2026-04-06T20:11:48.768Z</time></trkpt><trkpt lat="44.8445106" lon="1.0825369"><ele>62.714285714285715</ele><time>2026-04-06T20:11:49.783Z</time></trkpt><trkpt lat="44.8444595" lon="1.0825992"><ele>62.57142857142857</ele><time>2026-04-06T20:11:50.771Z</time></trkpt><trkpt lat="44.8444092" lon="1.0826626"><ele>62.42857142857143</ele><time>2026-04-06T20:11:51.778Z</time></trkpt><trkpt lat="44.8443578" lon="1.0827266"><ele>62.28571428571429</ele><time>2026-04-06T20:11:52.792Z</time></trkpt><trkpt lat="44.8443059" lon="1.0827907"><ele>62.142857142857146</ele><time>2026-04-06T20:11:53.774Z</time></trkpt><trkpt lat="44.8442533" lon="1.0828539"><ele>62.0</ele><time>2026-04-06T20:11:54.79Z</time></trkpt><trkpt lat="44.8442001" lon="1.0829158"><ele>61.85714285714286</ele><time>2026-04-06T20:11:55.787Z</time></trkpt><trkpt lat="44.8441447" lon="1.0829753"><ele>61.71428571428572</ele><time>2026-04-06T20:11:56.783Z</time></trkpt><trkpt lat="44.8440859" lon="1.0830305"><ele>61.57142857142857</ele><time>2026-04-06T20:11:57.783Z</time></trkpt><trkpt lat="44.8440246" lon="1.0830825"><ele>61.42857142857143</ele><time>2026-04-06T20:11:58.772Z</time></trkpt><trkpt lat="44.8439593" lon="1.08313"><ele>61.285714285714285</ele><time>2026-04-06T20:11:59.78Z</time></trkpt><trkpt lat="44.8438915" lon="1.0831696"><ele>61.14285714285714</ele><time>2026-04-06T20:12:00.777Z</time></trkpt><trkpt lat="44.8438208" lon="1.0832106"><ele>60.99999999999999</ele><time>2026-04-06T20:12:01.77Z</time></trkpt><trkpt lat="44.8437513" lon="1.0832346"><ele>60.99999999999999</ele><time>2026-04-06T20:12:02.774Z</time></trkpt><trkpt lat="44.8436822" lon="1.0832585"><ele>61.0</ele><time>2026-04-06T20:12:03.783Z</time></trkpt><trkpt lat="44.843611" lon="1.0832713"><ele>60.99999999999999</ele><time>2026-04-06T20:12:04.77Z</time></trkpt><trkpt lat="44.8435385" lon="1.0832822"><ele>60.99999999999999</ele><time>2026-04-06T20:12:05.78Z</time></trkpt><trkpt lat="44.8434679" lon="1.0832943"><ele>61.0</ele><time>2026-04-06T20:12:06.77Z</time></trkpt><trkpt lat="44.8433997" lon="1.0833058"><ele>60.99999999999999</ele><time>2026-04-06T20:12:07.785Z</time></trkpt><trkpt lat="44.8433293" lon="1.0833146"><ele>60.99999999999999</ele><time>2026-04-06T20:12:08.792Z</time></trkpt><trkpt lat="44.8432606" lon="1.0833223"><ele>61.14285714285714</ele><time>2026-04-06T20:12:09.772Z</time></trkpt><trkpt lat="44.8431923" lon="1.0833332"><ele>61.285714285714285</ele><time>2026-04-06T20:12:10.779Z</time></trkpt><trkpt lat="44.8431251" lon="1.083348"><ele>61.42857142857143</ele><time>2026-04-06T20:12:11.781Z</time></trkpt><trkpt lat="44.8430604" lon="1.0833669"><ele>61.57142857142857</ele><time>2026-04-06T20:12:12.796Z</time></trkpt><trkpt lat="44.8429959" lon="1.0833921"><ele>61.71428571428572</ele><time>2026-04-06T20:12:13.783Z</time></trkpt><trkpt lat="44.8429316" lon="1.0834236"><ele>61.85714285714286</ele><time>2026-04-06T20:12:14.775Z</time></trkpt><trkpt lat="44.8428683" lon="1.083457"><ele>62.0</ele><time>2026-04-06T20:12:15.775Z</time></trkpt><trkpt lat="44.8428018" lon="1.0834922"><ele>62.0</ele><time>2026-04-06T20:12:16.774Z</time></trkpt><trkpt lat="44.8427427" lon="1.0835378"><ele>62.00000000000001</ele><time>2026-04-06T20:12:17.774Z</time></trkpt><trkpt lat="44.8426865" lon="1.0835909"><ele>62.0</ele><time>2026-04-06T20:12:18.771Z</time></trkpt><trkpt lat="44.8426308" lon="1.0836521"><ele>62.0</ele><time>2026-04-06T20:12:19.768Z</time></trkpt><trkpt lat="44.84258" lon="1.0837185"><ele>62.00000000000001</ele><time>2026-04-06T20:12:20.78Z</time></trkpt><trkpt lat="44.8425316" lon="1.0837898"><ele>62.0</ele><time>2026-04-06T20:12:21.782Z</time></trkpt><trkpt lat="44.8424864" lon="1.083865"><ele>62.0</ele><time>2026-04-06T20:12:22.782Z</time></trkpt><trkpt lat="44.8424417" lon="1.0839415"><ele>62.0</ele><time>2026-04-06T20:12:23.775Z</time></trkpt><trkpt lat="44.8423978" lon="1.0840187"><ele>62.00000000000001</ele><time>2026-04-06T20:12:24.768Z</time></trkpt><trkpt lat="44.8423546" lon="1.084096"><ele>62.0</ele><time>2026-04-06T20:12:25.783Z</time></trkpt><trkpt lat="44.8423143" lon="1.0841683"><ele>62.0</ele><time>2026-04-06T20:12:26.773Z</time></trkpt><trkpt lat="44.8422735" lon="1.0842472"><ele>62.00000000000001</ele><time>2026-04-06T20:12:27.779Z</time></trkpt><trkpt lat="44.8422327" lon="1.0843263"><ele>62.0</ele><time>2026-04-06T20:12:28.776Z</time></trkpt><trkpt lat="44.8421902" lon="1.0844064"><ele>62.0</ele><time>2026-04-06T20:12:29.769Z</time></trkpt><trkpt lat="44.8421481" lon="1.0844849"><ele>62.0</ele><time>2026-04-06T20:12:30.778Z</time></trkpt><trkpt lat="44.842107" lon="1.0845636"><ele>62.00000000000001</ele><time>2026-04-06T20:12:31.77Z</time></trkpt><trkpt lat="44.8420664" lon="1.0846405"><ele>62.0</ele><time>2026-04-06T20:12:32.779Z</time></trkpt><trkpt lat="44.8420256" lon="1.0847171"><ele>62.0</ele><time>2026-04-06T20:12:33.772Z</time></trkpt><trkpt lat="44.841985" lon="1.0847919"><ele>62.00000000000001</ele><time>2026-04-06T20:12:34.78Z</time></trkpt><trkpt lat="44.8419431" lon="1.0848647"><ele>62.0</ele><time>2026-04-06T20:12:35.772Z</time></trkpt><trkpt lat="44.8418992" lon="1.084939"><ele>62.0</ele><time>2026-04-06T20:12:36.771Z</time></trkpt><trkpt lat="44.8418558" lon="1.0850128"><ele>62.0</ele><time>2026-04-06T20:12:37.774Z</time></trkpt><trkpt lat="44.8418129" lon="1.0850844"><ele>62.00000000000001</ele><time>2026-04-06T20:12:38.78Z</time></trkpt><trkpt lat="44.8417678" lon="1.0851543"><ele>62.0</ele><time>2026-04-06T20:12:39.773Z</time></trkpt><trkpt lat="44.8417225" lon="1.0852229"><ele>62.0</ele><time>2026-04-06T20:12:40.773Z</time></trkpt><trkpt lat="44.8416753" lon="1.0852922"><ele>62.00000000000001</ele><time>2026-04-06T20:12:41.781Z</time></trkpt><trkpt lat="44.8416259" lon="1.0853621"><ele>62.0</ele><time>2026-04-06T20:12:42.776Z</time></trkpt><trkpt lat="44.8415767" lon="1.0854302"><ele>62.0</ele><time>2026-04-06T20:12:43.779Z</time></trkpt><trkpt lat="44.8415274" lon="1.0854966"><ele>62.0</ele><time>2026-04-06T20:12:44.779Z</time></trkpt><trkpt lat="44.8414775" lon="1.0855613"><ele>62.00000000000001</ele><time>2026-04-06T20:12:45.782Z</time></trkpt><trkpt lat="44.8414271" lon="1.0856255"><ele>62.0</ele><time>2026-04-06T20:12:46.793Z</time></trkpt><trkpt lat="44.8413771" lon="1.0856884"><ele>62.0</ele><time>2026-04-06T20:12:47.775Z</time></trkpt><trkpt lat="44.8413273" lon="1.0857493"><ele>62.00000000000001</ele><time>2026-04-06T20:12:48.777Z</time></trkpt><trkpt lat="44.8412779" lon="1.0858122"><ele>62.0</ele><time>2026-04-06T20:12:49.769Z</time></trkpt><trkpt lat="44.8412283" lon="1.0858748"><ele>62.0</ele><time>2026-04-06T20:12:50.78Z</time></trkpt><trkpt lat="44.8411782" lon="1.0859377"><ele>61.85714285714286</ele><time>2026-04-06T20:12:51.779Z</time></trkpt><trkpt lat="44.8411281" lon="1.086"><ele>61.71428571428572</ele><time>2026-04-06T20:12:52.773Z</time></trkpt><trkpt lat="44.8410781" lon="1.086062"><ele>61.57142857142857</ele><time>2026-04-06T20:12:53.775Z</time></trkpt><trkpt lat="44.8410279" lon="1.0861248"><ele>61.42857142857143</ele><time>2026-04-06T20:12:54.77Z</time></trkpt><trkpt lat="44.8409772" lon="1.0861879"><ele>61.285714285714285</ele><time>2026-04-06T20:12:55.783Z</time></trkpt><trkpt lat="44.8409262" lon="1.0862512"><ele>61.14285714285714</ele><time>2026-04-06T20:12:56.773Z</time></trkpt><trkpt lat="44.8408745" lon="1.0863139"><ele>60.99999999999999</ele><time>2026-04-06T20:12:57.773Z</time></trkpt><trkpt lat="44.8408234" lon="1.0863767"><ele>60.99999999999999</ele><time>2026-04-06T20:12:58.782Z</time></trkpt><trkpt lat="44.8407709" lon="1.0864406"><ele>61.0</ele><time>2026-04-06T20:12:59.78Z</time></trkpt><trkpt lat="44.8407184" lon="1.0865034"><ele>60.99999999999999</ele><time>2026-04-06T20:13:00.797Z</time></trkpt><trkpt lat="44.8406659" lon="1.0865663"><ele>60.99999999999999</ele><time>2026-04-06T20:13:01.777Z</time></trkpt><trkpt lat="44.8406137" lon="1.0866292"><ele>61.0</ele><time>2026-04-06T20:13:02.769Z</time></trkpt><trkpt lat="44.8405613" lon="1.0866916"><ele>60.99999999999999</ele><time>2026-04-06T20:13:03.777Z</time></trkpt><trkpt lat="44.840508" lon="1.0867521"><ele>60.99999999999999</ele><time>2026-04-06T20:13:04.769Z</time></trkpt><trkpt lat="44.8404537" lon="1.0868114"><ele>60.99999999999999</ele><time>2026-04-06T20:13:05.778Z</time></trkpt><trkpt lat="44.8403982" lon="1.0868698"><ele>61.0</ele><time>2026-04-06T20:13:06.776Z</time></trkpt><trkpt lat="44.8403422" lon="1.0869257"><ele>60.99999999999999</ele><time>2026-04-06T20:13:07.778Z</time></trkpt><trkpt lat="44.8402856" lon="1.0869796"><ele>60.99999999999999</ele><time>2026-04-06T20:13:08.769Z</time></trkpt><trkpt lat="44.8402293" lon="1.0870325"><ele>61.0</ele><time>2026-04-06T20:13:09.777Z</time></trkpt><trkpt lat="44.8401716" lon="1.0870831"><ele>60.99999999999999</ele><time>2026-04-06T20:13:10.777Z</time></trkpt><trkpt lat="44.8401137" lon="1.0871329"><ele>60.99999999999999</ele><time>2026-04-06T20:13:11.773Z</time></trkpt><trkpt lat="44.8400558" lon="1.087181"><ele>60.99999999999999</ele><time>2026-04-06T20:13:12.778Z</time></trkpt><trkpt lat="44.8399976" lon="1.0872289"><ele>61.0</ele><time>2026-04-06T20:13:13.779Z</time></trkpt><trkpt lat="44.8399407" lon="1.0872749"><ele>61.0</ele><time>2026-04-06T20:13:14.767Z</time></trkpt><trkpt lat="44.8398385" lon="1.0873573"><ele>61.0</ele><time>2026-04-06T20:13:16.769Z</time></trkpt><trkpt lat="44.839753" lon="1.0874258"><ele>60.99999999999999</ele><time>2026-04-06T20:13:18.772Z</time></trkpt><trkpt lat="44.8396773" lon="1.0874882"><ele>61.0</ele><time>2026-04-06T20:13:20.777Z</time></trkpt><trkpt lat="44.8396101" lon="1.0875257"><ele>60.99999999999999</ele><time>2026-04-06T20:13:22.774Z</time></trkpt><trkpt lat="44.8395458" lon="1.0875526"><ele>61.0</ele><time>2026-04-06T20:15:02.774Z</time></trkpt><trkpt lat="44.8395013" lon="1.087642"><ele>61.0</ele><time>2026-04-06T20:15:06.773Z</time></trkpt><trkpt lat="44.8394587" lon="1.0877092"><ele>61.0</ele><time>2026-04-06T20:15:08.798Z</time></trkpt><trkpt lat="44.8394022" lon="1.0877807"><ele>60.99999999999999</ele><time>2026-04-06T20:15:10.774Z</time></trkpt><trkpt lat="44.8393379" lon="1.0878619"><ele>61.0</ele><time>2026-04-06T20:15:12.782Z</time></trkpt><trkpt lat="44.8392793" lon="1.0879504"><ele>60.99999999999999</ele><time>2026-04-06T20:15:14.775Z</time></trkpt><trkpt lat="44.8392218" lon="1.0880488"><ele>61.0</ele><time>2026-04-06T20:15:19.776Z</time></trkpt><trkpt lat="44.839182" lon="1.0881312"><ele>60.99999999999999</ele><time>2026-04-06T20:15:21.774Z</time></trkpt><trkpt lat="44.8391438" lon="1.0882173"><ele>60.99999999999999</ele><time>2026-04-06T20:15:23.774Z</time></trkpt><trkpt lat="44.839102" lon="1.0882908"><ele>61.0</ele><time>2026-04-06T20:15:25.774Z</time></trkpt><trkpt lat="44.839051" lon="1.0883431"><ele>60.99999999999999</ele><time>2026-04-06T20:15:27.775Z</time></trkpt><trkpt lat="44.8389836" lon="1.0883708"><ele>60.99999999999999</ele><time>2026-04-06T20:15:29.783Z</time></trkpt><trkpt lat="44.8389184" lon="1.0884"><ele>61.28571428571428</ele><time>2026-04-06T20:15:31.792Z</time></trkpt><trkpt lat="44.8388578" lon="1.0884578"><ele>61.57142857142857</ele><time>2026-04-06T20:15:33.774Z</time></trkpt><trkpt lat="44.8388073" lon="1.0885213"><ele>61.857142857142854</ele><time>2026-04-06T20:15:35.782Z</time></trkpt><trkpt lat="44.8387647" lon="1.0886006"><ele>62.14285714285714</ele><time>2026-04-06T20:15:37.785Z</time></trkpt><trkpt lat="44.8387236" lon="1.0886781"><ele>62.42857142857143</ele><time>2026-04-06T20:15:39.774Z</time></trkpt><trkpt lat="44.8386819" lon="1.0887634"><ele>62.714285714285715</ele><time>2026-04-06T20:15:41.778Z</time></trkpt><trkpt lat="44.838643" lon="1.0888433"><ele>63.0</ele><time>2026-04-06T20:15:43.786Z</time></trkpt><trkpt lat="44.8386001" lon="1.0889245"><ele>63.0</ele><time>2026-04-06T20:15:45.779Z</time></trkpt><trkpt lat="44.8385554" lon="1.0890037"><ele>63.0</ele><time>2026-04-06T20:15:47.773Z</time></trkpt><trkpt lat="44.8385093" lon="1.0890792"><ele>63.0</ele><time>2026-04-06T20:15:49.779Z</time></trkpt><trkpt lat="44.8384595" lon="1.0891518"><ele>63.0</ele><time>2026-04-06T20:15:51.773Z</time></trkpt><trkpt lat="44.8384056" lon="1.0892219"><ele>63.0</ele><time>2026-04-06T20:15:53.776Z</time></trkpt><trkpt lat="44.8383497" lon="1.0892883"><ele>63.0</ele><time>2026-04-06T20:15:55.773Z</time></trkpt><trkpt lat="44.8382913" lon="1.089356"><ele>63.0</ele><time>2026-04-06T20:15:57.776Z</time></trkpt><trkpt lat="44.8382328" lon="1.0894212"><ele>63.333333333333336</ele><time>2026-04-06T20:15:59.78Z</time></trkpt><trkpt lat="44.8381755" lon="1.0894825"><ele>63.66666666666667</ele><time>2026-04-06T20:16:01.773Z</time></trkpt><trkpt lat="44.8381151" lon="1.0895467"><ele>64.0</ele><time>2026-04-06T20:16:03.78Z</time></trkpt><trkpt lat="44.8380549" lon="1.0896122"><ele>64.33333333333334</ele><time>2026-04-06T20:16:05.775Z</time></trkpt><trkpt lat="44.8379936" lon="1.0896744"><ele>64.66666666666667</ele><time>2026-04-06T20:16:07.774Z</time></trkpt><trkpt lat="44.8379301" lon="1.0897312"><ele>65.0</ele><time>2026-04-06T20:16:09.785Z</time></trkpt><trkpt lat="44.8378582" lon="1.0897713"><ele>65.0</ele><time>2026-04-06T20:16:11.775Z</time></trkpt><trkpt lat="44.8377764" lon="1.0897851"><ele>65.0</ele><time>2026-04-06T20:16:13.776Z</time></trkpt><trkpt lat="44.8376895" lon="1.0897895"><ele>65.0</ele><time>2026-04-06T20:16:15.775Z</time></trkpt><trkpt lat="44.8376011" lon="1.0897899"><ele>65.0</ele><time>2026-04-06T20:16:17.777Z</time></trkpt><trkpt lat="44.8375147" lon="1.0897942"><ele>65.0</ele><time>2026-04-06T20:16:19.774Z</time></trkpt><trkpt lat="44.8374284" lon="1.0898057"><ele>65.0</ele><time>2026-04-06T20:16:21.778Z</time></trkpt><trkpt lat="44.8373397" lon="1.0898181"><ele>64.66666666666667</ele><time>2026-04-06T20:16:23.795Z</time></trkpt><trkpt lat="44.8372499" lon="1.089831"><ele>64.33333333333334</ele><time>2026-04-06T20:16:25.777Z</time></trkpt><trkpt lat="44.8371582" lon="1.0898441"><ele>64.0</ele><time>2026-04-06T20:16:27.775Z</time></trkpt><trkpt lat="44.8370645" lon="1.0898569"><ele>63.66666666666667</ele><time>2026-04-06T20:16:29.775Z</time></trkpt><trkpt lat="44.8369761" lon="1.0898682"><ele>63.333333333333336</ele><time>2026-04-06T20:16:31.773Z</time></trkpt><trkpt lat="44.8368972" lon="1.0898781"><ele>63.0</ele><time>2026-04-06T20:16:33.795Z</time></trkpt><trkpt lat="44.8368249" lon="1.0898834"><ele>63.166666666666664</ele><time>2026-04-06T20:16:35.778Z</time></trkpt><trkpt lat="44.8367551" lon="1.0898853"><ele>63.33333333333333</ele><time>2026-04-06T20:16:37.773Z</time></trkpt><trkpt lat="44.8366816" lon="1.089885"><ele>63.5</ele><time>2026-04-06T20:16:39.786Z</time></trkpt><trkpt lat="44.8366064" lon="1.0898881"><ele>63.666666666666664</ele><time>2026-04-06T20:16:41.776Z</time></trkpt><trkpt lat="44.8365306" lon="1.0899006"><ele>63.83333333333333</ele><time>2026-04-06T20:16:43.789Z</time></trkpt><trkpt lat="44.8364526" lon="1.0899074"><ele>64.0</ele><time>2026-04-06T20:16:45.778Z</time></trkpt><trkpt lat="44.8363744" lon="1.0899233"><ele>63.99999999999999</ele><time>2026-04-06T20:16:47.775Z</time></trkpt><trkpt lat="44.8362992" lon="1.0899528"><ele>64.0</ele><time>2026-04-06T20:16:49.774Z</time></trkpt><trkpt lat="44.8362242" lon="1.0899908"><ele>64.0</ele><time>2026-04-06T20:16:51.795Z</time></trkpt><trkpt lat="44.8361501" lon="1.0900354"><ele>64.0</ele><time>2026-04-06T20:16:53.773Z</time></trkpt><trkpt lat="44.8360767" lon="1.0900846"><ele>63.99999999999999</ele><time>2026-04-06T20:16:55.778Z</time></trkpt><trkpt lat="44.8360065" lon="1.0901322"><ele>64.0</ele><time>2026-04-06T20:16:57.777Z</time></trkpt><trkpt lat="44.8359379" lon="1.0901833"><ele>63.99999999999999</ele><time>2026-04-06T20:16:59.787Z</time></trkpt><trkpt lat="44.835868" lon="1.0902351"><ele>64.0</ele><time>2026-04-06T20:17:01.783Z</time></trkpt><trkpt lat="44.8357973" lon="1.0902903"><ele>64.0</ele><time>2026-04-06T20:17:03.776Z</time></trkpt><trkpt lat="44.8357257" lon="1.0903439"><ele>64.0</ele><time>2026-04-06T20:17:05.78Z</time></trkpt><trkpt lat="44.8356539" lon="1.0903968"><ele>63.99999999999999</ele><time>2026-04-06T20:17:07.788Z</time></trkpt><trkpt lat="44.83558" lon="1.0904467"><ele>64.0</ele><time>2026-04-06T20:17:09.778Z</time></trkpt><trkpt lat="44.835506" lon="1.0904969"><ele>63.99999999999999</ele><time>2026-04-06T20:17:11.778Z</time></trkpt><trkpt lat="44.8354341" lon="1.0905466"><ele>64.0</ele><time>2026-04-06T20:17:13.772Z</time></trkpt><trkpt lat="44.8353588" lon="1.0905967"><ele>64.0</ele><time>2026-04-06T20:17:15.775Z</time></trkpt><trkpt lat="44.8352822" lon="1.0906543"><ele>64.0</ele><time>2026-04-06T20:17:17.777Z</time></trkpt><trkpt lat="44.8352082" lon="1.0907198"><ele>63.99999999999999</ele><time>2026-04-06T20:17:19.779Z</time></trkpt><trkpt lat="44.8351312" lon="1.0907813"><ele>64.0</ele><time>2026-04-06T20:17:21.777Z</time></trkpt><trkpt lat="44.8350543" lon="1.090844"><ele>63.99999999999999</ele><time>2026-04-06T20:17:23.773Z</time></trkpt><trkpt lat="44.8349787" lon="1.0909083"><ele>64.0</ele><time>2026-04-06T20:17:25.771Z</time></trkpt><trkpt lat="44.8349099" lon="1.0909728"><ele>64.0</ele><time>2026-04-06T20:17:27.776Z</time></trkpt><trkpt lat="44.8348431" lon="1.0910426"><ele>64.0</ele><time>2026-04-06T20:17:29.772Z</time></trkpt><trkpt lat="44.8347741" lon="1.0911184"><ele>63.99999999999999</ele><time>2026-04-06T20:17:31.786Z</time></trkpt><trkpt lat="44.834703" lon="1.0911966"><ele>64.0</ele><time>2026-04-06T20:17:33.775Z</time></trkpt><trkpt lat="44.8346288" lon="1.091272"><ele>63.99999999999999</ele><time>2026-04-06T20:17:35.795Z</time></trkpt><trkpt lat="44.8345529" lon="1.091342"><ele>64.0</ele><time>2026-04-06T20:17:37.776Z</time></trkpt><trkpt lat="44.8344803" lon="1.091411"><ele>64.0</ele><time>2026-04-06T20:17:39.782Z</time></trkpt><trkpt lat="44.8344062" lon="1.0914842"><ele>64.0</ele><time>2026-04-06T20:17:41.776Z</time></trkpt><trkpt lat="44.8343289" lon="1.0915587"><ele>63.99999999999999</ele><time>2026-04-06T20:17:43.776Z</time></trkpt><trkpt lat="44.8342561" lon="1.0916172"><ele>64.0</ele><time>2026-04-06T20:17:45.791Z</time></trkpt><trkpt lat="44.8341959" lon="1.0916703"><ele>63.99999999999999</ele><time>2026-04-06T20:17:47.776Z</time></trkpt><trkpt lat="44.8341373" lon="1.0917323"><ele>64.0</ele><time>2026-04-06T20:17:49.784Z</time></trkpt><trkpt lat="44.8340651" lon="1.0918088"><ele>64.0</ele><time>2026-04-06T20:17:51.776Z</time></trkpt><trkpt lat="44.8339942" lon="1.091881"><ele>64.0</ele><time>2026-04-06T20:17:53.776Z</time></trkpt><trkpt lat="44.8339269" lon="1.0919385"><ele>63.99999999999999</ele><time>2026-04-06T20:17:55.776Z</time></trkpt><trkpt lat="44.833858" lon="1.0919892"><ele>64.0</ele><time>2026-04-06T20:17:57.785Z</time></trkpt><trkpt lat="44.8337859" lon="1.0920447"><ele>64.0</ele><time>2026-04-06T20:17:59.78Z</time></trkpt><trkpt lat="44.8337143" lon="1.0921016"><ele>63.99999999999999</ele><time>2026-04-06T20:18:01.774Z</time></trkpt><trkpt lat="44.8336513" lon="1.0921507"><ele>64.0</ele><time>2026-04-06T20:18:03.776Z</time></trkpt><trkpt lat="44.8335961" lon="1.0921956"><ele>64.0</ele><time>2026-04-06T20:18:05.778Z</time></trkpt><trkpt lat="44.8335186" lon="1.092261"><ele>63.99999999999999</ele><time>2026-04-06T20:18:08.778Z</time></trkpt><trkpt lat="44.8334915" lon="1.0923415"><ele>64.0</ele><time>2026-04-06T20:18:11.78Z</time></trkpt><trkpt lat="44.8335179" lon="1.092424"><ele>64.0</ele><time>2026-04-06T20:18:14.78Z</time></trkpt><trkpt lat="44.8335894" lon="1.0924946"><ele>64.0</ele><time>2026-04-06T20:18:17.781Z</time></trkpt><trkpt lat="44.8336732" lon="1.0925383"><ele>63.99999999999999</ele><time>2026-04-06T20:18:20.776Z</time></trkpt><trkpt lat="44.8337467" lon="1.0925064"><ele>64.0</ele><time>2026-04-06T20:18:23.781Z</time></trkpt><trkpt lat="44.8337853" lon="1.0924339"><ele>64.0</ele><time>2026-04-06T20:18:25.786Z</time></trkpt><trkpt lat="44.8338364" lon="1.092365"><ele>63.99999999999999</ele><time>2026-04-06T20:18:27.777Z</time></trkpt><trkpt lat="44.8338967" lon="1.0923068"><ele>64.0</ele><time>2026-04-06T20:18:29.781Z</time></trkpt><trkpt lat="44.8339541" lon="1.0922476"><ele>64.0</ele><time>2026-04-06T20:18:31.773Z</time></trkpt><trkpt lat="44.8340102" lon="1.0921843"><ele>64.0</ele><time>2026-04-06T20:18:33.781Z</time></trkpt><trkpt lat="44.8340759" lon="1.0921171"><ele>63.99999999999999</ele><time>2026-04-06T20:18:35.775Z</time></trkpt><trkpt lat="44.8341477" lon="1.0920712"><ele>64.0</ele><time>2026-04-06T20:18:37.782Z</time></trkpt><trkpt lat="44.8342178" lon="1.0920539"><ele>64.0</ele><time>2026-04-06T20:18:39.793Z</time></trkpt><trkpt lat="44.8342823" lon="1.0920644"><ele>63.99999999999999</ele><time>2026-04-06T20:18:41.784Z</time></trkpt><trkpt lat="44.8343615" lon="1.0920329"><ele>64.0</ele><time>2026-04-06T20:18:44.776Z</time></trkpt><trkpt lat="44.8344207" lon="1.0919802"><ele>64.0</ele><time>2026-04-06T20:18:47.772Z</time></trkpt><trkpt lat="44.8344784" lon="1.0919232"><ele>64.14285714285714</ele><time>2026-04-06T20:19:43.775Z</time></trkpt><trkpt lat="44.8344146" lon="1.0919741"><ele>64.28571428571428</ele><time>2026-04-06T20:26:58.757Z</time></trkpt><trkpt lat="44.8343778" lon="1.0920478"><ele>64.42857142857143</ele><time>2026-04-06T20:27:03.782Z</time></trkpt><trkpt lat="44.8344021" lon="1.0921316"><ele>64.57142857142857</ele><time>2026-04-06T20:27:09.813Z</time></trkpt><trkpt lat="44.8344478" lon="1.0922114"><ele>64.71428571428572</ele><time>2026-04-06T20:27:16.788Z</time></trkpt><trkpt lat="44.8344938" lon="1.0922735"><ele>64.85714285714286</ele><time>2026-04-06T20:27:21.853Z</time></trkpt><trkpt lat="44.8345628" lon="1.0923134"><ele>65.0</ele><time>2026-04-06T20:27:27.817Z</time></trkpt><trkpt lat="44.8345973" lon="1.0922275"><ele>65.0</ele><time>2026-04-06T20:27:39.85Z</time></trkpt></trkseg></trk></gpx>